<?xml version="1.0" encoding="UTF-8" standalone="no" ?>
<gpx xmlns="http://www.topografix.com/GPX/1/1" xmlns:xsi="http://www.w3.org/2001/XMLSchema-instance" xsi:schemaLocation="http://www.topografix.com/GPX/1/1 http://www.topografix.com/GPX/1/1/gpx.xsd" version="1.1" creator="VisuGPX - https://www.visugpx.com">
  <metadata>
    <name>reconnaissance rando de la pomme</name>
    <desc><![CDATA[reconnaissance rando de la pomme 2011]]></desc>
  </metadata>
  <wpt lat="45.3231" lon="1.45894">
    <ele>362</ele>
    <name><![CDATA[Point de passage]]></name>
    <desc><![CDATA[]]></desc>
  </wpt>
  <wpt lat="45.3735" lon="1.41651">
    <ele>404</ele>
    <name><![CDATA[Point de passage]]></name>
    <desc><![CDATA[]]></desc>
  </wpt>
  <trk>
    <name><![CDATA[2011-08-28 10:11]]></name>
    <desc><![CDATA[

]]></desc>
    <trkseg>
      <trkpt lat="45.30438" lon="1.44901">
        <ele>460</ele>
        <time>2011-08-28T08:10:46Z</time>
      </trkpt>
      <trkpt lat="45.30446" lon="1.44892">
        <ele>455</ele>
        <time>2011-08-28T08:10:47Z</time>
      </trkpt>
      <trkpt lat="45.30446" lon="1.44892">
        <ele>455</ele>
        <time>2011-08-28T08:10:47Z</time>
      </trkpt>
      <trkpt lat="45.30446" lon="1.44892">
        <ele>455</ele>
        <time>2011-08-28T08:11:04Z</time>
      </trkpt>
      <trkpt lat="45.30439" lon="1.44887">
        <ele>441</ele>
        <time>2011-08-28T08:11:05Z</time>
      </trkpt>
      <trkpt lat="45.30439" lon="1.44887">
        <ele>441</ele>
        <time>2011-08-28T08:11:05Z</time>
      </trkpt>
      <trkpt lat="45.30439" lon="1.44887">
        <ele>444</ele>
        <time>2011-08-28T08:11:17Z</time>
      </trkpt>
      <trkpt lat="45.3044" lon="1.4488">
        <ele>436</ele>
        <time>2011-08-28T08:12:32Z</time>
      </trkpt>
      <trkpt lat="45.30435" lon="1.44884">
        <ele>441</ele>
        <time>2011-08-28T08:12:36Z</time>
      </trkpt>
      <trkpt lat="45.30432" lon="1.4489">
        <ele>441</ele>
        <time>2011-08-28T08:12:39Z</time>
      </trkpt>
      <trkpt lat="45.30429" lon="1.44896">
        <ele>439</ele>
        <time>2011-08-28T08:12:43Z</time>
      </trkpt>
      <trkpt lat="45.30432" lon="1.44891">
        <ele>435</ele>
        <time>2011-08-28T08:13:08Z</time>
      </trkpt>
      <trkpt lat="45.30436" lon="1.44885">
        <ele>441</ele>
        <time>2011-08-28T08:13:13Z</time>
      </trkpt>
      <trkpt lat="45.3044" lon="1.44882">
        <ele>439</ele>
        <time>2011-08-28T08:13:32Z</time>
      </trkpt>
      <trkpt lat="45.30436" lon="1.44887">
        <ele>436</ele>
        <time>2011-08-28T08:13:41Z</time>
      </trkpt>
      <trkpt lat="45.30433" lon="1.44891">
        <ele>438</ele>
        <time>2011-08-28T08:13:45Z</time>
      </trkpt>
      <trkpt lat="45.3043" lon="1.44897">
        <ele>438</ele>
        <time>2011-08-28T08:14:00Z</time>
      </trkpt>
      <trkpt lat="45.30426" lon="1.44896">
        <ele>437</ele>
        <time>2011-08-28T08:15:36Z</time>
      </trkpt>
      <trkpt lat="45.30421" lon="1.449">
        <ele>437</ele>
        <time>2011-08-28T08:15:40Z</time>
      </trkpt>
      <trkpt lat="45.30418" lon="1.44905">
        <ele>436</ele>
        <time>2011-08-28T08:15:42Z</time>
      </trkpt>
      <trkpt lat="45.30414" lon="1.4491">
        <ele>436</ele>
        <time>2011-08-28T08:15:44Z</time>
      </trkpt>
      <trkpt lat="45.3041" lon="1.44914">
        <ele>436</ele>
        <time>2011-08-28T08:15:46Z</time>
      </trkpt>
      <trkpt lat="45.30405" lon="1.44918">
        <ele>436</ele>
        <time>2011-08-28T08:15:48Z</time>
      </trkpt>
      <trkpt lat="45.304" lon="1.44922">
        <ele>437</ele>
        <time>2011-08-28T08:15:50Z</time>
      </trkpt>
      <trkpt lat="45.30395" lon="1.44927">
        <ele>437</ele>
        <time>2011-08-28T08:15:52Z</time>
      </trkpt>
      <trkpt lat="45.30389" lon="1.44932">
        <ele>438</ele>
        <time>2011-08-28T08:15:54Z</time>
      </trkpt>
      <trkpt lat="45.30384" lon="1.44938">
        <ele>438</ele>
        <time>2011-08-28T08:15:56Z</time>
      </trkpt>
      <trkpt lat="45.30378" lon="1.44944">
        <ele>438</ele>
        <time>2011-08-28T08:15:58Z</time>
      </trkpt>
      <trkpt lat="45.30373" lon="1.4495">
        <ele>437</ele>
        <time>2011-08-28T08:16:00Z</time>
      </trkpt>
      <trkpt lat="45.30368" lon="1.44956">
        <ele>437</ele>
        <time>2011-08-28T08:16:02Z</time>
      </trkpt>
      <trkpt lat="45.30364" lon="1.44961">
        <ele>436</ele>
        <time>2011-08-28T08:16:04Z</time>
      </trkpt>
      <trkpt lat="45.30359" lon="1.44968">
        <ele>437</ele>
        <time>2011-08-28T08:16:06Z</time>
      </trkpt>
      <trkpt lat="45.30353" lon="1.44976">
        <ele>437</ele>
        <time>2011-08-28T08:16:08Z</time>
      </trkpt>
      <trkpt lat="45.30348" lon="1.44986">
        <ele>437</ele>
        <time>2011-08-28T08:16:10Z</time>
      </trkpt>
      <trkpt lat="45.30345" lon="1.44992">
        <ele>437</ele>
        <time>2011-08-28T08:16:11Z</time>
      </trkpt>
      <trkpt lat="45.30342" lon="1.44997">
        <ele>437</ele>
        <time>2011-08-28T08:16:12Z</time>
      </trkpt>
      <trkpt lat="45.3034" lon="1.45003">
        <ele>437</ele>
        <time>2011-08-28T08:16:13Z</time>
      </trkpt>
      <trkpt lat="45.30337" lon="1.45009">
        <ele>437</ele>
        <time>2011-08-28T08:16:14Z</time>
      </trkpt>
      <trkpt lat="45.30335" lon="1.45014">
        <ele>437</ele>
        <time>2011-08-28T08:16:15Z</time>
      </trkpt>
      <trkpt lat="45.30329" lon="1.45025">
        <ele>438</ele>
        <time>2011-08-28T08:16:17Z</time>
      </trkpt>
      <trkpt lat="45.30327" lon="1.4503">
        <ele>438</ele>
        <time>2011-08-28T08:16:18Z</time>
      </trkpt>
      <trkpt lat="45.30324" lon="1.45036">
        <ele>437</ele>
        <time>2011-08-28T08:16:19Z</time>
      </trkpt>
      <trkpt lat="45.30321" lon="1.45041">
        <ele>437</ele>
        <time>2011-08-28T08:16:20Z</time>
      </trkpt>
      <trkpt lat="45.30319" lon="1.45046">
        <ele>437</ele>
        <time>2011-08-28T08:16:21Z</time>
      </trkpt>
      <trkpt lat="45.30316" lon="1.45052">
        <ele>437</ele>
        <time>2011-08-28T08:16:22Z</time>
      </trkpt>
      <trkpt lat="45.30314" lon="1.45057">
        <ele>437</ele>
        <time>2011-08-28T08:16:23Z</time>
      </trkpt>
      <trkpt lat="45.30311" lon="1.45062">
        <ele>437</ele>
        <time>2011-08-28T08:16:24Z</time>
      </trkpt>
      <trkpt lat="45.30308" lon="1.45068">
        <ele>437</ele>
        <time>2011-08-28T08:16:25Z</time>
      </trkpt>
      <trkpt lat="45.30305" lon="1.45073">
        <ele>437</ele>
        <time>2011-08-28T08:16:26Z</time>
      </trkpt>
      <trkpt lat="45.30302" lon="1.45079">
        <ele>437</ele>
        <time>2011-08-28T08:16:27Z</time>
      </trkpt>
      <trkpt lat="45.30299" lon="1.45084">
        <ele>436</ele>
        <time>2011-08-28T08:16:28Z</time>
      </trkpt>
      <trkpt lat="45.30296" lon="1.45089">
        <ele>437</ele>
        <time>2011-08-28T08:16:29Z</time>
      </trkpt>
      <trkpt lat="45.30291" lon="1.45099">
        <ele>436</ele>
        <time>2011-08-28T08:16:31Z</time>
      </trkpt>
      <trkpt lat="45.30288" lon="1.45104">
        <ele>436</ele>
        <time>2011-08-28T08:16:32Z</time>
      </trkpt>
      <trkpt lat="45.30282" lon="1.45114">
        <ele>436</ele>
        <time>2011-08-28T08:16:34Z</time>
      </trkpt>
      <trkpt lat="45.30276" lon="1.45122">
        <ele>438</ele>
        <time>2011-08-28T08:16:36Z</time>
      </trkpt>
      <trkpt lat="45.30273" lon="1.45127">
        <ele>437</ele>
        <time>2011-08-28T08:16:37Z</time>
      </trkpt>
      <trkpt lat="45.3027" lon="1.45132">
        <ele>437</ele>
        <time>2011-08-28T08:16:38Z</time>
      </trkpt>
      <trkpt lat="45.30267" lon="1.45136">
        <ele>437</ele>
        <time>2011-08-28T08:16:39Z</time>
      </trkpt>
      <trkpt lat="45.30261" lon="1.45146">
        <ele>437</ele>
        <time>2011-08-28T08:16:41Z</time>
      </trkpt>
      <trkpt lat="45.30256" lon="1.45155">
        <ele>437</ele>
        <time>2011-08-28T08:16:43Z</time>
      </trkpt>
      <trkpt lat="45.3025" lon="1.45165">
        <ele>436</ele>
        <time>2011-08-28T08:16:45Z</time>
      </trkpt>
      <trkpt lat="45.30245" lon="1.45175">
        <ele>436</ele>
        <time>2011-08-28T08:16:47Z</time>
      </trkpt>
      <trkpt lat="45.3024" lon="1.45184">
        <ele>436</ele>
        <time>2011-08-28T08:16:49Z</time>
      </trkpt>
      <trkpt lat="45.30235" lon="1.45194">
        <ele>436</ele>
        <time>2011-08-28T08:16:51Z</time>
      </trkpt>
      <trkpt lat="45.3023" lon="1.45204">
        <ele>436</ele>
        <time>2011-08-28T08:16:53Z</time>
      </trkpt>
      <trkpt lat="45.30226" lon="1.45213">
        <ele>436</ele>
        <time>2011-08-28T08:16:55Z</time>
      </trkpt>
      <trkpt lat="45.30221" lon="1.45223">
        <ele>436</ele>
        <time>2011-08-28T08:16:57Z</time>
      </trkpt>
      <trkpt lat="45.30215" lon="1.45234">
        <ele>436</ele>
        <time>2011-08-28T08:16:59Z</time>
      </trkpt>
      <trkpt lat="45.30213" lon="1.45239">
        <ele>436</ele>
        <time>2011-08-28T08:17:00Z</time>
      </trkpt>
      <trkpt lat="45.30208" lon="1.45249">
        <ele>437</ele>
        <time>2011-08-28T08:17:02Z</time>
      </trkpt>
      <trkpt lat="45.30203" lon="1.45259">
        <ele>436</ele>
        <time>2011-08-28T08:17:04Z</time>
      </trkpt>
      <trkpt lat="45.30199" lon="1.45269">
        <ele>436</ele>
        <time>2011-08-28T08:17:06Z</time>
      </trkpt>
      <trkpt lat="45.30195" lon="1.45279">
        <ele>436</ele>
        <time>2011-08-28T08:17:08Z</time>
      </trkpt>
      <trkpt lat="45.3019" lon="1.45289">
        <ele>436</ele>
        <time>2011-08-28T08:17:10Z</time>
      </trkpt>
      <trkpt lat="45.30186" lon="1.45298">
        <ele>436</ele>
        <time>2011-08-28T08:17:12Z</time>
      </trkpt>
      <trkpt lat="45.30181" lon="1.45309">
        <ele>436</ele>
        <time>2011-08-28T08:17:14Z</time>
      </trkpt>
      <trkpt lat="45.30178" lon="1.45319">
        <ele>437</ele>
        <time>2011-08-28T08:17:16Z</time>
      </trkpt>
      <trkpt lat="45.30176" lon="1.45329">
        <ele>438</ele>
        <time>2011-08-28T08:17:18Z</time>
      </trkpt>
      <trkpt lat="45.30173" lon="1.45341">
        <ele>437</ele>
        <time>2011-08-28T08:17:20Z</time>
      </trkpt>
      <trkpt lat="45.30172" lon="1.45353">
        <ele>437</ele>
        <time>2011-08-28T08:17:22Z</time>
      </trkpt>
      <trkpt lat="45.3017" lon="1.45364">
        <ele>438</ele>
        <time>2011-08-28T08:17:24Z</time>
      </trkpt>
      <trkpt lat="45.30169" lon="1.4537">
        <ele>438</ele>
        <time>2011-08-28T08:17:25Z</time>
      </trkpt>
      <trkpt lat="45.30168" lon="1.45382">
        <ele>438</ele>
        <time>2011-08-28T08:17:27Z</time>
      </trkpt>
      <trkpt lat="45.30166" lon="1.45388">
        <ele>438</ele>
        <time>2011-08-28T08:17:28Z</time>
      </trkpt>
      <trkpt lat="45.30166" lon="1.45395">
        <ele>438</ele>
        <time>2011-08-28T08:17:29Z</time>
      </trkpt>
      <trkpt lat="45.30164" lon="1.45406">
        <ele>438</ele>
        <time>2011-08-28T08:17:31Z</time>
      </trkpt>
      <trkpt lat="45.30162" lon="1.45416">
        <ele>438</ele>
        <time>2011-08-28T08:17:33Z</time>
      </trkpt>
      <trkpt lat="45.3016" lon="1.45426">
        <ele>438</ele>
        <time>2011-08-28T08:17:35Z</time>
      </trkpt>
      <trkpt lat="45.30158" lon="1.45436">
        <ele>440</ele>
        <time>2011-08-28T08:17:37Z</time>
      </trkpt>
      <trkpt lat="45.30155" lon="1.45445">
        <ele>441</ele>
        <time>2011-08-28T08:17:39Z</time>
      </trkpt>
      <trkpt lat="45.30152" lon="1.45455">
        <ele>441</ele>
        <time>2011-08-28T08:17:41Z</time>
      </trkpt>
      <trkpt lat="45.30149" lon="1.45465">
        <ele>441</ele>
        <time>2011-08-28T08:17:43Z</time>
      </trkpt>
      <trkpt lat="45.30146" lon="1.45476">
        <ele>441</ele>
        <time>2011-08-28T08:17:45Z</time>
      </trkpt>
      <trkpt lat="45.30143" lon="1.45487">
        <ele>440</ele>
        <time>2011-08-28T08:17:47Z</time>
      </trkpt>
      <trkpt lat="45.3014" lon="1.45497">
        <ele>441</ele>
        <time>2011-08-28T08:17:49Z</time>
      </trkpt>
      <trkpt lat="45.30138" lon="1.45507">
        <ele>441</ele>
        <time>2011-08-28T08:17:51Z</time>
      </trkpt>
      <trkpt lat="45.30137" lon="1.45519">
        <ele>441</ele>
        <time>2011-08-28T08:17:53Z</time>
      </trkpt>
      <trkpt lat="45.30138" lon="1.45531">
        <ele>440</ele>
        <time>2011-08-28T08:17:55Z</time>
      </trkpt>
      <trkpt lat="45.30139" lon="1.45542">
        <ele>441</ele>
        <time>2011-08-28T08:17:57Z</time>
      </trkpt>
      <trkpt lat="45.30143" lon="1.45553">
        <ele>439</ele>
        <time>2011-08-28T08:17:59Z</time>
      </trkpt>
      <trkpt lat="45.30148" lon="1.45563">
        <ele>437</ele>
        <time>2011-08-28T08:18:01Z</time>
      </trkpt>
      <trkpt lat="45.30152" lon="1.45568">
        <ele>438</ele>
        <time>2011-08-28T08:18:02Z</time>
      </trkpt>
      <trkpt lat="45.30155" lon="1.45573">
        <ele>438</ele>
        <time>2011-08-28T08:18:03Z</time>
      </trkpt>
      <trkpt lat="45.30158" lon="1.45578">
        <ele>438</ele>
        <time>2011-08-28T08:18:04Z</time>
      </trkpt>
      <trkpt lat="45.30162" lon="1.45583">
        <ele>438</ele>
        <time>2011-08-28T08:18:05Z</time>
      </trkpt>
      <trkpt lat="45.30165" lon="1.45587">
        <ele>437</ele>
        <time>2011-08-28T08:18:06Z</time>
      </trkpt>
      <trkpt lat="45.30171" lon="1.45594">
        <ele>437</ele>
        <time>2011-08-28T08:18:08Z</time>
      </trkpt>
      <trkpt lat="45.30176" lon="1.45602">
        <ele>435</ele>
        <time>2011-08-28T08:18:10Z</time>
      </trkpt>
      <trkpt lat="45.30181" lon="1.45613">
        <ele>436</ele>
        <time>2011-08-28T08:18:12Z</time>
      </trkpt>
      <trkpt lat="45.30184" lon="1.4562">
        <ele>434</ele>
        <time>2011-08-28T08:18:13Z</time>
      </trkpt>
      <trkpt lat="45.30186" lon="1.45629">
        <ele>434</ele>
        <time>2011-08-28T08:18:14Z</time>
      </trkpt>
      <trkpt lat="45.30187" lon="1.45637">
        <ele>434</ele>
        <time>2011-08-28T08:18:15Z</time>
      </trkpt>
      <trkpt lat="45.30188" lon="1.45645">
        <ele>434</ele>
        <time>2011-08-28T08:18:16Z</time>
      </trkpt>
      <trkpt lat="45.30188" lon="1.45652">
        <ele>435</ele>
        <time>2011-08-28T08:18:17Z</time>
      </trkpt>
      <trkpt lat="45.30187" lon="1.45659">
        <ele>435</ele>
        <time>2011-08-28T08:18:18Z</time>
      </trkpt>
      <trkpt lat="45.30187" lon="1.45666">
        <ele>436</ele>
        <time>2011-08-28T08:18:19Z</time>
      </trkpt>
      <trkpt lat="45.30187" lon="1.45674">
        <ele>436</ele>
        <time>2011-08-28T08:18:20Z</time>
      </trkpt>
      <trkpt lat="45.30187" lon="1.45681">
        <ele>436</ele>
        <time>2011-08-28T08:18:21Z</time>
      </trkpt>
      <trkpt lat="45.30187" lon="1.45688">
        <ele>436</ele>
        <time>2011-08-28T08:18:22Z</time>
      </trkpt>
      <trkpt lat="45.30187" lon="1.45696">
        <ele>436</ele>
        <time>2011-08-28T08:18:23Z</time>
      </trkpt>
      <trkpt lat="45.30187" lon="1.45704">
        <ele>435</ele>
        <time>2011-08-28T08:18:24Z</time>
      </trkpt>
      <trkpt lat="45.30188" lon="1.45712">
        <ele>435</ele>
        <time>2011-08-28T08:18:25Z</time>
      </trkpt>
      <trkpt lat="45.30188" lon="1.4572">
        <ele>434</ele>
        <time>2011-08-28T08:18:26Z</time>
      </trkpt>
      <trkpt lat="45.30189" lon="1.45728">
        <ele>433</ele>
        <time>2011-08-28T08:18:27Z</time>
      </trkpt>
      <trkpt lat="45.30191" lon="1.45736">
        <ele>433</ele>
        <time>2011-08-28T08:18:28Z</time>
      </trkpt>
      <trkpt lat="45.30193" lon="1.45743">
        <ele>431</ele>
        <time>2011-08-28T08:18:29Z</time>
      </trkpt>
      <trkpt lat="45.30196" lon="1.4575">
        <ele>430</ele>
        <time>2011-08-28T08:18:30Z</time>
      </trkpt>
      <trkpt lat="45.30198" lon="1.45757">
        <ele>429</ele>
        <time>2011-08-28T08:18:31Z</time>
      </trkpt>
      <trkpt lat="45.30201" lon="1.45764">
        <ele>429</ele>
        <time>2011-08-28T08:18:32Z</time>
      </trkpt>
      <trkpt lat="45.30204" lon="1.4577">
        <ele>429</ele>
        <time>2011-08-28T08:18:33Z</time>
      </trkpt>
      <trkpt lat="45.30206" lon="1.45778">
        <ele>428</ele>
        <time>2011-08-28T08:18:34Z</time>
      </trkpt>
      <trkpt lat="45.30208" lon="1.45784">
        <ele>427</ele>
        <time>2011-08-28T08:18:35Z</time>
      </trkpt>
      <trkpt lat="45.30211" lon="1.45791">
        <ele>426</ele>
        <time>2011-08-28T08:18:36Z</time>
      </trkpt>
      <trkpt lat="45.30213" lon="1.45797">
        <ele>425</ele>
        <time>2011-08-28T08:18:37Z</time>
      </trkpt>
      <trkpt lat="45.30215" lon="1.45803">
        <ele>424</ele>
        <time>2011-08-28T08:18:38Z</time>
      </trkpt>
      <trkpt lat="45.30219" lon="1.45812">
        <ele>423</ele>
        <time>2011-08-28T08:18:40Z</time>
      </trkpt>
      <trkpt lat="45.30222" lon="1.45821">
        <ele>424</ele>
        <time>2011-08-28T08:18:42Z</time>
      </trkpt>
      <trkpt lat="45.30226" lon="1.4583">
        <ele>426</ele>
        <time>2011-08-28T08:18:44Z</time>
      </trkpt>
      <trkpt lat="45.30232" lon="1.45839">
        <ele>425</ele>
        <time>2011-08-28T08:18:46Z</time>
      </trkpt>
      <trkpt lat="45.30237" lon="1.45846">
        <ele>428</ele>
        <time>2011-08-28T08:18:48Z</time>
      </trkpt>
      <trkpt lat="45.30242" lon="1.45853">
        <ele>431</ele>
        <time>2011-08-28T08:18:50Z</time>
      </trkpt>
      <trkpt lat="45.30246" lon="1.45858">
        <ele>433</ele>
        <time>2011-08-28T08:18:52Z</time>
      </trkpt>
      <trkpt lat="45.30249" lon="1.45864">
        <ele>435</ele>
        <time>2011-08-28T08:18:55Z</time>
      </trkpt>
      <trkpt lat="45.30248" lon="1.45871">
        <ele>435</ele>
        <time>2011-08-28T08:18:58Z</time>
      </trkpt>
      <trkpt lat="45.30244" lon="1.45879">
        <ele>435</ele>
        <time>2011-08-28T08:19:00Z</time>
      </trkpt>
      <trkpt lat="45.30239" lon="1.45888">
        <ele>434</ele>
        <time>2011-08-28T08:19:02Z</time>
      </trkpt>
      <trkpt lat="45.30236" lon="1.45893">
        <ele>434</ele>
        <time>2011-08-28T08:19:04Z</time>
      </trkpt>
      <trkpt lat="45.3024" lon="1.45896">
        <ele>431</ele>
        <time>2011-08-28T08:20:13Z</time>
      </trkpt>
      <trkpt lat="45.30244" lon="1.45899">
        <ele>434</ele>
        <time>2011-08-28T08:20:21Z</time>
      </trkpt>
      <trkpt lat="45.3024" lon="1.45901">
        <ele>431</ele>
        <time>2011-08-28T08:20:49Z</time>
      </trkpt>
      <trkpt lat="45.30235" lon="1.45901">
        <ele>430</ele>
        <time>2011-08-28T08:21:33Z</time>
      </trkpt>
      <trkpt lat="45.30229" lon="1.45903">
        <ele>428</ele>
        <time>2011-08-28T08:21:36Z</time>
      </trkpt>
      <trkpt lat="45.30225" lon="1.45907">
        <ele>427</ele>
        <time>2011-08-28T08:21:38Z</time>
      </trkpt>
      <trkpt lat="45.30221" lon="1.45911">
        <ele>428</ele>
        <time>2011-08-28T08:21:40Z</time>
      </trkpt>
      <trkpt lat="45.30216" lon="1.45916">
        <ele>428</ele>
        <time>2011-08-28T08:21:42Z</time>
      </trkpt>
      <trkpt lat="45.30212" lon="1.4592">
        <ele>428</ele>
        <time>2011-08-28T08:21:44Z</time>
      </trkpt>
      <trkpt lat="45.30207" lon="1.45925">
        <ele>428</ele>
        <time>2011-08-28T08:21:46Z</time>
      </trkpt>
      <trkpt lat="45.30203" lon="1.4593">
        <ele>428</ele>
        <time>2011-08-28T08:21:48Z</time>
      </trkpt>
      <trkpt lat="45.30197" lon="1.45935">
        <ele>428</ele>
        <time>2011-08-28T08:21:50Z</time>
      </trkpt>
      <trkpt lat="45.3019" lon="1.45941">
        <ele>428</ele>
        <time>2011-08-28T08:21:52Z</time>
      </trkpt>
      <trkpt lat="45.30184" lon="1.45948">
        <ele>429</ele>
        <time>2011-08-28T08:21:54Z</time>
      </trkpt>
      <trkpt lat="45.30179" lon="1.45954">
        <ele>428</ele>
        <time>2011-08-28T08:21:56Z</time>
      </trkpt>
      <trkpt lat="45.30174" lon="1.45962">
        <ele>426</ele>
        <time>2011-08-28T08:21:58Z</time>
      </trkpt>
      <trkpt lat="45.30169" lon="1.45969">
        <ele>427</ele>
        <time>2011-08-28T08:22:00Z</time>
      </trkpt>
      <trkpt lat="45.30163" lon="1.45975">
        <ele>427</ele>
        <time>2011-08-28T08:22:02Z</time>
      </trkpt>
      <trkpt lat="45.30156" lon="1.4598">
        <ele>425</ele>
        <time>2011-08-28T08:22:04Z</time>
      </trkpt>
      <trkpt lat="45.30148" lon="1.45985">
        <ele>424</ele>
        <time>2011-08-28T08:22:06Z</time>
      </trkpt>
      <trkpt lat="45.30142" lon="1.45986">
        <ele>424</ele>
        <time>2011-08-28T08:22:07Z</time>
      </trkpt>
      <trkpt lat="45.30137" lon="1.45987">
        <ele>424</ele>
        <time>2011-08-28T08:22:08Z</time>
      </trkpt>
      <trkpt lat="45.30132" lon="1.45988">
        <ele>424</ele>
        <time>2011-08-28T08:22:09Z</time>
      </trkpt>
      <trkpt lat="45.30127" lon="1.45987">
        <ele>423</ele>
        <time>2011-08-28T08:22:10Z</time>
      </trkpt>
      <trkpt lat="45.30121" lon="1.45986">
        <ele>422</ele>
        <time>2011-08-28T08:22:11Z</time>
      </trkpt>
      <trkpt lat="45.30115" lon="1.45984">
        <ele>421</ele>
        <time>2011-08-28T08:22:12Z</time>
      </trkpt>
      <trkpt lat="45.3011" lon="1.4598">
        <ele>421</ele>
        <time>2011-08-28T08:22:13Z</time>
      </trkpt>
      <trkpt lat="45.30103" lon="1.45977">
        <ele>421</ele>
        <time>2011-08-28T08:22:14Z</time>
      </trkpt>
      <trkpt lat="45.30097" lon="1.45973">
        <ele>421</ele>
        <time>2011-08-28T08:22:15Z</time>
      </trkpt>
      <trkpt lat="45.30091" lon="1.45971">
        <ele>420</ele>
        <time>2011-08-28T08:22:16Z</time>
      </trkpt>
      <trkpt lat="45.30084" lon="1.4597">
        <ele>419</ele>
        <time>2011-08-28T08:22:17Z</time>
      </trkpt>
      <trkpt lat="45.30077" lon="1.45971">
        <ele>419</ele>
        <time>2011-08-28T08:22:18Z</time>
      </trkpt>
      <trkpt lat="45.30071" lon="1.45971">
        <ele>420</ele>
        <time>2011-08-28T08:22:19Z</time>
      </trkpt>
      <trkpt lat="45.30065" lon="1.45972">
        <ele>420</ele>
        <time>2011-08-28T08:22:20Z</time>
      </trkpt>
      <trkpt lat="45.3006" lon="1.45972">
        <ele>420</ele>
        <time>2011-08-28T08:22:21Z</time>
      </trkpt>
      <trkpt lat="45.30052" lon="1.45973">
        <ele>421</ele>
        <time>2011-08-28T08:22:23Z</time>
      </trkpt>
      <trkpt lat="45.30046" lon="1.45974">
        <ele>422</ele>
        <time>2011-08-28T08:22:25Z</time>
      </trkpt>
      <trkpt lat="45.30041" lon="1.45976">
        <ele>422</ele>
        <time>2011-08-28T08:22:27Z</time>
      </trkpt>
      <trkpt lat="45.30036" lon="1.45978">
        <ele>423</ele>
        <time>2011-08-28T08:22:30Z</time>
      </trkpt>
      <trkpt lat="45.30029" lon="1.45978">
        <ele>421</ele>
        <time>2011-08-28T08:22:40Z</time>
      </trkpt>
      <trkpt lat="45.30029" lon="1.45978">
        <ele>421</ele>
        <time>2011-08-28T08:22:40Z</time>
      </trkpt>
      <trkpt lat="45.30029" lon="1.45978">
        <ele>421</ele>
        <time>2011-08-28T08:22:49Z</time>
      </trkpt>
      <trkpt lat="45.30024" lon="1.45979">
        <ele>424</ele>
        <time>2011-08-28T08:22:50Z</time>
      </trkpt>
      <trkpt lat="45.30024" lon="1.45979">
        <ele>424</ele>
        <time>2011-08-28T08:22:50Z</time>
      </trkpt>
      <trkpt lat="45.30024" lon="1.45979">
        <ele>424</ele>
        <time>2011-08-28T08:22:53Z</time>
      </trkpt>
      <trkpt lat="45.3002" lon="1.45981">
        <ele>423</ele>
        <time>2011-08-28T08:22:57Z</time>
      </trkpt>
      <trkpt lat="45.30014" lon="1.45984">
        <ele>424</ele>
        <time>2011-08-28T08:23:00Z</time>
      </trkpt>
      <trkpt lat="45.3001" lon="1.45985">
        <ele>425</ele>
        <time>2011-08-28T08:23:02Z</time>
      </trkpt>
      <trkpt lat="45.30005" lon="1.45986">
        <ele>425</ele>
        <time>2011-08-28T08:23:04Z</time>
      </trkpt>
      <trkpt lat="45.29999" lon="1.45989">
        <ele>425</ele>
        <time>2011-08-28T08:23:07Z</time>
      </trkpt>
      <trkpt lat="45.29994" lon="1.45991">
        <ele>425</ele>
        <time>2011-08-28T08:23:09Z</time>
      </trkpt>
      <trkpt lat="45.29987" lon="1.45994">
        <ele>425</ele>
        <time>2011-08-28T08:23:11Z</time>
      </trkpt>
      <trkpt lat="45.2998" lon="1.45997">
        <ele>426</ele>
        <time>2011-08-28T08:23:13Z</time>
      </trkpt>
      <trkpt lat="45.29972" lon="1.46">
        <ele>426</ele>
        <time>2011-08-28T08:23:15Z</time>
      </trkpt>
      <trkpt lat="45.29966" lon="1.46002">
        <ele>424</ele>
        <time>2011-08-28T08:23:17Z</time>
      </trkpt>
      <trkpt lat="45.29959" lon="1.46004">
        <ele>424</ele>
        <time>2011-08-28T08:23:19Z</time>
      </trkpt>
      <trkpt lat="45.29954" lon="1.46005">
        <ele>424</ele>
        <time>2011-08-28T08:23:21Z</time>
      </trkpt>
      <trkpt lat="45.29949" lon="1.46007">
        <ele>424</ele>
        <time>2011-08-28T08:23:23Z</time>
      </trkpt>
      <trkpt lat="45.29943" lon="1.4601">
        <ele>424</ele>
        <time>2011-08-28T08:23:26Z</time>
      </trkpt>
      <trkpt lat="45.29937" lon="1.46013">
        <ele>426</ele>
        <time>2011-08-28T08:23:29Z</time>
      </trkpt>
      <trkpt lat="45.29931" lon="1.46016">
        <ele>427</ele>
        <time>2011-08-28T08:23:32Z</time>
      </trkpt>
      <trkpt lat="45.29925" lon="1.46021">
        <ele>429</ele>
        <time>2011-08-28T08:23:35Z</time>
      </trkpt>
      <trkpt lat="45.2992" lon="1.46025">
        <ele>430</ele>
        <time>2011-08-28T08:23:37Z</time>
      </trkpt>
      <trkpt lat="45.29914" lon="1.46029">
        <ele>430</ele>
        <time>2011-08-28T08:23:39Z</time>
      </trkpt>
      <trkpt lat="45.29907" lon="1.46034">
        <ele>430</ele>
        <time>2011-08-28T08:23:41Z</time>
      </trkpt>
      <trkpt lat="45.299" lon="1.46038">
        <ele>430</ele>
        <time>2011-08-28T08:23:43Z</time>
      </trkpt>
      <trkpt lat="45.29893" lon="1.46043">
        <ele>430</ele>
        <time>2011-08-28T08:23:45Z</time>
      </trkpt>
      <trkpt lat="45.29887" lon="1.46047">
        <ele>430</ele>
        <time>2011-08-28T08:23:47Z</time>
      </trkpt>
      <trkpt lat="45.29881" lon="1.46051">
        <ele>430</ele>
        <time>2011-08-28T08:23:49Z</time>
      </trkpt>
      <trkpt lat="45.29874" lon="1.46056">
        <ele>430</ele>
        <time>2011-08-28T08:23:51Z</time>
      </trkpt>
      <trkpt lat="45.29868" lon="1.4606">
        <ele>427</ele>
        <time>2011-08-28T08:23:53Z</time>
      </trkpt>
      <trkpt lat="45.2986" lon="1.46063">
        <ele>429</ele>
        <time>2011-08-28T08:23:55Z</time>
      </trkpt>
      <trkpt lat="45.29852" lon="1.46065">
        <ele>432</ele>
        <time>2011-08-28T08:23:57Z</time>
      </trkpt>
      <trkpt lat="45.29844" lon="1.46066">
        <ele>431</ele>
        <time>2011-08-28T08:23:59Z</time>
      </trkpt>
      <trkpt lat="45.29836" lon="1.46064">
        <ele>433</ele>
        <time>2011-08-28T08:24:01Z</time>
      </trkpt>
      <trkpt lat="45.29832" lon="1.46063">
        <ele>433</ele>
        <time>2011-08-28T08:24:02Z</time>
      </trkpt>
      <trkpt lat="45.29823" lon="1.4606">
        <ele>435</ele>
        <time>2011-08-28T08:24:04Z</time>
      </trkpt>
      <trkpt lat="45.29818" lon="1.46057">
        <ele>435</ele>
        <time>2011-08-28T08:24:05Z</time>
      </trkpt>
      <trkpt lat="45.29813" lon="1.46054">
        <ele>434</ele>
        <time>2011-08-28T08:24:06Z</time>
      </trkpt>
      <trkpt lat="45.29807" lon="1.46051">
        <ele>431</ele>
        <time>2011-08-28T08:24:07Z</time>
      </trkpt>
      <trkpt lat="45.29802" lon="1.46048">
        <ele>429</ele>
        <time>2011-08-28T08:24:08Z</time>
      </trkpt>
      <trkpt lat="45.29797" lon="1.46045">
        <ele>430</ele>
        <time>2011-08-28T08:24:09Z</time>
      </trkpt>
      <trkpt lat="45.29792" lon="1.46042">
        <ele>429</ele>
        <time>2011-08-28T08:24:10Z</time>
      </trkpt>
      <trkpt lat="45.29786" lon="1.46039">
        <ele>428</ele>
        <time>2011-08-28T08:24:11Z</time>
      </trkpt>
      <trkpt lat="45.29781" lon="1.46036">
        <ele>426</ele>
        <time>2011-08-28T08:24:12Z</time>
      </trkpt>
      <trkpt lat="45.29776" lon="1.46033">
        <ele>425</ele>
        <time>2011-08-28T08:24:13Z</time>
      </trkpt>
      <trkpt lat="45.29771" lon="1.4603">
        <ele>425</ele>
        <time>2011-08-28T08:24:14Z</time>
      </trkpt>
      <trkpt lat="45.29765" lon="1.46027">
        <ele>425</ele>
        <time>2011-08-28T08:24:15Z</time>
      </trkpt>
      <trkpt lat="45.29761" lon="1.46024">
        <ele>424</ele>
        <time>2011-08-28T08:24:16Z</time>
      </trkpt>
      <trkpt lat="45.29756" lon="1.46021">
        <ele>424</ele>
        <time>2011-08-28T08:24:17Z</time>
      </trkpt>
      <trkpt lat="45.29752" lon="1.46018">
        <ele>424</ele>
        <time>2011-08-28T08:24:18Z</time>
      </trkpt>
      <trkpt lat="45.29747" lon="1.46016">
        <ele>423</ele>
        <time>2011-08-28T08:24:19Z</time>
      </trkpt>
      <trkpt lat="45.29743" lon="1.46013">
        <ele>422</ele>
        <time>2011-08-28T08:24:20Z</time>
      </trkpt>
      <trkpt lat="45.29735" lon="1.4601">
        <ele>425</ele>
        <time>2011-08-28T08:24:22Z</time>
      </trkpt>
      <trkpt lat="45.29727" lon="1.46006">
        <ele>430</ele>
        <time>2011-08-28T08:24:24Z</time>
      </trkpt>
      <trkpt lat="45.2972" lon="1.46003">
        <ele>432</ele>
        <time>2011-08-28T08:24:26Z</time>
      </trkpt>
      <trkpt lat="45.29712" lon="1.45999">
        <ele>433</ele>
        <time>2011-08-28T08:24:28Z</time>
      </trkpt>
      <trkpt lat="45.29704" lon="1.45997">
        <ele>433</ele>
        <time>2011-08-28T08:24:30Z</time>
      </trkpt>
      <trkpt lat="45.29698" lon="1.45997">
        <ele>431</ele>
        <time>2011-08-28T08:24:32Z</time>
      </trkpt>
      <trkpt lat="45.29691" lon="1.45998">
        <ele>431</ele>
        <time>2011-08-28T08:24:34Z</time>
      </trkpt>
      <trkpt lat="45.29684" lon="1.46">
        <ele>434</ele>
        <time>2011-08-28T08:24:36Z</time>
      </trkpt>
      <trkpt lat="45.29677" lon="1.46002">
        <ele>433</ele>
        <time>2011-08-28T08:24:38Z</time>
      </trkpt>
      <trkpt lat="45.29672" lon="1.46006">
        <ele>432</ele>
        <time>2011-08-28T08:24:40Z</time>
      </trkpt>
      <trkpt lat="45.29668" lon="1.4601">
        <ele>433</ele>
        <time>2011-08-28T08:24:42Z</time>
      </trkpt>
      <trkpt lat="45.29664" lon="1.46016">
        <ele>435</ele>
        <time>2011-08-28T08:24:44Z</time>
      </trkpt>
      <trkpt lat="45.2966" lon="1.46021">
        <ele>434</ele>
        <time>2011-08-28T08:24:46Z</time>
      </trkpt>
      <trkpt lat="45.29653" lon="1.46024">
        <ele>437</ele>
        <time>2011-08-28T08:24:48Z</time>
      </trkpt>
      <trkpt lat="45.29647" lon="1.4603">
        <ele>438</ele>
        <time>2011-08-28T08:24:50Z</time>
      </trkpt>
      <trkpt lat="45.29642" lon="1.46034">
        <ele>438</ele>
        <time>2011-08-28T08:24:52Z</time>
      </trkpt>
      <trkpt lat="45.29636" lon="1.46036">
        <ele>436</ele>
        <time>2011-08-28T08:24:54Z</time>
      </trkpt>
      <trkpt lat="45.29636" lon="1.46036">
        <ele>436</ele>
        <time>2011-08-28T08:24:54Z</time>
      </trkpt>
      <trkpt lat="45.29636" lon="1.46036">
        <ele>436</ele>
        <time>2011-08-28T08:24:55Z</time>
      </trkpt>
      <trkpt lat="45.29631" lon="1.4604">
        <ele>437</ele>
        <time>2011-08-28T08:24:56Z</time>
      </trkpt>
      <trkpt lat="45.29625" lon="1.46043">
        <ele>434</ele>
        <time>2011-08-28T08:24:58Z</time>
      </trkpt>
      <trkpt lat="45.2962" lon="1.46046">
        <ele>435</ele>
        <time>2011-08-28T08:25:00Z</time>
      </trkpt>
      <trkpt lat="45.29614" lon="1.4605">
        <ele>434</ele>
        <time>2011-08-28T08:25:02Z</time>
      </trkpt>
      <trkpt lat="45.29609" lon="1.46053">
        <ele>434</ele>
        <time>2011-08-28T08:25:04Z</time>
      </trkpt>
      <trkpt lat="45.29604" lon="1.46056">
        <ele>435</ele>
        <time>2011-08-28T08:25:06Z</time>
      </trkpt>
      <trkpt lat="45.29598" lon="1.46059">
        <ele>436</ele>
        <time>2011-08-28T08:25:08Z</time>
      </trkpt>
      <trkpt lat="45.29592" lon="1.46062">
        <ele>437</ele>
        <time>2011-08-28T08:25:10Z</time>
      </trkpt>
      <trkpt lat="45.29587" lon="1.46064">
        <ele>438</ele>
        <time>2011-08-28T08:25:12Z</time>
      </trkpt>
      <trkpt lat="45.29582" lon="1.46066">
        <ele>439</ele>
        <time>2011-08-28T08:25:14Z</time>
      </trkpt>
      <trkpt lat="45.29578" lon="1.46068">
        <ele>439</ele>
        <time>2011-08-28T08:25:16Z</time>
      </trkpt>
      <trkpt lat="45.29573" lon="1.4607">
        <ele>441</ele>
        <time>2011-08-28T08:25:18Z</time>
      </trkpt>
      <trkpt lat="45.29568" lon="1.46071">
        <ele>441</ele>
        <time>2011-08-28T08:25:20Z</time>
      </trkpt>
      <trkpt lat="45.29561" lon="1.46071">
        <ele>440</ele>
        <time>2011-08-28T08:25:22Z</time>
      </trkpt>
      <trkpt lat="45.29554" lon="1.46071">
        <ele>437</ele>
        <time>2011-08-28T08:25:24Z</time>
      </trkpt>
      <trkpt lat="45.29545" lon="1.46069">
        <ele>435</ele>
        <time>2011-08-28T08:25:26Z</time>
      </trkpt>
      <trkpt lat="45.29536" lon="1.46066">
        <ele>433</ele>
        <time>2011-08-28T08:25:28Z</time>
      </trkpt>
      <trkpt lat="45.29528" lon="1.46062">
        <ele>432</ele>
        <time>2011-08-28T08:25:30Z</time>
      </trkpt>
      <trkpt lat="45.29523" lon="1.46059">
        <ele>431</ele>
        <time>2011-08-28T08:25:31Z</time>
      </trkpt>
      <trkpt lat="45.29519" lon="1.46057">
        <ele>430</ele>
        <time>2011-08-28T08:25:32Z</time>
      </trkpt>
      <trkpt lat="45.2951" lon="1.46051">
        <ele>428</ele>
        <time>2011-08-28T08:25:34Z</time>
      </trkpt>
      <trkpt lat="45.29506" lon="1.46048">
        <ele>428</ele>
        <time>2011-08-28T08:25:35Z</time>
      </trkpt>
      <trkpt lat="45.29502" lon="1.46044">
        <ele>427</ele>
        <time>2011-08-28T08:25:36Z</time>
      </trkpt>
      <trkpt lat="45.29499" lon="1.46041">
        <ele>426</ele>
        <time>2011-08-28T08:25:37Z</time>
      </trkpt>
      <trkpt lat="45.29495" lon="1.46037">
        <ele>426</ele>
        <time>2011-08-28T08:25:38Z</time>
      </trkpt>
      <trkpt lat="45.29488" lon="1.4603">
        <ele>426</ele>
        <time>2011-08-28T08:25:40Z</time>
      </trkpt>
      <trkpt lat="45.29481" lon="1.46023">
        <ele>426</ele>
        <time>2011-08-28T08:25:42Z</time>
      </trkpt>
      <trkpt lat="45.29475" lon="1.46016">
        <ele>427</ele>
        <time>2011-08-28T08:25:44Z</time>
      </trkpt>
      <trkpt lat="45.29467" lon="1.46009">
        <ele>427</ele>
        <time>2011-08-28T08:25:46Z</time>
      </trkpt>
      <trkpt lat="45.29463" lon="1.46006">
        <ele>427</ele>
        <time>2011-08-28T08:25:47Z</time>
      </trkpt>
      <trkpt lat="45.29459" lon="1.46002">
        <ele>427</ele>
        <time>2011-08-28T08:25:48Z</time>
      </trkpt>
      <trkpt lat="45.29454" lon="1.45999">
        <ele>426</ele>
        <time>2011-08-28T08:25:49Z</time>
      </trkpt>
      <trkpt lat="45.2945" lon="1.45996">
        <ele>427</ele>
        <time>2011-08-28T08:25:50Z</time>
      </trkpt>
      <trkpt lat="45.29445" lon="1.45992">
        <ele>427</ele>
        <time>2011-08-28T08:25:51Z</time>
      </trkpt>
      <trkpt lat="45.2944" lon="1.45989">
        <ele>428</ele>
        <time>2011-08-28T08:25:52Z</time>
      </trkpt>
      <trkpt lat="45.29435" lon="1.45986">
        <ele>428</ele>
        <time>2011-08-28T08:25:53Z</time>
      </trkpt>
      <trkpt lat="45.2943" lon="1.45983">
        <ele>429</ele>
        <time>2011-08-28T08:25:54Z</time>
      </trkpt>
      <trkpt lat="45.29424" lon="1.45979">
        <ele>430</ele>
        <time>2011-08-28T08:25:55Z</time>
      </trkpt>
      <trkpt lat="45.29419" lon="1.45976">
        <ele>431</ele>
        <time>2011-08-28T08:25:56Z</time>
      </trkpt>
      <trkpt lat="45.29414" lon="1.45973">
        <ele>431</ele>
        <time>2011-08-28T08:25:57Z</time>
      </trkpt>
      <trkpt lat="45.29408" lon="1.45971">
        <ele>431</ele>
        <time>2011-08-28T08:25:58Z</time>
      </trkpt>
      <trkpt lat="45.29404" lon="1.45968">
        <ele>431</ele>
        <time>2011-08-28T08:25:59Z</time>
      </trkpt>
      <trkpt lat="45.29399" lon="1.45965">
        <ele>432</ele>
        <time>2011-08-28T08:26:00Z</time>
      </trkpt>
      <trkpt lat="45.29394" lon="1.45961">
        <ele>429</ele>
        <time>2011-08-28T08:26:01Z</time>
      </trkpt>
      <trkpt lat="45.2939" lon="1.45958">
        <ele>431</ele>
        <time>2011-08-28T08:26:02Z</time>
      </trkpt>
      <trkpt lat="45.29385" lon="1.45954">
        <ele>430</ele>
        <time>2011-08-28T08:26:03Z</time>
      </trkpt>
      <trkpt lat="45.2938" lon="1.45951">
        <ele>431</ele>
        <time>2011-08-28T08:26:04Z</time>
      </trkpt>
      <trkpt lat="45.29372" lon="1.45948">
        <ele>433</ele>
        <time>2011-08-28T08:26:05Z</time>
      </trkpt>
      <trkpt lat="45.29364" lon="1.45944">
        <ele>432</ele>
        <time>2011-08-28T08:26:06Z</time>
      </trkpt>
      <trkpt lat="45.29356" lon="1.45942">
        <ele>431</ele>
        <time>2011-08-28T08:26:07Z</time>
      </trkpt>
      <trkpt lat="45.29348" lon="1.45939">
        <ele>430</ele>
        <time>2011-08-28T08:26:08Z</time>
      </trkpt>
      <trkpt lat="45.29338" lon="1.45937">
        <ele>428</ele>
        <time>2011-08-28T08:26:09Z</time>
      </trkpt>
      <trkpt lat="45.29329" lon="1.45938">
        <ele>427</ele>
        <time>2011-08-28T08:26:10Z</time>
      </trkpt>
      <trkpt lat="45.2932" lon="1.45939">
        <ele>427</ele>
        <time>2011-08-28T08:26:11Z</time>
      </trkpt>
      <trkpt lat="45.29312" lon="1.4594">
        <ele>426</ele>
        <time>2011-08-28T08:26:12Z</time>
      </trkpt>
      <trkpt lat="45.29304" lon="1.45942">
        <ele>425</ele>
        <time>2011-08-28T08:26:13Z</time>
      </trkpt>
      <trkpt lat="45.29297" lon="1.45945">
        <ele>425</ele>
        <time>2011-08-28T08:26:14Z</time>
      </trkpt>
      <trkpt lat="45.29289" lon="1.45948">
        <ele>424</ele>
        <time>2011-08-28T08:26:15Z</time>
      </trkpt>
      <trkpt lat="45.29283" lon="1.45955">
        <ele>426</ele>
        <time>2011-08-28T08:26:16Z</time>
      </trkpt>
      <trkpt lat="45.29275" lon="1.45962">
        <ele>427</ele>
        <time>2011-08-28T08:26:17Z</time>
      </trkpt>
      <trkpt lat="45.29268" lon="1.4597">
        <ele>422</ele>
        <time>2011-08-28T08:26:18Z</time>
      </trkpt>
      <trkpt lat="45.29261" lon="1.45978">
        <ele>420</ele>
        <time>2011-08-28T08:26:19Z</time>
      </trkpt>
      <trkpt lat="45.29253" lon="1.45987">
        <ele>416</ele>
        <time>2011-08-28T08:26:20Z</time>
      </trkpt>
      <trkpt lat="45.29246" lon="1.45996">
        <ele>414</ele>
        <time>2011-08-28T08:26:21Z</time>
      </trkpt>
      <trkpt lat="45.29238" lon="1.46005">
        <ele>412</ele>
        <time>2011-08-28T08:26:22Z</time>
      </trkpt>
      <trkpt lat="45.2923" lon="1.46014">
        <ele>411</ele>
        <time>2011-08-28T08:26:23Z</time>
      </trkpt>
      <trkpt lat="45.29223" lon="1.46021">
        <ele>410</ele>
        <time>2011-08-28T08:26:24Z</time>
      </trkpt>
      <trkpt lat="45.29217" lon="1.46027">
        <ele>410</ele>
        <time>2011-08-28T08:26:25Z</time>
      </trkpt>
      <trkpt lat="45.29212" lon="1.46032">
        <ele>411</ele>
        <time>2011-08-28T08:26:26Z</time>
      </trkpt>
      <trkpt lat="45.29205" lon="1.46037">
        <ele>411</ele>
        <time>2011-08-28T08:26:28Z</time>
      </trkpt>
      <trkpt lat="45.292" lon="1.46041">
        <ele>411</ele>
        <time>2011-08-28T08:26:30Z</time>
      </trkpt>
      <trkpt lat="45.29196" lon="1.46051">
        <ele>407</ele>
        <time>2011-08-28T08:29:26Z</time>
      </trkpt>
      <trkpt lat="45.29198" lon="1.46059">
        <ele>409</ele>
        <time>2011-08-28T08:29:31Z</time>
      </trkpt>
      <trkpt lat="45.29201" lon="1.46065">
        <ele>415</ele>
        <time>2011-08-28T08:29:37Z</time>
      </trkpt>
      <trkpt lat="45.29201" lon="1.46065">
        <ele>415</ele>
        <time>2011-08-28T08:29:37Z</time>
      </trkpt>
      <trkpt lat="45.29201" lon="1.46065">
        <ele>415</ele>
        <time>2011-08-28T08:29:54Z</time>
      </trkpt>
      <trkpt lat="45.29204" lon="1.46072">
        <ele>414</ele>
        <time>2011-08-28T08:29:55Z</time>
      </trkpt>
      <trkpt lat="45.29204" lon="1.46072">
        <ele>414</ele>
        <time>2011-08-28T08:29:55Z</time>
      </trkpt>
      <trkpt lat="45.29204" lon="1.46072">
        <ele>414</ele>
        <time>2011-08-28T08:29:58Z</time>
      </trkpt>
      <trkpt lat="45.29206" lon="1.46079">
        <ele>411</ele>
        <time>2011-08-28T08:30:00Z</time>
      </trkpt>
      <trkpt lat="45.29208" lon="1.46085">
        <ele>411</ele>
        <time>2011-08-28T08:30:04Z</time>
      </trkpt>
      <trkpt lat="45.29209" lon="1.46092">
        <ele>407</ele>
        <time>2011-08-28T08:30:09Z</time>
      </trkpt>
      <trkpt lat="45.29211" lon="1.4611">
        <ele>417</ele>
        <time>2011-08-28T08:30:19Z</time>
      </trkpt>
      <trkpt lat="45.29211" lon="1.4611">
        <ele>417</ele>
        <time>2011-08-28T08:30:19Z</time>
      </trkpt>
      <trkpt lat="45.29211" lon="1.4611">
        <ele>417</ele>
        <time>2011-08-28T08:30:22Z</time>
      </trkpt>
      <trkpt lat="45.29214" lon="1.46121">
        <ele>427</ele>
        <time>2011-08-28T08:30:23Z</time>
      </trkpt>
      <trkpt lat="45.29214" lon="1.46121">
        <ele>427</ele>
        <time>2011-08-28T08:30:23Z</time>
      </trkpt>
      <trkpt lat="45.29214" lon="1.46121">
        <ele>427</ele>
        <time>2011-08-28T08:30:26Z</time>
      </trkpt>
      <trkpt lat="45.29218" lon="1.46135">
        <ele>426</ele>
        <time>2011-08-28T08:30:27Z</time>
      </trkpt>
      <trkpt lat="45.29218" lon="1.46135">
        <ele>426</ele>
        <time>2011-08-28T08:30:27Z</time>
      </trkpt>
      <trkpt lat="45.29218" lon="1.46135">
        <ele>426</ele>
        <time>2011-08-28T08:30:28Z</time>
      </trkpt>
      <trkpt lat="45.29218" lon="1.46145">
        <ele>423</ele>
        <time>2011-08-28T08:30:30Z</time>
      </trkpt>
      <trkpt lat="45.29219" lon="1.46159">
        <ele>429</ele>
        <time>2011-08-28T08:30:34Z</time>
      </trkpt>
      <trkpt lat="45.29218" lon="1.46168">
        <ele>429</ele>
        <time>2011-08-28T08:30:37Z</time>
      </trkpt>
      <trkpt lat="45.29217" lon="1.46176">
        <ele>430</ele>
        <time>2011-08-28T08:30:40Z</time>
      </trkpt>
      <trkpt lat="45.29216" lon="1.46186">
        <ele>429</ele>
        <time>2011-08-28T08:30:43Z</time>
      </trkpt>
      <trkpt lat="45.29215" lon="1.46194">
        <ele>429</ele>
        <time>2011-08-28T08:30:45Z</time>
      </trkpt>
      <trkpt lat="45.29215" lon="1.46201">
        <ele>423</ele>
        <time>2011-08-28T08:30:47Z</time>
      </trkpt>
      <trkpt lat="45.29214" lon="1.4621">
        <ele>420</ele>
        <time>2011-08-28T08:30:49Z</time>
      </trkpt>
      <trkpt lat="45.29214" lon="1.4621">
        <ele>420</ele>
        <time>2011-08-28T08:30:49Z</time>
      </trkpt>
      <trkpt lat="45.29214" lon="1.4621">
        <ele>420</ele>
        <time>2011-08-28T08:30:50Z</time>
      </trkpt>
      <trkpt lat="45.29215" lon="1.46217">
        <ele>420</ele>
        <time>2011-08-28T08:30:51Z</time>
      </trkpt>
      <trkpt lat="45.29216" lon="1.46226">
        <ele>422</ele>
        <time>2011-08-28T08:30:53Z</time>
      </trkpt>
      <trkpt lat="45.29216" lon="1.46226">
        <ele>422</ele>
        <time>2011-08-28T08:30:53Z</time>
      </trkpt>
      <trkpt lat="45.29216" lon="1.46226">
        <ele>422</ele>
        <time>2011-08-28T08:30:54Z</time>
      </trkpt>
      <trkpt lat="45.29217" lon="1.46233">
        <ele>421</ele>
        <time>2011-08-28T08:30:55Z</time>
      </trkpt>
      <trkpt lat="45.29219" lon="1.46242">
        <ele>423</ele>
        <time>2011-08-28T08:30:58Z</time>
      </trkpt>
      <trkpt lat="45.29221" lon="1.46247">
        <ele>424</ele>
        <time>2011-08-28T08:31:00Z</time>
      </trkpt>
      <trkpt lat="45.29224" lon="1.46254">
        <ele>426</ele>
        <time>2011-08-28T08:31:03Z</time>
      </trkpt>
      <trkpt lat="45.29228" lon="1.46258">
        <ele>427</ele>
        <time>2011-08-28T08:31:06Z</time>
      </trkpt>
      <trkpt lat="45.29233" lon="1.46263">
        <ele>428</ele>
        <time>2011-08-28T08:31:10Z</time>
      </trkpt>
      <trkpt lat="45.29238" lon="1.46268">
        <ele>427</ele>
        <time>2011-08-28T08:31:12Z</time>
      </trkpt>
      <trkpt lat="45.29245" lon="1.46271">
        <ele>425</ele>
        <time>2011-08-28T08:31:14Z</time>
      </trkpt>
      <trkpt lat="45.29249" lon="1.46273">
        <ele>422</ele>
        <time>2011-08-28T08:31:15Z</time>
      </trkpt>
      <trkpt lat="45.29254" lon="1.46276">
        <ele>420</ele>
        <time>2011-08-28T08:31:16Z</time>
      </trkpt>
      <trkpt lat="45.29258" lon="1.46279">
        <ele>418</ele>
        <time>2011-08-28T08:31:17Z</time>
      </trkpt>
      <trkpt lat="45.29263" lon="1.46282">
        <ele>416</ele>
        <time>2011-08-28T08:31:18Z</time>
      </trkpt>
      <trkpt lat="45.29267" lon="1.46284">
        <ele>415</ele>
        <time>2011-08-28T08:31:19Z</time>
      </trkpt>
      <trkpt lat="45.29271" lon="1.46287">
        <ele>415</ele>
        <time>2011-08-28T08:31:20Z</time>
      </trkpt>
      <trkpt lat="45.29276" lon="1.4629">
        <ele>414</ele>
        <time>2011-08-28T08:31:21Z</time>
      </trkpt>
      <trkpt lat="45.2928" lon="1.46293">
        <ele>414</ele>
        <time>2011-08-28T08:31:22Z</time>
      </trkpt>
      <trkpt lat="45.29284" lon="1.46296">
        <ele>414</ele>
        <time>2011-08-28T08:31:23Z</time>
      </trkpt>
      <trkpt lat="45.29288" lon="1.46299">
        <ele>414</ele>
        <time>2011-08-28T08:31:24Z</time>
      </trkpt>
      <trkpt lat="45.29292" lon="1.46303">
        <ele>414</ele>
        <time>2011-08-28T08:31:25Z</time>
      </trkpt>
      <trkpt lat="45.29296" lon="1.46307">
        <ele>413</ele>
        <time>2011-08-28T08:31:26Z</time>
      </trkpt>
      <trkpt lat="45.293" lon="1.46312">
        <ele>413</ele>
        <time>2011-08-28T08:31:27Z</time>
      </trkpt>
      <trkpt lat="45.29303" lon="1.46316">
        <ele>412</ele>
        <time>2011-08-28T08:31:28Z</time>
      </trkpt>
      <trkpt lat="45.29306" lon="1.4632">
        <ele>411</ele>
        <time>2011-08-28T08:31:29Z</time>
      </trkpt>
      <trkpt lat="45.2931" lon="1.46325">
        <ele>411</ele>
        <time>2011-08-28T08:31:30Z</time>
      </trkpt>
      <trkpt lat="45.29315" lon="1.46332">
        <ele>413</ele>
        <time>2011-08-28T08:31:32Z</time>
      </trkpt>
      <trkpt lat="45.29322" lon="1.46341">
        <ele>413</ele>
        <time>2011-08-28T08:31:34Z</time>
      </trkpt>
      <trkpt lat="45.29327" lon="1.46346">
        <ele>412</ele>
        <time>2011-08-28T08:31:35Z</time>
      </trkpt>
      <trkpt lat="45.29332" lon="1.46352">
        <ele>410</ele>
        <time>2011-08-28T08:31:36Z</time>
      </trkpt>
      <trkpt lat="45.29337" lon="1.46358">
        <ele>409</ele>
        <time>2011-08-28T08:31:37Z</time>
      </trkpt>
      <trkpt lat="45.29342" lon="1.46364">
        <ele>408</ele>
        <time>2011-08-28T08:31:38Z</time>
      </trkpt>
      <trkpt lat="45.29347" lon="1.46369">
        <ele>407</ele>
        <time>2011-08-28T08:31:39Z</time>
      </trkpt>
      <trkpt lat="45.29352" lon="1.46375">
        <ele>406</ele>
        <time>2011-08-28T08:31:40Z</time>
      </trkpt>
      <trkpt lat="45.29357" lon="1.46381">
        <ele>405</ele>
        <time>2011-08-28T08:31:41Z</time>
      </trkpt>
      <trkpt lat="45.29362" lon="1.46387">
        <ele>406</ele>
        <time>2011-08-28T08:31:42Z</time>
      </trkpt>
      <trkpt lat="45.29366" lon="1.46392">
        <ele>406</ele>
        <time>2011-08-28T08:31:43Z</time>
      </trkpt>
      <trkpt lat="45.29371" lon="1.46396">
        <ele>407</ele>
        <time>2011-08-28T08:31:44Z</time>
      </trkpt>
      <trkpt lat="45.29375" lon="1.464">
        <ele>407</ele>
        <time>2011-08-28T08:31:45Z</time>
      </trkpt>
      <trkpt lat="45.2938" lon="1.46405">
        <ele>407</ele>
        <time>2011-08-28T08:31:46Z</time>
      </trkpt>
      <trkpt lat="45.29384" lon="1.46408">
        <ele>407</ele>
        <time>2011-08-28T08:31:47Z</time>
      </trkpt>
      <trkpt lat="45.2939" lon="1.46413">
        <ele>406</ele>
        <time>2011-08-28T08:31:49Z</time>
      </trkpt>
      <trkpt lat="45.29395" lon="1.46415">
        <ele>407</ele>
        <time>2011-08-28T08:31:58Z</time>
      </trkpt>
      <trkpt lat="45.29399" lon="1.46414">
        <ele>407</ele>
        <time>2011-08-28T08:32:03Z</time>
      </trkpt>
      <trkpt lat="45.29404" lon="1.46417">
        <ele>408</ele>
        <time>2011-08-28T08:38:02Z</time>
      </trkpt>
      <trkpt lat="45.2941" lon="1.46418">
        <ele>409</ele>
        <time>2011-08-28T08:38:05Z</time>
      </trkpt>
      <trkpt lat="45.29417" lon="1.4642">
        <ele>408</ele>
        <time>2011-08-28T08:38:07Z</time>
      </trkpt>
      <trkpt lat="45.29423" lon="1.4642">
        <ele>408</ele>
        <time>2011-08-28T08:38:09Z</time>
      </trkpt>
      <trkpt lat="45.2943" lon="1.4642">
        <ele>407</ele>
        <time>2011-08-28T08:38:11Z</time>
      </trkpt>
      <trkpt lat="45.29437" lon="1.46421">
        <ele>409</ele>
        <time>2011-08-28T08:38:13Z</time>
      </trkpt>
      <trkpt lat="45.29444" lon="1.46421">
        <ele>410</ele>
        <time>2011-08-28T08:38:15Z</time>
      </trkpt>
      <trkpt lat="45.29449" lon="1.4642">
        <ele>410</ele>
        <time>2011-08-28T08:38:17Z</time>
      </trkpt>
      <trkpt lat="45.29457" lon="1.46419">
        <ele>413</ele>
        <time>2011-08-28T08:38:19Z</time>
      </trkpt>
      <trkpt lat="45.29464" lon="1.46418">
        <ele>416</ele>
        <time>2011-08-28T08:38:21Z</time>
      </trkpt>
      <trkpt lat="45.2947" lon="1.46418">
        <ele>415</ele>
        <time>2011-08-28T08:38:23Z</time>
      </trkpt>
      <trkpt lat="45.29475" lon="1.46417">
        <ele>415</ele>
        <time>2011-08-28T08:38:26Z</time>
      </trkpt>
      <trkpt lat="45.2948" lon="1.46412">
        <ele>419</ele>
        <time>2011-08-28T08:38:31Z</time>
      </trkpt>
      <trkpt lat="45.29483" lon="1.46408">
        <ele>422</ele>
        <time>2011-08-28T08:38:34Z</time>
      </trkpt>
      <trkpt lat="45.29489" lon="1.46404">
        <ele>425</ele>
        <time>2011-08-28T08:38:37Z</time>
      </trkpt>
      <trkpt lat="45.29495" lon="1.46403">
        <ele>426</ele>
        <time>2011-08-28T08:38:40Z</time>
      </trkpt>
      <trkpt lat="45.295" lon="1.46401">
        <ele>418</ele>
        <time>2011-08-28T08:38:42Z</time>
      </trkpt>
      <trkpt lat="45.29505" lon="1.46398">
        <ele>417</ele>
        <time>2011-08-28T08:38:44Z</time>
      </trkpt>
      <trkpt lat="45.2951" lon="1.46396">
        <ele>416</ele>
        <time>2011-08-28T08:38:46Z</time>
      </trkpt>
      <trkpt lat="45.29514" lon="1.46393">
        <ele>416</ele>
        <time>2011-08-28T08:38:48Z</time>
      </trkpt>
      <trkpt lat="45.29519" lon="1.46389">
        <ele>417</ele>
        <time>2011-08-28T08:38:51Z</time>
      </trkpt>
      <trkpt lat="45.29523" lon="1.46385">
        <ele>419</ele>
        <time>2011-08-28T08:38:53Z</time>
      </trkpt>
      <trkpt lat="45.29528" lon="1.4638">
        <ele>420</ele>
        <time>2011-08-28T08:38:56Z</time>
      </trkpt>
      <trkpt lat="45.29531" lon="1.46375">
        <ele>418</ele>
        <time>2011-08-28T08:39:00Z</time>
      </trkpt>
      <trkpt lat="45.29534" lon="1.46368">
        <ele>418</ele>
        <time>2011-08-28T08:39:04Z</time>
      </trkpt>
      <trkpt lat="45.29536" lon="1.46362">
        <ele>412</ele>
        <time>2011-08-28T08:39:40Z</time>
      </trkpt>
      <trkpt lat="45.29538" lon="1.46355">
        <ele>416</ele>
        <time>2011-08-28T08:40:44Z</time>
      </trkpt>
      <trkpt lat="45.2954" lon="1.46347">
        <ele>419</ele>
        <time>2011-08-28T08:40:47Z</time>
      </trkpt>
      <trkpt lat="45.29543" lon="1.4634">
        <ele>422</ele>
        <time>2011-08-28T08:40:50Z</time>
      </trkpt>
      <trkpt lat="45.29546" lon="1.46332">
        <ele>421</ele>
        <time>2011-08-28T08:40:53Z</time>
      </trkpt>
      <trkpt lat="45.2955" lon="1.46324">
        <ele>418</ele>
        <time>2011-08-28T08:40:55Z</time>
      </trkpt>
      <trkpt lat="45.29552" lon="1.46316">
        <ele>417</ele>
        <time>2011-08-28T08:40:57Z</time>
      </trkpt>
      <trkpt lat="45.29556" lon="1.46305">
        <ele>417</ele>
        <time>2011-08-28T08:40:59Z</time>
      </trkpt>
      <trkpt lat="45.29559" lon="1.46295">
        <ele>417</ele>
        <time>2011-08-28T08:41:01Z</time>
      </trkpt>
      <trkpt lat="45.29563" lon="1.46286">
        <ele>418</ele>
        <time>2011-08-28T08:41:03Z</time>
      </trkpt>
      <trkpt lat="45.29567" lon="1.46277">
        <ele>417</ele>
        <time>2011-08-28T08:41:05Z</time>
      </trkpt>
      <trkpt lat="45.29573" lon="1.46271">
        <ele>414</ele>
        <time>2011-08-28T08:41:07Z</time>
      </trkpt>
      <trkpt lat="45.29581" lon="1.46266">
        <ele>412</ele>
        <time>2011-08-28T08:41:09Z</time>
      </trkpt>
      <trkpt lat="45.29587" lon="1.46263">
        <ele>414</ele>
        <time>2011-08-28T08:41:11Z</time>
      </trkpt>
      <trkpt lat="45.29594" lon="1.46261">
        <ele>416</ele>
        <time>2011-08-28T08:41:13Z</time>
      </trkpt>
      <trkpt lat="45.29601" lon="1.46258">
        <ele>417</ele>
        <time>2011-08-28T08:41:15Z</time>
      </trkpt>
      <trkpt lat="45.29608" lon="1.46256">
        <ele>417</ele>
        <time>2011-08-28T08:41:17Z</time>
      </trkpt>
      <trkpt lat="45.29614" lon="1.46254">
        <ele>419</ele>
        <time>2011-08-28T08:41:19Z</time>
      </trkpt>
      <trkpt lat="45.29622" lon="1.46251">
        <ele>418</ele>
        <time>2011-08-28T08:41:21Z</time>
      </trkpt>
      <trkpt lat="45.29627" lon="1.46249">
        <ele>417</ele>
        <time>2011-08-28T08:41:22Z</time>
      </trkpt>
      <trkpt lat="45.29632" lon="1.46247">
        <ele>416</ele>
        <time>2011-08-28T08:41:23Z</time>
      </trkpt>
      <trkpt lat="45.29636" lon="1.46246">
        <ele>415</ele>
        <time>2011-08-28T08:41:24Z</time>
      </trkpt>
      <trkpt lat="45.29641" lon="1.46244">
        <ele>415</ele>
        <time>2011-08-28T08:41:25Z</time>
      </trkpt>
      <trkpt lat="45.29646" lon="1.46242">
        <ele>414</ele>
        <time>2011-08-28T08:41:26Z</time>
      </trkpt>
      <trkpt lat="45.29651" lon="1.46241">
        <ele>414</ele>
        <time>2011-08-28T08:41:27Z</time>
      </trkpt>
      <trkpt lat="45.29655" lon="1.46239">
        <ele>414</ele>
        <time>2011-08-28T08:41:28Z</time>
      </trkpt>
      <trkpt lat="45.2966" lon="1.46238">
        <ele>413</ele>
        <time>2011-08-28T08:41:29Z</time>
      </trkpt>
      <trkpt lat="45.29665" lon="1.46236">
        <ele>413</ele>
        <time>2011-08-28T08:41:30Z</time>
      </trkpt>
      <trkpt lat="45.29669" lon="1.46235">
        <ele>413</ele>
        <time>2011-08-28T08:41:31Z</time>
      </trkpt>
      <trkpt lat="45.29674" lon="1.46234">
        <ele>414</ele>
        <time>2011-08-28T08:41:32Z</time>
      </trkpt>
      <trkpt lat="45.29679" lon="1.46232">
        <ele>413</ele>
        <time>2011-08-28T08:41:33Z</time>
      </trkpt>
      <trkpt lat="45.29687" lon="1.4623">
        <ele>414</ele>
        <time>2011-08-28T08:41:35Z</time>
      </trkpt>
      <trkpt lat="45.29695" lon="1.46228">
        <ele>416</ele>
        <time>2011-08-28T08:41:37Z</time>
      </trkpt>
      <trkpt lat="45.29703" lon="1.46226">
        <ele>417</ele>
        <time>2011-08-28T08:41:39Z</time>
      </trkpt>
      <trkpt lat="45.2971" lon="1.46224">
        <ele>418</ele>
        <time>2011-08-28T08:41:41Z</time>
      </trkpt>
      <trkpt lat="45.29717" lon="1.46222">
        <ele>419</ele>
        <time>2011-08-28T08:41:43Z</time>
      </trkpt>
      <trkpt lat="45.29723" lon="1.46217">
        <ele>418</ele>
        <time>2011-08-28T08:41:45Z</time>
      </trkpt>
      <trkpt lat="45.29728" lon="1.46209">
        <ele>416</ele>
        <time>2011-08-28T08:41:47Z</time>
      </trkpt>
      <trkpt lat="45.29728" lon="1.46199">
        <ele>417</ele>
        <time>2011-08-28T08:41:49Z</time>
      </trkpt>
      <trkpt lat="45.29726" lon="1.46189">
        <ele>418</ele>
        <time>2011-08-28T08:41:51Z</time>
      </trkpt>
      <trkpt lat="45.29723" lon="1.46178">
        <ele>416</ele>
        <time>2011-08-28T08:41:53Z</time>
      </trkpt>
      <trkpt lat="45.29719" lon="1.46167">
        <ele>415</ele>
        <time>2011-08-28T08:41:55Z</time>
      </trkpt>
      <trkpt lat="45.29716" lon="1.46156">
        <ele>415</ele>
        <time>2011-08-28T08:41:57Z</time>
      </trkpt>
      <trkpt lat="45.29714" lon="1.46145">
        <ele>414</ele>
        <time>2011-08-28T08:41:59Z</time>
      </trkpt>
      <trkpt lat="45.29711" lon="1.46135">
        <ele>415</ele>
        <time>2011-08-28T08:42:01Z</time>
      </trkpt>
      <trkpt lat="45.29709" lon="1.46124">
        <ele>415</ele>
        <time>2011-08-28T08:42:03Z</time>
      </trkpt>
      <trkpt lat="45.29706" lon="1.46115">
        <ele>415</ele>
        <time>2011-08-28T08:42:05Z</time>
      </trkpt>
      <trkpt lat="45.29704" lon="1.46106">
        <ele>415</ele>
        <time>2011-08-28T08:42:07Z</time>
      </trkpt>
      <trkpt lat="45.29702" lon="1.46098">
        <ele>414</ele>
        <time>2011-08-28T08:42:09Z</time>
      </trkpt>
      <trkpt lat="45.297" lon="1.46092">
        <ele>417</ele>
        <time>2011-08-28T08:42:11Z</time>
      </trkpt>
      <trkpt lat="45.29698" lon="1.46085">
        <ele>418</ele>
        <time>2011-08-28T08:42:13Z</time>
      </trkpt>
      <trkpt lat="45.29696" lon="1.46079">
        <ele>422</ele>
        <time>2011-08-28T08:42:15Z</time>
      </trkpt>
      <trkpt lat="45.29694" lon="1.4607">
        <ele>422</ele>
        <time>2011-08-28T08:42:18Z</time>
      </trkpt>
      <trkpt lat="45.29694" lon="1.46063">
        <ele>421</ele>
        <time>2011-08-28T08:42:20Z</time>
      </trkpt>
      <trkpt lat="45.29694" lon="1.46056">
        <ele>422</ele>
        <time>2011-08-28T08:42:22Z</time>
      </trkpt>
      <trkpt lat="45.29693" lon="1.4605">
        <ele>422</ele>
        <time>2011-08-28T08:42:24Z</time>
      </trkpt>
      <trkpt lat="45.29692" lon="1.46043">
        <ele>422</ele>
        <time>2011-08-28T08:42:26Z</time>
      </trkpt>
      <trkpt lat="45.29692" lon="1.46033">
        <ele>421</ele>
        <time>2011-08-28T08:42:29Z</time>
      </trkpt>
      <trkpt lat="45.29691" lon="1.46024">
        <ele>422</ele>
        <time>2011-08-28T08:42:32Z</time>
      </trkpt>
      <trkpt lat="45.2969" lon="1.46017">
        <ele>422</ele>
        <time>2011-08-28T08:42:34Z</time>
      </trkpt>
      <trkpt lat="45.2969" lon="1.46011">
        <ele>421</ele>
        <time>2011-08-28T08:42:36Z</time>
      </trkpt>
      <trkpt lat="45.29691" lon="1.46003">
        <ele>423</ele>
        <time>2011-08-28T08:42:39Z</time>
      </trkpt>
      <trkpt lat="45.29694" lon="1.45997">
        <ele>425</ele>
        <time>2011-08-28T08:42:42Z</time>
      </trkpt>
      <trkpt lat="45.29699" lon="1.45997">
        <ele>428</ele>
        <time>2011-08-28T08:42:45Z</time>
      </trkpt>
      <trkpt lat="45.29704" lon="1.45998">
        <ele>429</ele>
        <time>2011-08-28T08:42:47Z</time>
      </trkpt>
      <trkpt lat="45.29711" lon="1.46">
        <ele>429</ele>
        <time>2011-08-28T08:42:49Z</time>
      </trkpt>
      <trkpt lat="45.29717" lon="1.46002">
        <ele>428</ele>
        <time>2011-08-28T08:42:51Z</time>
      </trkpt>
      <trkpt lat="45.29724" lon="1.46006">
        <ele>429</ele>
        <time>2011-08-28T08:42:53Z</time>
      </trkpt>
      <trkpt lat="45.29731" lon="1.46009">
        <ele>428</ele>
        <time>2011-08-28T08:42:55Z</time>
      </trkpt>
      <trkpt lat="45.29738" lon="1.46013">
        <ele>428</ele>
        <time>2011-08-28T08:42:57Z</time>
      </trkpt>
      <trkpt lat="45.29746" lon="1.46017">
        <ele>429</ele>
        <time>2011-08-28T08:42:59Z</time>
      </trkpt>
      <trkpt lat="45.29751" lon="1.46019">
        <ele>428</ele>
        <time>2011-08-28T08:43:00Z</time>
      </trkpt>
      <trkpt lat="45.29756" lon="1.46022">
        <ele>427</ele>
        <time>2011-08-28T08:43:01Z</time>
      </trkpt>
      <trkpt lat="45.29761" lon="1.46024">
        <ele>426</ele>
        <time>2011-08-28T08:43:02Z</time>
      </trkpt>
      <trkpt lat="45.29766" lon="1.46026">
        <ele>426</ele>
        <time>2011-08-28T08:43:03Z</time>
      </trkpt>
      <trkpt lat="45.29771" lon="1.46029">
        <ele>425</ele>
        <time>2011-08-28T08:43:04Z</time>
      </trkpt>
      <trkpt lat="45.29775" lon="1.46032">
        <ele>425</ele>
        <time>2011-08-28T08:43:05Z</time>
      </trkpt>
      <trkpt lat="45.2978" lon="1.46034">
        <ele>425</ele>
        <time>2011-08-28T08:43:06Z</time>
      </trkpt>
      <trkpt lat="45.29785" lon="1.46037">
        <ele>426</ele>
        <time>2011-08-28T08:43:07Z</time>
      </trkpt>
      <trkpt lat="45.2979" lon="1.4604">
        <ele>426</ele>
        <time>2011-08-28T08:43:08Z</time>
      </trkpt>
      <trkpt lat="45.29795" lon="1.46042">
        <ele>426</ele>
        <time>2011-08-28T08:43:09Z</time>
      </trkpt>
      <trkpt lat="45.29799" lon="1.46045">
        <ele>426</ele>
        <time>2011-08-28T08:43:10Z</time>
      </trkpt>
      <trkpt lat="45.29804" lon="1.46048">
        <ele>426</ele>
        <time>2011-08-28T08:43:11Z</time>
      </trkpt>
      <trkpt lat="45.29808" lon="1.4605">
        <ele>426</ele>
        <time>2011-08-28T08:43:12Z</time>
      </trkpt>
      <trkpt lat="45.29813" lon="1.46052">
        <ele>426</ele>
        <time>2011-08-28T08:43:13Z</time>
      </trkpt>
      <trkpt lat="45.29818" lon="1.46055">
        <ele>426</ele>
        <time>2011-08-28T08:43:14Z</time>
      </trkpt>
      <trkpt lat="45.29826" lon="1.46058">
        <ele>426</ele>
        <time>2011-08-28T08:43:16Z</time>
      </trkpt>
      <trkpt lat="45.29834" lon="1.46061">
        <ele>426</ele>
        <time>2011-08-28T08:43:18Z</time>
      </trkpt>
      <trkpt lat="45.29842" lon="1.4606">
        <ele>426</ele>
        <time>2011-08-28T08:43:20Z</time>
      </trkpt>
      <trkpt lat="45.29849" lon="1.46059">
        <ele>426</ele>
        <time>2011-08-28T08:43:22Z</time>
      </trkpt>
      <trkpt lat="45.29857" lon="1.46057">
        <ele>426</ele>
        <time>2011-08-28T08:43:24Z</time>
      </trkpt>
      <trkpt lat="45.29864" lon="1.46054">
        <ele>426</ele>
        <time>2011-08-28T08:43:26Z</time>
      </trkpt>
      <trkpt lat="45.29872" lon="1.4605">
        <ele>426</ele>
        <time>2011-08-28T08:43:28Z</time>
      </trkpt>
      <trkpt lat="45.29879" lon="1.46046">
        <ele>425</ele>
        <time>2011-08-28T08:43:30Z</time>
      </trkpt>
      <trkpt lat="45.29885" lon="1.46042">
        <ele>425</ele>
        <time>2011-08-28T08:43:32Z</time>
      </trkpt>
      <trkpt lat="45.29892" lon="1.46038">
        <ele>427</ele>
        <time>2011-08-28T08:43:34Z</time>
      </trkpt>
      <trkpt lat="45.29899" lon="1.46034">
        <ele>428</ele>
        <time>2011-08-28T08:43:36Z</time>
      </trkpt>
      <trkpt lat="45.29909" lon="1.4603">
        <ele>428</ele>
        <time>2011-08-28T08:43:39Z</time>
      </trkpt>
      <trkpt lat="45.29916" lon="1.46025">
        <ele>428</ele>
        <time>2011-08-28T08:43:41Z</time>
      </trkpt>
      <trkpt lat="45.29922" lon="1.46022">
        <ele>429</ele>
        <time>2011-08-28T08:43:43Z</time>
      </trkpt>
      <trkpt lat="45.29929" lon="1.46017">
        <ele>428</ele>
        <time>2011-08-28T08:43:45Z</time>
      </trkpt>
      <trkpt lat="45.29937" lon="1.46011">
        <ele>428</ele>
        <time>2011-08-28T08:43:47Z</time>
      </trkpt>
      <trkpt lat="45.29941" lon="1.46009">
        <ele>429</ele>
        <time>2011-08-28T08:43:48Z</time>
      </trkpt>
      <trkpt lat="45.29946" lon="1.46007">
        <ele>429</ele>
        <time>2011-08-28T08:43:49Z</time>
      </trkpt>
      <trkpt lat="45.29951" lon="1.46004">
        <ele>429</ele>
        <time>2011-08-28T08:43:50Z</time>
      </trkpt>
      <trkpt lat="45.29957" lon="1.46002">
        <ele>428</ele>
        <time>2011-08-28T08:43:51Z</time>
      </trkpt>
      <trkpt lat="45.29963" lon="1.46001">
        <ele>428</ele>
        <time>2011-08-28T08:43:52Z</time>
      </trkpt>
      <trkpt lat="45.29969" lon="1.45999">
        <ele>427</ele>
        <time>2011-08-28T08:43:53Z</time>
      </trkpt>
      <trkpt lat="45.29975" lon="1.45997">
        <ele>426</ele>
        <time>2011-08-28T08:43:54Z</time>
      </trkpt>
      <trkpt lat="45.29981" lon="1.45995">
        <ele>426</ele>
        <time>2011-08-28T08:43:55Z</time>
      </trkpt>
      <trkpt lat="45.29987" lon="1.45993">
        <ele>426</ele>
        <time>2011-08-28T08:43:56Z</time>
      </trkpt>
      <trkpt lat="45.29993" lon="1.4599">
        <ele>425</ele>
        <time>2011-08-28T08:43:57Z</time>
      </trkpt>
      <trkpt lat="45.29999" lon="1.45988">
        <ele>425</ele>
        <time>2011-08-28T08:43:58Z</time>
      </trkpt>
      <trkpt lat="45.30006" lon="1.45985">
        <ele>424</ele>
        <time>2011-08-28T08:43:59Z</time>
      </trkpt>
      <trkpt lat="45.30014" lon="1.45983">
        <ele>425</ele>
        <time>2011-08-28T08:44:00Z</time>
      </trkpt>
      <trkpt lat="45.30021" lon="1.45981">
        <ele>424</ele>
        <time>2011-08-28T08:44:01Z</time>
      </trkpt>
      <trkpt lat="45.30027" lon="1.45979">
        <ele>423</ele>
        <time>2011-08-28T08:44:02Z</time>
      </trkpt>
      <trkpt lat="45.30032" lon="1.45977">
        <ele>422</ele>
        <time>2011-08-28T08:44:03Z</time>
      </trkpt>
      <trkpt lat="45.30038" lon="1.45976">
        <ele>422</ele>
        <time>2011-08-28T08:44:05Z</time>
      </trkpt>
      <trkpt lat="45.30044" lon="1.45975">
        <ele>422</ele>
        <time>2011-08-28T08:44:07Z</time>
      </trkpt>
      <trkpt lat="45.30052" lon="1.45974">
        <ele>421</ele>
        <time>2011-08-28T08:44:09Z</time>
      </trkpt>
      <trkpt lat="45.30057" lon="1.45973">
        <ele>420</ele>
        <time>2011-08-28T08:44:10Z</time>
      </trkpt>
      <trkpt lat="45.30063" lon="1.45972">
        <ele>419</ele>
        <time>2011-08-28T08:44:11Z</time>
      </trkpt>
      <trkpt lat="45.30068" lon="1.45971">
        <ele>421</ele>
        <time>2011-08-28T08:44:12Z</time>
      </trkpt>
      <trkpt lat="45.30073" lon="1.45971">
        <ele>421</ele>
        <time>2011-08-28T08:44:13Z</time>
      </trkpt>
      <trkpt lat="45.30079" lon="1.4597">
        <ele>420</ele>
        <time>2011-08-28T08:44:14Z</time>
      </trkpt>
      <trkpt lat="45.30084" lon="1.4597">
        <ele>420</ele>
        <time>2011-08-28T08:44:15Z</time>
      </trkpt>
      <trkpt lat="45.3009" lon="1.4597">
        <ele>420</ele>
        <time>2011-08-28T08:44:16Z</time>
      </trkpt>
      <trkpt lat="45.30096" lon="1.45972">
        <ele>420</ele>
        <time>2011-08-28T08:44:17Z</time>
      </trkpt>
      <trkpt lat="45.30102" lon="1.45974">
        <ele>420</ele>
        <time>2011-08-28T08:44:18Z</time>
      </trkpt>
      <trkpt lat="45.30107" lon="1.45977">
        <ele>420</ele>
        <time>2011-08-28T08:44:19Z</time>
      </trkpt>
      <trkpt lat="45.30113" lon="1.4598">
        <ele>420</ele>
        <time>2011-08-28T08:44:20Z</time>
      </trkpt>
      <trkpt lat="45.30118" lon="1.45983">
        <ele>421</ele>
        <time>2011-08-28T08:44:21Z</time>
      </trkpt>
      <trkpt lat="45.30124" lon="1.45986">
        <ele>421</ele>
        <time>2011-08-28T08:44:22Z</time>
      </trkpt>
      <trkpt lat="45.3013" lon="1.45988">
        <ele>421</ele>
        <time>2011-08-28T08:44:23Z</time>
      </trkpt>
      <trkpt lat="45.30135" lon="1.45988">
        <ele>422</ele>
        <time>2011-08-28T08:44:24Z</time>
      </trkpt>
      <trkpt lat="45.3014" lon="1.45988">
        <ele>422</ele>
        <time>2011-08-28T08:44:25Z</time>
      </trkpt>
      <trkpt lat="45.30145" lon="1.45987">
        <ele>422</ele>
        <time>2011-08-28T08:44:26Z</time>
      </trkpt>
      <trkpt lat="45.30152" lon="1.45986">
        <ele>423</ele>
        <time>2011-08-28T08:44:28Z</time>
      </trkpt>
      <trkpt lat="45.30158" lon="1.45983">
        <ele>425</ele>
        <time>2011-08-28T08:44:30Z</time>
      </trkpt>
      <trkpt lat="45.30164" lon="1.45978">
        <ele>425</ele>
        <time>2011-08-28T08:44:32Z</time>
      </trkpt>
      <trkpt lat="45.30169" lon="1.45973">
        <ele>428</ele>
        <time>2011-08-28T08:44:35Z</time>
      </trkpt>
      <trkpt lat="45.30166" lon="1.45964">
        <ele>428</ele>
        <time>2011-08-28T08:44:45Z</time>
      </trkpt>
      <trkpt lat="45.30166" lon="1.45964">
        <ele>428</ele>
        <time>2011-08-28T08:44:45Z</time>
      </trkpt>
      <trkpt lat="45.30166" lon="1.45964">
        <ele>428</ele>
        <time>2011-08-28T08:44:48Z</time>
      </trkpt>
      <trkpt lat="45.30164" lon="1.45957">
        <ele>427</ele>
        <time>2011-08-28T08:44:51Z</time>
      </trkpt>
      <trkpt lat="45.30161" lon="1.45952">
        <ele>428</ele>
        <time>2011-08-28T08:44:55Z</time>
      </trkpt>
      <trkpt lat="45.30161" lon="1.45952">
        <ele>428</ele>
        <time>2011-08-28T08:44:55Z</time>
      </trkpt>
      <trkpt lat="45.30161" lon="1.45952">
        <ele>428</ele>
        <time>2011-08-28T08:44:59Z</time>
      </trkpt>
      <trkpt lat="45.30164" lon="1.45957">
        <ele>429</ele>
        <time>2011-08-28T08:45:06Z</time>
      </trkpt>
      <trkpt lat="45.30168" lon="1.45964">
        <ele>428</ele>
        <time>2011-08-28T08:45:09Z</time>
      </trkpt>
      <trkpt lat="45.30172" lon="1.45964">
        <ele>428</ele>
        <time>2011-08-28T08:45:11Z</time>
      </trkpt>
      <trkpt lat="45.30177" lon="1.4596">
        <ele>428</ele>
        <time>2011-08-28T08:45:14Z</time>
      </trkpt>
      <trkpt lat="45.30181" lon="1.45955">
        <ele>427</ele>
        <time>2011-08-28T08:45:17Z</time>
      </trkpt>
      <trkpt lat="45.30185" lon="1.45949">
        <ele>426</ele>
        <time>2011-08-28T08:45:20Z</time>
      </trkpt>
      <trkpt lat="45.30189" lon="1.45946">
        <ele>426</ele>
        <time>2011-08-28T08:46:11Z</time>
      </trkpt>
      <trkpt lat="45.30194" lon="1.45942">
        <ele>427</ele>
        <time>2011-08-28T08:46:14Z</time>
      </trkpt>
      <trkpt lat="45.30198" lon="1.45937">
        <ele>427</ele>
        <time>2011-08-28T08:46:16Z</time>
      </trkpt>
      <trkpt lat="45.30202" lon="1.45932">
        <ele>426</ele>
        <time>2011-08-28T08:46:18Z</time>
      </trkpt>
      <trkpt lat="45.30206" lon="1.45927">
        <ele>427</ele>
        <time>2011-08-28T08:46:20Z</time>
      </trkpt>
      <trkpt lat="45.3021" lon="1.45924">
        <ele>427</ele>
        <time>2011-08-28T08:46:22Z</time>
      </trkpt>
      <trkpt lat="45.30215" lon="1.4592">
        <ele>430</ele>
        <time>2011-08-28T08:46:24Z</time>
      </trkpt>
      <trkpt lat="45.3022" lon="1.45914">
        <ele>430</ele>
        <time>2011-08-28T08:46:26Z</time>
      </trkpt>
      <trkpt lat="45.30225" lon="1.45909">
        <ele>429</ele>
        <time>2011-08-28T08:46:28Z</time>
      </trkpt>
      <trkpt lat="45.30229" lon="1.45904">
        <ele>431</ele>
        <time>2011-08-28T08:46:30Z</time>
      </trkpt>
      <trkpt lat="45.30234" lon="1.45899">
        <ele>430</ele>
        <time>2011-08-28T08:46:32Z</time>
      </trkpt>
      <trkpt lat="45.3024" lon="1.45893">
        <ele>429</ele>
        <time>2011-08-28T08:46:34Z</time>
      </trkpt>
      <trkpt lat="45.30244" lon="1.45886">
        <ele>430</ele>
        <time>2011-08-28T08:46:36Z</time>
      </trkpt>
      <trkpt lat="45.3025" lon="1.45876">
        <ele>430</ele>
        <time>2011-08-28T08:46:39Z</time>
      </trkpt>
      <trkpt lat="45.30254" lon="1.45871">
        <ele>430</ele>
        <time>2011-08-28T08:46:41Z</time>
      </trkpt>
      <trkpt lat="45.30258" lon="1.45869">
        <ele>429</ele>
        <time>2011-08-28T08:46:43Z</time>
      </trkpt>
      <trkpt lat="45.30263" lon="1.45869">
        <ele>429</ele>
        <time>2011-08-28T08:46:45Z</time>
      </trkpt>
      <trkpt lat="45.30264" lon="1.45877">
        <ele>430</ele>
        <time>2011-08-28T08:46:52Z</time>
      </trkpt>
      <trkpt lat="45.30264" lon="1.45884">
        <ele>429</ele>
        <time>2011-08-28T08:46:54Z</time>
      </trkpt>
      <trkpt lat="45.30264" lon="1.45891">
        <ele>429</ele>
        <time>2011-08-28T08:46:56Z</time>
      </trkpt>
      <trkpt lat="45.30264" lon="1.45891">
        <ele>429</ele>
        <time>2011-08-28T08:46:56Z</time>
      </trkpt>
      <trkpt lat="45.30264" lon="1.45891">
        <ele>429</ele>
        <time>2011-08-28T08:46:57Z</time>
      </trkpt>
      <trkpt lat="45.30266" lon="1.45898">
        <ele>430</ele>
        <time>2011-08-28T08:46:58Z</time>
      </trkpt>
      <trkpt lat="45.30268" lon="1.45905">
        <ele>428</ele>
        <time>2011-08-28T08:47:00Z</time>
      </trkpt>
      <trkpt lat="45.3027" lon="1.45912">
        <ele>427</ele>
        <time>2011-08-28T08:47:03Z</time>
      </trkpt>
      <trkpt lat="45.30276" lon="1.45915">
        <ele>425</ele>
        <time>2011-08-28T08:47:21Z</time>
      </trkpt>
      <trkpt lat="45.30276" lon="1.45915">
        <ele>425</ele>
        <time>2011-08-28T08:47:21Z</time>
      </trkpt>
      <trkpt lat="45.30276" lon="1.45915">
        <ele>425</ele>
        <time>2011-08-28T08:47:22Z</time>
      </trkpt>
      <trkpt lat="45.30274" lon="1.45909">
        <ele>425</ele>
        <time>2011-08-28T08:47:25Z</time>
      </trkpt>
      <trkpt lat="45.30271" lon="1.45901">
        <ele>426</ele>
        <time>2011-08-28T08:47:27Z</time>
      </trkpt>
      <trkpt lat="45.30269" lon="1.45895">
        <ele>428</ele>
        <time>2011-08-28T08:47:29Z</time>
      </trkpt>
      <trkpt lat="45.30268" lon="1.45887">
        <ele>428</ele>
        <time>2011-08-28T08:47:32Z</time>
      </trkpt>
      <trkpt lat="45.30267" lon="1.45878">
        <ele>429</ele>
        <time>2011-08-28T08:47:35Z</time>
      </trkpt>
      <trkpt lat="45.30271" lon="1.45873">
        <ele>431</ele>
        <time>2011-08-28T08:47:40Z</time>
      </trkpt>
      <trkpt lat="45.30277" lon="1.45869">
        <ele>428</ele>
        <time>2011-08-28T08:47:44Z</time>
      </trkpt>
      <trkpt lat="45.30282" lon="1.45865">
        <ele>428</ele>
        <time>2011-08-28T08:47:46Z</time>
      </trkpt>
      <trkpt lat="45.30287" lon="1.45861">
        <ele>432</ele>
        <time>2011-08-28T08:47:48Z</time>
      </trkpt>
      <trkpt lat="45.30292" lon="1.45855">
        <ele>433</ele>
        <time>2011-08-28T08:47:50Z</time>
      </trkpt>
      <trkpt lat="45.30298" lon="1.45849">
        <ele>433</ele>
        <time>2011-08-28T08:47:52Z</time>
      </trkpt>
      <trkpt lat="45.30306" lon="1.45841">
        <ele>432</ele>
        <time>2011-08-28T08:47:54Z</time>
      </trkpt>
      <trkpt lat="45.30311" lon="1.45837">
        <ele>430</ele>
        <time>2011-08-28T08:47:55Z</time>
      </trkpt>
      <trkpt lat="45.30316" lon="1.45833">
        <ele>429</ele>
        <time>2011-08-28T08:47:56Z</time>
      </trkpt>
      <trkpt lat="45.30321" lon="1.45829">
        <ele>428</ele>
        <time>2011-08-28T08:47:57Z</time>
      </trkpt>
      <trkpt lat="45.30326" lon="1.45825">
        <ele>428</ele>
        <time>2011-08-28T08:47:58Z</time>
      </trkpt>
      <trkpt lat="45.30332" lon="1.45822">
        <ele>427</ele>
        <time>2011-08-28T08:47:59Z</time>
      </trkpt>
      <trkpt lat="45.30337" lon="1.45822">
        <ele>427</ele>
        <time>2011-08-28T08:48:00Z</time>
      </trkpt>
      <trkpt lat="45.30341" lon="1.45822">
        <ele>425</ele>
        <time>2011-08-28T08:48:01Z</time>
      </trkpt>
      <trkpt lat="45.30346" lon="1.45822">
        <ele>425</ele>
        <time>2011-08-28T08:48:02Z</time>
      </trkpt>
      <trkpt lat="45.30351" lon="1.45823">
        <ele>424</ele>
        <time>2011-08-28T08:48:03Z</time>
      </trkpt>
      <trkpt lat="45.30356" lon="1.45823">
        <ele>426</ele>
        <time>2011-08-28T08:48:04Z</time>
      </trkpt>
      <trkpt lat="45.30364" lon="1.45823">
        <ele>423</ele>
        <time>2011-08-28T08:48:06Z</time>
      </trkpt>
      <trkpt lat="45.30372" lon="1.45823">
        <ele>424</ele>
        <time>2011-08-28T08:48:08Z</time>
      </trkpt>
      <trkpt lat="45.30377" lon="1.45822">
        <ele>424</ele>
        <time>2011-08-28T08:48:09Z</time>
      </trkpt>
      <trkpt lat="45.30382" lon="1.4582">
        <ele>424</ele>
        <time>2011-08-28T08:48:10Z</time>
      </trkpt>
      <trkpt lat="45.30388" lon="1.45818">
        <ele>424</ele>
        <time>2011-08-28T08:48:11Z</time>
      </trkpt>
      <trkpt lat="45.30393" lon="1.45816">
        <ele>424</ele>
        <time>2011-08-28T08:48:12Z</time>
      </trkpt>
      <trkpt lat="45.30399" lon="1.45814">
        <ele>423</ele>
        <time>2011-08-28T08:48:13Z</time>
      </trkpt>
      <trkpt lat="45.30404" lon="1.45812">
        <ele>423</ele>
        <time>2011-08-28T08:48:14Z</time>
      </trkpt>
      <trkpt lat="45.3041" lon="1.4581">
        <ele>423</ele>
        <time>2011-08-28T08:48:15Z</time>
      </trkpt>
      <trkpt lat="45.30416" lon="1.45807">
        <ele>422</ele>
        <time>2011-08-28T08:48:16Z</time>
      </trkpt>
      <trkpt lat="45.30422" lon="1.45804">
        <ele>421</ele>
        <time>2011-08-28T08:48:17Z</time>
      </trkpt>
      <trkpt lat="45.30428" lon="1.45802">
        <ele>420</ele>
        <time>2011-08-28T08:48:18Z</time>
      </trkpt>
      <trkpt lat="45.30434" lon="1.45799">
        <ele>419</ele>
        <time>2011-08-28T08:48:19Z</time>
      </trkpt>
      <trkpt lat="45.3044" lon="1.45797">
        <ele>419</ele>
        <time>2011-08-28T08:48:20Z</time>
      </trkpt>
      <trkpt lat="45.30447" lon="1.45794">
        <ele>419</ele>
        <time>2011-08-28T08:48:21Z</time>
      </trkpt>
      <trkpt lat="45.30453" lon="1.45792">
        <ele>418</ele>
        <time>2011-08-28T08:48:22Z</time>
      </trkpt>
      <trkpt lat="45.3046" lon="1.4579">
        <ele>419</ele>
        <time>2011-08-28T08:48:23Z</time>
      </trkpt>
      <trkpt lat="45.30466" lon="1.45787">
        <ele>419</ele>
        <time>2011-08-28T08:48:24Z</time>
      </trkpt>
      <trkpt lat="45.30472" lon="1.45785">
        <ele>418</ele>
        <time>2011-08-28T08:48:25Z</time>
      </trkpt>
      <trkpt lat="45.30478" lon="1.45782">
        <ele>419</ele>
        <time>2011-08-28T08:48:26Z</time>
      </trkpt>
      <trkpt lat="45.30483" lon="1.45778">
        <ele>420</ele>
        <time>2011-08-28T08:48:27Z</time>
      </trkpt>
      <trkpt lat="45.30488" lon="1.45774">
        <ele>421</ele>
        <time>2011-08-28T08:48:28Z</time>
      </trkpt>
      <trkpt lat="45.30493" lon="1.45769">
        <ele>421</ele>
        <time>2011-08-28T08:48:29Z</time>
      </trkpt>
      <trkpt lat="45.30497" lon="1.45764">
        <ele>422</ele>
        <time>2011-08-28T08:48:30Z</time>
      </trkpt>
      <trkpt lat="45.30501" lon="1.45759">
        <ele>422</ele>
        <time>2011-08-28T08:48:32Z</time>
      </trkpt>
      <trkpt lat="45.30501" lon="1.45759">
        <ele>422</ele>
        <time>2011-08-28T08:48:32Z</time>
      </trkpt>
      <trkpt lat="45.30501" lon="1.45759">
        <ele>422</ele>
        <time>2011-08-28T08:48:44Z</time>
      </trkpt>
      <trkpt lat="45.30504" lon="1.45754">
        <ele>422</ele>
        <time>2011-08-28T08:48:47Z</time>
      </trkpt>
      <trkpt lat="45.30509" lon="1.4575">
        <ele>420</ele>
        <time>2011-08-28T08:48:48Z</time>
      </trkpt>
      <trkpt lat="45.30517" lon="1.45745">
        <ele>417</ele>
        <time>2011-08-28T08:48:50Z</time>
      </trkpt>
      <trkpt lat="45.30526" lon="1.4574">
        <ele>415</ele>
        <time>2011-08-28T08:48:52Z</time>
      </trkpt>
      <trkpt lat="45.30532" lon="1.45738">
        <ele>414</ele>
        <time>2011-08-28T08:48:53Z</time>
      </trkpt>
      <trkpt lat="45.30539" lon="1.45738">
        <ele>413</ele>
        <time>2011-08-28T08:48:54Z</time>
      </trkpt>
      <trkpt lat="45.30546" lon="1.45737">
        <ele>413</ele>
        <time>2011-08-28T08:48:55Z</time>
      </trkpt>
      <trkpt lat="45.30554" lon="1.45738">
        <ele>412</ele>
        <time>2011-08-28T08:48:56Z</time>
      </trkpt>
      <trkpt lat="45.30562" lon="1.45739">
        <ele>413</ele>
        <time>2011-08-28T08:48:57Z</time>
      </trkpt>
      <trkpt lat="45.30569" lon="1.45739">
        <ele>414</ele>
        <time>2011-08-28T08:48:58Z</time>
      </trkpt>
      <trkpt lat="45.30576" lon="1.4574">
        <ele>414</ele>
        <time>2011-08-28T08:48:59Z</time>
      </trkpt>
      <trkpt lat="45.30583" lon="1.45741">
        <ele>413</ele>
        <time>2011-08-28T08:49:00Z</time>
      </trkpt>
      <trkpt lat="45.30589" lon="1.45742">
        <ele>410</ele>
        <time>2011-08-28T08:49:01Z</time>
      </trkpt>
      <trkpt lat="45.30595" lon="1.45743">
        <ele>407</ele>
        <time>2011-08-28T08:49:02Z</time>
      </trkpt>
      <trkpt lat="45.306" lon="1.45744">
        <ele>405</ele>
        <time>2011-08-28T08:49:03Z</time>
      </trkpt>
      <trkpt lat="45.30605" lon="1.45745">
        <ele>404</ele>
        <time>2011-08-28T08:49:04Z</time>
      </trkpt>
      <trkpt lat="45.3061" lon="1.45746">
        <ele>403</ele>
        <time>2011-08-28T08:49:05Z</time>
      </trkpt>
      <trkpt lat="45.30616" lon="1.45747">
        <ele>403</ele>
        <time>2011-08-28T08:49:06Z</time>
      </trkpt>
      <trkpt lat="45.30622" lon="1.45747">
        <ele>402</ele>
        <time>2011-08-28T08:49:07Z</time>
      </trkpt>
      <trkpt lat="45.30629" lon="1.45749">
        <ele>402</ele>
        <time>2011-08-28T08:49:09Z</time>
      </trkpt>
      <trkpt lat="45.30635" lon="1.4575">
        <ele>400</ele>
        <time>2011-08-28T08:49:11Z</time>
      </trkpt>
      <trkpt lat="45.30643" lon="1.45752">
        <ele>401</ele>
        <time>2011-08-28T08:49:13Z</time>
      </trkpt>
      <trkpt lat="45.3065" lon="1.45754">
        <ele>399</ele>
        <time>2011-08-28T08:49:15Z</time>
      </trkpt>
      <trkpt lat="45.30657" lon="1.45755">
        <ele>398</ele>
        <time>2011-08-28T08:49:17Z</time>
      </trkpt>
      <trkpt lat="45.30663" lon="1.45748">
        <ele>401</ele>
        <time>2011-08-28T08:49:19Z</time>
      </trkpt>
      <trkpt lat="45.30669" lon="1.4574">
        <ele>401</ele>
        <time>2011-08-28T08:49:21Z</time>
      </trkpt>
      <trkpt lat="45.30674" lon="1.45736">
        <ele>398</ele>
        <time>2011-08-28T08:49:23Z</time>
      </trkpt>
      <trkpt lat="45.30678" lon="1.45729">
        <ele>394</ele>
        <time>2011-08-28T08:49:27Z</time>
      </trkpt>
      <trkpt lat="45.30686" lon="1.45726">
        <ele>398</ele>
        <time>2011-08-28T08:51:32Z</time>
      </trkpt>
      <trkpt lat="45.30691" lon="1.45728">
        <ele>404</ele>
        <time>2011-08-28T08:51:35Z</time>
      </trkpt>
      <trkpt lat="45.30696" lon="1.45728">
        <ele>406</ele>
        <time>2011-08-28T08:51:38Z</time>
      </trkpt>
      <trkpt lat="45.30701" lon="1.45731">
        <ele>404</ele>
        <time>2011-08-28T08:51:41Z</time>
      </trkpt>
      <trkpt lat="45.30707" lon="1.45733">
        <ele>410</ele>
        <time>2011-08-28T08:51:43Z</time>
      </trkpt>
      <trkpt lat="45.30713" lon="1.45733">
        <ele>408</ele>
        <time>2011-08-28T08:51:45Z</time>
      </trkpt>
      <trkpt lat="45.30718" lon="1.45733">
        <ele>414</ele>
        <time>2011-08-28T08:51:47Z</time>
      </trkpt>
      <trkpt lat="45.30724" lon="1.45732">
        <ele>417</ele>
        <time>2011-08-28T08:51:49Z</time>
      </trkpt>
      <trkpt lat="45.30731" lon="1.45735">
        <ele>414</ele>
        <time>2011-08-28T08:51:51Z</time>
      </trkpt>
      <trkpt lat="45.30736" lon="1.45737">
        <ele>415</ele>
        <time>2011-08-28T08:51:53Z</time>
      </trkpt>
      <trkpt lat="45.3074" lon="1.45735">
        <ele>410</ele>
        <time>2011-08-28T08:51:55Z</time>
      </trkpt>
      <trkpt lat="45.3074" lon="1.45735">
        <ele>410</ele>
        <time>2011-08-28T08:51:55Z</time>
      </trkpt>
      <trkpt lat="45.3074" lon="1.45735">
        <ele>410</ele>
        <time>2011-08-28T08:51:56Z</time>
      </trkpt>
      <trkpt lat="45.30747" lon="1.45737">
        <ele>410</ele>
        <time>2011-08-28T08:51:58Z</time>
      </trkpt>
      <trkpt lat="45.30753" lon="1.45737">
        <ele>410</ele>
        <time>2011-08-28T08:52:00Z</time>
      </trkpt>
      <trkpt lat="45.3076" lon="1.45737">
        <ele>406</ele>
        <time>2011-08-28T08:52:02Z</time>
      </trkpt>
      <trkpt lat="45.30765" lon="1.45738">
        <ele>409</ele>
        <time>2011-08-28T08:52:04Z</time>
      </trkpt>
      <trkpt lat="45.3077" lon="1.45738">
        <ele>408</ele>
        <time>2011-08-28T08:52:06Z</time>
      </trkpt>
      <trkpt lat="45.30774" lon="1.45737">
        <ele>410</ele>
        <time>2011-08-28T08:52:08Z</time>
      </trkpt>
      <trkpt lat="45.30779" lon="1.45736">
        <ele>419</ele>
        <time>2011-08-28T08:52:10Z</time>
      </trkpt>
      <trkpt lat="45.30786" lon="1.45738">
        <ele>416</ele>
        <time>2011-08-28T08:52:12Z</time>
      </trkpt>
      <trkpt lat="45.30793" lon="1.4574">
        <ele>414</ele>
        <time>2011-08-28T08:52:14Z</time>
      </trkpt>
      <trkpt lat="45.30801" lon="1.45743">
        <ele>411</ele>
        <time>2011-08-28T08:52:16Z</time>
      </trkpt>
      <trkpt lat="45.30807" lon="1.45746">
        <ele>405</ele>
        <time>2011-08-28T08:52:18Z</time>
      </trkpt>
      <trkpt lat="45.30817" lon="1.45747">
        <ele>406</ele>
        <time>2011-08-28T08:52:20Z</time>
      </trkpt>
      <trkpt lat="45.30822" lon="1.45748">
        <ele>400</ele>
        <time>2011-08-28T08:52:21Z</time>
      </trkpt>
      <trkpt lat="45.30828" lon="1.45748">
        <ele>395</ele>
        <time>2011-08-28T08:52:22Z</time>
      </trkpt>
      <trkpt lat="45.30834" lon="1.45749">
        <ele>395</ele>
        <time>2011-08-28T08:52:23Z</time>
      </trkpt>
      <trkpt lat="45.30839" lon="1.45749">
        <ele>393</ele>
        <time>2011-08-28T08:52:24Z</time>
      </trkpt>
      <trkpt lat="45.30844" lon="1.4575">
        <ele>393</ele>
        <time>2011-08-28T08:52:25Z</time>
      </trkpt>
      <trkpt lat="45.30849" lon="1.4575">
        <ele>393</ele>
        <time>2011-08-28T08:52:26Z</time>
      </trkpt>
      <trkpt lat="45.30857" lon="1.45752">
        <ele>392</ele>
        <time>2011-08-28T08:52:28Z</time>
      </trkpt>
      <trkpt lat="45.30863" lon="1.45753">
        <ele>392</ele>
        <time>2011-08-28T08:52:30Z</time>
      </trkpt>
      <trkpt lat="45.30868" lon="1.45754">
        <ele>393</ele>
        <time>2011-08-28T08:52:32Z</time>
      </trkpt>
      <trkpt lat="45.30874" lon="1.45752">
        <ele>390</ele>
        <time>2011-08-28T08:52:35Z</time>
      </trkpt>
      <trkpt lat="45.30879" lon="1.45752">
        <ele>391</ele>
        <time>2011-08-28T08:52:37Z</time>
      </trkpt>
      <trkpt lat="45.30885" lon="1.45752">
        <ele>397</ele>
        <time>2011-08-28T08:52:39Z</time>
      </trkpt>
      <trkpt lat="45.30885" lon="1.45752">
        <ele>397</ele>
        <time>2011-08-28T08:52:39Z</time>
      </trkpt>
      <trkpt lat="45.30885" lon="1.45752">
        <ele>397</ele>
        <time>2011-08-28T08:52:40Z</time>
      </trkpt>
      <trkpt lat="45.3089" lon="1.45752">
        <ele>392</ele>
        <time>2011-08-28T08:52:41Z</time>
      </trkpt>
      <trkpt lat="45.30895" lon="1.45753">
        <ele>392</ele>
        <time>2011-08-28T08:52:43Z</time>
      </trkpt>
      <trkpt lat="45.309" lon="1.45753">
        <ele>391</ele>
        <time>2011-08-28T08:52:45Z</time>
      </trkpt>
      <trkpt lat="45.30906" lon="1.45754">
        <ele>398</ele>
        <time>2011-08-28T08:52:47Z</time>
      </trkpt>
      <trkpt lat="45.30913" lon="1.45758">
        <ele>401</ele>
        <time>2011-08-28T08:52:49Z</time>
      </trkpt>
      <trkpt lat="45.3092" lon="1.4576">
        <ele>398</ele>
        <time>2011-08-28T08:52:51Z</time>
      </trkpt>
      <trkpt lat="45.30927" lon="1.45763">
        <ele>399</ele>
        <time>2011-08-28T08:52:53Z</time>
      </trkpt>
      <trkpt lat="45.30934" lon="1.45763">
        <ele>398</ele>
        <time>2011-08-28T08:52:55Z</time>
      </trkpt>
      <trkpt lat="45.30942" lon="1.45762">
        <ele>395</ele>
        <time>2011-08-28T08:52:57Z</time>
      </trkpt>
      <trkpt lat="45.3095" lon="1.45759">
        <ele>394</ele>
        <time>2011-08-28T08:52:59Z</time>
      </trkpt>
      <trkpt lat="45.30958" lon="1.45755">
        <ele>392</ele>
        <time>2011-08-28T08:53:01Z</time>
      </trkpt>
      <trkpt lat="45.30962" lon="1.45752">
        <ele>391</ele>
        <time>2011-08-28T08:53:02Z</time>
      </trkpt>
      <trkpt lat="45.30966" lon="1.45748">
        <ele>391</ele>
        <time>2011-08-28T08:53:03Z</time>
      </trkpt>
      <trkpt lat="45.30971" lon="1.45744">
        <ele>391</ele>
        <time>2011-08-28T08:53:04Z</time>
      </trkpt>
      <trkpt lat="45.30975" lon="1.45741">
        <ele>392</ele>
        <time>2011-08-28T08:53:05Z</time>
      </trkpt>
      <trkpt lat="45.3098" lon="1.45738">
        <ele>393</ele>
        <time>2011-08-28T08:53:06Z</time>
      </trkpt>
      <trkpt lat="45.30985" lon="1.45737">
        <ele>394</ele>
        <time>2011-08-28T08:53:07Z</time>
      </trkpt>
      <trkpt lat="45.30992" lon="1.45737">
        <ele>390</ele>
        <time>2011-08-28T08:53:09Z</time>
      </trkpt>
      <trkpt lat="45.30998" lon="1.45737">
        <ele>389</ele>
        <time>2011-08-28T08:53:11Z</time>
      </trkpt>
      <trkpt lat="45.31004" lon="1.45737">
        <ele>393</ele>
        <time>2011-08-28T08:53:13Z</time>
      </trkpt>
      <trkpt lat="45.3101" lon="1.45736">
        <ele>394</ele>
        <time>2011-08-28T08:53:15Z</time>
      </trkpt>
      <trkpt lat="45.31016" lon="1.45735">
        <ele>393</ele>
        <time>2011-08-28T08:53:17Z</time>
      </trkpt>
      <trkpt lat="45.31021" lon="1.45733">
        <ele>396</ele>
        <time>2011-08-28T08:53:19Z</time>
      </trkpt>
      <trkpt lat="45.31026" lon="1.4573">
        <ele>399</ele>
        <time>2011-08-28T08:53:21Z</time>
      </trkpt>
      <trkpt lat="45.31032" lon="1.45726">
        <ele>395</ele>
        <time>2011-08-28T08:53:23Z</time>
      </trkpt>
      <trkpt lat="45.31036" lon="1.4572">
        <ele>399</ele>
        <time>2011-08-28T08:53:25Z</time>
      </trkpt>
      <trkpt lat="45.3104" lon="1.45715">
        <ele>400</ele>
        <time>2011-08-28T08:53:27Z</time>
      </trkpt>
      <trkpt lat="45.31045" lon="1.45709">
        <ele>403</ele>
        <time>2011-08-28T08:53:30Z</time>
      </trkpt>
      <trkpt lat="45.31045" lon="1.45709">
        <ele>403</ele>
        <time>2011-08-28T08:53:30Z</time>
      </trkpt>
      <trkpt lat="45.31045" lon="1.45709">
        <ele>403</ele>
        <time>2011-08-28T08:53:31Z</time>
      </trkpt>
      <trkpt lat="45.31049" lon="1.45704">
        <ele>401</ele>
        <time>2011-08-28T08:53:32Z</time>
      </trkpt>
      <trkpt lat="45.31053" lon="1.45699">
        <ele>396</ele>
        <time>2011-08-28T08:53:34Z</time>
      </trkpt>
      <trkpt lat="45.31058" lon="1.45694">
        <ele>395</ele>
        <time>2011-08-28T08:53:36Z</time>
      </trkpt>
      <trkpt lat="45.31063" lon="1.45689">
        <ele>395</ele>
        <time>2011-08-28T08:53:38Z</time>
      </trkpt>
      <trkpt lat="45.31066" lon="1.45685">
        <ele>397</ele>
        <time>2011-08-28T08:53:40Z</time>
      </trkpt>
      <trkpt lat="45.31066" lon="1.45685">
        <ele>397</ele>
        <time>2011-08-28T08:53:40Z</time>
      </trkpt>
      <trkpt lat="45.31066" lon="1.45685">
        <ele>397</ele>
        <time>2011-08-28T08:53:44Z</time>
      </trkpt>
      <trkpt lat="45.31071" lon="1.45682">
        <ele>399</ele>
        <time>2011-08-28T08:53:48Z</time>
      </trkpt>
      <trkpt lat="45.31071" lon="1.45682">
        <ele>399</ele>
        <time>2011-08-28T08:53:48Z</time>
      </trkpt>
      <trkpt lat="45.31071" lon="1.45682">
        <ele>399</ele>
        <time>2011-08-28T08:53:49Z</time>
      </trkpt>
      <trkpt lat="45.31078" lon="1.45678">
        <ele>401</ele>
        <time>2011-08-28T08:53:53Z</time>
      </trkpt>
      <trkpt lat="45.31082" lon="1.45675">
        <ele>403</ele>
        <time>2011-08-28T08:53:56Z</time>
      </trkpt>
      <trkpt lat="45.31087" lon="1.45672">
        <ele>403</ele>
        <time>2011-08-28T08:53:59Z</time>
      </trkpt>
      <trkpt lat="45.31092" lon="1.4567">
        <ele>404</ele>
        <time>2011-08-28T08:54:02Z</time>
      </trkpt>
      <trkpt lat="45.31097" lon="1.45668">
        <ele>400</ele>
        <time>2011-08-28T08:54:05Z</time>
      </trkpt>
      <trkpt lat="45.31103" lon="1.45666">
        <ele>400</ele>
        <time>2011-08-28T08:54:08Z</time>
      </trkpt>
      <trkpt lat="45.31109" lon="1.45664">
        <ele>401</ele>
        <time>2011-08-28T08:54:11Z</time>
      </trkpt>
      <trkpt lat="45.31113" lon="1.45663">
        <ele>402</ele>
        <time>2011-08-28T08:54:14Z</time>
      </trkpt>
      <trkpt lat="45.31118" lon="1.45662">
        <ele>403</ele>
        <time>2011-08-28T08:54:17Z</time>
      </trkpt>
      <trkpt lat="45.31123" lon="1.45661">
        <ele>403</ele>
        <time>2011-08-28T08:54:20Z</time>
      </trkpt>
      <trkpt lat="45.31128" lon="1.4566">
        <ele>403</ele>
        <time>2011-08-28T08:54:23Z</time>
      </trkpt>
      <trkpt lat="45.31133" lon="1.45658">
        <ele>406</ele>
        <time>2011-08-28T08:54:26Z</time>
      </trkpt>
      <trkpt lat="45.31137" lon="1.45658">
        <ele>406</ele>
        <time>2011-08-28T08:54:29Z</time>
      </trkpt>
      <trkpt lat="45.31143" lon="1.45656">
        <ele>404</ele>
        <time>2011-08-28T08:54:32Z</time>
      </trkpt>
      <trkpt lat="45.31148" lon="1.45654">
        <ele>404</ele>
        <time>2011-08-28T08:54:34Z</time>
      </trkpt>
      <trkpt lat="45.31153" lon="1.45652">
        <ele>402</ele>
        <time>2011-08-28T08:54:37Z</time>
      </trkpt>
      <trkpt lat="45.31158" lon="1.45649">
        <ele>405</ele>
        <time>2011-08-28T08:54:40Z</time>
      </trkpt>
      <trkpt lat="45.31163" lon="1.45647">
        <ele>405</ele>
        <time>2011-08-28T08:54:43Z</time>
      </trkpt>
      <trkpt lat="45.3117" lon="1.45646">
        <ele>399</ele>
        <time>2011-08-28T08:54:46Z</time>
      </trkpt>
      <trkpt lat="45.31176" lon="1.45649">
        <ele>400</ele>
        <time>2011-08-28T08:54:48Z</time>
      </trkpt>
      <trkpt lat="45.3118" lon="1.45653">
        <ele>401</ele>
        <time>2011-08-28T08:54:50Z</time>
      </trkpt>
      <trkpt lat="45.31184" lon="1.45657">
        <ele>401</ele>
        <time>2011-08-28T08:54:53Z</time>
      </trkpt>
      <trkpt lat="45.31188" lon="1.45662">
        <ele>405</ele>
        <time>2011-08-28T08:56:08Z</time>
      </trkpt>
      <trkpt lat="45.31191" lon="1.45668">
        <ele>406</ele>
        <time>2011-08-28T08:56:12Z</time>
      </trkpt>
      <trkpt lat="45.31193" lon="1.45675">
        <ele>407</ele>
        <time>2011-08-28T08:56:15Z</time>
      </trkpt>
      <trkpt lat="45.31196" lon="1.45681">
        <ele>407</ele>
        <time>2011-08-28T08:56:18Z</time>
      </trkpt>
      <trkpt lat="45.31201" lon="1.45687">
        <ele>405</ele>
        <time>2011-08-28T08:56:21Z</time>
      </trkpt>
      <trkpt lat="45.31206" lon="1.45691">
        <ele>405</ele>
        <time>2011-08-28T08:56:23Z</time>
      </trkpt>
      <trkpt lat="45.31211" lon="1.45695">
        <ele>405</ele>
        <time>2011-08-28T08:56:25Z</time>
      </trkpt>
      <trkpt lat="45.31216" lon="1.457">
        <ele>404</ele>
        <time>2011-08-28T08:56:28Z</time>
      </trkpt>
      <trkpt lat="45.31221" lon="1.45704">
        <ele>404</ele>
        <time>2011-08-28T08:56:31Z</time>
      </trkpt>
      <trkpt lat="45.31226" lon="1.45706">
        <ele>405</ele>
        <time>2011-08-28T08:56:34Z</time>
      </trkpt>
      <trkpt lat="45.3123" lon="1.45708">
        <ele>405</ele>
        <time>2011-08-28T08:56:37Z</time>
      </trkpt>
      <trkpt lat="45.31235" lon="1.45712">
        <ele>407</ele>
        <time>2011-08-28T08:56:41Z</time>
      </trkpt>
      <trkpt lat="45.3124" lon="1.45714">
        <ele>408</ele>
        <time>2011-08-28T08:56:44Z</time>
      </trkpt>
      <trkpt lat="45.31245" lon="1.45717">
        <ele>407</ele>
        <time>2011-08-28T08:56:47Z</time>
      </trkpt>
      <trkpt lat="45.3125" lon="1.4572">
        <ele>407</ele>
        <time>2011-08-28T08:56:50Z</time>
      </trkpt>
      <trkpt lat="45.31255" lon="1.45721">
        <ele>407</ele>
        <time>2011-08-28T08:56:53Z</time>
      </trkpt>
      <trkpt lat="45.3126" lon="1.45721">
        <ele>406</ele>
        <time>2011-08-28T08:56:57Z</time>
      </trkpt>
      <trkpt lat="45.31264" lon="1.4572">
        <ele>407</ele>
        <time>2011-08-28T08:57:00Z</time>
      </trkpt>
      <trkpt lat="45.31269" lon="1.45718">
        <ele>408</ele>
        <time>2011-08-28T08:57:02Z</time>
      </trkpt>
      <trkpt lat="45.31274" lon="1.45715">
        <ele>408</ele>
        <time>2011-08-28T08:57:04Z</time>
      </trkpt>
      <trkpt lat="45.3128" lon="1.45713">
        <ele>408</ele>
        <time>2011-08-28T08:57:06Z</time>
      </trkpt>
      <trkpt lat="45.31288" lon="1.4571">
        <ele>408</ele>
        <time>2011-08-28T08:57:08Z</time>
      </trkpt>
      <trkpt lat="45.31296" lon="1.45708">
        <ele>408</ele>
        <time>2011-08-28T08:57:10Z</time>
      </trkpt>
      <trkpt lat="45.31302" lon="1.4571">
        <ele>408</ele>
        <time>2011-08-28T08:57:12Z</time>
      </trkpt>
      <trkpt lat="45.31307" lon="1.45712">
        <ele>404</ele>
        <time>2011-08-28T08:57:14Z</time>
      </trkpt>
      <trkpt lat="45.31312" lon="1.45715">
        <ele>404</ele>
        <time>2011-08-28T08:57:16Z</time>
      </trkpt>
      <trkpt lat="45.31316" lon="1.45719">
        <ele>405</ele>
        <time>2011-08-28T08:57:18Z</time>
      </trkpt>
      <trkpt lat="45.3132" lon="1.45724">
        <ele>405</ele>
        <time>2011-08-28T08:57:20Z</time>
      </trkpt>
      <trkpt lat="45.31325" lon="1.45728">
        <ele>405</ele>
        <time>2011-08-28T08:57:22Z</time>
      </trkpt>
      <trkpt lat="45.3133" lon="1.45731">
        <ele>405</ele>
        <time>2011-08-28T08:57:24Z</time>
      </trkpt>
      <trkpt lat="45.31336" lon="1.45734">
        <ele>405</ele>
        <time>2011-08-28T08:57:26Z</time>
      </trkpt>
      <trkpt lat="45.31342" lon="1.45736">
        <ele>403</ele>
        <time>2011-08-28T08:57:28Z</time>
      </trkpt>
      <trkpt lat="45.3135" lon="1.45739">
        <ele>402</ele>
        <time>2011-08-28T08:57:30Z</time>
      </trkpt>
      <trkpt lat="45.31358" lon="1.45741">
        <ele>402</ele>
        <time>2011-08-28T08:57:32Z</time>
      </trkpt>
      <trkpt lat="45.31365" lon="1.45744">
        <ele>401</ele>
        <time>2011-08-28T08:57:34Z</time>
      </trkpt>
      <trkpt lat="45.31373" lon="1.45746">
        <ele>402</ele>
        <time>2011-08-28T08:57:36Z</time>
      </trkpt>
      <trkpt lat="45.3138" lon="1.45748">
        <ele>401</ele>
        <time>2011-08-28T08:57:38Z</time>
      </trkpt>
      <trkpt lat="45.31387" lon="1.4575">
        <ele>401</ele>
        <time>2011-08-28T08:57:40Z</time>
      </trkpt>
      <trkpt lat="45.31395" lon="1.45752">
        <ele>401</ele>
        <time>2011-08-28T08:57:42Z</time>
      </trkpt>
      <trkpt lat="45.31403" lon="1.45753">
        <ele>400</ele>
        <time>2011-08-28T08:57:44Z</time>
      </trkpt>
      <trkpt lat="45.31412" lon="1.45753">
        <ele>399</ele>
        <time>2011-08-28T08:57:46Z</time>
      </trkpt>
      <trkpt lat="45.3142" lon="1.45752">
        <ele>398</ele>
        <time>2011-08-28T08:57:48Z</time>
      </trkpt>
      <trkpt lat="45.31426" lon="1.45749">
        <ele>398</ele>
        <time>2011-08-28T08:57:50Z</time>
      </trkpt>
      <trkpt lat="45.31433" lon="1.45746">
        <ele>396</ele>
        <time>2011-08-28T08:57:52Z</time>
      </trkpt>
      <trkpt lat="45.31439" lon="1.45741">
        <ele>395</ele>
        <time>2011-08-28T08:57:54Z</time>
      </trkpt>
      <trkpt lat="45.31444" lon="1.45737">
        <ele>397</ele>
        <time>2011-08-28T08:57:56Z</time>
      </trkpt>
      <trkpt lat="45.31449" lon="1.45734">
        <ele>398</ele>
        <time>2011-08-28T08:57:58Z</time>
      </trkpt>
      <trkpt lat="45.31454" lon="1.45732">
        <ele>397</ele>
        <time>2011-08-28T08:58:00Z</time>
      </trkpt>
      <trkpt lat="45.31459" lon="1.4573">
        <ele>400</ele>
        <time>2011-08-28T08:58:02Z</time>
      </trkpt>
      <trkpt lat="45.31464" lon="1.45731">
        <ele>402</ele>
        <time>2011-08-28T08:58:04Z</time>
      </trkpt>
      <trkpt lat="45.31469" lon="1.45733">
        <ele>403</ele>
        <time>2011-08-28T08:58:06Z</time>
      </trkpt>
      <trkpt lat="45.31474" lon="1.45736">
        <ele>404</ele>
        <time>2011-08-28T08:58:08Z</time>
      </trkpt>
      <trkpt lat="45.31479" lon="1.45738">
        <ele>405</ele>
        <time>2011-08-28T08:58:10Z</time>
      </trkpt>
      <trkpt lat="45.31484" lon="1.45742">
        <ele>402</ele>
        <time>2011-08-28T08:58:13Z</time>
      </trkpt>
      <trkpt lat="45.31489" lon="1.45742">
        <ele>401</ele>
        <time>2011-08-28T08:58:17Z</time>
      </trkpt>
      <trkpt lat="45.31494" lon="1.45741">
        <ele>400</ele>
        <time>2011-08-28T08:58:36Z</time>
      </trkpt>
      <trkpt lat="45.31497" lon="1.45735">
        <ele>398</ele>
        <time>2011-08-28T08:58:39Z</time>
      </trkpt>
      <trkpt lat="45.31501" lon="1.4573">
        <ele>397</ele>
        <time>2011-08-28T08:58:41Z</time>
      </trkpt>
      <trkpt lat="45.31505" lon="1.45725">
        <ele>398</ele>
        <time>2011-08-28T08:58:43Z</time>
      </trkpt>
      <trkpt lat="45.31508" lon="1.45721">
        <ele>402</ele>
        <time>2011-08-28T08:58:45Z</time>
      </trkpt>
      <trkpt lat="45.31512" lon="1.45716">
        <ele>404</ele>
        <time>2011-08-28T08:58:47Z</time>
      </trkpt>
      <trkpt lat="45.31515" lon="1.4571">
        <ele>407</ele>
        <time>2011-08-28T08:58:50Z</time>
      </trkpt>
      <trkpt lat="45.3152" lon="1.45708">
        <ele>420</ele>
        <time>2011-08-28T08:59:07Z</time>
      </trkpt>
      <trkpt lat="45.31523" lon="1.45713">
        <ele>409</ele>
        <time>2011-08-28T08:59:44Z</time>
      </trkpt>
      <trkpt lat="45.31526" lon="1.45718">
        <ele>410</ele>
        <time>2011-08-28T08:59:46Z</time>
      </trkpt>
      <trkpt lat="45.31529" lon="1.45723">
        <ele>410</ele>
        <time>2011-08-28T08:59:48Z</time>
      </trkpt>
      <trkpt lat="45.31531" lon="1.45729">
        <ele>405</ele>
        <time>2011-08-28T08:59:50Z</time>
      </trkpt>
      <trkpt lat="45.31532" lon="1.45737">
        <ele>403</ele>
        <time>2011-08-28T08:59:52Z</time>
      </trkpt>
      <trkpt lat="45.31534" lon="1.45746">
        <ele>402</ele>
        <time>2011-08-28T08:59:54Z</time>
      </trkpt>
      <trkpt lat="45.31536" lon="1.45757">
        <ele>402</ele>
        <time>2011-08-28T08:59:56Z</time>
      </trkpt>
      <trkpt lat="45.31538" lon="1.45767">
        <ele>403</ele>
        <time>2011-08-28T08:59:58Z</time>
      </trkpt>
      <trkpt lat="45.3154" lon="1.45775">
        <ele>402</ele>
        <time>2011-08-28T09:00:00Z</time>
      </trkpt>
      <trkpt lat="45.31543" lon="1.45781">
        <ele>402</ele>
        <time>2011-08-28T09:00:02Z</time>
      </trkpt>
      <trkpt lat="45.31546" lon="1.45786">
        <ele>401</ele>
        <time>2011-08-28T09:00:04Z</time>
      </trkpt>
      <trkpt lat="45.31549" lon="1.45793">
        <ele>401</ele>
        <time>2011-08-28T09:00:07Z</time>
      </trkpt>
      <trkpt lat="45.3155" lon="1.45804">
        <ele>402</ele>
        <time>2011-08-28T09:00:10Z</time>
      </trkpt>
      <trkpt lat="45.3155" lon="1.45811">
        <ele>401</ele>
        <time>2011-08-28T09:00:12Z</time>
      </trkpt>
      <trkpt lat="45.31549" lon="1.45819">
        <ele>400</ele>
        <time>2011-08-28T09:00:16Z</time>
      </trkpt>
      <trkpt lat="45.31548" lon="1.45826">
        <ele>400</ele>
        <time>2011-08-28T09:00:20Z</time>
      </trkpt>
      <trkpt lat="45.31548" lon="1.45833">
        <ele>401</ele>
        <time>2011-08-28T09:00:24Z</time>
      </trkpt>
      <trkpt lat="45.31547" lon="1.45841">
        <ele>401</ele>
        <time>2011-08-28T09:00:26Z</time>
      </trkpt>
      <trkpt lat="45.31546" lon="1.4585">
        <ele>399</ele>
        <time>2011-08-28T09:00:28Z</time>
      </trkpt>
      <trkpt lat="45.31547" lon="1.45859">
        <ele>398</ele>
        <time>2011-08-28T09:00:30Z</time>
      </trkpt>
      <trkpt lat="45.31552" lon="1.45863">
        <ele>397</ele>
        <time>2011-08-28T09:00:32Z</time>
      </trkpt>
      <trkpt lat="45.3156" lon="1.4586">
        <ele>397</ele>
        <time>2011-08-28T09:00:34Z</time>
      </trkpt>
      <trkpt lat="45.31564" lon="1.45857">
        <ele>397</ele>
        <time>2011-08-28T09:00:35Z</time>
      </trkpt>
      <trkpt lat="45.31568" lon="1.45853">
        <ele>399</ele>
        <time>2011-08-28T09:00:36Z</time>
      </trkpt>
      <trkpt lat="45.3158" lon="1.45834">
        <ele>398</ele>
        <time>2011-08-28T09:00:40Z</time>
      </trkpt>
      <trkpt lat="45.31582" lon="1.45828">
        <ele>400</ele>
        <time>2011-08-28T09:00:41Z</time>
      </trkpt>
      <trkpt lat="45.31584" lon="1.45822">
        <ele>398</ele>
        <time>2011-08-28T09:00:42Z</time>
      </trkpt>
      <trkpt lat="45.31586" lon="1.45815">
        <ele>393</ele>
        <time>2011-08-28T09:00:43Z</time>
      </trkpt>
      <trkpt lat="45.31588" lon="1.45808">
        <ele>389</ele>
        <time>2011-08-28T09:00:44Z</time>
      </trkpt>
      <trkpt lat="45.3159" lon="1.458">
        <ele>390</ele>
        <time>2011-08-28T09:00:45Z</time>
      </trkpt>
      <trkpt lat="45.31592" lon="1.45792">
        <ele>392</ele>
        <time>2011-08-28T09:00:46Z</time>
      </trkpt>
      <trkpt lat="45.31593" lon="1.45785">
        <ele>393</ele>
        <time>2011-08-28T09:00:47Z</time>
      </trkpt>
      <trkpt lat="45.31595" lon="1.45779">
        <ele>393</ele>
        <time>2011-08-28T09:00:48Z</time>
      </trkpt>
      <trkpt lat="45.31601" lon="1.45773">
        <ele>393</ele>
        <time>2011-08-28T09:00:50Z</time>
      </trkpt>
      <trkpt lat="45.31608" lon="1.45769">
        <ele>390</ele>
        <time>2011-08-28T09:00:52Z</time>
      </trkpt>
      <trkpt lat="45.31614" lon="1.45771">
        <ele>392</ele>
        <time>2011-08-28T09:00:54Z</time>
      </trkpt>
      <trkpt lat="45.3162" lon="1.45776">
        <ele>394</ele>
        <time>2011-08-28T09:00:56Z</time>
      </trkpt>
      <trkpt lat="45.31625" lon="1.45781">
        <ele>392</ele>
        <time>2011-08-28T09:00:58Z</time>
      </trkpt>
      <trkpt lat="45.31631" lon="1.45785">
        <ele>390</ele>
        <time>2011-08-28T09:01:00Z</time>
      </trkpt>
      <trkpt lat="45.31636" lon="1.45787">
        <ele>392</ele>
        <time>2011-08-28T09:01:02Z</time>
      </trkpt>
      <trkpt lat="45.31642" lon="1.45788">
        <ele>392</ele>
        <time>2011-08-28T09:01:05Z</time>
      </trkpt>
      <trkpt lat="45.31646" lon="1.45789">
        <ele>389</ele>
        <time>2011-08-28T09:01:08Z</time>
      </trkpt>
      <trkpt lat="45.31652" lon="1.45789">
        <ele>388</ele>
        <time>2011-08-28T09:01:11Z</time>
      </trkpt>
      <trkpt lat="45.31657" lon="1.4579">
        <ele>394</ele>
        <time>2011-08-28T09:01:14Z</time>
      </trkpt>
      <trkpt lat="45.31662" lon="1.4579">
        <ele>396</ele>
        <time>2011-08-28T09:01:17Z</time>
      </trkpt>
      <trkpt lat="45.31668" lon="1.4579">
        <ele>393</ele>
        <time>2011-08-28T09:01:20Z</time>
      </trkpt>
      <trkpt lat="45.31674" lon="1.45789">
        <ele>394</ele>
        <time>2011-08-28T09:01:23Z</time>
      </trkpt>
      <trkpt lat="45.3168" lon="1.45789">
        <ele>396</ele>
        <time>2011-08-28T09:01:26Z</time>
      </trkpt>
      <trkpt lat="45.31685" lon="1.45787">
        <ele>399</ele>
        <time>2011-08-28T09:01:29Z</time>
      </trkpt>
      <trkpt lat="45.3169" lon="1.45784">
        <ele>400</ele>
        <time>2011-08-28T09:01:32Z</time>
      </trkpt>
      <trkpt lat="45.31697" lon="1.45781">
        <ele>403</ele>
        <time>2011-08-28T09:01:35Z</time>
      </trkpt>
      <trkpt lat="45.31706" lon="1.4578">
        <ele>398</ele>
        <time>2011-08-28T09:01:39Z</time>
      </trkpt>
      <trkpt lat="45.31712" lon="1.45778">
        <ele>396</ele>
        <time>2011-08-28T09:01:41Z</time>
      </trkpt>
      <trkpt lat="45.31719" lon="1.45776">
        <ele>395</ele>
        <time>2011-08-28T09:01:43Z</time>
      </trkpt>
      <trkpt lat="45.31724" lon="1.45775">
        <ele>395</ele>
        <time>2011-08-28T09:01:45Z</time>
      </trkpt>
      <trkpt lat="45.3173" lon="1.45774">
        <ele>391</ele>
        <time>2011-08-28T09:01:47Z</time>
      </trkpt>
      <trkpt lat="45.31736" lon="1.45773">
        <ele>392</ele>
        <time>2011-08-28T09:01:49Z</time>
      </trkpt>
      <trkpt lat="45.31741" lon="1.45772">
        <ele>390</ele>
        <time>2011-08-28T09:01:51Z</time>
      </trkpt>
      <trkpt lat="45.31747" lon="1.4577">
        <ele>391</ele>
        <time>2011-08-28T09:01:53Z</time>
      </trkpt>
      <trkpt lat="45.31752" lon="1.4577">
        <ele>393</ele>
        <time>2011-08-28T09:01:55Z</time>
      </trkpt>
      <trkpt lat="45.31758" lon="1.45769">
        <ele>392</ele>
        <time>2011-08-28T09:01:57Z</time>
      </trkpt>
      <trkpt lat="45.31763" lon="1.45769">
        <ele>392</ele>
        <time>2011-08-28T09:01:59Z</time>
      </trkpt>
      <trkpt lat="45.31768" lon="1.45771">
        <ele>392</ele>
        <time>2011-08-28T09:02:01Z</time>
      </trkpt>
      <trkpt lat="45.31773" lon="1.45775">
        <ele>392</ele>
        <time>2011-08-28T09:02:03Z</time>
      </trkpt>
      <trkpt lat="45.31776" lon="1.45781">
        <ele>393</ele>
        <time>2011-08-28T09:02:05Z</time>
      </trkpt>
      <trkpt lat="45.31778" lon="1.45788">
        <ele>392</ele>
        <time>2011-08-28T09:02:07Z</time>
      </trkpt>
      <trkpt lat="45.31778" lon="1.45796">
        <ele>392</ele>
        <time>2011-08-28T09:02:09Z</time>
      </trkpt>
      <trkpt lat="45.31776" lon="1.45803">
        <ele>393</ele>
        <time>2011-08-28T09:02:12Z</time>
      </trkpt>
      <trkpt lat="45.31774" lon="1.45809">
        <ele>393</ele>
        <time>2011-08-28T09:02:14Z</time>
      </trkpt>
      <trkpt lat="45.31773" lon="1.45816">
        <ele>393</ele>
        <time>2011-08-28T09:02:16Z</time>
      </trkpt>
      <trkpt lat="45.31776" lon="1.45822">
        <ele>391</ele>
        <time>2011-08-28T09:02:18Z</time>
      </trkpt>
      <trkpt lat="45.3178" lon="1.45826">
        <ele>390</ele>
        <time>2011-08-28T09:02:20Z</time>
      </trkpt>
      <trkpt lat="45.31786" lon="1.45828">
        <ele>390</ele>
        <time>2011-08-28T09:02:23Z</time>
      </trkpt>
      <trkpt lat="45.31792" lon="1.45828">
        <ele>389</ele>
        <time>2011-08-28T09:02:25Z</time>
      </trkpt>
      <trkpt lat="45.31799" lon="1.45829">
        <ele>389</ele>
        <time>2011-08-28T09:02:27Z</time>
      </trkpt>
      <trkpt lat="45.31806" lon="1.4583">
        <ele>388</ele>
        <time>2011-08-28T09:02:29Z</time>
      </trkpt>
      <trkpt lat="45.31813" lon="1.45832">
        <ele>387</ele>
        <time>2011-08-28T09:02:31Z</time>
      </trkpt>
      <trkpt lat="45.31818" lon="1.45835">
        <ele>388</ele>
        <time>2011-08-28T09:02:33Z</time>
      </trkpt>
      <trkpt lat="45.31823" lon="1.45843">
        <ele>388</ele>
        <time>2011-08-28T09:02:36Z</time>
      </trkpt>
      <trkpt lat="45.31825" lon="1.4585">
        <ele>387</ele>
        <time>2011-08-28T09:02:38Z</time>
      </trkpt>
      <trkpt lat="45.31826" lon="1.45857">
        <ele>386</ele>
        <time>2011-08-28T09:02:40Z</time>
      </trkpt>
      <trkpt lat="45.31827" lon="1.45864">
        <ele>389</ele>
        <time>2011-08-28T09:02:42Z</time>
      </trkpt>
      <trkpt lat="45.31828" lon="1.45871">
        <ele>390</ele>
        <time>2011-08-28T09:02:44Z</time>
      </trkpt>
      <trkpt lat="45.31829" lon="1.4588">
        <ele>391</ele>
        <time>2011-08-28T09:02:46Z</time>
      </trkpt>
      <trkpt lat="45.31829" lon="1.45886">
        <ele>391</ele>
        <time>2011-08-28T09:02:48Z</time>
      </trkpt>
      <trkpt lat="45.3183" lon="1.45894">
        <ele>390</ele>
        <time>2011-08-28T09:02:50Z</time>
      </trkpt>
      <trkpt lat="45.31831" lon="1.45901">
        <ele>388</ele>
        <time>2011-08-28T09:02:52Z</time>
      </trkpt>
      <trkpt lat="45.31833" lon="1.4591">
        <ele>388</ele>
        <time>2011-08-28T09:02:55Z</time>
      </trkpt>
      <trkpt lat="45.31835" lon="1.45917">
        <ele>389</ele>
        <time>2011-08-28T09:02:58Z</time>
      </trkpt>
      <trkpt lat="45.31838" lon="1.45923">
        <ele>385</ele>
        <time>2011-08-28T09:03:01Z</time>
      </trkpt>
      <trkpt lat="45.31842" lon="1.4593">
        <ele>390</ele>
        <time>2011-08-28T09:03:05Z</time>
      </trkpt>
      <trkpt lat="45.31845" lon="1.45936">
        <ele>397</ele>
        <time>2011-08-28T09:03:08Z</time>
      </trkpt>
      <trkpt lat="45.31848" lon="1.45942">
        <ele>399</ele>
        <time>2011-08-28T09:03:12Z</time>
      </trkpt>
      <trkpt lat="45.31852" lon="1.45946">
        <ele>395</ele>
        <time>2011-08-28T09:03:15Z</time>
      </trkpt>
      <trkpt lat="45.31856" lon="1.45953">
        <ele>394</ele>
        <time>2011-08-28T09:03:18Z</time>
      </trkpt>
      <trkpt lat="45.3186" lon="1.45959">
        <ele>393</ele>
        <time>2011-08-28T09:03:20Z</time>
      </trkpt>
      <trkpt lat="45.31868" lon="1.45966">
        <ele>391</ele>
        <time>2011-08-28T09:03:22Z</time>
      </trkpt>
      <trkpt lat="45.31872" lon="1.45969">
        <ele>391</ele>
        <time>2011-08-28T09:03:23Z</time>
      </trkpt>
      <trkpt lat="45.31877" lon="1.45972">
        <ele>390</ele>
        <time>2011-08-28T09:03:24Z</time>
      </trkpt>
      <trkpt lat="45.31885" lon="1.45976">
        <ele>391</ele>
        <time>2011-08-28T09:03:26Z</time>
      </trkpt>
      <trkpt lat="45.31889" lon="1.45978">
        <ele>393</ele>
        <time>2011-08-28T09:03:27Z</time>
      </trkpt>
      <trkpt lat="45.31894" lon="1.45981">
        <ele>392</ele>
        <time>2011-08-28T09:03:28Z</time>
      </trkpt>
      <trkpt lat="45.31898" lon="1.45983">
        <ele>393</ele>
        <time>2011-08-28T09:03:29Z</time>
      </trkpt>
      <trkpt lat="45.31907" lon="1.45985">
        <ele>393</ele>
        <time>2011-08-28T09:03:31Z</time>
      </trkpt>
      <trkpt lat="45.31916" lon="1.45986">
        <ele>392</ele>
        <time>2011-08-28T09:03:33Z</time>
      </trkpt>
      <trkpt lat="45.31924" lon="1.45986">
        <ele>392</ele>
        <time>2011-08-28T09:03:35Z</time>
      </trkpt>
      <trkpt lat="45.31931" lon="1.45985">
        <ele>392</ele>
        <time>2011-08-28T09:03:37Z</time>
      </trkpt>
      <trkpt lat="45.31942" lon="1.45984">
        <ele>396</ele>
        <time>2011-08-28T09:03:40Z</time>
      </trkpt>
      <trkpt lat="45.31948" lon="1.45982">
        <ele>395</ele>
        <time>2011-08-28T09:03:42Z</time>
      </trkpt>
      <trkpt lat="45.31955" lon="1.45986">
        <ele>395</ele>
        <time>2011-08-28T09:03:44Z</time>
      </trkpt>
      <trkpt lat="45.31963" lon="1.45992">
        <ele>391</ele>
        <time>2011-08-28T09:03:46Z</time>
      </trkpt>
      <trkpt lat="45.31967" lon="1.45995">
        <ele>389</ele>
        <time>2011-08-28T09:03:47Z</time>
      </trkpt>
      <trkpt lat="45.31971" lon="1.45998">
        <ele>385</ele>
        <time>2011-08-28T09:03:48Z</time>
      </trkpt>
      <trkpt lat="45.31975" lon="1.46001">
        <ele>381</ele>
        <time>2011-08-28T09:03:49Z</time>
      </trkpt>
      <trkpt lat="45.31979" lon="1.46004">
        <ele>379</ele>
        <time>2011-08-28T09:03:50Z</time>
      </trkpt>
      <trkpt lat="45.31983" lon="1.46008">
        <ele>377</ele>
        <time>2011-08-28T09:03:51Z</time>
      </trkpt>
      <trkpt lat="45.31988" lon="1.46011">
        <ele>376</ele>
        <time>2011-08-28T09:03:52Z</time>
      </trkpt>
      <trkpt lat="45.31992" lon="1.46014">
        <ele>375</ele>
        <time>2011-08-28T09:03:53Z</time>
      </trkpt>
      <trkpt lat="45.31996" lon="1.46016">
        <ele>374</ele>
        <time>2011-08-28T09:03:54Z</time>
      </trkpt>
      <trkpt lat="45.32001" lon="1.46018">
        <ele>375</ele>
        <time>2011-08-28T09:03:55Z</time>
      </trkpt>
      <trkpt lat="45.32005" lon="1.4602">
        <ele>375</ele>
        <time>2011-08-28T09:03:56Z</time>
      </trkpt>
      <trkpt lat="45.3201" lon="1.46022">
        <ele>374</ele>
        <time>2011-08-28T09:03:57Z</time>
      </trkpt>
      <trkpt lat="45.32014" lon="1.46023">
        <ele>375</ele>
        <time>2011-08-28T09:03:58Z</time>
      </trkpt>
      <trkpt lat="45.32019" lon="1.46025">
        <ele>374</ele>
        <time>2011-08-28T09:03:59Z</time>
      </trkpt>
      <trkpt lat="45.32024" lon="1.46027">
        <ele>374</ele>
        <time>2011-08-28T09:04:00Z</time>
      </trkpt>
      <trkpt lat="45.32028" lon="1.46029">
        <ele>371</ele>
        <time>2011-08-28T09:04:01Z</time>
      </trkpt>
      <trkpt lat="45.32033" lon="1.46031">
        <ele>371</ele>
        <time>2011-08-28T09:04:02Z</time>
      </trkpt>
      <trkpt lat="45.32041" lon="1.46034">
        <ele>375</ele>
        <time>2011-08-28T09:04:04Z</time>
      </trkpt>
      <trkpt lat="45.32045" lon="1.46036">
        <ele>376</ele>
        <time>2011-08-28T09:04:05Z</time>
      </trkpt>
      <trkpt lat="45.3205" lon="1.46039">
        <ele>375</ele>
        <time>2011-08-28T09:04:06Z</time>
      </trkpt>
      <trkpt lat="45.32058" lon="1.4604">
        <ele>376</ele>
        <time>2011-08-28T09:04:08Z</time>
      </trkpt>
      <trkpt lat="45.32066" lon="1.46041">
        <ele>377</ele>
        <time>2011-08-28T09:04:10Z</time>
      </trkpt>
      <trkpt lat="45.32071" lon="1.46041">
        <ele>379</ele>
        <time>2011-08-28T09:04:11Z</time>
      </trkpt>
      <trkpt lat="45.32076" lon="1.46042">
        <ele>380</ele>
        <time>2011-08-28T09:04:12Z</time>
      </trkpt>
      <trkpt lat="45.3208" lon="1.46042">
        <ele>381</ele>
        <time>2011-08-28T09:04:13Z</time>
      </trkpt>
      <trkpt lat="45.32085" lon="1.46043">
        <ele>379</ele>
        <time>2011-08-28T09:04:14Z</time>
      </trkpt>
      <trkpt lat="45.32091" lon="1.46045">
        <ele>378</ele>
        <time>2011-08-28T09:04:15Z</time>
      </trkpt>
      <trkpt lat="45.32096" lon="1.46047">
        <ele>376</ele>
        <time>2011-08-28T09:04:16Z</time>
      </trkpt>
      <trkpt lat="45.321" lon="1.46051">
        <ele>376</ele>
        <time>2011-08-28T09:04:17Z</time>
      </trkpt>
      <trkpt lat="45.32104" lon="1.46056">
        <ele>377</ele>
        <time>2011-08-28T09:04:18Z</time>
      </trkpt>
      <trkpt lat="45.32107" lon="1.46067">
        <ele>379</ele>
        <time>2011-08-28T09:04:20Z</time>
      </trkpt>
      <trkpt lat="45.32109" lon="1.46078">
        <ele>377</ele>
        <time>2011-08-28T09:04:22Z</time>
      </trkpt>
      <trkpt lat="45.32108" lon="1.46088">
        <ele>376</ele>
        <time>2011-08-28T09:04:24Z</time>
      </trkpt>
      <trkpt lat="45.32107" lon="1.46096">
        <ele>375</ele>
        <time>2011-08-28T09:04:26Z</time>
      </trkpt>
      <trkpt lat="45.32106" lon="1.46105">
        <ele>376</ele>
        <time>2011-08-28T09:04:28Z</time>
      </trkpt>
      <trkpt lat="45.32109" lon="1.46112">
        <ele>375</ele>
        <time>2011-08-28T09:04:30Z</time>
      </trkpt>
      <trkpt lat="45.32117" lon="1.46116">
        <ele>377</ele>
        <time>2011-08-28T09:04:32Z</time>
      </trkpt>
      <trkpt lat="45.32122" lon="1.46118">
        <ele>374</ele>
        <time>2011-08-28T09:04:33Z</time>
      </trkpt>
      <trkpt lat="45.3213" lon="1.46122">
        <ele>372</ele>
        <time>2011-08-28T09:04:35Z</time>
      </trkpt>
      <trkpt lat="45.32137" lon="1.46128">
        <ele>371</ele>
        <time>2011-08-28T09:04:37Z</time>
      </trkpt>
      <trkpt lat="45.32141" lon="1.46132">
        <ele>375</ele>
        <time>2011-08-28T09:04:38Z</time>
      </trkpt>
      <trkpt lat="45.32145" lon="1.46136">
        <ele>377</ele>
        <time>2011-08-28T09:04:39Z</time>
      </trkpt>
      <trkpt lat="45.3215" lon="1.46139">
        <ele>376</ele>
        <time>2011-08-28T09:04:40Z</time>
      </trkpt>
      <trkpt lat="45.32156" lon="1.46142">
        <ele>378</ele>
        <time>2011-08-28T09:04:41Z</time>
      </trkpt>
      <trkpt lat="45.32161" lon="1.46145">
        <ele>378</ele>
        <time>2011-08-28T09:04:42Z</time>
      </trkpt>
      <trkpt lat="45.32166" lon="1.46147">
        <ele>379</ele>
        <time>2011-08-28T09:04:43Z</time>
      </trkpt>
      <trkpt lat="45.32171" lon="1.46149">
        <ele>378</ele>
        <time>2011-08-28T09:04:44Z</time>
      </trkpt>
      <trkpt lat="45.3218" lon="1.46152">
        <ele>380</ele>
        <time>2011-08-28T09:04:46Z</time>
      </trkpt>
      <trkpt lat="45.32186" lon="1.46155">
        <ele>378</ele>
        <time>2011-08-28T09:04:47Z</time>
      </trkpt>
      <trkpt lat="45.32191" lon="1.46157">
        <ele>375</ele>
        <time>2011-08-28T09:04:48Z</time>
      </trkpt>
      <trkpt lat="45.322" lon="1.46158">
        <ele>373</ele>
        <time>2011-08-28T09:04:50Z</time>
      </trkpt>
      <trkpt lat="45.32204" lon="1.4616">
        <ele>373</ele>
        <time>2011-08-28T09:04:51Z</time>
      </trkpt>
      <trkpt lat="45.32209" lon="1.46161">
        <ele>374</ele>
        <time>2011-08-28T09:04:52Z</time>
      </trkpt>
      <trkpt lat="45.32214" lon="1.46162">
        <ele>373</ele>
        <time>2011-08-28T09:04:53Z</time>
      </trkpt>
      <trkpt lat="45.32219" lon="1.46163">
        <ele>375</ele>
        <time>2011-08-28T09:04:54Z</time>
      </trkpt>
      <trkpt lat="45.32226" lon="1.46165">
        <ele>378</ele>
        <time>2011-08-28T09:04:56Z</time>
      </trkpt>
      <trkpt lat="45.32231" lon="1.46166">
        <ele>377</ele>
        <time>2011-08-28T09:04:57Z</time>
      </trkpt>
      <trkpt lat="45.32236" lon="1.46166">
        <ele>377</ele>
        <time>2011-08-28T09:04:58Z</time>
      </trkpt>
      <trkpt lat="45.3224" lon="1.46167">
        <ele>379</ele>
        <time>2011-08-28T09:04:59Z</time>
      </trkpt>
      <trkpt lat="45.32248" lon="1.46168">
        <ele>379</ele>
        <time>2011-08-28T09:05:01Z</time>
      </trkpt>
      <trkpt lat="45.32257" lon="1.46171">
        <ele>377</ele>
        <time>2011-08-28T09:05:03Z</time>
      </trkpt>
      <trkpt lat="45.32265" lon="1.46171">
        <ele>377</ele>
        <time>2011-08-28T09:05:05Z</time>
      </trkpt>
      <trkpt lat="45.32273" lon="1.4617">
        <ele>376</ele>
        <time>2011-08-28T09:05:07Z</time>
      </trkpt>
      <trkpt lat="45.32282" lon="1.46167">
        <ele>377</ele>
        <time>2011-08-28T09:05:09Z</time>
      </trkpt>
      <trkpt lat="45.32286" lon="1.46166">
        <ele>378</ele>
        <time>2011-08-28T09:05:10Z</time>
      </trkpt>
      <trkpt lat="45.32294" lon="1.46166">
        <ele>377</ele>
        <time>2011-08-28T09:05:12Z</time>
      </trkpt>
      <trkpt lat="45.323" lon="1.46168">
        <ele>377</ele>
        <time>2011-08-28T09:05:14Z</time>
      </trkpt>
      <trkpt lat="45.32305" lon="1.46174">
        <ele>377</ele>
        <time>2011-08-28T09:05:16Z</time>
      </trkpt>
      <trkpt lat="45.32309" lon="1.46179">
        <ele>379</ele>
        <time>2011-08-28T09:05:18Z</time>
      </trkpt>
      <trkpt lat="45.32313" lon="1.46185">
        <ele>380</ele>
        <time>2011-08-28T09:05:21Z</time>
      </trkpt>
      <trkpt lat="45.32316" lon="1.46191">
        <ele>381</ele>
        <time>2011-08-28T09:05:24Z</time>
      </trkpt>
      <trkpt lat="45.32319" lon="1.46197">
        <ele>371</ele>
        <time>2011-08-28T09:05:34Z</time>
      </trkpt>
      <trkpt lat="45.32318" lon="1.4621">
        <ele>355</ele>
        <time>2011-08-28T09:05:40Z</time>
      </trkpt>
      <trkpt lat="45.32316" lon="1.46216">
        <ele>356</ele>
        <time>2011-08-28T09:05:42Z</time>
      </trkpt>
      <trkpt lat="45.32312" lon="1.46224">
        <ele>359</ele>
        <time>2011-08-28T09:05:44Z</time>
      </trkpt>
      <trkpt lat="45.32309" lon="1.46229">
        <ele>359</ele>
        <time>2011-08-28T09:05:46Z</time>
      </trkpt>
      <trkpt lat="45.32304" lon="1.46236">
        <ele>356</ele>
        <time>2011-08-28T09:05:48Z</time>
      </trkpt>
      <trkpt lat="45.323" lon="1.46243">
        <ele>356</ele>
        <time>2011-08-28T09:05:50Z</time>
      </trkpt>
      <trkpt lat="45.32297" lon="1.46248">
        <ele>357</ele>
        <time>2011-08-28T09:05:52Z</time>
      </trkpt>
      <trkpt lat="45.32294" lon="1.46255">
        <ele>360</ele>
        <time>2011-08-28T09:05:55Z</time>
      </trkpt>
      <trkpt lat="45.32289" lon="1.46262">
        <ele>355</ele>
        <time>2011-08-28T09:05:58Z</time>
      </trkpt>
      <trkpt lat="45.32285" lon="1.46269">
        <ele>354</ele>
        <time>2011-08-28T09:06:01Z</time>
      </trkpt>
      <trkpt lat="45.32281" lon="1.46275">
        <ele>356</ele>
        <time>2011-08-28T09:06:04Z</time>
      </trkpt>
      <trkpt lat="45.32277" lon="1.46282">
        <ele>352</ele>
        <time>2011-08-28T09:06:07Z</time>
      </trkpt>
      <trkpt lat="45.32272" lon="1.46288">
        <ele>353</ele>
        <time>2011-08-28T09:06:10Z</time>
      </trkpt>
      <trkpt lat="45.32268" lon="1.46294">
        <ele>354</ele>
        <time>2011-08-28T09:06:13Z</time>
      </trkpt>
      <trkpt lat="45.32265" lon="1.46299">
        <ele>354</ele>
        <time>2011-08-28T09:06:15Z</time>
      </trkpt>
      <trkpt lat="45.32261" lon="1.46304">
        <ele>354</ele>
        <time>2011-08-28T09:06:17Z</time>
      </trkpt>
      <trkpt lat="45.32257" lon="1.4631">
        <ele>352</ele>
        <time>2011-08-28T09:06:19Z</time>
      </trkpt>
      <trkpt lat="45.32254" lon="1.46317">
        <ele>352</ele>
        <time>2011-08-28T09:06:22Z</time>
      </trkpt>
      <trkpt lat="45.3225" lon="1.46323">
        <ele>353</ele>
        <time>2011-08-28T09:06:25Z</time>
      </trkpt>
      <trkpt lat="45.32247" lon="1.46329">
        <ele>354</ele>
        <time>2011-08-28T09:06:28Z</time>
      </trkpt>
      <trkpt lat="45.32244" lon="1.46336">
        <ele>353</ele>
        <time>2011-08-28T09:06:31Z</time>
      </trkpt>
      <trkpt lat="45.3225" lon="1.46336">
        <ele>351</ele>
        <time>2011-08-28T09:08:57Z</time>
      </trkpt>
      <trkpt lat="45.32255" lon="1.46332">
        <ele>350</ele>
        <time>2011-08-28T09:09:00Z</time>
      </trkpt>
      <trkpt lat="45.3226" lon="1.46327">
        <ele>353</ele>
        <time>2011-08-28T09:09:03Z</time>
      </trkpt>
      <trkpt lat="45.32264" lon="1.46324">
        <ele>354</ele>
        <time>2011-08-28T09:09:05Z</time>
      </trkpt>
      <trkpt lat="45.32269" lon="1.4632">
        <ele>353</ele>
        <time>2011-08-28T09:09:07Z</time>
      </trkpt>
      <trkpt lat="45.32274" lon="1.46316">
        <ele>352</ele>
        <time>2011-08-28T09:09:09Z</time>
      </trkpt>
      <trkpt lat="45.32277" lon="1.46312">
        <ele>351</ele>
        <time>2011-08-28T09:09:12Z</time>
      </trkpt>
      <trkpt lat="45.32281" lon="1.46306">
        <ele>352</ele>
        <time>2011-08-28T09:09:18Z</time>
      </trkpt>
      <trkpt lat="45.32284" lon="1.46299">
        <ele>352</ele>
        <time>2011-08-28T09:09:20Z</time>
      </trkpt>
      <trkpt lat="45.32288" lon="1.46289">
        <ele>353</ele>
        <time>2011-08-28T09:09:22Z</time>
      </trkpt>
      <trkpt lat="45.32292" lon="1.4628">
        <ele>353</ele>
        <time>2011-08-28T09:09:24Z</time>
      </trkpt>
      <trkpt lat="45.32297" lon="1.46272">
        <ele>351</ele>
        <time>2011-08-28T09:09:26Z</time>
      </trkpt>
      <trkpt lat="45.323" lon="1.46267">
        <ele>352</ele>
        <time>2011-08-28T09:09:28Z</time>
      </trkpt>
      <trkpt lat="45.32304" lon="1.4626">
        <ele>352</ele>
        <time>2011-08-28T09:09:31Z</time>
      </trkpt>
      <trkpt lat="45.32307" lon="1.46254">
        <ele>350</ele>
        <time>2011-08-28T09:09:33Z</time>
      </trkpt>
      <trkpt lat="45.3231" lon="1.46248">
        <ele>350</ele>
        <time>2011-08-28T09:09:35Z</time>
      </trkpt>
      <trkpt lat="45.32313" lon="1.46244">
        <ele>349</ele>
        <time>2011-08-28T09:09:37Z</time>
      </trkpt>
      <trkpt lat="45.32316" lon="1.46238">
        <ele>350</ele>
        <time>2011-08-28T09:09:39Z</time>
      </trkpt>
      <trkpt lat="45.32319" lon="1.46233">
        <ele>350</ele>
        <time>2011-08-28T09:09:41Z</time>
      </trkpt>
      <trkpt lat="45.32321" lon="1.46227">
        <ele>350</ele>
        <time>2011-08-28T09:09:43Z</time>
      </trkpt>
      <trkpt lat="45.32323" lon="1.46221">
        <ele>352</ele>
        <time>2011-08-28T09:09:45Z</time>
      </trkpt>
      <trkpt lat="45.32325" lon="1.46215">
        <ele>353</ele>
        <time>2011-08-28T09:09:47Z</time>
      </trkpt>
      <trkpt lat="45.32327" lon="1.46209">
        <ele>354</ele>
        <time>2011-08-28T09:09:49Z</time>
      </trkpt>
      <trkpt lat="45.32329" lon="1.46203">
        <ele>350</ele>
        <time>2011-08-28T09:09:51Z</time>
      </trkpt>
      <trkpt lat="45.32332" lon="1.46196">
        <ele>351</ele>
        <time>2011-08-28T09:09:53Z</time>
      </trkpt>
      <trkpt lat="45.32334" lon="1.4619">
        <ele>352</ele>
        <time>2011-08-28T09:09:55Z</time>
      </trkpt>
      <trkpt lat="45.32336" lon="1.46185">
        <ele>353</ele>
        <time>2011-08-28T09:09:57Z</time>
      </trkpt>
      <trkpt lat="45.32342" lon="1.46179">
        <ele>359</ele>
        <time>2011-08-28T09:10:00Z</time>
      </trkpt>
      <trkpt lat="45.32346" lon="1.46174">
        <ele>360</ele>
        <time>2011-08-28T09:10:03Z</time>
      </trkpt>
      <trkpt lat="45.32352" lon="1.4617">
        <ele>360</ele>
        <time>2011-08-28T09:10:06Z</time>
      </trkpt>
      <trkpt lat="45.32357" lon="1.46168">
        <ele>361</ele>
        <time>2011-08-28T09:10:09Z</time>
      </trkpt>
      <trkpt lat="45.32362" lon="1.46167">
        <ele>362</ele>
        <time>2011-08-28T09:10:13Z</time>
      </trkpt>
      <trkpt lat="45.32367" lon="1.46168">
        <ele>360</ele>
        <time>2011-08-28T09:10:17Z</time>
      </trkpt>
      <trkpt lat="45.32371" lon="1.4617">
        <ele>361</ele>
        <time>2011-08-28T09:10:22Z</time>
      </trkpt>
      <trkpt lat="45.32376" lon="1.46171">
        <ele>362</ele>
        <time>2011-08-28T09:10:28Z</time>
      </trkpt>
      <trkpt lat="45.3238" lon="1.46172">
        <ele>362</ele>
        <time>2011-08-28T09:10:35Z</time>
      </trkpt>
      <trkpt lat="45.32387" lon="1.46174">
        <ele>360</ele>
        <time>2011-08-28T09:10:40Z</time>
      </trkpt>
      <trkpt lat="45.32392" lon="1.46176">
        <ele>359</ele>
        <time>2011-08-28T09:10:44Z</time>
      </trkpt>
      <trkpt lat="45.32397" lon="1.46179">
        <ele>358</ele>
        <time>2011-08-28T09:10:48Z</time>
      </trkpt>
      <trkpt lat="45.32401" lon="1.46182">
        <ele>361</ele>
        <time>2011-08-28T09:10:53Z</time>
      </trkpt>
      <trkpt lat="45.32406" lon="1.46184">
        <ele>362</ele>
        <time>2011-08-28T09:10:57Z</time>
      </trkpt>
      <trkpt lat="45.3241" lon="1.46186">
        <ele>365</ele>
        <time>2011-08-28T09:11:01Z</time>
      </trkpt>
      <trkpt lat="45.32414" lon="1.4619">
        <ele>368</ele>
        <time>2011-08-28T09:11:05Z</time>
      </trkpt>
      <trkpt lat="45.32419" lon="1.46193">
        <ele>371</ele>
        <time>2011-08-28T09:11:11Z</time>
      </trkpt>
      <trkpt lat="45.32424" lon="1.46192">
        <ele>371</ele>
        <time>2011-08-28T09:11:21Z</time>
      </trkpt>
      <trkpt lat="45.32427" lon="1.46186">
        <ele>376</ele>
        <time>2011-08-28T09:11:28Z</time>
      </trkpt>
      <trkpt lat="45.3243" lon="1.46182">
        <ele>375</ele>
        <time>2011-08-28T09:11:33Z</time>
      </trkpt>
      <trkpt lat="45.32436" lon="1.46181">
        <ele>373</ele>
        <time>2011-08-28T09:11:40Z</time>
      </trkpt>
      <trkpt lat="45.32439" lon="1.46176">
        <ele>374</ele>
        <time>2011-08-28T09:11:46Z</time>
      </trkpt>
      <trkpt lat="45.32444" lon="1.46172">
        <ele>373</ele>
        <time>2011-08-28T09:11:51Z</time>
      </trkpt>
      <trkpt lat="45.32448" lon="1.4617">
        <ele>376</ele>
        <time>2011-08-28T09:11:57Z</time>
      </trkpt>
      <trkpt lat="45.32453" lon="1.46167">
        <ele>377</ele>
        <time>2011-08-28T09:12:02Z</time>
      </trkpt>
      <trkpt lat="45.32458" lon="1.46165">
        <ele>378</ele>
        <time>2011-08-28T09:12:07Z</time>
      </trkpt>
      <trkpt lat="45.32463" lon="1.46165">
        <ele>378</ele>
        <time>2011-08-28T09:12:11Z</time>
      </trkpt>
      <trkpt lat="45.32468" lon="1.46168">
        <ele>378</ele>
        <time>2011-08-28T09:12:15Z</time>
      </trkpt>
      <trkpt lat="45.32473" lon="1.4617">
        <ele>379</ele>
        <time>2011-08-28T09:12:18Z</time>
      </trkpt>
      <trkpt lat="45.32477" lon="1.4617">
        <ele>377</ele>
        <time>2011-08-28T09:12:23Z</time>
      </trkpt>
      <trkpt lat="45.32479" lon="1.46162">
        <ele>384</ele>
        <time>2011-08-28T09:12:29Z</time>
      </trkpt>
      <trkpt lat="45.3248" lon="1.46155">
        <ele>383</ele>
        <time>2011-08-28T09:12:33Z</time>
      </trkpt>
      <trkpt lat="45.32481" lon="1.46147">
        <ele>382</ele>
        <time>2011-08-28T09:12:37Z</time>
      </trkpt>
      <trkpt lat="45.32481" lon="1.46139">
        <ele>382</ele>
        <time>2011-08-28T09:12:42Z</time>
      </trkpt>
      <trkpt lat="45.32481" lon="1.46131">
        <ele>381</ele>
        <time>2011-08-28T09:12:47Z</time>
      </trkpt>
      <trkpt lat="45.32483" lon="1.46125">
        <ele>386</ele>
        <time>2011-08-28T09:12:52Z</time>
      </trkpt>
      <trkpt lat="45.32483" lon="1.46118">
        <ele>386</ele>
        <time>2011-08-28T09:12:56Z</time>
      </trkpt>
      <trkpt lat="45.32483" lon="1.4611">
        <ele>389</ele>
        <time>2011-08-28T09:13:00Z</time>
      </trkpt>
      <trkpt lat="45.32482" lon="1.46104">
        <ele>390</ele>
        <time>2011-08-28T09:13:03Z</time>
      </trkpt>
      <trkpt lat="45.32482" lon="1.46096">
        <ele>393</ele>
        <time>2011-08-28T09:13:06Z</time>
      </trkpt>
      <trkpt lat="45.32482" lon="1.46088">
        <ele>391</ele>
        <time>2011-08-28T09:13:09Z</time>
      </trkpt>
      <trkpt lat="45.3248" lon="1.4608">
        <ele>391</ele>
        <time>2011-08-28T09:13:12Z</time>
      </trkpt>
      <trkpt lat="45.32479" lon="1.46072">
        <ele>391</ele>
        <time>2011-08-28T09:13:14Z</time>
      </trkpt>
      <trkpt lat="45.32476" lon="1.46064">
        <ele>387</ele>
        <time>2011-08-28T09:13:17Z</time>
      </trkpt>
      <trkpt lat="45.32476" lon="1.46054">
        <ele>387</ele>
        <time>2011-08-28T09:13:20Z</time>
      </trkpt>
      <trkpt lat="45.32474" lon="1.46048">
        <ele>392</ele>
        <time>2011-08-28T09:13:23Z</time>
      </trkpt>
      <trkpt lat="45.32472" lon="1.46041">
        <ele>390</ele>
        <time>2011-08-28T09:13:27Z</time>
      </trkpt>
      <trkpt lat="45.32471" lon="1.46034">
        <ele>392</ele>
        <time>2011-08-28T09:13:30Z</time>
      </trkpt>
      <trkpt lat="45.32467" lon="1.46028">
        <ele>393</ele>
        <time>2011-08-28T09:13:33Z</time>
      </trkpt>
      <trkpt lat="45.32465" lon="1.46022">
        <ele>392</ele>
        <time>2011-08-28T09:13:36Z</time>
      </trkpt>
      <trkpt lat="45.32461" lon="1.46017">
        <ele>390</ele>
        <time>2011-08-28T09:13:40Z</time>
      </trkpt>
      <trkpt lat="45.32456" lon="1.46014">
        <ele>383</ele>
        <time>2011-08-28T09:13:42Z</time>
      </trkpt>
      <trkpt lat="45.32452" lon="1.46013">
        <ele>388</ele>
        <time>2011-08-28T09:13:44Z</time>
      </trkpt>
      <trkpt lat="45.32448" lon="1.46008">
        <ele>377</ele>
        <time>2011-08-28T09:13:55Z</time>
      </trkpt>
      <trkpt lat="45.32448" lon="1.46">
        <ele>379</ele>
        <time>2011-08-28T09:14:00Z</time>
      </trkpt>
      <trkpt lat="45.32448" lon="1.45993">
        <ele>382</ele>
        <time>2011-08-28T09:14:04Z</time>
      </trkpt>
      <trkpt lat="45.32447" lon="1.45986">
        <ele>383</ele>
        <time>2011-08-28T09:14:07Z</time>
      </trkpt>
      <trkpt lat="45.32446" lon="1.45978">
        <ele>394</ele>
        <time>2011-08-28T09:14:11Z</time>
      </trkpt>
      <trkpt lat="45.32444" lon="1.4597">
        <ele>400</ele>
        <time>2011-08-28T09:14:15Z</time>
      </trkpt>
      <trkpt lat="45.3244" lon="1.45967">
        <ele>401</ele>
        <time>2011-08-28T09:14:18Z</time>
      </trkpt>
      <trkpt lat="45.32436" lon="1.45964">
        <ele>401</ele>
        <time>2011-08-28T09:14:21Z</time>
      </trkpt>
      <trkpt lat="45.32431" lon="1.4596">
        <ele>397</ele>
        <time>2011-08-28T09:14:24Z</time>
      </trkpt>
      <trkpt lat="45.32427" lon="1.45953">
        <ele>400</ele>
        <time>2011-08-28T09:14:27Z</time>
      </trkpt>
      <trkpt lat="45.32425" lon="1.45946">
        <ele>397</ele>
        <time>2011-08-28T09:14:31Z</time>
      </trkpt>
      <trkpt lat="45.32421" lon="1.45941">
        <ele>402</ele>
        <time>2011-08-28T09:14:34Z</time>
      </trkpt>
      <trkpt lat="45.32416" lon="1.45938">
        <ele>409</ele>
        <time>2011-08-28T09:14:38Z</time>
      </trkpt>
      <trkpt lat="45.32411" lon="1.45933">
        <ele>394</ele>
        <time>2011-08-28T09:14:41Z</time>
      </trkpt>
      <trkpt lat="45.32407" lon="1.45928">
        <ele>389</ele>
        <time>2011-08-28T09:14:45Z</time>
      </trkpt>
      <trkpt lat="45.32402" lon="1.45926">
        <ele>386</ele>
        <time>2011-08-28T09:14:48Z</time>
      </trkpt>
      <trkpt lat="45.32397" lon="1.45923">
        <ele>389</ele>
        <time>2011-08-28T09:14:50Z</time>
      </trkpt>
      <trkpt lat="45.32391" lon="1.4592">
        <ele>385</ele>
        <time>2011-08-28T09:14:53Z</time>
      </trkpt>
      <trkpt lat="45.32383" lon="1.4592">
        <ele>387</ele>
        <time>2011-08-28T09:14:56Z</time>
      </trkpt>
      <trkpt lat="45.32379" lon="1.45916">
        <ele>387</ele>
        <time>2011-08-28T09:14:58Z</time>
      </trkpt>
      <trkpt lat="45.32372" lon="1.45912">
        <ele>389</ele>
        <time>2011-08-28T09:15:01Z</time>
      </trkpt>
      <trkpt lat="45.32368" lon="1.45908">
        <ele>388</ele>
        <time>2011-08-28T09:15:04Z</time>
      </trkpt>
      <trkpt lat="45.32363" lon="1.45908">
        <ele>388</ele>
        <time>2011-08-28T09:15:06Z</time>
      </trkpt>
      <trkpt lat="45.32358" lon="1.45909">
        <ele>386</ele>
        <time>2011-08-28T09:15:08Z</time>
      </trkpt>
      <trkpt lat="45.32353" lon="1.45909">
        <ele>391</ele>
        <time>2011-08-28T09:15:10Z</time>
      </trkpt>
      <trkpt lat="45.32348" lon="1.4591">
        <ele>389</ele>
        <time>2011-08-28T09:15:12Z</time>
      </trkpt>
      <trkpt lat="45.32342" lon="1.45907">
        <ele>388</ele>
        <time>2011-08-28T09:15:15Z</time>
      </trkpt>
      <trkpt lat="45.32337" lon="1.45904">
        <ele>385</ele>
        <time>2011-08-28T09:15:18Z</time>
      </trkpt>
      <trkpt lat="45.32332" lon="1.45897">
        <ele>387</ele>
        <time>2011-08-28T09:15:21Z</time>
      </trkpt>
      <trkpt lat="45.32326" lon="1.45898">
        <ele>384</ele>
        <time>2011-08-28T09:15:23Z</time>
      </trkpt>
      <trkpt lat="45.32319" lon="1.45901">
        <ele>384</ele>
        <time>2011-08-28T09:15:25Z</time>
      </trkpt>
      <trkpt lat="45.32314" lon="1.45903">
        <ele>378</ele>
        <time>2011-08-28T09:15:27Z</time>
      </trkpt>
      <trkpt lat="45.32309" lon="1.45904">
        <ele>382</ele>
        <time>2011-08-28T09:15:30Z</time>
      </trkpt>
      <trkpt lat="45.32306" lon="1.45898">
        <ele>390</ele>
        <time>2011-08-28T09:15:36Z</time>
      </trkpt>
      <trkpt lat="45.3231" lon="1.45901">
        <ele>406</ele>
        <time>2011-08-28T09:15:58Z</time>
      </trkpt>
      <trkpt lat="45.32308" lon="1.45907">
        <ele>405</ele>
        <time>2011-08-28T09:16:02Z</time>
      </trkpt>
      <trkpt lat="45.32313" lon="1.45909">
        <ele>394</ele>
        <time>2011-08-28T09:16:41Z</time>
      </trkpt>
      <trkpt lat="45.32309" lon="1.45904">
        <ele>422</ele>
        <time>2011-08-28T09:16:51Z</time>
      </trkpt>
      <trkpt lat="45.32305" lon="1.45902">
        <ele>416</ele>
        <time>2011-08-28T09:16:55Z</time>
      </trkpt>
      <trkpt lat="45.32298" lon="1.459">
        <ele>416</ele>
        <time>2011-08-28T09:16:58Z</time>
      </trkpt>
      <trkpt lat="45.32297" lon="1.45894">
        <ele>415</ele>
        <time>2011-08-28T09:17:02Z</time>
      </trkpt>
      <trkpt lat="45.32292" lon="1.45888">
        <ele>391</ele>
        <time>2011-08-28T09:17:14Z</time>
      </trkpt>
      <trkpt lat="45.32297" lon="1.45879">
        <ele>373</ele>
        <time>2011-08-28T09:17:48Z</time>
      </trkpt>
      <trkpt lat="45.32306" lon="1.45893">
        <ele>368</ele>
        <time>2011-08-28T09:17:57Z</time>
      </trkpt>
      <trkpt lat="45.3231" lon="1.45894">
        <ele>362</ele>
        <time>2011-08-28T09:18:12Z</time>
      </trkpt>
      <trkpt lat="45.32315" lon="1.45896">
        <ele>363</ele>
        <time>2011-08-28T09:18:20Z</time>
      </trkpt>
      <trkpt lat="45.3232" lon="1.45901">
        <ele>362</ele>
        <time>2011-08-28T09:18:25Z</time>
      </trkpt>
      <trkpt lat="45.32324" lon="1.45904">
        <ele>361</ele>
        <time>2011-08-28T09:18:30Z</time>
      </trkpt>
      <trkpt lat="45.32327" lon="1.45908">
        <ele>359</ele>
        <time>2011-08-28T09:18:36Z</time>
      </trkpt>
      <trkpt lat="45.32322" lon="1.45908">
        <ele>398</ele>
        <time>2011-08-28T09:18:53Z</time>
      </trkpt>
      <trkpt lat="45.32316" lon="1.45904">
        <ele>396</ele>
        <time>2011-08-28T09:18:55Z</time>
      </trkpt>
      <trkpt lat="45.32312" lon="1.45899">
        <ele>401</ele>
        <time>2011-08-28T09:18:57Z</time>
      </trkpt>
      <trkpt lat="45.32309" lon="1.45894">
        <ele>401</ele>
        <time>2011-08-28T09:19:00Z</time>
      </trkpt>
      <trkpt lat="45.32306" lon="1.45888">
        <ele>402</ele>
        <time>2011-08-28T09:19:04Z</time>
      </trkpt>
      <trkpt lat="45.32305" lon="1.45881">
        <ele>404</ele>
        <time>2011-08-28T09:19:10Z</time>
      </trkpt>
      <trkpt lat="45.32301" lon="1.45882">
        <ele>429</ele>
        <time>2011-08-28T09:19:41Z</time>
      </trkpt>
      <trkpt lat="45.32297" lon="1.45877">
        <ele>418</ele>
        <time>2011-08-28T09:19:50Z</time>
      </trkpt>
      <trkpt lat="45.32299" lon="1.4587">
        <ele>421</ele>
        <time>2011-08-28T09:20:00Z</time>
      </trkpt>
      <trkpt lat="45.32301" lon="1.45864">
        <ele>416</ele>
        <time>2011-08-28T09:20:03Z</time>
      </trkpt>
      <trkpt lat="45.32304" lon="1.45856">
        <ele>419</ele>
        <time>2011-08-28T09:20:07Z</time>
      </trkpt>
      <trkpt lat="45.32305" lon="1.45849">
        <ele>420</ele>
        <time>2011-08-28T09:20:10Z</time>
      </trkpt>
      <trkpt lat="45.32305" lon="1.45842">
        <ele>421</ele>
        <time>2011-08-28T09:20:14Z</time>
      </trkpt>
      <trkpt lat="45.32306" lon="1.45834">
        <ele>415</ele>
        <time>2011-08-28T09:20:19Z</time>
      </trkpt>
      <trkpt lat="45.32307" lon="1.45826">
        <ele>418</ele>
        <time>2011-08-28T09:20:22Z</time>
      </trkpt>
      <trkpt lat="45.32308" lon="1.45819">
        <ele>416</ele>
        <time>2011-08-28T09:20:25Z</time>
      </trkpt>
      <trkpt lat="45.3231" lon="1.45812">
        <ele>422</ele>
        <time>2011-08-28T09:20:27Z</time>
      </trkpt>
      <trkpt lat="45.32311" lon="1.45805">
        <ele>424</ele>
        <time>2011-08-28T09:20:29Z</time>
      </trkpt>
      <trkpt lat="45.32313" lon="1.45798">
        <ele>423</ele>
        <time>2011-08-28T09:20:33Z</time>
      </trkpt>
      <trkpt lat="45.32314" lon="1.4579">
        <ele>419</ele>
        <time>2011-08-28T09:20:36Z</time>
      </trkpt>
      <trkpt lat="45.32314" lon="1.45783">
        <ele>424</ele>
        <time>2011-08-28T09:20:38Z</time>
      </trkpt>
      <trkpt lat="45.32311" lon="1.45778">
        <ele>425</ele>
        <time>2011-08-28T09:20:40Z</time>
      </trkpt>
      <trkpt lat="45.32303" lon="1.45775">
        <ele>424</ele>
        <time>2011-08-28T09:20:42Z</time>
      </trkpt>
      <trkpt lat="45.32294" lon="1.45772">
        <ele>424</ele>
        <time>2011-08-28T09:20:44Z</time>
      </trkpt>
      <trkpt lat="45.32285" lon="1.45768">
        <ele>420</ele>
        <time>2011-08-28T09:20:46Z</time>
      </trkpt>
      <trkpt lat="45.3228" lon="1.45766">
        <ele>419</ele>
        <time>2011-08-28T09:20:47Z</time>
      </trkpt>
      <trkpt lat="45.32274" lon="1.45763">
        <ele>419</ele>
        <time>2011-08-28T09:20:49Z</time>
      </trkpt>
      <trkpt lat="45.32266" lon="1.45761">
        <ele>419</ele>
        <time>2011-08-28T09:20:51Z</time>
      </trkpt>
      <trkpt lat="45.32261" lon="1.4576">
        <ele>420</ele>
        <time>2011-08-28T09:20:53Z</time>
      </trkpt>
      <trkpt lat="45.32255" lon="1.45758">
        <ele>419</ele>
        <time>2011-08-28T09:20:55Z</time>
      </trkpt>
      <trkpt lat="45.32251" lon="1.45757">
        <ele>420</ele>
        <time>2011-08-28T09:20:57Z</time>
      </trkpt>
      <trkpt lat="45.32244" lon="1.45754">
        <ele>419</ele>
        <time>2011-08-28T09:21:00Z</time>
      </trkpt>
      <trkpt lat="45.32238" lon="1.45751">
        <ele>414</ele>
        <time>2011-08-28T09:21:02Z</time>
      </trkpt>
      <trkpt lat="45.32232" lon="1.45747">
        <ele>415</ele>
        <time>2011-08-28T09:21:04Z</time>
      </trkpt>
      <trkpt lat="45.32227" lon="1.45744">
        <ele>417</ele>
        <time>2011-08-28T09:21:06Z</time>
      </trkpt>
      <trkpt lat="45.32223" lon="1.45738">
        <ele>422</ele>
        <time>2011-08-28T09:21:09Z</time>
      </trkpt>
      <trkpt lat="45.32221" lon="1.45732">
        <ele>420</ele>
        <time>2011-08-28T09:21:12Z</time>
      </trkpt>
      <trkpt lat="45.32219" lon="1.45725">
        <ele>423</ele>
        <time>2011-08-28T09:21:15Z</time>
      </trkpt>
      <trkpt lat="45.32218" lon="1.45717">
        <ele>425</ele>
        <time>2011-08-28T09:21:19Z</time>
      </trkpt>
      <trkpt lat="45.32218" lon="1.4571">
        <ele>425</ele>
        <time>2011-08-28T09:21:22Z</time>
      </trkpt>
      <trkpt lat="45.32216" lon="1.45703">
        <ele>424</ele>
        <time>2011-08-28T09:21:25Z</time>
      </trkpt>
      <trkpt lat="45.32215" lon="1.45697">
        <ele>414</ele>
        <time>2011-08-28T09:21:28Z</time>
      </trkpt>
      <trkpt lat="45.32215" lon="1.45687">
        <ele>424</ele>
        <time>2011-08-28T09:21:31Z</time>
      </trkpt>
      <trkpt lat="45.32213" lon="1.4568">
        <ele>417</ele>
        <time>2011-08-28T09:21:34Z</time>
      </trkpt>
      <trkpt lat="45.32211" lon="1.45672">
        <ele>415</ele>
        <time>2011-08-28T09:21:37Z</time>
      </trkpt>
      <trkpt lat="45.32209" lon="1.4566">
        <ele>414</ele>
        <time>2011-08-28T09:21:41Z</time>
      </trkpt>
      <trkpt lat="45.32207" lon="1.45654">
        <ele>410</ele>
        <time>2011-08-28T09:21:44Z</time>
      </trkpt>
      <trkpt lat="45.32205" lon="1.45647">
        <ele>410</ele>
        <time>2011-08-28T09:21:47Z</time>
      </trkpt>
      <trkpt lat="45.32203" lon="1.45639">
        <ele>413</ele>
        <time>2011-08-28T09:21:50Z</time>
      </trkpt>
      <trkpt lat="45.32201" lon="1.45633">
        <ele>409</ele>
        <time>2011-08-28T09:21:52Z</time>
      </trkpt>
      <trkpt lat="45.32201" lon="1.45625">
        <ele>408</ele>
        <time>2011-08-28T09:21:54Z</time>
      </trkpt>
      <trkpt lat="45.32202" lon="1.45616">
        <ele>414</ele>
        <time>2011-08-28T09:21:56Z</time>
      </trkpt>
      <trkpt lat="45.32203" lon="1.45605">
        <ele>415</ele>
        <time>2011-08-28T09:21:58Z</time>
      </trkpt>
      <trkpt lat="45.32204" lon="1.45599">
        <ele>414</ele>
        <time>2011-08-28T09:22:00Z</time>
      </trkpt>
      <trkpt lat="45.32204" lon="1.45592">
        <ele>417</ele>
        <time>2011-08-28T09:22:02Z</time>
      </trkpt>
      <trkpt lat="45.32204" lon="1.45584">
        <ele>420</ele>
        <time>2011-08-28T09:22:05Z</time>
      </trkpt>
      <trkpt lat="45.32204" lon="1.45576">
        <ele>420</ele>
        <time>2011-08-28T09:22:08Z</time>
      </trkpt>
      <trkpt lat="45.32201" lon="1.45571">
        <ele>416</ele>
        <time>2011-08-28T09:22:11Z</time>
      </trkpt>
      <trkpt lat="45.32199" lon="1.45564">
        <ele>411</ele>
        <time>2011-08-28T09:22:14Z</time>
      </trkpt>
      <trkpt lat="45.322" lon="1.45554">
        <ele>422</ele>
        <time>2011-08-28T09:22:17Z</time>
      </trkpt>
      <trkpt lat="45.32198" lon="1.45545">
        <ele>419</ele>
        <time>2011-08-28T09:22:20Z</time>
      </trkpt>
      <trkpt lat="45.32197" lon="1.45538">
        <ele>422</ele>
        <time>2011-08-28T09:22:22Z</time>
      </trkpt>
      <trkpt lat="45.32196" lon="1.45531">
        <ele>419</ele>
        <time>2011-08-28T09:22:24Z</time>
      </trkpt>
      <trkpt lat="45.32198" lon="1.45523">
        <ele>422</ele>
        <time>2011-08-28T09:22:26Z</time>
      </trkpt>
      <trkpt lat="45.322" lon="1.45516">
        <ele>425</ele>
        <time>2011-08-28T09:22:28Z</time>
      </trkpt>
      <trkpt lat="45.32202" lon="1.45509">
        <ele>424</ele>
        <time>2011-08-28T09:22:30Z</time>
      </trkpt>
      <trkpt lat="45.32203" lon="1.455">
        <ele>424</ele>
        <time>2011-08-28T09:22:33Z</time>
      </trkpt>
      <trkpt lat="45.32203" lon="1.45493">
        <ele>428</ele>
        <time>2011-08-28T09:22:36Z</time>
      </trkpt>
      <trkpt lat="45.32206" lon="1.45484">
        <ele>427</ele>
        <time>2011-08-28T09:22:39Z</time>
      </trkpt>
      <trkpt lat="45.32209" lon="1.45475">
        <ele>428</ele>
        <time>2011-08-28T09:22:41Z</time>
      </trkpt>
      <trkpt lat="45.32212" lon="1.45468">
        <ele>429</ele>
        <time>2011-08-28T09:22:43Z</time>
      </trkpt>
      <trkpt lat="45.32214" lon="1.45462">
        <ele>430</ele>
        <time>2011-08-28T09:22:45Z</time>
      </trkpt>
      <trkpt lat="45.32219" lon="1.45454">
        <ele>436</ele>
        <time>2011-08-28T09:22:46Z</time>
      </trkpt>
      <trkpt lat="45.32224" lon="1.45448">
        <ele>437</ele>
        <time>2011-08-28T09:22:47Z</time>
      </trkpt>
      <trkpt lat="45.32229" lon="1.45442">
        <ele>437</ele>
        <time>2011-08-28T09:22:49Z</time>
      </trkpt>
      <trkpt lat="45.32234" lon="1.45435">
        <ele>437</ele>
        <time>2011-08-28T09:22:52Z</time>
      </trkpt>
      <trkpt lat="45.32238" lon="1.45428">
        <ele>439</ele>
        <time>2011-08-28T09:22:55Z</time>
      </trkpt>
      <trkpt lat="45.32242" lon="1.45421">
        <ele>442</ele>
        <time>2011-08-28T09:22:58Z</time>
      </trkpt>
      <trkpt lat="45.32245" lon="1.45415">
        <ele>441</ele>
        <time>2011-08-28T09:23:01Z</time>
      </trkpt>
      <trkpt lat="45.32249" lon="1.45406">
        <ele>440</ele>
        <time>2011-08-28T09:23:04Z</time>
      </trkpt>
      <trkpt lat="45.32251" lon="1.454">
        <ele>440</ele>
        <time>2011-08-28T09:23:06Z</time>
      </trkpt>
      <trkpt lat="45.32254" lon="1.45395">
        <ele>439</ele>
        <time>2011-08-28T09:23:08Z</time>
      </trkpt>
      <trkpt lat="45.32257" lon="1.45389">
        <ele>440</ele>
        <time>2011-08-28T09:23:10Z</time>
      </trkpt>
      <trkpt lat="45.32261" lon="1.45382">
        <ele>440</ele>
        <time>2011-08-28T09:23:13Z</time>
      </trkpt>
      <trkpt lat="45.32264" lon="1.45375">
        <ele>441</ele>
        <time>2011-08-28T09:23:16Z</time>
      </trkpt>
      <trkpt lat="45.32268" lon="1.45367">
        <ele>441</ele>
        <time>2011-08-28T09:23:19Z</time>
      </trkpt>
      <trkpt lat="45.32272" lon="1.4536">
        <ele>442</ele>
        <time>2011-08-28T09:23:22Z</time>
      </trkpt>
      <trkpt lat="45.32275" lon="1.45353">
        <ele>442</ele>
        <time>2011-08-28T09:23:25Z</time>
      </trkpt>
      <trkpt lat="45.32278" lon="1.45345">
        <ele>443</ele>
        <time>2011-08-28T09:23:28Z</time>
      </trkpt>
      <trkpt lat="45.32281" lon="1.45338">
        <ele>443</ele>
        <time>2011-08-28T09:23:31Z</time>
      </trkpt>
      <trkpt lat="45.32284" lon="1.4533">
        <ele>443</ele>
        <time>2011-08-28T09:23:34Z</time>
      </trkpt>
      <trkpt lat="45.32287" lon="1.45322">
        <ele>443</ele>
        <time>2011-08-28T09:23:37Z</time>
      </trkpt>
      <trkpt lat="45.3229" lon="1.45314">
        <ele>444</ele>
        <time>2011-08-28T09:23:40Z</time>
      </trkpt>
      <trkpt lat="45.32292" lon="1.45306">
        <ele>445</ele>
        <time>2011-08-28T09:23:43Z</time>
      </trkpt>
      <trkpt lat="45.32296" lon="1.45299">
        <ele>445</ele>
        <time>2011-08-28T09:23:46Z</time>
      </trkpt>
      <trkpt lat="45.32299" lon="1.45291">
        <ele>446</ele>
        <time>2011-08-28T09:23:49Z</time>
      </trkpt>
      <trkpt lat="45.32303" lon="1.45284">
        <ele>447</ele>
        <time>2011-08-28T09:23:52Z</time>
      </trkpt>
      <trkpt lat="45.32306" lon="1.45277">
        <ele>448</ele>
        <time>2011-08-28T09:23:55Z</time>
      </trkpt>
      <trkpt lat="45.3231" lon="1.4527">
        <ele>449</ele>
        <time>2011-08-28T09:23:58Z</time>
      </trkpt>
      <trkpt lat="45.32313" lon="1.45265">
        <ele>449</ele>
        <time>2011-08-28T09:24:01Z</time>
      </trkpt>
      <trkpt lat="45.32317" lon="1.45262">
        <ele>448</ele>
        <time>2011-08-28T09:24:05Z</time>
      </trkpt>
      <trkpt lat="45.32322" lon="1.4526">
        <ele>448</ele>
        <time>2011-08-28T09:28:12Z</time>
      </trkpt>
      <trkpt lat="45.32322" lon="1.45252">
        <ele>447</ele>
        <time>2011-08-28T09:28:16Z</time>
      </trkpt>
      <trkpt lat="45.3232" lon="1.45244">
        <ele>448</ele>
        <time>2011-08-28T09:28:19Z</time>
      </trkpt>
      <trkpt lat="45.32316" lon="1.45239">
        <ele>449</ele>
        <time>2011-08-28T09:28:21Z</time>
      </trkpt>
      <trkpt lat="45.3231" lon="1.45234">
        <ele>449</ele>
        <time>2011-08-28T09:28:23Z</time>
      </trkpt>
      <trkpt lat="45.32304" lon="1.4523">
        <ele>449</ele>
        <time>2011-08-28T09:28:25Z</time>
      </trkpt>
      <trkpt lat="45.32298" lon="1.45225">
        <ele>449</ele>
        <time>2011-08-28T09:28:27Z</time>
      </trkpt>
      <trkpt lat="45.32291" lon="1.45221">
        <ele>450</ele>
        <time>2011-08-28T09:28:29Z</time>
      </trkpt>
      <trkpt lat="45.32285" lon="1.45218">
        <ele>450</ele>
        <time>2011-08-28T09:28:31Z</time>
      </trkpt>
      <trkpt lat="45.3228" lon="1.45214">
        <ele>451</ele>
        <time>2011-08-28T09:28:33Z</time>
      </trkpt>
      <trkpt lat="45.32275" lon="1.45212">
        <ele>451</ele>
        <time>2011-08-28T09:28:35Z</time>
      </trkpt>
      <trkpt lat="45.3227" lon="1.45208">
        <ele>451</ele>
        <time>2011-08-28T09:28:37Z</time>
      </trkpt>
      <trkpt lat="45.32266" lon="1.45205">
        <ele>451</ele>
        <time>2011-08-28T09:28:39Z</time>
      </trkpt>
      <trkpt lat="45.32261" lon="1.45202">
        <ele>450</ele>
        <time>2011-08-28T09:28:41Z</time>
      </trkpt>
      <trkpt lat="45.32256" lon="1.452">
        <ele>450</ele>
        <time>2011-08-28T09:28:43Z</time>
      </trkpt>
      <trkpt lat="45.3225" lon="1.45197">
        <ele>450</ele>
        <time>2011-08-28T09:28:45Z</time>
      </trkpt>
      <trkpt lat="45.32245" lon="1.45192">
        <ele>450</ele>
        <time>2011-08-28T09:28:47Z</time>
      </trkpt>
      <trkpt lat="45.32241" lon="1.45189">
        <ele>450</ele>
        <time>2011-08-28T09:28:49Z</time>
      </trkpt>
      <trkpt lat="45.32236" lon="1.45186">
        <ele>450</ele>
        <time>2011-08-28T09:28:51Z</time>
      </trkpt>
      <trkpt lat="45.3223" lon="1.45181">
        <ele>450</ele>
        <time>2011-08-28T09:28:54Z</time>
      </trkpt>
      <trkpt lat="45.32225" lon="1.45178">
        <ele>450</ele>
        <time>2011-08-28T09:28:56Z</time>
      </trkpt>
      <trkpt lat="45.3222" lon="1.45176">
        <ele>450</ele>
        <time>2011-08-28T09:28:58Z</time>
      </trkpt>
      <trkpt lat="45.32215" lon="1.45172">
        <ele>451</ele>
        <time>2011-08-28T09:29:00Z</time>
      </trkpt>
      <trkpt lat="45.3221" lon="1.45169">
        <ele>450</ele>
        <time>2011-08-28T09:29:02Z</time>
      </trkpt>
      <trkpt lat="45.32206" lon="1.45165">
        <ele>451</ele>
        <time>2011-08-28T09:29:04Z</time>
      </trkpt>
      <trkpt lat="45.32201" lon="1.45162">
        <ele>451</ele>
        <time>2011-08-28T09:29:06Z</time>
      </trkpt>
      <trkpt lat="45.32195" lon="1.45161">
        <ele>452</ele>
        <time>2011-08-28T09:29:08Z</time>
      </trkpt>
      <trkpt lat="45.32188" lon="1.45155">
        <ele>451</ele>
        <time>2011-08-28T09:29:10Z</time>
      </trkpt>
      <trkpt lat="45.32183" lon="1.45149">
        <ele>452</ele>
        <time>2011-08-28T09:29:12Z</time>
      </trkpt>
      <trkpt lat="45.3218" lon="1.45141">
        <ele>453</ele>
        <time>2011-08-28T09:29:14Z</time>
      </trkpt>
      <trkpt lat="45.32178" lon="1.45132">
        <ele>451</ele>
        <time>2011-08-28T09:29:16Z</time>
      </trkpt>
      <trkpt lat="45.32177" lon="1.45124">
        <ele>449</ele>
        <time>2011-08-28T09:29:18Z</time>
      </trkpt>
      <trkpt lat="45.32175" lon="1.45117">
        <ele>449</ele>
        <time>2011-08-28T09:29:20Z</time>
      </trkpt>
      <trkpt lat="45.32175" lon="1.4511">
        <ele>445</ele>
        <time>2011-08-28T09:29:30Z</time>
      </trkpt>
      <trkpt lat="45.32169" lon="1.45106">
        <ele>449</ele>
        <time>2011-08-28T09:30:31Z</time>
      </trkpt>
      <trkpt lat="45.32165" lon="1.45097">
        <ele>449</ele>
        <time>2011-08-28T09:30:33Z</time>
      </trkpt>
      <trkpt lat="45.3216" lon="1.45088">
        <ele>447</ele>
        <time>2011-08-28T09:30:35Z</time>
      </trkpt>
      <trkpt lat="45.32155" lon="1.45079">
        <ele>445</ele>
        <time>2011-08-28T09:30:37Z</time>
      </trkpt>
      <trkpt lat="45.32152" lon="1.45074">
        <ele>444</ele>
        <time>2011-08-28T09:30:38Z</time>
      </trkpt>
      <trkpt lat="45.32149" lon="1.45068">
        <ele>445</ele>
        <time>2011-08-28T09:30:39Z</time>
      </trkpt>
      <trkpt lat="45.32144" lon="1.45058">
        <ele>444</ele>
        <time>2011-08-28T09:30:41Z</time>
      </trkpt>
      <trkpt lat="45.3214" lon="1.45053">
        <ele>444</ele>
        <time>2011-08-28T09:30:42Z</time>
      </trkpt>
      <trkpt lat="45.32137" lon="1.45046">
        <ele>444</ele>
        <time>2011-08-28T09:30:43Z</time>
      </trkpt>
      <trkpt lat="45.32133" lon="1.45039">
        <ele>442</ele>
        <time>2011-08-28T09:30:44Z</time>
      </trkpt>
      <trkpt lat="45.3213" lon="1.45034">
        <ele>444</ele>
        <time>2011-08-28T09:30:45Z</time>
      </trkpt>
      <trkpt lat="45.32126" lon="1.45027">
        <ele>444</ele>
        <time>2011-08-28T09:30:46Z</time>
      </trkpt>
      <trkpt lat="45.32123" lon="1.4502">
        <ele>445</ele>
        <time>2011-08-28T09:30:47Z</time>
      </trkpt>
      <trkpt lat="45.32119" lon="1.45012">
        <ele>445</ele>
        <time>2011-08-28T09:30:48Z</time>
      </trkpt>
      <trkpt lat="45.32114" lon="1.45003">
        <ele>444</ele>
        <time>2011-08-28T09:30:49Z</time>
      </trkpt>
      <trkpt lat="45.3211" lon="1.44994">
        <ele>443</ele>
        <time>2011-08-28T09:30:50Z</time>
      </trkpt>
      <trkpt lat="45.32106" lon="1.44985">
        <ele>442</ele>
        <time>2011-08-28T09:30:51Z</time>
      </trkpt>
      <trkpt lat="45.32102" lon="1.44976">
        <ele>441</ele>
        <time>2011-08-28T09:30:52Z</time>
      </trkpt>
      <trkpt lat="45.32099" lon="1.44967">
        <ele>441</ele>
        <time>2011-08-28T09:30:53Z</time>
      </trkpt>
      <trkpt lat="45.32096" lon="1.44958">
        <ele>441</ele>
        <time>2011-08-28T09:30:54Z</time>
      </trkpt>
      <trkpt lat="45.32092" lon="1.44949">
        <ele>440</ele>
        <time>2011-08-28T09:30:55Z</time>
      </trkpt>
      <trkpt lat="45.3209" lon="1.4494">
        <ele>441</ele>
        <time>2011-08-28T09:30:56Z</time>
      </trkpt>
      <trkpt lat="45.32087" lon="1.44931">
        <ele>442</ele>
        <time>2011-08-28T09:30:57Z</time>
      </trkpt>
      <trkpt lat="45.32084" lon="1.44922">
        <ele>442</ele>
        <time>2011-08-28T09:30:58Z</time>
      </trkpt>
      <trkpt lat="45.32082" lon="1.44914">
        <ele>441</ele>
        <time>2011-08-28T09:30:59Z</time>
      </trkpt>
      <trkpt lat="45.32079" lon="1.44906">
        <ele>440</ele>
        <time>2011-08-28T09:31:00Z</time>
      </trkpt>
      <trkpt lat="45.32076" lon="1.44898">
        <ele>441</ele>
        <time>2011-08-28T09:31:01Z</time>
      </trkpt>
      <trkpt lat="45.32073" lon="1.44889">
        <ele>441</ele>
        <time>2011-08-28T09:31:02Z</time>
      </trkpt>
      <trkpt lat="45.32071" lon="1.44881">
        <ele>442</ele>
        <time>2011-08-28T09:31:03Z</time>
      </trkpt>
      <trkpt lat="45.32068" lon="1.44871">
        <ele>441</ele>
        <time>2011-08-28T09:31:04Z</time>
      </trkpt>
      <trkpt lat="45.32066" lon="1.44863">
        <ele>442</ele>
        <time>2011-08-28T09:31:05Z</time>
      </trkpt>
      <trkpt lat="45.32064" lon="1.44852">
        <ele>441</ele>
        <time>2011-08-28T09:31:06Z</time>
      </trkpt>
      <trkpt lat="45.32061" lon="1.44841">
        <ele>440</ele>
        <time>2011-08-28T09:31:07Z</time>
      </trkpt>
      <trkpt lat="45.32057" lon="1.44828">
        <ele>438</ele>
        <time>2011-08-28T09:31:08Z</time>
      </trkpt>
      <trkpt lat="45.32053" lon="1.44818">
        <ele>440</ele>
        <time>2011-08-28T09:31:09Z</time>
      </trkpt>
      <trkpt lat="45.3205" lon="1.44809">
        <ele>440</ele>
        <time>2011-08-28T09:31:10Z</time>
      </trkpt>
      <trkpt lat="45.32046" lon="1.44803">
        <ele>441</ele>
        <time>2011-08-28T09:31:11Z</time>
      </trkpt>
      <trkpt lat="45.32041" lon="1.44797">
        <ele>441</ele>
        <time>2011-08-28T09:31:13Z</time>
      </trkpt>
      <trkpt lat="45.32036" lon="1.44788">
        <ele>439</ele>
        <time>2011-08-28T09:31:16Z</time>
      </trkpt>
      <trkpt lat="45.32032" lon="1.44792">
        <ele>426</ele>
        <time>2011-08-28T09:34:32Z</time>
      </trkpt>
      <trkpt lat="45.32032" lon="1.44792">
        <ele>426</ele>
        <time>2011-08-28T09:34:32Z</time>
      </trkpt>
      <trkpt lat="45.32032" lon="1.44792">
        <ele>426</ele>
        <time>2011-08-28T09:35:27Z</time>
      </trkpt>
      <trkpt lat="45.3203" lon="1.44786">
        <ele>429</ele>
        <time>2011-08-28T09:38:07Z</time>
      </trkpt>
      <trkpt lat="45.32026" lon="1.44791">
        <ele>430</ele>
        <time>2011-08-28T09:38:11Z</time>
      </trkpt>
      <trkpt lat="45.32032" lon="1.44797">
        <ele>431</ele>
        <time>2011-08-28T09:38:14Z</time>
      </trkpt>
      <trkpt lat="45.32036" lon="1.448">
        <ele>432</ele>
        <time>2011-08-28T09:38:15Z</time>
      </trkpt>
      <trkpt lat="45.32042" lon="1.44807">
        <ele>433</ele>
        <time>2011-08-28T09:38:17Z</time>
      </trkpt>
      <trkpt lat="45.32045" lon="1.44811">
        <ele>433</ele>
        <time>2011-08-28T09:38:18Z</time>
      </trkpt>
      <trkpt lat="45.3205" lon="1.44819">
        <ele>432</ele>
        <time>2011-08-28T09:38:20Z</time>
      </trkpt>
      <trkpt lat="45.32055" lon="1.44828">
        <ele>432</ele>
        <time>2011-08-28T09:38:22Z</time>
      </trkpt>
      <trkpt lat="45.32059" lon="1.44836">
        <ele>435</ele>
        <time>2011-08-28T09:38:24Z</time>
      </trkpt>
      <trkpt lat="45.32062" lon="1.44844">
        <ele>433</ele>
        <time>2011-08-28T09:38:26Z</time>
      </trkpt>
      <trkpt lat="45.32064" lon="1.44852">
        <ele>434</ele>
        <time>2011-08-28T09:38:28Z</time>
      </trkpt>
      <trkpt lat="45.32066" lon="1.44858">
        <ele>436</ele>
        <time>2011-08-28T09:38:30Z</time>
      </trkpt>
      <trkpt lat="45.32069" lon="1.44864">
        <ele>441</ele>
        <time>2011-08-28T09:38:33Z</time>
      </trkpt>
      <trkpt lat="45.32072" lon="1.44872">
        <ele>439</ele>
        <time>2011-08-28T09:38:36Z</time>
      </trkpt>
      <trkpt lat="45.32075" lon="1.44882">
        <ele>440</ele>
        <time>2011-08-28T09:38:39Z</time>
      </trkpt>
      <trkpt lat="45.32079" lon="1.4489">
        <ele>439</ele>
        <time>2011-08-28T09:38:41Z</time>
      </trkpt>
      <trkpt lat="45.32082" lon="1.44897">
        <ele>440</ele>
        <time>2011-08-28T09:38:43Z</time>
      </trkpt>
      <trkpt lat="45.32085" lon="1.44905">
        <ele>439</ele>
        <time>2011-08-28T09:38:45Z</time>
      </trkpt>
      <trkpt lat="45.32087" lon="1.44913">
        <ele>442</ele>
        <time>2011-08-28T09:38:47Z</time>
      </trkpt>
      <trkpt lat="45.32089" lon="1.4492">
        <ele>443</ele>
        <time>2011-08-28T09:38:49Z</time>
      </trkpt>
      <trkpt lat="45.32091" lon="1.44927">
        <ele>443</ele>
        <time>2011-08-28T09:38:51Z</time>
      </trkpt>
      <trkpt lat="45.32094" lon="1.44934">
        <ele>444</ele>
        <time>2011-08-28T09:38:53Z</time>
      </trkpt>
      <trkpt lat="45.32097" lon="1.44943">
        <ele>444</ele>
        <time>2011-08-28T09:38:55Z</time>
      </trkpt>
      <trkpt lat="45.32099" lon="1.44952">
        <ele>443</ele>
        <time>2011-08-28T09:38:57Z</time>
      </trkpt>
      <trkpt lat="45.32102" lon="1.4496">
        <ele>443</ele>
        <time>2011-08-28T09:38:59Z</time>
      </trkpt>
      <trkpt lat="45.32106" lon="1.4497">
        <ele>441</ele>
        <time>2011-08-28T09:39:01Z</time>
      </trkpt>
      <trkpt lat="45.32109" lon="1.44977">
        <ele>444</ele>
        <time>2011-08-28T09:39:03Z</time>
      </trkpt>
      <trkpt lat="45.32113" lon="1.44986">
        <ele>444</ele>
        <time>2011-08-28T09:39:05Z</time>
      </trkpt>
      <trkpt lat="45.32117" lon="1.44995">
        <ele>444</ele>
        <time>2011-08-28T09:39:07Z</time>
      </trkpt>
      <trkpt lat="45.32121" lon="1.45003">
        <ele>445</ele>
        <time>2011-08-28T09:39:09Z</time>
      </trkpt>
      <trkpt lat="45.32124" lon="1.45011">
        <ele>446</ele>
        <time>2011-08-28T09:39:11Z</time>
      </trkpt>
      <trkpt lat="45.32128" lon="1.45019">
        <ele>447</ele>
        <time>2011-08-28T09:39:13Z</time>
      </trkpt>
      <trkpt lat="45.32132" lon="1.45026">
        <ele>447</ele>
        <time>2011-08-28T09:39:15Z</time>
      </trkpt>
      <trkpt lat="45.32137" lon="1.45034">
        <ele>445</ele>
        <time>2011-08-28T09:39:17Z</time>
      </trkpt>
      <trkpt lat="45.32141" lon="1.45042">
        <ele>446</ele>
        <time>2011-08-28T09:39:19Z</time>
      </trkpt>
      <trkpt lat="45.32145" lon="1.45049">
        <ele>446</ele>
        <time>2011-08-28T09:39:21Z</time>
      </trkpt>
      <trkpt lat="45.32148" lon="1.45058">
        <ele>446</ele>
        <time>2011-08-28T09:39:23Z</time>
      </trkpt>
      <trkpt lat="45.32153" lon="1.45066">
        <ele>447</ele>
        <time>2011-08-28T09:39:25Z</time>
      </trkpt>
      <trkpt lat="45.32157" lon="1.45074">
        <ele>447</ele>
        <time>2011-08-28T09:39:27Z</time>
      </trkpt>
      <trkpt lat="45.3216" lon="1.45083">
        <ele>448</ele>
        <time>2011-08-28T09:39:29Z</time>
      </trkpt>
      <trkpt lat="45.32163" lon="1.4509">
        <ele>450</ele>
        <time>2011-08-28T09:39:31Z</time>
      </trkpt>
      <trkpt lat="45.32166" lon="1.45099">
        <ele>449</ele>
        <time>2011-08-28T09:39:33Z</time>
      </trkpt>
      <trkpt lat="45.32168" lon="1.45106">
        <ele>450</ele>
        <time>2011-08-28T09:39:35Z</time>
      </trkpt>
      <trkpt lat="45.32171" lon="1.45113">
        <ele>450</ele>
        <time>2011-08-28T09:39:37Z</time>
      </trkpt>
      <trkpt lat="45.32173" lon="1.4512">
        <ele>450</ele>
        <time>2011-08-28T09:39:39Z</time>
      </trkpt>
      <trkpt lat="45.32174" lon="1.45127">
        <ele>450</ele>
        <time>2011-08-28T09:39:41Z</time>
      </trkpt>
      <trkpt lat="45.32175" lon="1.45135">
        <ele>451</ele>
        <time>2011-08-28T09:39:44Z</time>
      </trkpt>
      <trkpt lat="45.32175" lon="1.45141">
        <ele>451</ele>
        <time>2011-08-28T09:39:47Z</time>
      </trkpt>
      <trkpt lat="45.32178" lon="1.45149">
        <ele>451</ele>
        <time>2011-08-28T09:39:50Z</time>
      </trkpt>
      <trkpt lat="45.32185" lon="1.45155">
        <ele>451</ele>
        <time>2011-08-28T09:39:52Z</time>
      </trkpt>
      <trkpt lat="45.32192" lon="1.4516">
        <ele>451</ele>
        <time>2011-08-28T09:39:54Z</time>
      </trkpt>
      <trkpt lat="45.32199" lon="1.45164">
        <ele>451</ele>
        <time>2011-08-28T09:39:56Z</time>
      </trkpt>
      <trkpt lat="45.32206" lon="1.45169">
        <ele>451</ele>
        <time>2011-08-28T09:39:58Z</time>
      </trkpt>
      <trkpt lat="45.32213" lon="1.45174">
        <ele>452</ele>
        <time>2011-08-28T09:40:00Z</time>
      </trkpt>
      <trkpt lat="45.3222" lon="1.45179">
        <ele>452</ele>
        <time>2011-08-28T09:40:02Z</time>
      </trkpt>
      <trkpt lat="45.32228" lon="1.45184">
        <ele>451</ele>
        <time>2011-08-28T09:40:04Z</time>
      </trkpt>
      <trkpt lat="45.32235" lon="1.45188">
        <ele>449</ele>
        <time>2011-08-28T09:40:06Z</time>
      </trkpt>
      <trkpt lat="45.32243" lon="1.45193">
        <ele>446</ele>
        <time>2011-08-28T09:40:08Z</time>
      </trkpt>
      <trkpt lat="45.3225" lon="1.45198">
        <ele>446</ele>
        <time>2011-08-28T09:40:10Z</time>
      </trkpt>
      <trkpt lat="45.32254" lon="1.45201">
        <ele>446</ele>
        <time>2011-08-28T09:40:11Z</time>
      </trkpt>
      <trkpt lat="45.32258" lon="1.45204">
        <ele>447</ele>
        <time>2011-08-28T09:40:12Z</time>
      </trkpt>
      <trkpt lat="45.32262" lon="1.45207">
        <ele>448</ele>
        <time>2011-08-28T09:40:13Z</time>
      </trkpt>
      <trkpt lat="45.32269" lon="1.45213">
        <ele>448</ele>
        <time>2011-08-28T09:40:15Z</time>
      </trkpt>
      <trkpt lat="45.32278" lon="1.45218">
        <ele>448</ele>
        <time>2011-08-28T09:40:17Z</time>
      </trkpt>
      <trkpt lat="45.32282" lon="1.45221">
        <ele>448</ele>
        <time>2011-08-28T09:40:18Z</time>
      </trkpt>
      <trkpt lat="45.32287" lon="1.45223">
        <ele>449</ele>
        <time>2011-08-28T09:40:19Z</time>
      </trkpt>
      <trkpt lat="45.32292" lon="1.45226">
        <ele>448</ele>
        <time>2011-08-28T09:40:20Z</time>
      </trkpt>
      <trkpt lat="45.32298" lon="1.45229">
        <ele>448</ele>
        <time>2011-08-28T09:40:21Z</time>
      </trkpt>
      <trkpt lat="45.32302" lon="1.45232">
        <ele>448</ele>
        <time>2011-08-28T09:40:22Z</time>
      </trkpt>
      <trkpt lat="45.32308" lon="1.45236">
        <ele>448</ele>
        <time>2011-08-28T09:40:23Z</time>
      </trkpt>
      <trkpt lat="45.32312" lon="1.45239">
        <ele>448</ele>
        <time>2011-08-28T09:40:24Z</time>
      </trkpt>
      <trkpt lat="45.32318" lon="1.45243">
        <ele>447</ele>
        <time>2011-08-28T09:40:25Z</time>
      </trkpt>
      <trkpt lat="45.32324" lon="1.45247">
        <ele>447</ele>
        <time>2011-08-28T09:40:26Z</time>
      </trkpt>
      <trkpt lat="45.32329" lon="1.45251">
        <ele>447</ele>
        <time>2011-08-28T09:40:27Z</time>
      </trkpt>
      <trkpt lat="45.32335" lon="1.45256">
        <ele>446</ele>
        <time>2011-08-28T09:40:28Z</time>
      </trkpt>
      <trkpt lat="45.3234" lon="1.45261">
        <ele>445</ele>
        <time>2011-08-28T09:40:29Z</time>
      </trkpt>
      <trkpt lat="45.32346" lon="1.45266">
        <ele>445</ele>
        <time>2011-08-28T09:40:30Z</time>
      </trkpt>
      <trkpt lat="45.32352" lon="1.4527">
        <ele>445</ele>
        <time>2011-08-28T09:40:31Z</time>
      </trkpt>
      <trkpt lat="45.32358" lon="1.45275">
        <ele>445</ele>
        <time>2011-08-28T09:40:32Z</time>
      </trkpt>
      <trkpt lat="45.32363" lon="1.4528">
        <ele>445</ele>
        <time>2011-08-28T09:40:33Z</time>
      </trkpt>
      <trkpt lat="45.32369" lon="1.45284">
        <ele>445</ele>
        <time>2011-08-28T09:40:34Z</time>
      </trkpt>
      <trkpt lat="45.32374" lon="1.45288">
        <ele>445</ele>
        <time>2011-08-28T09:40:35Z</time>
      </trkpt>
      <trkpt lat="45.3238" lon="1.45293">
        <ele>445</ele>
        <time>2011-08-28T09:40:36Z</time>
      </trkpt>
      <trkpt lat="45.32386" lon="1.45299">
        <ele>445</ele>
        <time>2011-08-28T09:40:37Z</time>
      </trkpt>
      <trkpt lat="45.32398" lon="1.4531">
        <ele>446</ele>
        <time>2011-08-28T09:40:39Z</time>
      </trkpt>
      <trkpt lat="45.32404" lon="1.45315">
        <ele>444</ele>
        <time>2011-08-28T09:40:40Z</time>
      </trkpt>
      <trkpt lat="45.3241" lon="1.4532">
        <ele>444</ele>
        <time>2011-08-28T09:40:41Z</time>
      </trkpt>
      <trkpt lat="45.32416" lon="1.45324">
        <ele>444</ele>
        <time>2011-08-28T09:40:42Z</time>
      </trkpt>
      <trkpt lat="45.32423" lon="1.45329">
        <ele>446</ele>
        <time>2011-08-28T09:40:43Z</time>
      </trkpt>
      <trkpt lat="45.32429" lon="1.45333">
        <ele>446</ele>
        <time>2011-08-28T09:40:44Z</time>
      </trkpt>
      <trkpt lat="45.32435" lon="1.45336">
        <ele>446</ele>
        <time>2011-08-28T09:40:45Z</time>
      </trkpt>
      <trkpt lat="45.32441" lon="1.4534">
        <ele>446</ele>
        <time>2011-08-28T09:40:46Z</time>
      </trkpt>
      <trkpt lat="45.32446" lon="1.45344">
        <ele>445</ele>
        <time>2011-08-28T09:40:47Z</time>
      </trkpt>
      <trkpt lat="45.32452" lon="1.45347">
        <ele>445</ele>
        <time>2011-08-28T09:40:48Z</time>
      </trkpt>
      <trkpt lat="45.32457" lon="1.45351">
        <ele>443</ele>
        <time>2011-08-28T09:40:49Z</time>
      </trkpt>
      <trkpt lat="45.32463" lon="1.45355">
        <ele>443</ele>
        <time>2011-08-28T09:40:50Z</time>
      </trkpt>
      <trkpt lat="45.32469" lon="1.45359">
        <ele>441</ele>
        <time>2011-08-28T09:40:51Z</time>
      </trkpt>
      <trkpt lat="45.32475" lon="1.45362">
        <ele>441</ele>
        <time>2011-08-28T09:40:52Z</time>
      </trkpt>
      <trkpt lat="45.32481" lon="1.45365">
        <ele>442</ele>
        <time>2011-08-28T09:40:53Z</time>
      </trkpt>
      <trkpt lat="45.32486" lon="1.45368">
        <ele>442</ele>
        <time>2011-08-28T09:40:54Z</time>
      </trkpt>
      <trkpt lat="45.32492" lon="1.45371">
        <ele>442</ele>
        <time>2011-08-28T09:40:55Z</time>
      </trkpt>
      <trkpt lat="45.32497" lon="1.45374">
        <ele>441</ele>
        <time>2011-08-28T09:40:56Z</time>
      </trkpt>
      <trkpt lat="45.32503" lon="1.45378">
        <ele>439</ele>
        <time>2011-08-28T09:40:57Z</time>
      </trkpt>
      <trkpt lat="45.32508" lon="1.45381">
        <ele>438</ele>
        <time>2011-08-28T09:40:58Z</time>
      </trkpt>
      <trkpt lat="45.32514" lon="1.45384">
        <ele>437</ele>
        <time>2011-08-28T09:40:59Z</time>
      </trkpt>
      <trkpt lat="45.32518" lon="1.45388">
        <ele>436</ele>
        <time>2011-08-28T09:41:00Z</time>
      </trkpt>
      <trkpt lat="45.32524" lon="1.45391">
        <ele>435</ele>
        <time>2011-08-28T09:41:01Z</time>
      </trkpt>
      <trkpt lat="45.32529" lon="1.45394">
        <ele>435</ele>
        <time>2011-08-28T09:41:02Z</time>
      </trkpt>
      <trkpt lat="45.32533" lon="1.45397">
        <ele>434</ele>
        <time>2011-08-28T09:41:03Z</time>
      </trkpt>
      <trkpt lat="45.32538" lon="1.454">
        <ele>432</ele>
        <time>2011-08-28T09:41:04Z</time>
      </trkpt>
      <trkpt lat="45.32543" lon="1.45403">
        <ele>433</ele>
        <time>2011-08-28T09:41:05Z</time>
      </trkpt>
      <trkpt lat="45.32548" lon="1.45406">
        <ele>436</ele>
        <time>2011-08-28T09:41:06Z</time>
      </trkpt>
      <trkpt lat="45.32553" lon="1.45409">
        <ele>437</ele>
        <time>2011-08-28T09:41:07Z</time>
      </trkpt>
      <trkpt lat="45.32558" lon="1.45412">
        <ele>438</ele>
        <time>2011-08-28T09:41:08Z</time>
      </trkpt>
      <trkpt lat="45.32563" lon="1.45415">
        <ele>439</ele>
        <time>2011-08-28T09:41:09Z</time>
      </trkpt>
      <trkpt lat="45.32569" lon="1.45418">
        <ele>438</ele>
        <time>2011-08-28T09:41:10Z</time>
      </trkpt>
      <trkpt lat="45.32574" lon="1.45421">
        <ele>437</ele>
        <time>2011-08-28T09:41:11Z</time>
      </trkpt>
      <trkpt lat="45.3258" lon="1.45424">
        <ele>436</ele>
        <time>2011-08-28T09:41:12Z</time>
      </trkpt>
      <trkpt lat="45.32586" lon="1.45428">
        <ele>437</ele>
        <time>2011-08-28T09:41:13Z</time>
      </trkpt>
      <trkpt lat="45.32591" lon="1.45431">
        <ele>436</ele>
        <time>2011-08-28T09:41:14Z</time>
      </trkpt>
      <trkpt lat="45.32596" lon="1.45434">
        <ele>436</ele>
        <time>2011-08-28T09:41:15Z</time>
      </trkpt>
      <trkpt lat="45.32601" lon="1.45438">
        <ele>435</ele>
        <time>2011-08-28T09:41:16Z</time>
      </trkpt>
      <trkpt lat="45.32608" lon="1.45442">
        <ele>436</ele>
        <time>2011-08-28T09:41:17Z</time>
      </trkpt>
      <trkpt lat="45.32614" lon="1.45446">
        <ele>435</ele>
        <time>2011-08-28T09:41:18Z</time>
      </trkpt>
      <trkpt lat="45.3262" lon="1.4545">
        <ele>435</ele>
        <time>2011-08-28T09:41:19Z</time>
      </trkpt>
      <trkpt lat="45.32624" lon="1.45454">
        <ele>435</ele>
        <time>2011-08-28T09:41:20Z</time>
      </trkpt>
      <trkpt lat="45.32628" lon="1.45459">
        <ele>429</ele>
        <time>2011-08-28T09:42:20Z</time>
      </trkpt>
      <trkpt lat="45.32628" lon="1.45459">
        <ele>429</ele>
        <time>2011-08-28T09:42:20Z</time>
      </trkpt>
      <trkpt lat="45.32628" lon="1.45459">
        <ele>429</ele>
        <time>2011-08-28T09:42:21Z</time>
      </trkpt>
      <trkpt lat="45.32636" lon="1.45459">
        <ele>430</ele>
        <time>2011-08-28T09:42:23Z</time>
      </trkpt>
      <trkpt lat="45.32644" lon="1.45462">
        <ele>433</ele>
        <time>2011-08-28T09:42:25Z</time>
      </trkpt>
      <trkpt lat="45.32649" lon="1.45463">
        <ele>435</ele>
        <time>2011-08-28T09:42:26Z</time>
      </trkpt>
      <trkpt lat="45.32654" lon="1.45465">
        <ele>433</ele>
        <time>2011-08-28T09:42:27Z</time>
      </trkpt>
      <trkpt lat="45.3266" lon="1.45467">
        <ele>436</ele>
        <time>2011-08-28T09:42:28Z</time>
      </trkpt>
      <trkpt lat="45.32665" lon="1.45469">
        <ele>436</ele>
        <time>2011-08-28T09:42:29Z</time>
      </trkpt>
      <trkpt lat="45.32671" lon="1.45472">
        <ele>432</ele>
        <time>2011-08-28T09:42:30Z</time>
      </trkpt>
      <trkpt lat="45.32678" lon="1.45475">
        <ele>430</ele>
        <time>2011-08-28T09:42:31Z</time>
      </trkpt>
      <trkpt lat="45.32686" lon="1.45477">
        <ele>428</ele>
        <time>2011-08-28T09:42:32Z</time>
      </trkpt>
      <trkpt lat="45.32693" lon="1.4548">
        <ele>427</ele>
        <time>2011-08-28T09:42:33Z</time>
      </trkpt>
      <trkpt lat="45.327" lon="1.45482">
        <ele>427</ele>
        <time>2011-08-28T09:42:34Z</time>
      </trkpt>
      <trkpt lat="45.32706" lon="1.45483">
        <ele>432</ele>
        <time>2011-08-28T09:42:35Z</time>
      </trkpt>
      <trkpt lat="45.32712" lon="1.45484">
        <ele>432</ele>
        <time>2011-08-28T09:42:36Z</time>
      </trkpt>
      <trkpt lat="45.32718" lon="1.45486">
        <ele>432</ele>
        <time>2011-08-28T09:42:37Z</time>
      </trkpt>
      <trkpt lat="45.32723" lon="1.45487">
        <ele>433</ele>
        <time>2011-08-28T09:42:38Z</time>
      </trkpt>
      <trkpt lat="45.32731" lon="1.45488">
        <ele>433</ele>
        <time>2011-08-28T09:42:40Z</time>
      </trkpt>
      <trkpt lat="45.32736" lon="1.4549">
        <ele>432</ele>
        <time>2011-08-28T09:42:42Z</time>
      </trkpt>
      <trkpt lat="45.32742" lon="1.45493">
        <ele>428</ele>
        <time>2011-08-28T09:42:44Z</time>
      </trkpt>
      <trkpt lat="45.32748" lon="1.45496">
        <ele>429</ele>
        <time>2011-08-28T09:42:46Z</time>
      </trkpt>
      <trkpt lat="45.32754" lon="1.45498">
        <ele>430</ele>
        <time>2011-08-28T09:42:48Z</time>
      </trkpt>
      <trkpt lat="45.32759" lon="1.45502">
        <ele>430</ele>
        <time>2011-08-28T09:42:50Z</time>
      </trkpt>
      <trkpt lat="45.32763" lon="1.45505">
        <ele>429</ele>
        <time>2011-08-28T09:42:52Z</time>
      </trkpt>
      <trkpt lat="45.32767" lon="1.45509">
        <ele>432</ele>
        <time>2011-08-28T09:42:54Z</time>
      </trkpt>
      <trkpt lat="45.32769" lon="1.45516">
        <ele>432</ele>
        <time>2011-08-28T09:42:56Z</time>
      </trkpt>
      <trkpt lat="45.32767" lon="1.45522">
        <ele>431</ele>
        <time>2011-08-28T09:44:34Z</time>
      </trkpt>
      <trkpt lat="45.32772" lon="1.45521">
        <ele>426</ele>
        <time>2011-08-28T09:44:42Z</time>
      </trkpt>
      <trkpt lat="45.32772" lon="1.45513">
        <ele>429</ele>
        <time>2011-08-28T09:44:45Z</time>
      </trkpt>
      <trkpt lat="45.32772" lon="1.45513">
        <ele>429</ele>
        <time>2011-08-28T09:44:45Z</time>
      </trkpt>
      <trkpt lat="45.32772" lon="1.45513">
        <ele>429</ele>
        <time>2011-08-28T09:44:46Z</time>
      </trkpt>
      <trkpt lat="45.32769" lon="1.45505">
        <ele>430</ele>
        <time>2011-08-28T09:44:47Z</time>
      </trkpt>
      <trkpt lat="45.32769" lon="1.45505">
        <ele>430</ele>
        <time>2011-08-28T09:44:47Z</time>
      </trkpt>
      <trkpt lat="45.32769" lon="1.45505">
        <ele>430</ele>
        <time>2011-08-28T09:44:48Z</time>
      </trkpt>
      <trkpt lat="45.32762" lon="1.45498">
        <ele>429</ele>
        <time>2011-08-28T09:44:49Z</time>
      </trkpt>
      <trkpt lat="45.32756" lon="1.45496">
        <ele>432</ele>
        <time>2011-08-28T09:44:50Z</time>
      </trkpt>
      <trkpt lat="45.3275" lon="1.45494">
        <ele>428</ele>
        <time>2011-08-28T09:44:51Z</time>
      </trkpt>
      <trkpt lat="45.32746" lon="1.45493">
        <ele>431</ele>
        <time>2011-08-28T09:44:52Z</time>
      </trkpt>
      <trkpt lat="45.32741" lon="1.45491">
        <ele>431</ele>
        <time>2011-08-28T09:44:53Z</time>
      </trkpt>
      <trkpt lat="45.32732" lon="1.45488">
        <ele>434</ele>
        <time>2011-08-28T09:44:55Z</time>
      </trkpt>
      <trkpt lat="45.32727" lon="1.45484">
        <ele>429</ele>
        <time>2011-08-28T09:44:57Z</time>
      </trkpt>
      <trkpt lat="45.3272" lon="1.45482">
        <ele>428</ele>
        <time>2011-08-28T09:44:59Z</time>
      </trkpt>
      <trkpt lat="45.32712" lon="1.45479">
        <ele>425</ele>
        <time>2011-08-28T09:45:01Z</time>
      </trkpt>
      <trkpt lat="45.32704" lon="1.45475">
        <ele>427</ele>
        <time>2011-08-28T09:45:03Z</time>
      </trkpt>
      <trkpt lat="45.32695" lon="1.45473">
        <ele>428</ele>
        <time>2011-08-28T09:45:05Z</time>
      </trkpt>
      <trkpt lat="45.32688" lon="1.45472">
        <ele>431</ele>
        <time>2011-08-28T09:45:07Z</time>
      </trkpt>
      <trkpt lat="45.3268" lon="1.45469">
        <ele>431</ele>
        <time>2011-08-28T09:45:09Z</time>
      </trkpt>
      <trkpt lat="45.32673" lon="1.45467">
        <ele>432</ele>
        <time>2011-08-28T09:45:11Z</time>
      </trkpt>
      <trkpt lat="45.32666" lon="1.45466">
        <ele>427</ele>
        <time>2011-08-28T09:45:13Z</time>
      </trkpt>
      <trkpt lat="45.3266" lon="1.45463">
        <ele>429</ele>
        <time>2011-08-28T09:45:15Z</time>
      </trkpt>
      <trkpt lat="45.32656" lon="1.45456">
        <ele>429</ele>
        <time>2011-08-28T09:45:17Z</time>
      </trkpt>
      <trkpt lat="45.32653" lon="1.45447">
        <ele>431</ele>
        <time>2011-08-28T09:45:19Z</time>
      </trkpt>
      <trkpt lat="45.32651" lon="1.4544">
        <ele>435</ele>
        <time>2011-08-28T09:45:21Z</time>
      </trkpt>
      <trkpt lat="45.32651" lon="1.4543">
        <ele>432</ele>
        <time>2011-08-28T09:45:23Z</time>
      </trkpt>
      <trkpt lat="45.32653" lon="1.45424">
        <ele>432</ele>
        <time>2011-08-28T09:45:24Z</time>
      </trkpt>
      <trkpt lat="45.32656" lon="1.45418">
        <ele>432</ele>
        <time>2011-08-28T09:45:25Z</time>
      </trkpt>
      <trkpt lat="45.32658" lon="1.45411">
        <ele>432</ele>
        <time>2011-08-28T09:45:26Z</time>
      </trkpt>
      <trkpt lat="45.3266" lon="1.45403">
        <ele>431</ele>
        <time>2011-08-28T09:45:27Z</time>
      </trkpt>
      <trkpt lat="45.32663" lon="1.45396">
        <ele>428</ele>
        <time>2011-08-28T09:45:28Z</time>
      </trkpt>
      <trkpt lat="45.32666" lon="1.45387">
        <ele>428</ele>
        <time>2011-08-28T09:45:29Z</time>
      </trkpt>
      <trkpt lat="45.32668" lon="1.45378">
        <ele>427</ele>
        <time>2011-08-28T09:45:30Z</time>
      </trkpt>
      <trkpt lat="45.32671" lon="1.4537">
        <ele>427</ele>
        <time>2011-08-28T09:45:31Z</time>
      </trkpt>
      <trkpt lat="45.32673" lon="1.45361">
        <ele>427</ele>
        <time>2011-08-28T09:45:32Z</time>
      </trkpt>
      <trkpt lat="45.32675" lon="1.45352">
        <ele>427</ele>
        <time>2011-08-28T09:45:33Z</time>
      </trkpt>
      <trkpt lat="45.32677" lon="1.45343">
        <ele>427</ele>
        <time>2011-08-28T09:45:34Z</time>
      </trkpt>
      <trkpt lat="45.32678" lon="1.45334">
        <ele>430</ele>
        <time>2011-08-28T09:45:35Z</time>
      </trkpt>
      <trkpt lat="45.32679" lon="1.45325">
        <ele>431</ele>
        <time>2011-08-28T09:45:36Z</time>
      </trkpt>
      <trkpt lat="45.32678" lon="1.45316">
        <ele>431</ele>
        <time>2011-08-28T09:45:37Z</time>
      </trkpt>
      <trkpt lat="45.32676" lon="1.45296">
        <ele>429</ele>
        <time>2011-08-28T09:45:39Z</time>
      </trkpt>
      <trkpt lat="45.32674" lon="1.45286">
        <ele>428</ele>
        <time>2011-08-28T09:45:40Z</time>
      </trkpt>
      <trkpt lat="45.32671" lon="1.45277">
        <ele>426</ele>
        <time>2011-08-28T09:45:41Z</time>
      </trkpt>
      <trkpt lat="45.32669" lon="1.45269">
        <ele>425</ele>
        <time>2011-08-28T09:45:42Z</time>
      </trkpt>
      <trkpt lat="45.32666" lon="1.4526">
        <ele>424</ele>
        <time>2011-08-28T09:45:43Z</time>
      </trkpt>
      <trkpt lat="45.32663" lon="1.45252">
        <ele>424</ele>
        <time>2011-08-28T09:45:44Z</time>
      </trkpt>
      <trkpt lat="45.32662" lon="1.45242">
        <ele>424</ele>
        <time>2011-08-28T09:45:45Z</time>
      </trkpt>
      <trkpt lat="45.32661" lon="1.45233">
        <ele>424</ele>
        <time>2011-08-28T09:45:46Z</time>
      </trkpt>
      <trkpt lat="45.3266" lon="1.45223">
        <ele>423</ele>
        <time>2011-08-28T09:45:47Z</time>
      </trkpt>
      <trkpt lat="45.32659" lon="1.45214">
        <ele>421</ele>
        <time>2011-08-28T09:45:48Z</time>
      </trkpt>
      <trkpt lat="45.32659" lon="1.45204">
        <ele>419</ele>
        <time>2011-08-28T09:45:49Z</time>
      </trkpt>
      <trkpt lat="45.32658" lon="1.45194">
        <ele>420</ele>
        <time>2011-08-28T09:45:50Z</time>
      </trkpt>
      <trkpt lat="45.32659" lon="1.45185">
        <ele>421</ele>
        <time>2011-08-28T09:45:51Z</time>
      </trkpt>
      <trkpt lat="45.32659" lon="1.45177">
        <ele>421</ele>
        <time>2011-08-28T09:45:52Z</time>
      </trkpt>
      <trkpt lat="45.3266" lon="1.45169">
        <ele>421</ele>
        <time>2011-08-28T09:45:53Z</time>
      </trkpt>
      <trkpt lat="45.32663" lon="1.45161">
        <ele>424</ele>
        <time>2011-08-28T09:45:54Z</time>
      </trkpt>
      <trkpt lat="45.32666" lon="1.45153">
        <ele>425</ele>
        <time>2011-08-28T09:45:55Z</time>
      </trkpt>
      <trkpt lat="45.32668" lon="1.45144">
        <ele>424</ele>
        <time>2011-08-28T09:45:56Z</time>
      </trkpt>
      <trkpt lat="45.32671" lon="1.45136">
        <ele>423</ele>
        <time>2011-08-28T09:45:57Z</time>
      </trkpt>
      <trkpt lat="45.32674" lon="1.45128">
        <ele>425</ele>
        <time>2011-08-28T09:45:58Z</time>
      </trkpt>
      <trkpt lat="45.32677" lon="1.4512">
        <ele>429</ele>
        <time>2011-08-28T09:45:59Z</time>
      </trkpt>
      <trkpt lat="45.3268" lon="1.45113">
        <ele>433</ele>
        <time>2011-08-28T09:46:00Z</time>
      </trkpt>
      <trkpt lat="45.32682" lon="1.45106">
        <ele>436</ele>
        <time>2011-08-28T09:46:01Z</time>
      </trkpt>
      <trkpt lat="45.32685" lon="1.451">
        <ele>437</ele>
        <time>2011-08-28T09:46:02Z</time>
      </trkpt>
      <trkpt lat="45.32687" lon="1.45094">
        <ele>436</ele>
        <time>2011-08-28T09:46:03Z</time>
      </trkpt>
      <trkpt lat="45.3269" lon="1.45088">
        <ele>436</ele>
        <time>2011-08-28T09:46:04Z</time>
      </trkpt>
      <trkpt lat="45.32692" lon="1.45082">
        <ele>434</ele>
        <time>2011-08-28T09:46:05Z</time>
      </trkpt>
      <trkpt lat="45.32694" lon="1.45076">
        <ele>430</ele>
        <time>2011-08-28T09:46:06Z</time>
      </trkpt>
      <trkpt lat="45.32696" lon="1.4507">
        <ele>430</ele>
        <time>2011-08-28T09:46:07Z</time>
      </trkpt>
      <trkpt lat="45.32699" lon="1.45064">
        <ele>428</ele>
        <time>2011-08-28T09:46:08Z</time>
      </trkpt>
      <trkpt lat="45.32701" lon="1.45058">
        <ele>428</ele>
        <time>2011-08-28T09:46:09Z</time>
      </trkpt>
      <trkpt lat="45.32704" lon="1.45052">
        <ele>429</ele>
        <time>2011-08-28T09:46:10Z</time>
      </trkpt>
      <trkpt lat="45.32706" lon="1.45045">
        <ele>428</ele>
        <time>2011-08-28T09:46:11Z</time>
      </trkpt>
      <trkpt lat="45.32709" lon="1.45034">
        <ele>427</ele>
        <time>2011-08-28T09:46:13Z</time>
      </trkpt>
      <trkpt lat="45.32712" lon="1.45023">
        <ele>429</ele>
        <time>2011-08-28T09:46:15Z</time>
      </trkpt>
      <trkpt lat="45.32712" lon="1.45012">
        <ele>430</ele>
        <time>2011-08-28T09:46:17Z</time>
      </trkpt>
      <trkpt lat="45.32713" lon="1.45001">
        <ele>430</ele>
        <time>2011-08-28T09:46:19Z</time>
      </trkpt>
      <trkpt lat="45.32712" lon="1.44992">
        <ele>430</ele>
        <time>2011-08-28T09:46:21Z</time>
      </trkpt>
      <trkpt lat="45.32712" lon="1.44983">
        <ele>428</ele>
        <time>2011-08-28T09:46:23Z</time>
      </trkpt>
      <trkpt lat="45.32712" lon="1.44975">
        <ele>430</ele>
        <time>2011-08-28T09:46:25Z</time>
      </trkpt>
      <trkpt lat="45.32711" lon="1.44967">
        <ele>428</ele>
        <time>2011-08-28T09:46:27Z</time>
      </trkpt>
      <trkpt lat="45.32709" lon="1.44961">
        <ele>427</ele>
        <time>2011-08-28T09:46:29Z</time>
      </trkpt>
      <trkpt lat="45.32707" lon="1.44952">
        <ele>430</ele>
        <time>2011-08-28T09:46:31Z</time>
      </trkpt>
      <trkpt lat="45.32706" lon="1.44942">
        <ele>430</ele>
        <time>2011-08-28T09:46:33Z</time>
      </trkpt>
      <trkpt lat="45.32704" lon="1.44932">
        <ele>427</ele>
        <time>2011-08-28T09:46:35Z</time>
      </trkpt>
      <trkpt lat="45.32704" lon="1.44922">
        <ele>431</ele>
        <time>2011-08-28T09:46:37Z</time>
      </trkpt>
      <trkpt lat="45.32704" lon="1.44912">
        <ele>429</ele>
        <time>2011-08-28T09:46:39Z</time>
      </trkpt>
      <trkpt lat="45.32703" lon="1.44904">
        <ele>434</ele>
        <time>2011-08-28T09:46:41Z</time>
      </trkpt>
      <trkpt lat="45.32703" lon="1.44894">
        <ele>437</ele>
        <time>2011-08-28T09:46:43Z</time>
      </trkpt>
      <trkpt lat="45.32704" lon="1.44884">
        <ele>430</ele>
        <time>2011-08-28T09:46:45Z</time>
      </trkpt>
      <trkpt lat="45.32704" lon="1.44876">
        <ele>429</ele>
        <time>2011-08-28T09:46:46Z</time>
      </trkpt>
      <trkpt lat="45.32705" lon="1.4487">
        <ele>431</ele>
        <time>2011-08-28T09:46:47Z</time>
      </trkpt>
      <trkpt lat="45.32706" lon="1.44862">
        <ele>430</ele>
        <time>2011-08-28T09:46:48Z</time>
      </trkpt>
      <trkpt lat="45.32706" lon="1.44856">
        <ele>431</ele>
        <time>2011-08-28T09:46:49Z</time>
      </trkpt>
      <trkpt lat="45.32707" lon="1.44849">
        <ele>430</ele>
        <time>2011-08-28T09:46:50Z</time>
      </trkpt>
      <trkpt lat="45.32708" lon="1.44843">
        <ele>430</ele>
        <time>2011-08-28T09:46:51Z</time>
      </trkpt>
      <trkpt lat="45.32709" lon="1.44836">
        <ele>430</ele>
        <time>2011-08-28T09:46:52Z</time>
      </trkpt>
      <trkpt lat="45.3271" lon="1.44829">
        <ele>431</ele>
        <time>2011-08-28T09:46:53Z</time>
      </trkpt>
      <trkpt lat="45.32712" lon="1.44822">
        <ele>431</ele>
        <time>2011-08-28T09:46:54Z</time>
      </trkpt>
      <trkpt lat="45.32714" lon="1.44813">
        <ele>430</ele>
        <time>2011-08-28T09:46:55Z</time>
      </trkpt>
      <trkpt lat="45.32715" lon="1.44805">
        <ele>427</ele>
        <time>2011-08-28T09:46:56Z</time>
      </trkpt>
      <trkpt lat="45.32717" lon="1.44799">
        <ele>423</ele>
        <time>2011-08-28T09:46:57Z</time>
      </trkpt>
      <trkpt lat="45.32719" lon="1.44792">
        <ele>423</ele>
        <time>2011-08-28T09:46:58Z</time>
      </trkpt>
      <trkpt lat="45.32722" lon="1.4478">
        <ele>424</ele>
        <time>2011-08-28T09:47:00Z</time>
      </trkpt>
      <trkpt lat="45.32724" lon="1.44773">
        <ele>427</ele>
        <time>2011-08-28T09:47:01Z</time>
      </trkpt>
      <trkpt lat="45.32725" lon="1.44767">
        <ele>426</ele>
        <time>2011-08-28T09:47:02Z</time>
      </trkpt>
      <trkpt lat="45.32726" lon="1.44761">
        <ele>424</ele>
        <time>2011-08-28T09:47:03Z</time>
      </trkpt>
      <trkpt lat="45.32728" lon="1.44753">
        <ele>425</ele>
        <time>2011-08-28T09:47:04Z</time>
      </trkpt>
      <trkpt lat="45.32729" lon="1.44745">
        <ele>425</ele>
        <time>2011-08-28T09:47:05Z</time>
      </trkpt>
      <trkpt lat="45.32728" lon="1.44738">
        <ele>421</ele>
        <time>2011-08-28T09:47:06Z</time>
      </trkpt>
      <trkpt lat="45.32728" lon="1.4473">
        <ele>421</ele>
        <time>2011-08-28T09:47:07Z</time>
      </trkpt>
      <trkpt lat="45.32727" lon="1.44722">
        <ele>422</ele>
        <time>2011-08-28T09:47:08Z</time>
      </trkpt>
      <trkpt lat="45.32726" lon="1.44714">
        <ele>422</ele>
        <time>2011-08-28T09:47:09Z</time>
      </trkpt>
      <trkpt lat="45.32726" lon="1.44707">
        <ele>420</ele>
        <time>2011-08-28T09:47:10Z</time>
      </trkpt>
      <trkpt lat="45.32725" lon="1.44699">
        <ele>420</ele>
        <time>2011-08-28T09:47:11Z</time>
      </trkpt>
      <trkpt lat="45.32724" lon="1.44691">
        <ele>419</ele>
        <time>2011-08-28T09:47:12Z</time>
      </trkpt>
      <trkpt lat="45.32724" lon="1.44682">
        <ele>418</ele>
        <time>2011-08-28T09:47:13Z</time>
      </trkpt>
      <trkpt lat="45.32723" lon="1.44673">
        <ele>419</ele>
        <time>2011-08-28T09:47:14Z</time>
      </trkpt>
      <trkpt lat="45.32723" lon="1.44664">
        <ele>418</ele>
        <time>2011-08-28T09:47:15Z</time>
      </trkpt>
      <trkpt lat="45.32723" lon="1.44655">
        <ele>418</ele>
        <time>2011-08-28T09:47:16Z</time>
      </trkpt>
      <trkpt lat="45.32724" lon="1.44648">
        <ele>420</ele>
        <time>2011-08-28T09:47:17Z</time>
      </trkpt>
      <trkpt lat="45.32724" lon="1.4464">
        <ele>420</ele>
        <time>2011-08-28T09:47:18Z</time>
      </trkpt>
      <trkpt lat="45.32725" lon="1.44633">
        <ele>419</ele>
        <time>2011-08-28T09:47:19Z</time>
      </trkpt>
      <trkpt lat="45.32725" lon="1.44626">
        <ele>420</ele>
        <time>2011-08-28T09:47:20Z</time>
      </trkpt>
      <trkpt lat="45.32726" lon="1.44616">
        <ele>421</ele>
        <time>2011-08-28T09:47:22Z</time>
      </trkpt>
      <trkpt lat="45.32724" lon="1.44609">
        <ele>422</ele>
        <time>2011-08-28T09:47:24Z</time>
      </trkpt>
      <trkpt lat="45.32724" lon="1.44609">
        <ele>422</ele>
        <time>2011-08-28T09:47:24Z</time>
      </trkpt>
      <trkpt lat="45.32724" lon="1.44609">
        <ele>422</ele>
        <time>2011-08-28T09:47:25Z</time>
      </trkpt>
      <trkpt lat="45.32729" lon="1.44602">
        <ele>425</ele>
        <time>2011-08-28T09:47:26Z</time>
      </trkpt>
      <trkpt lat="45.32734" lon="1.44602">
        <ele>424</ele>
        <time>2011-08-28T09:47:27Z</time>
      </trkpt>
      <trkpt lat="45.32739" lon="1.44603">
        <ele>425</ele>
        <time>2011-08-28T09:47:28Z</time>
      </trkpt>
      <trkpt lat="45.32748" lon="1.44604">
        <ele>424</ele>
        <time>2011-08-28T09:47:30Z</time>
      </trkpt>
      <trkpt lat="45.32752" lon="1.44604">
        <ele>427</ele>
        <time>2011-08-28T09:47:31Z</time>
      </trkpt>
      <trkpt lat="45.32761" lon="1.44603">
        <ele>423</ele>
        <time>2011-08-28T09:47:33Z</time>
      </trkpt>
      <trkpt lat="45.32766" lon="1.44602">
        <ele>423</ele>
        <time>2011-08-28T09:47:34Z</time>
      </trkpt>
      <trkpt lat="45.32774" lon="1.446">
        <ele>423</ele>
        <time>2011-08-28T09:47:36Z</time>
      </trkpt>
      <trkpt lat="45.3278" lon="1.446">
        <ele>426</ele>
        <time>2011-08-28T09:47:37Z</time>
      </trkpt>
      <trkpt lat="45.32784" lon="1.446">
        <ele>424</ele>
        <time>2011-08-28T09:47:38Z</time>
      </trkpt>
      <trkpt lat="45.32789" lon="1.44599">
        <ele>421</ele>
        <time>2011-08-28T09:47:39Z</time>
      </trkpt>
      <trkpt lat="45.32795" lon="1.44596">
        <ele>421</ele>
        <time>2011-08-28T09:47:40Z</time>
      </trkpt>
      <trkpt lat="45.328" lon="1.44594">
        <ele>417</ele>
        <time>2011-08-28T09:47:41Z</time>
      </trkpt>
      <trkpt lat="45.328" lon="1.44594">
        <ele>417</ele>
        <time>2011-08-28T09:47:41Z</time>
      </trkpt>
      <trkpt lat="45.328" lon="1.44594">
        <ele>417</ele>
        <time>2011-08-28T09:47:43Z</time>
      </trkpt>
      <trkpt lat="45.32804" lon="1.4459">
        <ele>418</ele>
        <time>2011-08-28T09:47:44Z</time>
      </trkpt>
      <trkpt lat="45.32808" lon="1.44586">
        <ele>422</ele>
        <time>2011-08-28T09:47:45Z</time>
      </trkpt>
      <trkpt lat="45.32812" lon="1.44572">
        <ele>422</ele>
        <time>2011-08-28T09:47:48Z</time>
      </trkpt>
      <trkpt lat="45.32815" lon="1.44561">
        <ele>425</ele>
        <time>2011-08-28T09:47:49Z</time>
      </trkpt>
      <trkpt lat="45.32817" lon="1.44552">
        <ele>423</ele>
        <time>2011-08-28T09:47:50Z</time>
      </trkpt>
      <trkpt lat="45.32817" lon="1.44552">
        <ele>423</ele>
        <time>2011-08-28T09:47:50Z</time>
      </trkpt>
      <trkpt lat="45.32817" lon="1.44552">
        <ele>423</ele>
        <time>2011-08-28T09:48:13Z</time>
      </trkpt>
      <trkpt lat="45.32816" lon="1.44531">
        <ele>421</ele>
        <time>2011-08-28T09:48:14Z</time>
      </trkpt>
      <trkpt lat="45.32816" lon="1.44531">
        <ele>421</ele>
        <time>2011-08-28T09:48:14Z</time>
      </trkpt>
      <trkpt lat="45.32816" lon="1.44531">
        <ele>421</ele>
        <time>2011-08-28T09:48:15Z</time>
      </trkpt>
      <trkpt lat="45.32813" lon="1.4451">
        <ele>423</ele>
        <time>2011-08-28T09:48:16Z</time>
      </trkpt>
      <trkpt lat="45.32812" lon="1.44502">
        <ele>422</ele>
        <time>2011-08-28T09:48:17Z</time>
      </trkpt>
      <trkpt lat="45.32811" lon="1.44494">
        <ele>420</ele>
        <time>2011-08-28T09:48:18Z</time>
      </trkpt>
      <trkpt lat="45.3281" lon="1.44486">
        <ele>421</ele>
        <time>2011-08-28T09:48:19Z</time>
      </trkpt>
      <trkpt lat="45.3281" lon="1.44486">
        <ele>421</ele>
        <time>2011-08-28T09:48:19Z</time>
      </trkpt>
      <trkpt lat="45.3281" lon="1.44486">
        <ele>421</ele>
        <time>2011-08-28T09:48:20Z</time>
      </trkpt>
      <trkpt lat="45.32811" lon="1.44471">
        <ele>418</ele>
        <time>2011-08-28T09:48:21Z</time>
      </trkpt>
      <trkpt lat="45.32813" lon="1.44465">
        <ele>419</ele>
        <time>2011-08-28T09:48:22Z</time>
      </trkpt>
      <trkpt lat="45.32816" lon="1.44459">
        <ele>420</ele>
        <time>2011-08-28T09:48:23Z</time>
      </trkpt>
      <trkpt lat="45.32816" lon="1.44459">
        <ele>420</ele>
        <time>2011-08-28T09:48:23Z</time>
      </trkpt>
      <trkpt lat="45.32816" lon="1.44459">
        <ele>420</ele>
        <time>2011-08-28T09:48:27Z</time>
      </trkpt>
      <trkpt lat="45.32822" lon="1.44454">
        <ele>421</ele>
        <time>2011-08-28T09:48:28Z</time>
      </trkpt>
      <trkpt lat="45.32827" lon="1.44456">
        <ele>421</ele>
        <time>2011-08-28T09:48:30Z</time>
      </trkpt>
      <trkpt lat="45.32836" lon="1.44459">
        <ele>420</ele>
        <time>2011-08-28T09:48:34Z</time>
      </trkpt>
      <trkpt lat="45.32836" lon="1.44459">
        <ele>420</ele>
        <time>2011-08-28T09:48:34Z</time>
      </trkpt>
      <trkpt lat="45.32836" lon="1.44459">
        <ele>420</ele>
        <time>2011-08-28T09:48:35Z</time>
      </trkpt>
      <trkpt lat="45.32845" lon="1.44459">
        <ele>421</ele>
        <time>2011-08-28T09:48:36Z</time>
      </trkpt>
      <trkpt lat="45.3285" lon="1.44457">
        <ele>421</ele>
        <time>2011-08-28T09:48:37Z</time>
      </trkpt>
      <trkpt lat="45.32882" lon="1.44442">
        <ele>421</ele>
        <time>2011-08-28T09:48:48Z</time>
      </trkpt>
      <trkpt lat="45.32887" lon="1.44444">
        <ele>422</ele>
        <time>2011-08-28T09:48:49Z</time>
      </trkpt>
      <trkpt lat="45.32899" lon="1.4445">
        <ele>417</ele>
        <time>2011-08-28T09:48:54Z</time>
      </trkpt>
      <trkpt lat="45.32906" lon="1.44449">
        <ele>417</ele>
        <time>2011-08-28T09:48:55Z</time>
      </trkpt>
      <trkpt lat="45.32913" lon="1.44444">
        <ele>418</ele>
        <time>2011-08-28T09:48:56Z</time>
      </trkpt>
      <trkpt lat="45.32919" lon="1.44439">
        <ele>419</ele>
        <time>2011-08-28T09:48:57Z</time>
      </trkpt>
      <trkpt lat="45.32926" lon="1.44431">
        <ele>418</ele>
        <time>2011-08-28T09:48:58Z</time>
      </trkpt>
      <trkpt lat="45.32933" lon="1.44424">
        <ele>420</ele>
        <time>2011-08-28T09:48:59Z</time>
      </trkpt>
      <trkpt lat="45.3294" lon="1.44416">
        <ele>421</ele>
        <time>2011-08-28T09:49:00Z</time>
      </trkpt>
      <trkpt lat="45.32946" lon="1.44408">
        <ele>421</ele>
        <time>2011-08-28T09:49:01Z</time>
      </trkpt>
      <trkpt lat="45.32946" lon="1.44408">
        <ele>421</ele>
        <time>2011-08-28T09:49:01Z</time>
      </trkpt>
      <trkpt lat="45.32946" lon="1.44408">
        <ele>421</ele>
        <time>2011-08-28T09:49:03Z</time>
      </trkpt>
      <trkpt lat="45.32952" lon="1.44402">
        <ele>422</ele>
        <time>2011-08-28T09:49:04Z</time>
      </trkpt>
      <trkpt lat="45.32958" lon="1.44396">
        <ele>418</ele>
        <time>2011-08-28T09:49:05Z</time>
      </trkpt>
      <trkpt lat="45.32964" lon="1.4439">
        <ele>418</ele>
        <time>2011-08-28T09:49:06Z</time>
      </trkpt>
      <trkpt lat="45.3297" lon="1.44383">
        <ele>420</ele>
        <time>2011-08-28T09:49:07Z</time>
      </trkpt>
      <trkpt lat="45.3297" lon="1.44383">
        <ele>420</ele>
        <time>2011-08-28T09:49:07Z</time>
      </trkpt>
      <trkpt lat="45.3297" lon="1.44383">
        <ele>420</ele>
        <time>2011-08-28T09:49:09Z</time>
      </trkpt>
      <trkpt lat="45.32978" lon="1.4438">
        <ele>415</ele>
        <time>2011-08-28T09:49:11Z</time>
      </trkpt>
      <trkpt lat="45.32978" lon="1.4438">
        <ele>415</ele>
        <time>2011-08-28T09:49:11Z</time>
      </trkpt>
      <trkpt lat="45.32978" lon="1.4438">
        <ele>415</ele>
        <time>2011-08-28T09:49:14Z</time>
      </trkpt>
      <trkpt lat="45.32988" lon="1.44375">
        <ele>413</ele>
        <time>2011-08-28T09:49:15Z</time>
      </trkpt>
      <trkpt lat="45.32992" lon="1.44367">
        <ele>407</ele>
        <time>2011-08-28T09:49:17Z</time>
      </trkpt>
      <trkpt lat="45.32992" lon="1.44367">
        <ele>407</ele>
        <time>2011-08-28T09:49:17Z</time>
      </trkpt>
      <trkpt lat="45.32992" lon="1.44367">
        <ele>407</ele>
        <time>2011-08-28T09:49:18Z</time>
      </trkpt>
      <trkpt lat="45.32998" lon="1.44345">
        <ele>403</ele>
        <time>2011-08-28T09:49:19Z</time>
      </trkpt>
      <trkpt lat="45.32999" lon="1.44335">
        <ele>399</ele>
        <time>2011-08-28T09:49:20Z</time>
      </trkpt>
      <trkpt lat="45.32999" lon="1.44335">
        <ele>399</ele>
        <time>2011-08-28T09:49:20Z</time>
      </trkpt>
      <trkpt lat="45.32999" lon="1.44335">
        <ele>399</ele>
        <time>2011-08-28T09:49:22Z</time>
      </trkpt>
      <trkpt lat="45.32998" lon="1.44325">
        <ele>387</ele>
        <time>2011-08-28T09:49:23Z</time>
      </trkpt>
      <trkpt lat="45.32998" lon="1.44314">
        <ele>394</ele>
        <time>2011-08-28T09:49:24Z</time>
      </trkpt>
      <trkpt lat="45.32996" lon="1.44306">
        <ele>393</ele>
        <time>2011-08-28T09:49:25Z</time>
      </trkpt>
      <trkpt lat="45.32994" lon="1.44297">
        <ele>387</ele>
        <time>2011-08-28T09:49:26Z</time>
      </trkpt>
      <trkpt lat="45.32992" lon="1.44289">
        <ele>381</ele>
        <time>2011-08-28T09:49:27Z</time>
      </trkpt>
      <trkpt lat="45.3299" lon="1.44283">
        <ele>383</ele>
        <time>2011-08-28T09:49:28Z</time>
      </trkpt>
      <trkpt lat="45.32989" lon="1.44276">
        <ele>385</ele>
        <time>2011-08-28T09:49:29Z</time>
      </trkpt>
      <trkpt lat="45.32986" lon="1.44269">
        <ele>385</ele>
        <time>2011-08-28T09:49:30Z</time>
      </trkpt>
      <trkpt lat="45.32983" lon="1.44262">
        <ele>384</ele>
        <time>2011-08-28T09:49:31Z</time>
      </trkpt>
      <trkpt lat="45.32983" lon="1.44262">
        <ele>384</ele>
        <time>2011-08-28T09:49:31Z</time>
      </trkpt>
      <trkpt lat="45.32983" lon="1.44262">
        <ele>384</ele>
        <time>2011-08-28T09:49:35Z</time>
      </trkpt>
      <trkpt lat="45.3298" lon="1.44253">
        <ele>390</ele>
        <time>2011-08-28T09:49:36Z</time>
      </trkpt>
      <trkpt lat="45.3298" lon="1.44253">
        <ele>390</ele>
        <time>2011-08-28T09:49:36Z</time>
      </trkpt>
      <trkpt lat="45.3298" lon="1.44253">
        <ele>390</ele>
        <time>2011-08-28T09:49:37Z</time>
      </trkpt>
      <trkpt lat="45.32998" lon="1.44242">
        <ele>371</ele>
        <time>2011-08-28T09:49:48Z</time>
      </trkpt>
      <trkpt lat="45.32998" lon="1.44242">
        <ele>371</ele>
        <time>2011-08-28T09:49:48Z</time>
      </trkpt>
      <trkpt lat="45.32998" lon="1.44242">
        <ele>371</ele>
        <time>2011-08-28T09:50:22Z</time>
      </trkpt>
      <trkpt lat="45.32998" lon="1.44228">
        <ele>372</ele>
        <time>2011-08-28T09:50:23Z</time>
      </trkpt>
      <trkpt lat="45.32998" lon="1.44228">
        <ele>372</ele>
        <time>2011-08-28T09:50:23Z</time>
      </trkpt>
      <trkpt lat="45.32998" lon="1.44228">
        <ele>372</ele>
        <time>2011-08-28T09:50:42Z</time>
      </trkpt>
      <trkpt lat="45.3301" lon="1.44234">
        <ele>360</ele>
        <time>2011-08-28T09:50:43Z</time>
      </trkpt>
      <trkpt lat="45.33013" lon="1.44238">
        <ele>349</ele>
        <time>2011-08-28T09:50:45Z</time>
      </trkpt>
      <trkpt lat="45.33017" lon="1.44242">
        <ele>353</ele>
        <time>2011-08-28T09:50:46Z</time>
      </trkpt>
      <trkpt lat="45.33021" lon="1.44248">
        <ele>351</ele>
        <time>2011-08-28T09:50:47Z</time>
      </trkpt>
      <trkpt lat="45.33025" lon="1.44253">
        <ele>351</ele>
        <time>2011-08-28T09:50:48Z</time>
      </trkpt>
      <trkpt lat="45.33029" lon="1.44258">
        <ele>352</ele>
        <time>2011-08-28T09:50:49Z</time>
      </trkpt>
      <trkpt lat="45.33032" lon="1.44262">
        <ele>352</ele>
        <time>2011-08-28T09:50:50Z</time>
      </trkpt>
      <trkpt lat="45.33036" lon="1.44267">
        <ele>351</ele>
        <time>2011-08-28T09:50:51Z</time>
      </trkpt>
      <trkpt lat="45.3304" lon="1.44272">
        <ele>355</ele>
        <time>2011-08-28T09:50:52Z</time>
      </trkpt>
      <trkpt lat="45.33046" lon="1.44279">
        <ele>351</ele>
        <time>2011-08-28T09:50:54Z</time>
      </trkpt>
      <trkpt lat="45.33052" lon="1.44285">
        <ele>348</ele>
        <time>2011-08-28T09:50:56Z</time>
      </trkpt>
      <trkpt lat="45.33058" lon="1.44293">
        <ele>349</ele>
        <time>2011-08-28T09:50:58Z</time>
      </trkpt>
      <trkpt lat="45.33064" lon="1.44299">
        <ele>350</ele>
        <time>2011-08-28T09:51:00Z</time>
      </trkpt>
      <trkpt lat="45.33072" lon="1.44304">
        <ele>348</ele>
        <time>2011-08-28T09:51:02Z</time>
      </trkpt>
      <trkpt lat="45.33076" lon="1.44307">
        <ele>350</ele>
        <time>2011-08-28T09:51:03Z</time>
      </trkpt>
      <trkpt lat="45.33084" lon="1.44309">
        <ele>353</ele>
        <time>2011-08-28T09:51:05Z</time>
      </trkpt>
      <trkpt lat="45.33089" lon="1.44307">
        <ele>353</ele>
        <time>2011-08-28T09:51:06Z</time>
      </trkpt>
      <trkpt lat="45.33094" lon="1.44305">
        <ele>353</ele>
        <time>2011-08-28T09:51:07Z</time>
      </trkpt>
      <trkpt lat="45.33102" lon="1.44299">
        <ele>351</ele>
        <time>2011-08-28T09:51:09Z</time>
      </trkpt>
      <trkpt lat="45.33109" lon="1.44292">
        <ele>350</ele>
        <time>2011-08-28T09:51:11Z</time>
      </trkpt>
      <trkpt lat="45.33112" lon="1.44281">
        <ele>348</ele>
        <time>2011-08-28T09:51:13Z</time>
      </trkpt>
      <trkpt lat="45.33116" lon="1.44271">
        <ele>349</ele>
        <time>2011-08-28T09:51:15Z</time>
      </trkpt>
      <trkpt lat="45.33119" lon="1.4426">
        <ele>348</ele>
        <time>2011-08-28T09:51:17Z</time>
      </trkpt>
      <trkpt lat="45.33122" lon="1.44247">
        <ele>347</ele>
        <time>2011-08-28T09:51:19Z</time>
      </trkpt>
      <trkpt lat="45.33122" lon="1.44237">
        <ele>347</ele>
        <time>2011-08-28T09:51:21Z</time>
      </trkpt>
      <trkpt lat="45.33122" lon="1.44229">
        <ele>347</ele>
        <time>2011-08-28T09:51:23Z</time>
      </trkpt>
      <trkpt lat="45.33123" lon="1.44221">
        <ele>350</ele>
        <time>2011-08-28T09:51:25Z</time>
      </trkpt>
      <trkpt lat="45.33123" lon="1.44212">
        <ele>350</ele>
        <time>2011-08-28T09:51:28Z</time>
      </trkpt>
      <trkpt lat="45.33124" lon="1.44203">
        <ele>348</ele>
        <time>2011-08-28T09:51:31Z</time>
      </trkpt>
      <trkpt lat="45.33125" lon="1.44196">
        <ele>350</ele>
        <time>2011-08-28T09:51:33Z</time>
      </trkpt>
      <trkpt lat="45.33126" lon="1.4419">
        <ele>349</ele>
        <time>2011-08-28T09:51:35Z</time>
      </trkpt>
      <trkpt lat="45.33126" lon="1.4419">
        <ele>349</ele>
        <time>2011-08-28T09:51:35Z</time>
      </trkpt>
      <trkpt lat="45.33126" lon="1.4419">
        <ele>349</ele>
        <time>2011-08-28T09:51:36Z</time>
      </trkpt>
      <trkpt lat="45.33127" lon="1.4418">
        <ele>348</ele>
        <time>2011-08-28T09:51:38Z</time>
      </trkpt>
      <trkpt lat="45.33129" lon="1.44174">
        <ele>350</ele>
        <time>2011-08-28T09:51:40Z</time>
      </trkpt>
      <trkpt lat="45.33129" lon="1.44174">
        <ele>350</ele>
        <time>2011-08-28T09:51:40Z</time>
      </trkpt>
      <trkpt lat="45.33129" lon="1.44174">
        <ele>350</ele>
        <time>2011-08-28T09:51:41Z</time>
      </trkpt>
      <trkpt lat="45.33131" lon="1.44166">
        <ele>349</ele>
        <time>2011-08-28T09:51:42Z</time>
      </trkpt>
      <trkpt lat="45.33132" lon="1.4416">
        <ele>348</ele>
        <time>2011-08-28T09:51:44Z</time>
      </trkpt>
      <trkpt lat="45.33134" lon="1.44154">
        <ele>354</ele>
        <time>2011-08-28T09:51:51Z</time>
      </trkpt>
      <trkpt lat="45.33132" lon="1.44145">
        <ele>355</ele>
        <time>2011-08-28T09:51:56Z</time>
      </trkpt>
      <trkpt lat="45.3313" lon="1.44139">
        <ele>358</ele>
        <time>2011-08-28T09:52:01Z</time>
      </trkpt>
      <trkpt lat="45.33125" lon="1.44132">
        <ele>360</ele>
        <time>2011-08-28T09:52:07Z</time>
      </trkpt>
      <trkpt lat="45.33122" lon="1.44127">
        <ele>354</ele>
        <time>2011-08-28T09:52:10Z</time>
      </trkpt>
      <trkpt lat="45.3312" lon="1.44119">
        <ele>353</ele>
        <time>2011-08-28T09:52:14Z</time>
      </trkpt>
      <trkpt lat="45.3312" lon="1.44119">
        <ele>353</ele>
        <time>2011-08-28T09:52:14Z</time>
      </trkpt>
      <trkpt lat="45.3312" lon="1.44119">
        <ele>353</ele>
        <time>2011-08-28T09:52:19Z</time>
      </trkpt>
      <trkpt lat="45.33118" lon="1.44104">
        <ele>355</ele>
        <time>2011-08-28T09:52:20Z</time>
      </trkpt>
      <trkpt lat="45.3312" lon="1.44093">
        <ele>355</ele>
        <time>2011-08-28T09:52:24Z</time>
      </trkpt>
      <trkpt lat="45.33122" lon="1.44082">
        <ele>361</ele>
        <time>2011-08-28T09:52:28Z</time>
      </trkpt>
      <trkpt lat="45.3312" lon="1.44073">
        <ele>358</ele>
        <time>2011-08-28T09:52:30Z</time>
      </trkpt>
      <trkpt lat="45.33121" lon="1.44065">
        <ele>357</ele>
        <time>2011-08-28T09:52:32Z</time>
      </trkpt>
      <trkpt lat="45.33124" lon="1.44058">
        <ele>353</ele>
        <time>2011-08-28T09:52:34Z</time>
      </trkpt>
      <trkpt lat="45.33127" lon="1.44052">
        <ele>351</ele>
        <time>2011-08-28T09:52:36Z</time>
      </trkpt>
      <trkpt lat="45.3315" lon="1.43986">
        <ele>351</ele>
        <time>2011-08-28T09:52:48Z</time>
      </trkpt>
      <trkpt lat="45.33157" lon="1.43978">
        <ele>354</ele>
        <time>2011-08-28T09:52:49Z</time>
      </trkpt>
      <trkpt lat="45.33163" lon="1.43974">
        <ele>358</ele>
        <time>2011-08-28T09:52:50Z</time>
      </trkpt>
      <trkpt lat="45.33171" lon="1.43971">
        <ele>349</ele>
        <time>2011-08-28T09:52:52Z</time>
      </trkpt>
      <trkpt lat="45.33176" lon="1.43969">
        <ele>347</ele>
        <time>2011-08-28T09:52:53Z</time>
      </trkpt>
      <trkpt lat="45.3318" lon="1.43968">
        <ele>346</ele>
        <time>2011-08-28T09:52:54Z</time>
      </trkpt>
      <trkpt lat="45.33186" lon="1.43969">
        <ele>345</ele>
        <time>2011-08-28T09:52:55Z</time>
      </trkpt>
      <trkpt lat="45.33191" lon="1.43971">
        <ele>347</ele>
        <time>2011-08-28T09:52:56Z</time>
      </trkpt>
      <trkpt lat="45.33196" lon="1.43974">
        <ele>345</ele>
        <time>2011-08-28T09:52:57Z</time>
      </trkpt>
      <trkpt lat="45.33201" lon="1.43979">
        <ele>347</ele>
        <time>2011-08-28T09:52:58Z</time>
      </trkpt>
      <trkpt lat="45.33206" lon="1.43986">
        <ele>347</ele>
        <time>2011-08-28T09:52:59Z</time>
      </trkpt>
      <trkpt lat="45.33212" lon="1.43992">
        <ele>346</ele>
        <time>2011-08-28T09:53:00Z</time>
      </trkpt>
      <trkpt lat="45.33216" lon="1.43997">
        <ele>347</ele>
        <time>2011-08-28T09:53:01Z</time>
      </trkpt>
      <trkpt lat="45.3322" lon="1.44002">
        <ele>346</ele>
        <time>2011-08-28T09:53:02Z</time>
      </trkpt>
      <trkpt lat="45.33224" lon="1.44006">
        <ele>344</ele>
        <time>2011-08-28T09:53:03Z</time>
      </trkpt>
      <trkpt lat="45.33228" lon="1.4401">
        <ele>340</ele>
        <time>2011-08-28T09:53:05Z</time>
      </trkpt>
      <trkpt lat="45.33239" lon="1.44009">
        <ele>338</ele>
        <time>2011-08-28T09:53:24Z</time>
      </trkpt>
      <trkpt lat="45.33239" lon="1.44009">
        <ele>338</ele>
        <time>2011-08-28T09:53:24Z</time>
      </trkpt>
      <trkpt lat="45.33239" lon="1.44009">
        <ele>338</ele>
        <time>2011-08-28T09:53:31Z</time>
      </trkpt>
      <trkpt lat="45.33248" lon="1.44018">
        <ele>341</ele>
        <time>2011-08-28T09:53:32Z</time>
      </trkpt>
      <trkpt lat="45.33248" lon="1.44018">
        <ele>341</ele>
        <time>2011-08-28T09:53:32Z</time>
      </trkpt>
      <trkpt lat="45.33248" lon="1.44018">
        <ele>341</ele>
        <time>2011-08-28T09:53:34Z</time>
      </trkpt>
      <trkpt lat="45.33254" lon="1.44028">
        <ele>340</ele>
        <time>2011-08-28T09:53:35Z</time>
      </trkpt>
      <trkpt lat="45.33258" lon="1.44036">
        <ele>341</ele>
        <time>2011-08-28T09:53:37Z</time>
      </trkpt>
      <trkpt lat="45.33262" lon="1.44043">
        <ele>340</ele>
        <time>2011-08-28T09:53:39Z</time>
      </trkpt>
      <trkpt lat="45.33266" lon="1.44051">
        <ele>342</ele>
        <time>2011-08-28T09:53:41Z</time>
      </trkpt>
      <trkpt lat="45.33275" lon="1.44064">
        <ele>356</ele>
        <time>2011-08-28T09:53:51Z</time>
      </trkpt>
      <trkpt lat="45.33275" lon="1.44064">
        <ele>356</ele>
        <time>2011-08-28T09:53:51Z</time>
      </trkpt>
      <trkpt lat="45.33275" lon="1.44064">
        <ele>356</ele>
        <time>2011-08-28T09:53:57Z</time>
      </trkpt>
      <trkpt lat="45.33284" lon="1.44073">
        <ele>353</ele>
        <time>2011-08-28T09:53:58Z</time>
      </trkpt>
      <trkpt lat="45.33284" lon="1.44073">
        <ele>353</ele>
        <time>2011-08-28T09:53:58Z</time>
      </trkpt>
      <trkpt lat="45.33284" lon="1.44073">
        <ele>353</ele>
        <time>2011-08-28T09:54:00Z</time>
      </trkpt>
      <trkpt lat="45.33289" lon="1.44081">
        <ele>352</ele>
        <time>2011-08-28T09:54:01Z</time>
      </trkpt>
      <trkpt lat="45.33292" lon="1.44087">
        <ele>353</ele>
        <time>2011-08-28T09:54:03Z</time>
      </trkpt>
      <trkpt lat="45.33295" lon="1.44093">
        <ele>349</ele>
        <time>2011-08-28T09:54:05Z</time>
      </trkpt>
      <trkpt lat="45.33298" lon="1.44099">
        <ele>352</ele>
        <time>2011-08-28T09:54:07Z</time>
      </trkpt>
      <trkpt lat="45.333" lon="1.44105">
        <ele>347</ele>
        <time>2011-08-28T09:54:09Z</time>
      </trkpt>
      <trkpt lat="45.33303" lon="1.4411">
        <ele>348</ele>
        <time>2011-08-28T09:54:10Z</time>
      </trkpt>
      <trkpt lat="45.33308" lon="1.44119">
        <ele>347</ele>
        <time>2011-08-28T09:54:12Z</time>
      </trkpt>
      <trkpt lat="45.33311" lon="1.44122">
        <ele>350</ele>
        <time>2011-08-28T09:54:13Z</time>
      </trkpt>
      <trkpt lat="45.33316" lon="1.44127">
        <ele>349</ele>
        <time>2011-08-28T09:54:14Z</time>
      </trkpt>
      <trkpt lat="45.33322" lon="1.44134">
        <ele>350</ele>
        <time>2011-08-28T09:54:16Z</time>
      </trkpt>
      <trkpt lat="45.33327" lon="1.44141">
        <ele>355</ele>
        <time>2011-08-28T09:54:18Z</time>
      </trkpt>
      <trkpt lat="45.3333" lon="1.44145">
        <ele>357</ele>
        <time>2011-08-28T09:54:19Z</time>
      </trkpt>
      <trkpt lat="45.33337" lon="1.44153">
        <ele>357</ele>
        <time>2011-08-28T09:54:21Z</time>
      </trkpt>
      <trkpt lat="45.33342" lon="1.44159">
        <ele>358</ele>
        <time>2011-08-28T09:54:23Z</time>
      </trkpt>
      <trkpt lat="45.33348" lon="1.44164">
        <ele>355</ele>
        <time>2011-08-28T09:54:25Z</time>
      </trkpt>
      <trkpt lat="45.33353" lon="1.44171">
        <ele>356</ele>
        <time>2011-08-28T09:54:27Z</time>
      </trkpt>
      <trkpt lat="45.33357" lon="1.44179">
        <ele>361</ele>
        <time>2011-08-28T09:54:29Z</time>
      </trkpt>
      <trkpt lat="45.33361" lon="1.44189">
        <ele>353</ele>
        <time>2011-08-28T09:54:31Z</time>
      </trkpt>
      <trkpt lat="45.33364" lon="1.44195">
        <ele>354</ele>
        <time>2011-08-28T09:54:33Z</time>
      </trkpt>
      <trkpt lat="45.33367" lon="1.44202">
        <ele>354</ele>
        <time>2011-08-28T09:54:36Z</time>
      </trkpt>
      <trkpt lat="45.33374" lon="1.44206">
        <ele>353</ele>
        <time>2011-08-28T09:54:39Z</time>
      </trkpt>
      <trkpt lat="45.33381" lon="1.44206">
        <ele>353</ele>
        <time>2011-08-28T09:54:41Z</time>
      </trkpt>
      <trkpt lat="45.33387" lon="1.44205">
        <ele>355</ele>
        <time>2011-08-28T09:54:43Z</time>
      </trkpt>
      <trkpt lat="45.33394" lon="1.44203">
        <ele>354</ele>
        <time>2011-08-28T09:54:45Z</time>
      </trkpt>
      <trkpt lat="45.33398" lon="1.44202">
        <ele>357</ele>
        <time>2011-08-28T09:54:47Z</time>
      </trkpt>
      <trkpt lat="45.33404" lon="1.44201">
        <ele>354</ele>
        <time>2011-08-28T09:54:49Z</time>
      </trkpt>
      <trkpt lat="45.33408" lon="1.44201">
        <ele>358</ele>
        <time>2011-08-28T09:54:51Z</time>
      </trkpt>
      <trkpt lat="45.33413" lon="1.442">
        <ele>354</ele>
        <time>2011-08-28T09:54:53Z</time>
      </trkpt>
      <trkpt lat="45.33418" lon="1.44198">
        <ele>353</ele>
        <time>2011-08-28T09:54:56Z</time>
      </trkpt>
      <trkpt lat="45.33424" lon="1.44196">
        <ele>353</ele>
        <time>2011-08-28T09:55:00Z</time>
      </trkpt>
      <trkpt lat="45.33428" lon="1.44192">
        <ele>353</ele>
        <time>2011-08-28T09:55:03Z</time>
      </trkpt>
      <trkpt lat="45.33434" lon="1.44188">
        <ele>352</ele>
        <time>2011-08-28T09:55:06Z</time>
      </trkpt>
      <trkpt lat="45.33439" lon="1.44184">
        <ele>348</ele>
        <time>2011-08-28T09:55:09Z</time>
      </trkpt>
      <trkpt lat="45.33444" lon="1.4418">
        <ele>351</ele>
        <time>2011-08-28T09:55:12Z</time>
      </trkpt>
      <trkpt lat="45.33449" lon="1.44177">
        <ele>351</ele>
        <time>2011-08-28T09:55:15Z</time>
      </trkpt>
      <trkpt lat="45.33454" lon="1.44172">
        <ele>353</ele>
        <time>2011-08-28T09:55:17Z</time>
      </trkpt>
      <trkpt lat="45.33462" lon="1.44167">
        <ele>351</ele>
        <time>2011-08-28T09:55:19Z</time>
      </trkpt>
      <trkpt lat="45.33468" lon="1.44163">
        <ele>354</ele>
        <time>2011-08-28T09:55:21Z</time>
      </trkpt>
      <trkpt lat="45.33474" lon="1.44158">
        <ele>352</ele>
        <time>2011-08-28T09:55:23Z</time>
      </trkpt>
      <trkpt lat="45.33481" lon="1.44152">
        <ele>356</ele>
        <time>2011-08-28T09:55:25Z</time>
      </trkpt>
      <trkpt lat="45.33487" lon="1.44144">
        <ele>351</ele>
        <time>2011-08-28T09:55:27Z</time>
      </trkpt>
      <trkpt lat="45.33492" lon="1.44134">
        <ele>351</ele>
        <time>2011-08-28T09:55:29Z</time>
      </trkpt>
      <trkpt lat="45.33498" lon="1.44125">
        <ele>355</ele>
        <time>2011-08-28T09:55:31Z</time>
      </trkpt>
      <trkpt lat="45.33502" lon="1.44121">
        <ele>354</ele>
        <time>2011-08-28T09:55:32Z</time>
      </trkpt>
      <trkpt lat="45.33506" lon="1.44116">
        <ele>356</ele>
        <time>2011-08-28T09:55:33Z</time>
      </trkpt>
      <trkpt lat="45.33512" lon="1.44112">
        <ele>355</ele>
        <time>2011-08-28T09:55:34Z</time>
      </trkpt>
      <trkpt lat="45.33518" lon="1.44108">
        <ele>357</ele>
        <time>2011-08-28T09:55:35Z</time>
      </trkpt>
      <trkpt lat="45.33523" lon="1.44104">
        <ele>354</ele>
        <time>2011-08-28T09:55:36Z</time>
      </trkpt>
      <trkpt lat="45.33529" lon="1.441">
        <ele>351</ele>
        <time>2011-08-28T09:55:37Z</time>
      </trkpt>
      <trkpt lat="45.33534" lon="1.44098">
        <ele>349</ele>
        <time>2011-08-28T09:55:38Z</time>
      </trkpt>
      <trkpt lat="45.33539" lon="1.44096">
        <ele>348</ele>
        <time>2011-08-28T09:55:39Z</time>
      </trkpt>
      <trkpt lat="45.33544" lon="1.44094">
        <ele>343</ele>
        <time>2011-08-28T09:55:40Z</time>
      </trkpt>
      <trkpt lat="45.33548" lon="1.44093">
        <ele>342</ele>
        <time>2011-08-28T09:55:41Z</time>
      </trkpt>
      <trkpt lat="45.33557" lon="1.44091">
        <ele>347</ele>
        <time>2011-08-28T09:55:43Z</time>
      </trkpt>
      <trkpt lat="45.33565" lon="1.44091">
        <ele>347</ele>
        <time>2011-08-28T09:55:45Z</time>
      </trkpt>
      <trkpt lat="45.33574" lon="1.4409">
        <ele>343</ele>
        <time>2011-08-28T09:55:47Z</time>
      </trkpt>
      <trkpt lat="45.33578" lon="1.44088">
        <ele>343</ele>
        <time>2011-08-28T09:55:48Z</time>
      </trkpt>
      <trkpt lat="45.33582" lon="1.44088">
        <ele>346</ele>
        <time>2011-08-28T09:55:49Z</time>
      </trkpt>
      <trkpt lat="45.33589" lon="1.44087">
        <ele>348</ele>
        <time>2011-08-28T09:55:50Z</time>
      </trkpt>
      <trkpt lat="45.33597" lon="1.44088">
        <ele>348</ele>
        <time>2011-08-28T09:55:51Z</time>
      </trkpt>
      <trkpt lat="45.33604" lon="1.44089">
        <ele>345</ele>
        <time>2011-08-28T09:55:52Z</time>
      </trkpt>
      <trkpt lat="45.3361" lon="1.4409">
        <ele>346</ele>
        <time>2011-08-28T09:55:53Z</time>
      </trkpt>
      <trkpt lat="45.33616" lon="1.4409">
        <ele>346</ele>
        <time>2011-08-28T09:55:54Z</time>
      </trkpt>
      <trkpt lat="45.33622" lon="1.4409">
        <ele>346</ele>
        <time>2011-08-28T09:55:55Z</time>
      </trkpt>
      <trkpt lat="45.33628" lon="1.44088">
        <ele>348</ele>
        <time>2011-08-28T09:55:56Z</time>
      </trkpt>
      <trkpt lat="45.33633" lon="1.44085">
        <ele>347</ele>
        <time>2011-08-28T09:55:57Z</time>
      </trkpt>
      <trkpt lat="45.33638" lon="1.44081">
        <ele>348</ele>
        <time>2011-08-28T09:55:58Z</time>
      </trkpt>
      <trkpt lat="45.33642" lon="1.44077">
        <ele>349</ele>
        <time>2011-08-28T09:55:59Z</time>
      </trkpt>
      <trkpt lat="45.33646" lon="1.44072">
        <ele>351</ele>
        <time>2011-08-28T09:56:00Z</time>
      </trkpt>
      <trkpt lat="45.3365" lon="1.44068">
        <ele>351</ele>
        <time>2011-08-28T09:56:01Z</time>
      </trkpt>
      <trkpt lat="45.33654" lon="1.44063">
        <ele>350</ele>
        <time>2011-08-28T09:56:02Z</time>
      </trkpt>
      <trkpt lat="45.33658" lon="1.44059">
        <ele>349</ele>
        <time>2011-08-28T09:56:03Z</time>
      </trkpt>
      <trkpt lat="45.33663" lon="1.44059">
        <ele>349</ele>
        <time>2011-08-28T09:56:04Z</time>
      </trkpt>
      <trkpt lat="45.33668" lon="1.44059">
        <ele>350</ele>
        <time>2011-08-28T09:56:05Z</time>
      </trkpt>
      <trkpt lat="45.33675" lon="1.4406">
        <ele>354</ele>
        <time>2011-08-28T09:56:07Z</time>
      </trkpt>
      <trkpt lat="45.33679" lon="1.44063">
        <ele>350</ele>
        <time>2011-08-28T09:56:09Z</time>
      </trkpt>
      <trkpt lat="45.33681" lon="1.4407">
        <ele>350</ele>
        <time>2011-08-28T09:56:11Z</time>
      </trkpt>
      <trkpt lat="45.33684" lon="1.44078">
        <ele>349</ele>
        <time>2011-08-28T09:56:12Z</time>
      </trkpt>
      <trkpt lat="45.33686" lon="1.44088">
        <ele>350</ele>
        <time>2011-08-28T09:56:13Z</time>
      </trkpt>
      <trkpt lat="45.33689" lon="1.44098">
        <ele>349</ele>
        <time>2011-08-28T09:56:14Z</time>
      </trkpt>
      <trkpt lat="45.33692" lon="1.44107">
        <ele>354</ele>
        <time>2011-08-28T09:56:15Z</time>
      </trkpt>
      <trkpt lat="45.33694" lon="1.44117">
        <ele>353</ele>
        <time>2011-08-28T09:56:16Z</time>
      </trkpt>
      <trkpt lat="45.33695" lon="1.44124">
        <ele>349</ele>
        <time>2011-08-28T09:56:17Z</time>
      </trkpt>
      <trkpt lat="45.33697" lon="1.44134">
        <ele>350</ele>
        <time>2011-08-28T09:56:19Z</time>
      </trkpt>
      <trkpt lat="45.33702" lon="1.44144">
        <ele>349</ele>
        <time>2011-08-28T09:56:21Z</time>
      </trkpt>
      <trkpt lat="45.33704" lon="1.44149">
        <ele>352</ele>
        <time>2011-08-28T09:56:22Z</time>
      </trkpt>
      <trkpt lat="45.33708" lon="1.44152">
        <ele>346</ele>
        <time>2011-08-28T09:56:24Z</time>
      </trkpt>
      <trkpt lat="45.33714" lon="1.44158">
        <ele>348</ele>
        <time>2011-08-28T09:56:28Z</time>
      </trkpt>
      <trkpt lat="45.33722" lon="1.44161">
        <ele>348</ele>
        <time>2011-08-28T09:56:30Z</time>
      </trkpt>
      <trkpt lat="45.3373" lon="1.44164">
        <ele>352</ele>
        <time>2011-08-28T09:56:32Z</time>
      </trkpt>
      <trkpt lat="45.33736" lon="1.44165">
        <ele>350</ele>
        <time>2011-08-28T09:56:34Z</time>
      </trkpt>
      <trkpt lat="45.33743" lon="1.44167">
        <ele>347</ele>
        <time>2011-08-28T09:56:36Z</time>
      </trkpt>
      <trkpt lat="45.33776" lon="1.44181">
        <ele>337</ele>
        <time>2011-08-28T09:56:48Z</time>
      </trkpt>
      <trkpt lat="45.33781" lon="1.44182">
        <ele>337</ele>
        <time>2011-08-28T09:56:49Z</time>
      </trkpt>
      <trkpt lat="45.33795" lon="1.44184">
        <ele>327</ele>
        <time>2011-08-28T09:56:54Z</time>
      </trkpt>
      <trkpt lat="45.33795" lon="1.44184">
        <ele>327</ele>
        <time>2011-08-28T09:56:54Z</time>
      </trkpt>
      <trkpt lat="45.33795" lon="1.44184">
        <ele>327</ele>
        <time>2011-08-28T09:56:55Z</time>
      </trkpt>
      <trkpt lat="45.33803" lon="1.44186">
        <ele>326</ele>
        <time>2011-08-28T09:56:56Z</time>
      </trkpt>
      <trkpt lat="45.3381" lon="1.44187">
        <ele>330</ele>
        <time>2011-08-28T09:56:58Z</time>
      </trkpt>
      <trkpt lat="45.33818" lon="1.44188">
        <ele>330</ele>
        <time>2011-08-28T09:57:00Z</time>
      </trkpt>
      <trkpt lat="45.33825" lon="1.44189">
        <ele>326</ele>
        <time>2011-08-28T09:57:02Z</time>
      </trkpt>
      <trkpt lat="45.33832" lon="1.4419">
        <ele>321</ele>
        <time>2011-08-28T09:57:04Z</time>
      </trkpt>
      <trkpt lat="45.33838" lon="1.44193">
        <ele>322</ele>
        <time>2011-08-28T09:57:06Z</time>
      </trkpt>
      <trkpt lat="45.33844" lon="1.44197">
        <ele>323</ele>
        <time>2011-08-28T09:57:08Z</time>
      </trkpt>
      <trkpt lat="45.3385" lon="1.442">
        <ele>318</ele>
        <time>2011-08-28T09:57:10Z</time>
      </trkpt>
      <trkpt lat="45.33855" lon="1.44204">
        <ele>320</ele>
        <time>2011-08-28T09:57:12Z</time>
      </trkpt>
      <trkpt lat="45.3386" lon="1.44208">
        <ele>325</ele>
        <time>2011-08-28T09:57:14Z</time>
      </trkpt>
      <trkpt lat="45.33864" lon="1.44212">
        <ele>326</ele>
        <time>2011-08-28T09:57:16Z</time>
      </trkpt>
      <trkpt lat="45.33868" lon="1.44216">
        <ele>329</ele>
        <time>2011-08-28T09:57:18Z</time>
      </trkpt>
      <trkpt lat="45.33868" lon="1.44216">
        <ele>329</ele>
        <time>2011-08-28T09:57:18Z</time>
      </trkpt>
      <trkpt lat="45.33868" lon="1.44216">
        <ele>329</ele>
        <time>2011-08-28T09:57:21Z</time>
      </trkpt>
      <trkpt lat="45.33876" lon="1.44225">
        <ele>329</ele>
        <time>2011-08-28T09:57:22Z</time>
      </trkpt>
      <trkpt lat="45.3388" lon="1.44233">
        <ele>331</ele>
        <time>2011-08-28T09:57:24Z</time>
      </trkpt>
      <trkpt lat="45.3388" lon="1.44233">
        <ele>331</ele>
        <time>2011-08-28T09:57:24Z</time>
      </trkpt>
      <trkpt lat="45.3388" lon="1.44233">
        <ele>331</ele>
        <time>2011-08-28T09:57:28Z</time>
      </trkpt>
      <trkpt lat="45.33891" lon="1.4424">
        <ele>335</ele>
        <time>2011-08-28T09:57:29Z</time>
      </trkpt>
      <trkpt lat="45.33891" lon="1.4424">
        <ele>335</ele>
        <time>2011-08-28T09:57:29Z</time>
      </trkpt>
      <trkpt lat="45.33891" lon="1.4424">
        <ele>335</ele>
        <time>2011-08-28T09:57:34Z</time>
      </trkpt>
      <trkpt lat="45.33899" lon="1.44248">
        <ele>339</ele>
        <time>2011-08-28T09:57:35Z</time>
      </trkpt>
      <trkpt lat="45.33899" lon="1.44248">
        <ele>339</ele>
        <time>2011-08-28T09:57:35Z</time>
      </trkpt>
      <trkpt lat="45.33899" lon="1.44248">
        <ele>339</ele>
        <time>2011-08-28T09:57:37Z</time>
      </trkpt>
      <trkpt lat="45.33918" lon="1.44254">
        <ele>336</ele>
        <time>2011-08-28T09:57:48Z</time>
      </trkpt>
      <trkpt lat="45.33918" lon="1.44254">
        <ele>336</ele>
        <time>2011-08-28T09:57:48Z</time>
      </trkpt>
      <trkpt lat="45.33918" lon="1.44254">
        <ele>336</ele>
        <time>2011-08-28T09:57:50Z</time>
      </trkpt>
      <trkpt lat="45.33926" lon="1.44254">
        <ele>342</ele>
        <time>2011-08-28T09:57:51Z</time>
      </trkpt>
      <trkpt lat="45.33933" lon="1.44255">
        <ele>340</ele>
        <time>2011-08-28T09:57:53Z</time>
      </trkpt>
      <trkpt lat="45.3394" lon="1.44254">
        <ele>341</ele>
        <time>2011-08-28T09:57:55Z</time>
      </trkpt>
      <trkpt lat="45.3394" lon="1.44254">
        <ele>341</ele>
        <time>2011-08-28T09:57:55Z</time>
      </trkpt>
      <trkpt lat="45.3394" lon="1.44254">
        <ele>341</ele>
        <time>2011-08-28T09:57:56Z</time>
      </trkpt>
      <trkpt lat="45.33945" lon="1.44253">
        <ele>342</ele>
        <time>2011-08-28T09:57:57Z</time>
      </trkpt>
      <trkpt lat="45.33953" lon="1.44252">
        <ele>336</ele>
        <time>2011-08-28T09:57:59Z</time>
      </trkpt>
      <trkpt lat="45.33961" lon="1.44252">
        <ele>338</ele>
        <time>2011-08-28T09:58:01Z</time>
      </trkpt>
      <trkpt lat="45.33969" lon="1.44251">
        <ele>339</ele>
        <time>2011-08-28T09:58:03Z</time>
      </trkpt>
      <trkpt lat="45.33976" lon="1.4425">
        <ele>339</ele>
        <time>2011-08-28T09:58:05Z</time>
      </trkpt>
      <trkpt lat="45.33982" lon="1.44249">
        <ele>340</ele>
        <time>2011-08-28T09:58:07Z</time>
      </trkpt>
      <trkpt lat="45.3399" lon="1.44246">
        <ele>343</ele>
        <time>2011-08-28T09:58:09Z</time>
      </trkpt>
      <trkpt lat="45.33998" lon="1.44243">
        <ele>339</ele>
        <time>2011-08-28T09:58:11Z</time>
      </trkpt>
      <trkpt lat="45.34002" lon="1.44241">
        <ele>338</ele>
        <time>2011-08-28T09:58:12Z</time>
      </trkpt>
      <trkpt lat="45.34007" lon="1.44238">
        <ele>334</ele>
        <time>2011-08-28T09:58:13Z</time>
      </trkpt>
      <trkpt lat="45.34012" lon="1.44236">
        <ele>334</ele>
        <time>2011-08-28T09:58:14Z</time>
      </trkpt>
      <trkpt lat="45.34017" lon="1.44234">
        <ele>335</ele>
        <time>2011-08-28T09:58:15Z</time>
      </trkpt>
      <trkpt lat="45.34022" lon="1.44231">
        <ele>337</ele>
        <time>2011-08-28T09:58:16Z</time>
      </trkpt>
      <trkpt lat="45.34028" lon="1.44228">
        <ele>337</ele>
        <time>2011-08-28T09:58:17Z</time>
      </trkpt>
      <trkpt lat="45.34033" lon="1.44226">
        <ele>341</ele>
        <time>2011-08-28T09:58:18Z</time>
      </trkpt>
      <trkpt lat="45.34039" lon="1.44224">
        <ele>340</ele>
        <time>2011-08-28T09:58:19Z</time>
      </trkpt>
      <trkpt lat="45.34039" lon="1.44224">
        <ele>340</ele>
        <time>2011-08-28T09:58:19Z</time>
      </trkpt>
      <trkpt lat="45.34039" lon="1.44224">
        <ele>340</ele>
        <time>2011-08-28T09:58:21Z</time>
      </trkpt>
      <trkpt lat="45.34044" lon="1.44222">
        <ele>339</ele>
        <time>2011-08-28T09:58:22Z</time>
      </trkpt>
      <trkpt lat="45.34044" lon="1.44222">
        <ele>339</ele>
        <time>2011-08-28T09:58:22Z</time>
      </trkpt>
      <trkpt lat="45.34044" lon="1.44222">
        <ele>339</ele>
        <time>2011-08-28T09:58:24Z</time>
      </trkpt>
      <trkpt lat="45.34049" lon="1.44222">
        <ele>327</ele>
        <time>2011-08-28T09:58:25Z</time>
      </trkpt>
      <trkpt lat="45.34054" lon="1.4422">
        <ele>322</ele>
        <time>2011-08-28T09:58:26Z</time>
      </trkpt>
      <trkpt lat="45.34059" lon="1.4422">
        <ele>326</ele>
        <time>2011-08-28T09:58:27Z</time>
      </trkpt>
      <trkpt lat="45.34063" lon="1.44218">
        <ele>327</ele>
        <time>2011-08-28T09:58:28Z</time>
      </trkpt>
      <trkpt lat="45.34069" lon="1.44214">
        <ele>326</ele>
        <time>2011-08-28T09:58:30Z</time>
      </trkpt>
      <trkpt lat="45.34081" lon="1.44209">
        <ele>322</ele>
        <time>2011-08-28T09:58:35Z</time>
      </trkpt>
      <trkpt lat="45.34089" lon="1.44208">
        <ele>324</ele>
        <time>2011-08-28T09:58:37Z</time>
      </trkpt>
      <trkpt lat="45.34118" lon="1.44206">
        <ele>326</ele>
        <time>2011-08-28T09:58:48Z</time>
      </trkpt>
      <trkpt lat="45.34118" lon="1.44206">
        <ele>326</ele>
        <time>2011-08-28T09:58:48Z</time>
      </trkpt>
      <trkpt lat="45.34118" lon="1.44206">
        <ele>326</ele>
        <time>2011-08-28T09:58:51Z</time>
      </trkpt>
      <trkpt lat="45.34131" lon="1.44205">
        <ele>328</ele>
        <time>2011-08-28T09:58:52Z</time>
      </trkpt>
      <trkpt lat="45.34136" lon="1.44204">
        <ele>331</ele>
        <time>2011-08-28T09:58:53Z</time>
      </trkpt>
      <trkpt lat="45.34136" lon="1.44204">
        <ele>331</ele>
        <time>2011-08-28T09:58:53Z</time>
      </trkpt>
      <trkpt lat="45.34136" lon="1.44204">
        <ele>331</ele>
        <time>2011-08-28T09:58:55Z</time>
      </trkpt>
      <trkpt lat="45.34146" lon="1.44203">
        <ele>335</ele>
        <time>2011-08-28T09:58:56Z</time>
      </trkpt>
      <trkpt lat="45.34154" lon="1.44203">
        <ele>335</ele>
        <time>2011-08-28T09:58:58Z</time>
      </trkpt>
      <trkpt lat="45.34159" lon="1.44203">
        <ele>338</ele>
        <time>2011-08-28T09:59:00Z</time>
      </trkpt>
      <trkpt lat="45.34164" lon="1.44203">
        <ele>336</ele>
        <time>2011-08-28T09:59:02Z</time>
      </trkpt>
      <trkpt lat="45.34169" lon="1.44203">
        <ele>337</ele>
        <time>2011-08-28T09:59:04Z</time>
      </trkpt>
      <trkpt lat="45.34174" lon="1.44203">
        <ele>335</ele>
        <time>2011-08-28T09:59:06Z</time>
      </trkpt>
      <trkpt lat="45.34178" lon="1.4421">
        <ele>338</ele>
        <time>2011-08-28T09:59:09Z</time>
      </trkpt>
      <trkpt lat="45.34182" lon="1.44218">
        <ele>336</ele>
        <time>2011-08-28T09:59:11Z</time>
      </trkpt>
      <trkpt lat="45.34185" lon="1.44223">
        <ele>336</ele>
        <time>2011-08-28T09:59:12Z</time>
      </trkpt>
      <trkpt lat="45.34189" lon="1.44235">
        <ele>337</ele>
        <time>2011-08-28T09:59:14Z</time>
      </trkpt>
      <trkpt lat="45.34192" lon="1.44242">
        <ele>339</ele>
        <time>2011-08-28T09:59:15Z</time>
      </trkpt>
      <trkpt lat="45.34196" lon="1.44252">
        <ele>340</ele>
        <time>2011-08-28T09:59:17Z</time>
      </trkpt>
      <trkpt lat="45.34196" lon="1.44252">
        <ele>340</ele>
        <time>2011-08-28T09:59:17Z</time>
      </trkpt>
      <trkpt lat="45.34196" lon="1.44252">
        <ele>340</ele>
        <time>2011-08-28T09:59:22Z</time>
      </trkpt>
      <trkpt lat="45.34206" lon="1.44261">
        <ele>341</ele>
        <time>2011-08-28T09:59:23Z</time>
      </trkpt>
      <trkpt lat="45.34206" lon="1.44261">
        <ele>341</ele>
        <time>2011-08-28T09:59:23Z</time>
      </trkpt>
      <trkpt lat="45.34206" lon="1.44261">
        <ele>341</ele>
        <time>2011-08-28T09:59:25Z</time>
      </trkpt>
      <trkpt lat="45.34214" lon="1.44269">
        <ele>342</ele>
        <time>2011-08-28T09:59:26Z</time>
      </trkpt>
      <trkpt lat="45.34214" lon="1.44269">
        <ele>342</ele>
        <time>2011-08-28T09:59:26Z</time>
      </trkpt>
      <trkpt lat="45.34214" lon="1.44269">
        <ele>342</ele>
        <time>2011-08-28T09:59:28Z</time>
      </trkpt>
      <trkpt lat="45.34224" lon="1.44278">
        <ele>341</ele>
        <time>2011-08-28T09:59:29Z</time>
      </trkpt>
      <trkpt lat="45.34224" lon="1.44278">
        <ele>341</ele>
        <time>2011-08-28T09:59:29Z</time>
      </trkpt>
      <trkpt lat="45.34224" lon="1.44278">
        <ele>341</ele>
        <time>2011-08-28T09:59:35Z</time>
      </trkpt>
      <trkpt lat="45.34233" lon="1.44288">
        <ele>338</ele>
        <time>2011-08-28T09:59:36Z</time>
      </trkpt>
      <trkpt lat="45.34233" lon="1.44288">
        <ele>338</ele>
        <time>2011-08-28T09:59:36Z</time>
      </trkpt>
      <trkpt lat="45.34233" lon="1.44288">
        <ele>338</ele>
        <time>2011-08-28T09:59:37Z</time>
      </trkpt>
      <trkpt lat="45.34259" lon="1.44311">
        <ele>338</ele>
        <time>2011-08-28T09:59:48Z</time>
      </trkpt>
      <trkpt lat="45.34259" lon="1.44311">
        <ele>338</ele>
        <time>2011-08-28T09:59:48Z</time>
      </trkpt>
      <trkpt lat="45.34259" lon="1.44311">
        <ele>338</ele>
        <time>2011-08-28T09:59:51Z</time>
      </trkpt>
      <trkpt lat="45.3427" lon="1.44317">
        <ele>340</ele>
        <time>2011-08-28T09:59:52Z</time>
      </trkpt>
      <trkpt lat="45.3427" lon="1.44317">
        <ele>340</ele>
        <time>2011-08-28T09:59:52Z</time>
      </trkpt>
      <trkpt lat="45.3427" lon="1.44317">
        <ele>340</ele>
        <time>2011-08-28T09:59:55Z</time>
      </trkpt>
      <trkpt lat="45.3428" lon="1.44323">
        <ele>343</ele>
        <time>2011-08-28T09:59:56Z</time>
      </trkpt>
      <trkpt lat="45.3428" lon="1.44323">
        <ele>343</ele>
        <time>2011-08-28T09:59:56Z</time>
      </trkpt>
      <trkpt lat="45.3428" lon="1.44323">
        <ele>343</ele>
        <time>2011-08-28T09:59:57Z</time>
      </trkpt>
      <trkpt lat="45.34286" lon="1.44326">
        <ele>341</ele>
        <time>2011-08-28T09:59:58Z</time>
      </trkpt>
      <trkpt lat="45.34294" lon="1.44329">
        <ele>342</ele>
        <time>2011-08-28T10:00:00Z</time>
      </trkpt>
      <trkpt lat="45.34317" lon="1.44322">
        <ele>333</ele>
        <time>2011-08-28T10:00:25Z</time>
      </trkpt>
      <trkpt lat="45.34317" lon="1.44322">
        <ele>333</ele>
        <time>2011-08-28T10:00:25Z</time>
      </trkpt>
      <trkpt lat="45.34317" lon="1.44322">
        <ele>333</ele>
        <time>2011-08-28T10:00:51Z</time>
      </trkpt>
      <trkpt lat="45.34388" lon="1.44291">
        <ele>370</ele>
        <time>2011-08-28T10:01:14Z</time>
      </trkpt>
      <trkpt lat="45.34402" lon="1.44285">
        <ele>368</ele>
        <time>2011-08-28T10:01:16Z</time>
      </trkpt>
      <trkpt lat="45.3441" lon="1.44285">
        <ele>367</ele>
        <time>2011-08-28T10:01:17Z</time>
      </trkpt>
      <trkpt lat="45.34414" lon="1.44282">
        <ele>367</ele>
        <time>2011-08-28T10:01:18Z</time>
      </trkpt>
      <trkpt lat="45.34417" lon="1.44277">
        <ele>362</ele>
        <time>2011-08-28T10:01:21Z</time>
      </trkpt>
      <trkpt lat="45.34399" lon="1.44271">
        <ele>346</ele>
        <time>2011-08-28T10:01:34Z</time>
      </trkpt>
      <trkpt lat="45.34398" lon="1.44255">
        <ele>358</ele>
        <time>2011-08-28T10:01:35Z</time>
      </trkpt>
      <trkpt lat="45.34395" lon="1.44248">
        <ele>360</ele>
        <time>2011-08-28T10:01:36Z</time>
      </trkpt>
      <trkpt lat="45.34396" lon="1.44239">
        <ele>356</ele>
        <time>2011-08-28T10:01:38Z</time>
      </trkpt>
      <trkpt lat="45.34398" lon="1.44233">
        <ele>352</ele>
        <time>2011-08-28T10:01:39Z</time>
      </trkpt>
      <trkpt lat="45.34403" lon="1.44223">
        <ele>352</ele>
        <time>2011-08-28T10:01:41Z</time>
      </trkpt>
      <trkpt lat="45.34407" lon="1.44217">
        <ele>355</ele>
        <time>2011-08-28T10:01:43Z</time>
      </trkpt>
      <trkpt lat="45.34412" lon="1.44212">
        <ele>356</ele>
        <time>2011-08-28T10:01:45Z</time>
      </trkpt>
      <trkpt lat="45.34417" lon="1.4421">
        <ele>358</ele>
        <time>2011-08-28T10:01:46Z</time>
      </trkpt>
      <trkpt lat="45.34422" lon="1.4421">
        <ele>356</ele>
        <time>2011-08-28T10:01:47Z</time>
      </trkpt>
      <trkpt lat="45.34427" lon="1.44209">
        <ele>355</ele>
        <time>2011-08-28T10:01:48Z</time>
      </trkpt>
      <trkpt lat="45.34432" lon="1.44208">
        <ele>352</ele>
        <time>2011-08-28T10:01:49Z</time>
      </trkpt>
      <trkpt lat="45.34438" lon="1.44208">
        <ele>352</ele>
        <time>2011-08-28T10:01:51Z</time>
      </trkpt>
      <trkpt lat="45.34443" lon="1.4421">
        <ele>349</ele>
        <time>2011-08-28T10:01:53Z</time>
      </trkpt>
      <trkpt lat="45.34449" lon="1.44212">
        <ele>348</ele>
        <time>2011-08-28T10:01:55Z</time>
      </trkpt>
      <trkpt lat="45.34457" lon="1.44215">
        <ele>348</ele>
        <time>2011-08-28T10:01:57Z</time>
      </trkpt>
      <trkpt lat="45.34464" lon="1.44217">
        <ele>344</ele>
        <time>2011-08-28T10:01:59Z</time>
      </trkpt>
      <trkpt lat="45.34471" lon="1.44223">
        <ele>344</ele>
        <time>2011-08-28T10:02:01Z</time>
      </trkpt>
      <trkpt lat="45.34478" lon="1.44229">
        <ele>339</ele>
        <time>2011-08-28T10:02:03Z</time>
      </trkpt>
      <trkpt lat="45.34485" lon="1.44232">
        <ele>338</ele>
        <time>2011-08-28T10:02:05Z</time>
      </trkpt>
      <trkpt lat="45.3449" lon="1.44237">
        <ele>332</ele>
        <time>2011-08-28T10:02:06Z</time>
      </trkpt>
      <trkpt lat="45.34495" lon="1.44241">
        <ele>336</ele>
        <time>2011-08-28T10:02:09Z</time>
      </trkpt>
      <trkpt lat="45.34502" lon="1.44243">
        <ele>337</ele>
        <time>2011-08-28T10:02:11Z</time>
      </trkpt>
      <trkpt lat="45.34507" lon="1.44245">
        <ele>336</ele>
        <time>2011-08-28T10:02:12Z</time>
      </trkpt>
      <trkpt lat="45.34515" lon="1.44249">
        <ele>333</ele>
        <time>2011-08-28T10:02:14Z</time>
      </trkpt>
      <trkpt lat="45.34521" lon="1.44251">
        <ele>336</ele>
        <time>2011-08-28T10:02:16Z</time>
      </trkpt>
      <trkpt lat="45.34526" lon="1.44252">
        <ele>337</ele>
        <time>2011-08-28T10:02:18Z</time>
      </trkpt>
      <trkpt lat="45.34532" lon="1.44254">
        <ele>337</ele>
        <time>2011-08-28T10:02:21Z</time>
      </trkpt>
      <trkpt lat="45.34537" lon="1.44255">
        <ele>339</ele>
        <time>2011-08-28T10:02:24Z</time>
      </trkpt>
      <trkpt lat="45.34542" lon="1.44255">
        <ele>336</ele>
        <time>2011-08-28T10:02:27Z</time>
      </trkpt>
      <trkpt lat="45.34547" lon="1.44259">
        <ele>336</ele>
        <time>2011-08-28T10:02:31Z</time>
      </trkpt>
      <trkpt lat="45.34551" lon="1.44262">
        <ele>338</ele>
        <time>2011-08-28T10:02:35Z</time>
      </trkpt>
      <trkpt lat="45.34556" lon="1.44264">
        <ele>343</ele>
        <time>2011-08-28T10:02:39Z</time>
      </trkpt>
      <trkpt lat="45.34561" lon="1.44268">
        <ele>341</ele>
        <time>2011-08-28T10:02:42Z</time>
      </trkpt>
      <trkpt lat="45.34556" lon="1.44268">
        <ele>336</ele>
        <time>2011-08-28T10:02:50Z</time>
      </trkpt>
      <trkpt lat="45.34554" lon="1.44274">
        <ele>333</ele>
        <time>2011-08-28T10:02:55Z</time>
      </trkpt>
      <trkpt lat="45.34551" lon="1.44269">
        <ele>336</ele>
        <time>2011-08-28T10:03:07Z</time>
      </trkpt>
      <trkpt lat="45.34553" lon="1.44263">
        <ele>336</ele>
        <time>2011-08-28T10:03:12Z</time>
      </trkpt>
      <trkpt lat="45.34549" lon="1.44258">
        <ele>329</ele>
        <time>2011-08-28T10:03:17Z</time>
      </trkpt>
      <trkpt lat="45.34543" lon="1.44261">
        <ele>334</ele>
        <time>2011-08-28T10:03:22Z</time>
      </trkpt>
      <trkpt lat="45.3454" lon="1.44265">
        <ele>335</ele>
        <time>2011-08-28T10:03:24Z</time>
      </trkpt>
      <trkpt lat="45.34544" lon="1.44263">
        <ele>341</ele>
        <time>2011-08-28T10:03:34Z</time>
      </trkpt>
      <trkpt lat="45.34542" lon="1.44242">
        <ele>333</ele>
        <time>2011-08-28T10:03:48Z</time>
      </trkpt>
      <trkpt lat="45.34541" lon="1.44234">
        <ele>331</ele>
        <time>2011-08-28T10:03:51Z</time>
      </trkpt>
      <trkpt lat="45.34541" lon="1.44227">
        <ele>335</ele>
        <time>2011-08-28T10:03:54Z</time>
      </trkpt>
      <trkpt lat="45.34543" lon="1.44219">
        <ele>334</ele>
        <time>2011-08-28T10:03:57Z</time>
      </trkpt>
      <trkpt lat="45.34544" lon="1.44211">
        <ele>332</ele>
        <time>2011-08-28T10:04:00Z</time>
      </trkpt>
      <trkpt lat="45.34545" lon="1.44204">
        <ele>330</ele>
        <time>2011-08-28T10:04:02Z</time>
      </trkpt>
      <trkpt lat="45.34547" lon="1.44197">
        <ele>333</ele>
        <time>2011-08-28T10:04:04Z</time>
      </trkpt>
      <trkpt lat="45.34549" lon="1.44188">
        <ele>330</ele>
        <time>2011-08-28T10:04:07Z</time>
      </trkpt>
      <trkpt lat="45.3455" lon="1.44182">
        <ele>331</ele>
        <time>2011-08-28T10:04:10Z</time>
      </trkpt>
      <trkpt lat="45.34552" lon="1.44174">
        <ele>332</ele>
        <time>2011-08-28T10:04:15Z</time>
      </trkpt>
      <trkpt lat="45.34553" lon="1.44168">
        <ele>326</ele>
        <time>2011-08-28T10:04:18Z</time>
      </trkpt>
      <trkpt lat="45.34553" lon="1.4416">
        <ele>324</ele>
        <time>2011-08-28T10:04:20Z</time>
      </trkpt>
      <trkpt lat="45.34553" lon="1.44153">
        <ele>326</ele>
        <time>2011-08-28T10:04:22Z</time>
      </trkpt>
      <trkpt lat="45.34553" lon="1.44146">
        <ele>326</ele>
        <time>2011-08-28T10:04:24Z</time>
      </trkpt>
      <trkpt lat="45.34555" lon="1.44139">
        <ele>329</ele>
        <time>2011-08-28T10:04:26Z</time>
      </trkpt>
      <trkpt lat="45.34557" lon="1.44132">
        <ele>326</ele>
        <time>2011-08-28T10:04:28Z</time>
      </trkpt>
      <trkpt lat="45.3456" lon="1.44125">
        <ele>323</ele>
        <time>2011-08-28T10:04:31Z</time>
      </trkpt>
      <trkpt lat="45.34564" lon="1.44121">
        <ele>324</ele>
        <time>2011-08-28T10:04:34Z</time>
      </trkpt>
      <trkpt lat="45.34569" lon="1.44119">
        <ele>321</ele>
        <time>2011-08-28T10:04:36Z</time>
      </trkpt>
      <trkpt lat="45.34574" lon="1.44117">
        <ele>326</ele>
        <time>2011-08-28T10:04:40Z</time>
      </trkpt>
      <trkpt lat="45.34579" lon="1.44114">
        <ele>325</ele>
        <time>2011-08-28T10:04:44Z</time>
      </trkpt>
      <trkpt lat="45.34583" lon="1.44108">
        <ele>322</ele>
        <time>2011-08-28T10:04:48Z</time>
      </trkpt>
      <trkpt lat="45.34587" lon="1.44103">
        <ele>323</ele>
        <time>2011-08-28T10:04:51Z</time>
      </trkpt>
      <trkpt lat="45.34591" lon="1.441">
        <ele>324</ele>
        <time>2011-08-28T10:04:53Z</time>
      </trkpt>
      <trkpt lat="45.34596" lon="1.44096">
        <ele>322</ele>
        <time>2011-08-28T10:04:55Z</time>
      </trkpt>
      <trkpt lat="45.346" lon="1.44093">
        <ele>321</ele>
        <time>2011-08-28T10:04:57Z</time>
      </trkpt>
      <trkpt lat="45.34605" lon="1.4409">
        <ele>318</ele>
        <time>2011-08-28T10:05:00Z</time>
      </trkpt>
      <trkpt lat="45.34611" lon="1.44086">
        <ele>318</ele>
        <time>2011-08-28T10:05:04Z</time>
      </trkpt>
      <trkpt lat="45.34615" lon="1.44083">
        <ele>317</ele>
        <time>2011-08-28T10:05:07Z</time>
      </trkpt>
      <trkpt lat="45.3462" lon="1.44083">
        <ele>328</ele>
        <time>2011-08-28T10:05:15Z</time>
      </trkpt>
      <trkpt lat="45.34626" lon="1.44082">
        <ele>332</ele>
        <time>2011-08-28T10:05:19Z</time>
      </trkpt>
      <trkpt lat="45.34631" lon="1.4408">
        <ele>330</ele>
        <time>2011-08-28T10:05:23Z</time>
      </trkpt>
      <trkpt lat="45.34636" lon="1.44079">
        <ele>324</ele>
        <time>2011-08-28T10:05:26Z</time>
      </trkpt>
      <trkpt lat="45.34641" lon="1.44077">
        <ele>332</ele>
        <time>2011-08-28T10:05:32Z</time>
      </trkpt>
      <trkpt lat="45.34647" lon="1.44076">
        <ele>328</ele>
        <time>2011-08-28T10:05:37Z</time>
      </trkpt>
      <trkpt lat="45.34651" lon="1.44073">
        <ele>335</ele>
        <time>2011-08-28T10:05:43Z</time>
      </trkpt>
      <trkpt lat="45.34656" lon="1.4407">
        <ele>336</ele>
        <time>2011-08-28T10:05:47Z</time>
      </trkpt>
      <trkpt lat="45.34659" lon="1.44064">
        <ele>335</ele>
        <time>2011-08-28T10:05:50Z</time>
      </trkpt>
      <trkpt lat="45.34661" lon="1.44058">
        <ele>337</ele>
        <time>2011-08-28T10:05:53Z</time>
      </trkpt>
      <trkpt lat="45.34663" lon="1.44051">
        <ele>340</ele>
        <time>2011-08-28T10:05:57Z</time>
      </trkpt>
      <trkpt lat="45.34666" lon="1.44043">
        <ele>350</ele>
        <time>2011-08-28T10:06:00Z</time>
      </trkpt>
      <trkpt lat="45.34668" lon="1.44036">
        <ele>349</ele>
        <time>2011-08-28T10:06:02Z</time>
      </trkpt>
      <trkpt lat="45.3467" lon="1.44028">
        <ele>345</ele>
        <time>2011-08-28T10:06:05Z</time>
      </trkpt>
      <trkpt lat="45.34673" lon="1.44022">
        <ele>348</ele>
        <time>2011-08-28T10:06:08Z</time>
      </trkpt>
      <trkpt lat="45.34678" lon="1.44018">
        <ele>347</ele>
        <time>2011-08-28T10:06:11Z</time>
      </trkpt>
      <trkpt lat="45.34681" lon="1.44014">
        <ele>349</ele>
        <time>2011-08-28T10:06:14Z</time>
      </trkpt>
      <trkpt lat="45.34686" lon="1.44012">
        <ele>344</ele>
        <time>2011-08-28T10:06:16Z</time>
      </trkpt>
      <trkpt lat="45.34692" lon="1.4401">
        <ele>339</ele>
        <time>2011-08-28T10:06:19Z</time>
      </trkpt>
      <trkpt lat="45.34696" lon="1.44006">
        <ele>340</ele>
        <time>2011-08-28T10:06:22Z</time>
      </trkpt>
      <trkpt lat="45.347" lon="1.44002">
        <ele>345</ele>
        <time>2011-08-28T10:06:25Z</time>
      </trkpt>
      <trkpt lat="45.34705" lon="1.44002">
        <ele>341</ele>
        <time>2011-08-28T10:06:29Z</time>
      </trkpt>
      <trkpt lat="45.3471" lon="1.44">
        <ele>344</ele>
        <time>2011-08-28T10:06:33Z</time>
      </trkpt>
      <trkpt lat="45.34728" lon="1.43998">
        <ele>339</ele>
        <time>2011-08-28T10:06:48Z</time>
      </trkpt>
      <trkpt lat="45.34732" lon="1.43997">
        <ele>338</ele>
        <time>2011-08-28T10:06:54Z</time>
      </trkpt>
      <trkpt lat="45.34737" lon="1.43989">
        <ele>348</ele>
        <time>2011-08-28T10:07:01Z</time>
      </trkpt>
      <trkpt lat="45.34744" lon="1.43982">
        <ele>353</ele>
        <time>2011-08-28T10:07:03Z</time>
      </trkpt>
      <trkpt lat="45.34751" lon="1.43975">
        <ele>354</ele>
        <time>2011-08-28T10:07:05Z</time>
      </trkpt>
      <trkpt lat="45.34755" lon="1.4397">
        <ele>356</ele>
        <time>2011-08-28T10:07:07Z</time>
      </trkpt>
      <trkpt lat="45.34759" lon="1.43965">
        <ele>355</ele>
        <time>2011-08-28T10:07:09Z</time>
      </trkpt>
      <trkpt lat="45.34763" lon="1.43962">
        <ele>354</ele>
        <time>2011-08-28T10:07:11Z</time>
      </trkpt>
      <trkpt lat="45.34767" lon="1.43958">
        <ele>353</ele>
        <time>2011-08-28T10:07:13Z</time>
      </trkpt>
      <trkpt lat="45.34772" lon="1.43956">
        <ele>351</ele>
        <time>2011-08-28T10:07:16Z</time>
      </trkpt>
      <trkpt lat="45.34777" lon="1.43951">
        <ele>353</ele>
        <time>2011-08-28T10:07:20Z</time>
      </trkpt>
      <trkpt lat="45.3478" lon="1.43946">
        <ele>354</ele>
        <time>2011-08-28T10:07:23Z</time>
      </trkpt>
      <trkpt lat="45.34785" lon="1.4394">
        <ele>356</ele>
        <time>2011-08-28T10:07:26Z</time>
      </trkpt>
      <trkpt lat="45.34789" lon="1.43934">
        <ele>359</ele>
        <time>2011-08-28T10:07:30Z</time>
      </trkpt>
      <trkpt lat="45.34793" lon="1.43929">
        <ele>360</ele>
        <time>2011-08-28T10:07:35Z</time>
      </trkpt>
      <trkpt lat="45.34798" lon="1.43924">
        <ele>363</ele>
        <time>2011-08-28T10:07:39Z</time>
      </trkpt>
      <trkpt lat="45.34803" lon="1.43919">
        <ele>361</ele>
        <time>2011-08-28T10:07:43Z</time>
      </trkpt>
      <trkpt lat="45.34808" lon="1.43918">
        <ele>361</ele>
        <time>2011-08-28T10:07:46Z</time>
      </trkpt>
      <trkpt lat="45.34814" lon="1.43914">
        <ele>365</ele>
        <time>2011-08-28T10:07:49Z</time>
      </trkpt>
      <trkpt lat="45.3482" lon="1.43912">
        <ele>364</ele>
        <time>2011-08-28T10:07:52Z</time>
      </trkpt>
      <trkpt lat="45.34825" lon="1.43909">
        <ele>356</ele>
        <time>2011-08-28T10:07:55Z</time>
      </trkpt>
      <trkpt lat="45.3483" lon="1.43908">
        <ele>354</ele>
        <time>2011-08-28T10:07:57Z</time>
      </trkpt>
      <trkpt lat="45.34834" lon="1.43905">
        <ele>349</ele>
        <time>2011-08-28T10:07:59Z</time>
      </trkpt>
      <trkpt lat="45.34839" lon="1.43903">
        <ele>355</ele>
        <time>2011-08-28T10:08:01Z</time>
      </trkpt>
      <trkpt lat="45.34844" lon="1.43899">
        <ele>351</ele>
        <time>2011-08-28T10:08:03Z</time>
      </trkpt>
      <trkpt lat="45.34849" lon="1.43896">
        <ele>346</ele>
        <time>2011-08-28T10:08:07Z</time>
      </trkpt>
      <trkpt lat="45.34849" lon="1.43889">
        <ele>346</ele>
        <time>2011-08-28T10:08:12Z</time>
      </trkpt>
      <trkpt lat="45.34847" lon="1.43882">
        <ele>344</ele>
        <time>2011-08-28T10:08:15Z</time>
      </trkpt>
      <trkpt lat="45.34847" lon="1.43876">
        <ele>343</ele>
        <time>2011-08-28T10:08:25Z</time>
      </trkpt>
      <trkpt lat="45.34849" lon="1.43883">
        <ele>343</ele>
        <time>2011-08-28T10:08:48Z</time>
      </trkpt>
      <trkpt lat="45.34849" lon="1.43883">
        <ele>343</ele>
        <time>2011-08-28T10:08:48Z</time>
      </trkpt>
      <trkpt lat="45.34849" lon="1.43883">
        <ele>342</ele>
        <time>2011-08-28T10:08:50Z</time>
      </trkpt>
      <trkpt lat="45.34846" lon="1.43878">
        <ele>343</ele>
        <time>2011-08-28T10:11:25Z</time>
      </trkpt>
      <trkpt lat="45.34845" lon="1.43884">
        <ele>344</ele>
        <time>2011-08-28T10:11:59Z</time>
      </trkpt>
      <trkpt lat="45.34841" lon="1.4388">
        <ele>343</ele>
        <time>2011-08-28T10:12:29Z</time>
      </trkpt>
      <trkpt lat="45.34846" lon="1.4388">
        <ele>343</ele>
        <time>2011-08-28T10:13:07Z</time>
      </trkpt>
      <trkpt lat="45.34841" lon="1.43878">
        <ele>343</ele>
        <time>2011-08-28T10:14:07Z</time>
      </trkpt>
      <trkpt lat="45.34844" lon="1.43871">
        <ele>345</ele>
        <time>2011-08-28T10:14:32Z</time>
      </trkpt>
      <trkpt lat="45.34847" lon="1.43866">
        <ele>345</ele>
        <time>2011-08-28T10:14:36Z</time>
      </trkpt>
      <trkpt lat="45.34852" lon="1.43859">
        <ele>355</ele>
        <time>2011-08-28T10:14:39Z</time>
      </trkpt>
      <trkpt lat="45.34856" lon="1.43853">
        <ele>357</ele>
        <time>2011-08-28T10:14:41Z</time>
      </trkpt>
      <trkpt lat="45.34859" lon="1.43848">
        <ele>358</ele>
        <time>2011-08-28T10:14:44Z</time>
      </trkpt>
      <trkpt lat="45.34864" lon="1.43846">
        <ele>361</ele>
        <time>2011-08-28T10:14:46Z</time>
      </trkpt>
      <trkpt lat="45.34872" lon="1.43847">
        <ele>364</ele>
        <time>2011-08-28T10:14:48Z</time>
      </trkpt>
      <trkpt lat="45.34877" lon="1.43848">
        <ele>366</ele>
        <time>2011-08-28T10:14:49Z</time>
      </trkpt>
      <trkpt lat="45.34886" lon="1.4385">
        <ele>368</ele>
        <time>2011-08-28T10:14:51Z</time>
      </trkpt>
      <trkpt lat="45.34892" lon="1.43851">
        <ele>369</ele>
        <time>2011-08-28T10:14:53Z</time>
      </trkpt>
      <trkpt lat="45.34897" lon="1.4385">
        <ele>368</ele>
        <time>2011-08-28T10:14:55Z</time>
      </trkpt>
      <trkpt lat="45.34901" lon="1.4385">
        <ele>371</ele>
        <time>2011-08-28T10:14:57Z</time>
      </trkpt>
      <trkpt lat="45.34906" lon="1.43849">
        <ele>369</ele>
        <time>2011-08-28T10:14:59Z</time>
      </trkpt>
      <trkpt lat="45.34911" lon="1.43849">
        <ele>370</ele>
        <time>2011-08-28T10:15:01Z</time>
      </trkpt>
      <trkpt lat="45.34917" lon="1.43849">
        <ele>369</ele>
        <time>2011-08-28T10:15:04Z</time>
      </trkpt>
      <trkpt lat="45.34923" lon="1.43847">
        <ele>369</ele>
        <time>2011-08-28T10:15:07Z</time>
      </trkpt>
      <trkpt lat="45.34929" lon="1.43845">
        <ele>368</ele>
        <time>2011-08-28T10:15:09Z</time>
      </trkpt>
      <trkpt lat="45.34934" lon="1.43843">
        <ele>368</ele>
        <time>2011-08-28T10:15:11Z</time>
      </trkpt>
      <trkpt lat="45.3494" lon="1.43839">
        <ele>371</ele>
        <time>2011-08-28T10:15:14Z</time>
      </trkpt>
      <trkpt lat="45.34946" lon="1.43835">
        <ele>372</ele>
        <time>2011-08-28T10:15:17Z</time>
      </trkpt>
      <trkpt lat="45.3495" lon="1.43832">
        <ele>372</ele>
        <time>2011-08-28T10:15:19Z</time>
      </trkpt>
      <trkpt lat="45.34954" lon="1.43828">
        <ele>371</ele>
        <time>2011-08-28T10:15:21Z</time>
      </trkpt>
      <trkpt lat="45.3496" lon="1.43825">
        <ele>372</ele>
        <time>2011-08-28T10:15:24Z</time>
      </trkpt>
      <trkpt lat="45.34965" lon="1.43822">
        <ele>372</ele>
        <time>2011-08-28T10:15:27Z</time>
      </trkpt>
      <trkpt lat="45.3497" lon="1.43819">
        <ele>371</ele>
        <time>2011-08-28T10:15:31Z</time>
      </trkpt>
      <trkpt lat="45.34974" lon="1.43816">
        <ele>373</ele>
        <time>2011-08-28T10:15:34Z</time>
      </trkpt>
      <trkpt lat="45.34978" lon="1.43813">
        <ele>373</ele>
        <time>2011-08-28T10:15:37Z</time>
      </trkpt>
      <trkpt lat="45.34984" lon="1.4381">
        <ele>374</ele>
        <time>2011-08-28T10:15:40Z</time>
      </trkpt>
      <trkpt lat="45.34988" lon="1.43808">
        <ele>375</ele>
        <time>2011-08-28T10:15:43Z</time>
      </trkpt>
      <trkpt lat="45.34994" lon="1.43806">
        <ele>378</ele>
        <time>2011-08-28T10:15:47Z</time>
      </trkpt>
      <trkpt lat="45.34998" lon="1.43803">
        <ele>379</ele>
        <time>2011-08-28T10:15:50Z</time>
      </trkpt>
      <trkpt lat="45.35004" lon="1.43801">
        <ele>378</ele>
        <time>2011-08-28T10:15:53Z</time>
      </trkpt>
      <trkpt lat="45.35009" lon="1.438">
        <ele>378</ele>
        <time>2011-08-28T10:15:55Z</time>
      </trkpt>
      <trkpt lat="45.35013" lon="1.43799">
        <ele>381</ele>
        <time>2011-08-28T10:15:57Z</time>
      </trkpt>
      <trkpt lat="45.35018" lon="1.43798">
        <ele>388</ele>
        <time>2011-08-28T10:15:59Z</time>
      </trkpt>
      <trkpt lat="45.35024" lon="1.43796">
        <ele>386</ele>
        <time>2011-08-28T10:16:02Z</time>
      </trkpt>
      <trkpt lat="45.3503" lon="1.43793">
        <ele>388</ele>
        <time>2011-08-28T10:16:05Z</time>
      </trkpt>
      <trkpt lat="45.35034" lon="1.43791">
        <ele>387</ele>
        <time>2011-08-28T10:16:07Z</time>
      </trkpt>
      <trkpt lat="45.3504" lon="1.43788">
        <ele>370</ele>
        <time>2011-08-28T10:16:10Z</time>
      </trkpt>
      <trkpt lat="45.35045" lon="1.43784">
        <ele>373</ele>
        <time>2011-08-28T10:16:13Z</time>
      </trkpt>
      <trkpt lat="45.3505" lon="1.43781">
        <ele>371</ele>
        <time>2011-08-28T10:16:15Z</time>
      </trkpt>
      <trkpt lat="45.35057" lon="1.43777">
        <ele>369</ele>
        <time>2011-08-28T10:16:17Z</time>
      </trkpt>
      <trkpt lat="45.35063" lon="1.43774">
        <ele>367</ele>
        <time>2011-08-28T10:16:19Z</time>
      </trkpt>
      <trkpt lat="45.35068" lon="1.4377">
        <ele>367</ele>
        <time>2011-08-28T10:16:21Z</time>
      </trkpt>
      <trkpt lat="45.35073" lon="1.43764">
        <ele>372</ele>
        <time>2011-08-28T10:16:23Z</time>
      </trkpt>
      <trkpt lat="45.35078" lon="1.4376">
        <ele>376</ele>
        <time>2011-08-28T10:16:25Z</time>
      </trkpt>
      <trkpt lat="45.35083" lon="1.43755">
        <ele>379</ele>
        <time>2011-08-28T10:16:27Z</time>
      </trkpt>
      <trkpt lat="45.35088" lon="1.43751">
        <ele>380</ele>
        <time>2011-08-28T10:16:29Z</time>
      </trkpt>
      <trkpt lat="45.35092" lon="1.43748">
        <ele>383</ele>
        <time>2011-08-28T10:16:31Z</time>
      </trkpt>
      <trkpt lat="45.35096" lon="1.43746">
        <ele>388</ele>
        <time>2011-08-28T10:16:33Z</time>
      </trkpt>
      <trkpt lat="45.35101" lon="1.43743">
        <ele>390</ele>
        <time>2011-08-28T10:16:35Z</time>
      </trkpt>
      <trkpt lat="45.35107" lon="1.43742">
        <ele>389</ele>
        <time>2011-08-28T10:16:37Z</time>
      </trkpt>
      <trkpt lat="45.35112" lon="1.43739">
        <ele>386</ele>
        <time>2011-08-28T10:16:39Z</time>
      </trkpt>
      <trkpt lat="45.35117" lon="1.43738">
        <ele>388</ele>
        <time>2011-08-28T10:16:41Z</time>
      </trkpt>
      <trkpt lat="45.35122" lon="1.43735">
        <ele>388</ele>
        <time>2011-08-28T10:16:43Z</time>
      </trkpt>
      <trkpt lat="45.35126" lon="1.43732">
        <ele>387</ele>
        <time>2011-08-28T10:16:45Z</time>
      </trkpt>
      <trkpt lat="45.3513" lon="1.43729">
        <ele>385</ele>
        <time>2011-08-28T10:16:47Z</time>
      </trkpt>
      <trkpt lat="45.35136" lon="1.43726">
        <ele>394</ele>
        <time>2011-08-28T10:16:49Z</time>
      </trkpt>
      <trkpt lat="45.35141" lon="1.43724">
        <ele>394</ele>
        <time>2011-08-28T10:16:51Z</time>
      </trkpt>
      <trkpt lat="45.35146" lon="1.43722">
        <ele>394</ele>
        <time>2011-08-28T10:16:53Z</time>
      </trkpt>
      <trkpt lat="45.3515" lon="1.43721">
        <ele>392</ele>
        <time>2011-08-28T10:16:56Z</time>
      </trkpt>
      <trkpt lat="45.35155" lon="1.43717">
        <ele>391</ele>
        <time>2011-08-28T10:16:59Z</time>
      </trkpt>
      <trkpt lat="45.3516" lon="1.4371">
        <ele>388</ele>
        <time>2011-08-28T10:17:02Z</time>
      </trkpt>
      <trkpt lat="45.35164" lon="1.43705">
        <ele>390</ele>
        <time>2011-08-28T10:17:04Z</time>
      </trkpt>
      <trkpt lat="45.3517" lon="1.437">
        <ele>393</ele>
        <time>2011-08-28T10:17:07Z</time>
      </trkpt>
      <trkpt lat="45.35175" lon="1.43694">
        <ele>392</ele>
        <time>2011-08-28T10:17:10Z</time>
      </trkpt>
      <trkpt lat="45.35181" lon="1.4369">
        <ele>394</ele>
        <time>2011-08-28T10:17:13Z</time>
      </trkpt>
      <trkpt lat="45.35186" lon="1.43687">
        <ele>401</ele>
        <time>2011-08-28T10:17:16Z</time>
      </trkpt>
      <trkpt lat="45.3519" lon="1.43684">
        <ele>396</ele>
        <time>2011-08-28T10:17:18Z</time>
      </trkpt>
      <trkpt lat="45.35195" lon="1.4368">
        <ele>395</ele>
        <time>2011-08-28T10:17:20Z</time>
      </trkpt>
      <trkpt lat="45.35199" lon="1.43676">
        <ele>395</ele>
        <time>2011-08-28T10:17:22Z</time>
      </trkpt>
      <trkpt lat="45.35203" lon="1.43672">
        <ele>394</ele>
        <time>2011-08-28T10:17:24Z</time>
      </trkpt>
      <trkpt lat="45.35208" lon="1.43668">
        <ele>396</ele>
        <time>2011-08-28T10:17:27Z</time>
      </trkpt>
      <trkpt lat="45.35212" lon="1.43666">
        <ele>399</ele>
        <time>2011-08-28T10:17:32Z</time>
      </trkpt>
      <trkpt lat="45.35216" lon="1.43661">
        <ele>389</ele>
        <time>2011-08-28T10:17:40Z</time>
      </trkpt>
      <trkpt lat="45.35214" lon="1.43668">
        <ele>392</ele>
        <time>2011-08-28T10:17:51Z</time>
      </trkpt>
      <trkpt lat="45.35218" lon="1.43674">
        <ele>384</ele>
        <time>2011-08-28T10:18:57Z</time>
      </trkpt>
      <trkpt lat="45.35216" lon="1.43681">
        <ele>380</ele>
        <time>2011-08-28T10:19:00Z</time>
      </trkpt>
      <trkpt lat="45.35214" lon="1.43687">
        <ele>385</ele>
        <time>2011-08-28T10:19:02Z</time>
      </trkpt>
      <trkpt lat="45.35214" lon="1.43695">
        <ele>385</ele>
        <time>2011-08-28T10:19:04Z</time>
      </trkpt>
      <trkpt lat="45.35217" lon="1.43701">
        <ele>386</ele>
        <time>2011-08-28T10:19:06Z</time>
      </trkpt>
      <trkpt lat="45.35217" lon="1.4371">
        <ele>388</ele>
        <time>2011-08-28T10:19:09Z</time>
      </trkpt>
      <trkpt lat="45.35219" lon="1.43717">
        <ele>390</ele>
        <time>2011-08-28T10:19:13Z</time>
      </trkpt>
      <trkpt lat="45.35224" lon="1.43726">
        <ele>397</ele>
        <time>2011-08-28T10:19:17Z</time>
      </trkpt>
      <trkpt lat="45.35228" lon="1.43735">
        <ele>399</ele>
        <time>2011-08-28T10:19:19Z</time>
      </trkpt>
      <trkpt lat="45.35231" lon="1.43744">
        <ele>396</ele>
        <time>2011-08-28T10:19:21Z</time>
      </trkpt>
      <trkpt lat="45.35235" lon="1.43752">
        <ele>396</ele>
        <time>2011-08-28T10:19:23Z</time>
      </trkpt>
      <trkpt lat="45.35239" lon="1.43758">
        <ele>398</ele>
        <time>2011-08-28T10:19:25Z</time>
      </trkpt>
      <trkpt lat="45.35244" lon="1.43762">
        <ele>398</ele>
        <time>2011-08-28T10:19:28Z</time>
      </trkpt>
      <trkpt lat="45.35248" lon="1.43763">
        <ele>387</ele>
        <time>2011-08-28T10:19:50Z</time>
      </trkpt>
      <trkpt lat="45.35243" lon="1.43756">
        <ele>389</ele>
        <time>2011-08-28T10:20:16Z</time>
      </trkpt>
      <trkpt lat="45.35238" lon="1.4375">
        <ele>390</ele>
        <time>2011-08-28T10:20:18Z</time>
      </trkpt>
      <trkpt lat="45.35234" lon="1.43742">
        <ele>392</ele>
        <time>2011-08-28T10:20:20Z</time>
      </trkpt>
      <trkpt lat="45.35232" lon="1.43735">
        <ele>393</ele>
        <time>2011-08-28T10:20:22Z</time>
      </trkpt>
      <trkpt lat="45.35229" lon="1.43729">
        <ele>390</ele>
        <time>2011-08-28T10:20:24Z</time>
      </trkpt>
      <trkpt lat="45.35226" lon="1.43721">
        <ele>390</ele>
        <time>2011-08-28T10:20:26Z</time>
      </trkpt>
      <trkpt lat="45.35223" lon="1.43716">
        <ele>391</ele>
        <time>2011-08-28T10:20:28Z</time>
      </trkpt>
      <trkpt lat="45.3522" lon="1.4371">
        <ele>396</ele>
        <time>2011-08-28T10:20:30Z</time>
      </trkpt>
      <trkpt lat="45.35215" lon="1.43704">
        <ele>393</ele>
        <time>2011-08-28T10:20:32Z</time>
      </trkpt>
      <trkpt lat="45.35213" lon="1.43696">
        <ele>391</ele>
        <time>2011-08-28T10:20:34Z</time>
      </trkpt>
      <trkpt lat="45.35214" lon="1.43684">
        <ele>392</ele>
        <time>2011-08-28T10:20:36Z</time>
      </trkpt>
      <trkpt lat="45.35215" lon="1.43678">
        <ele>392</ele>
        <time>2011-08-28T10:20:37Z</time>
      </trkpt>
      <trkpt lat="45.35217" lon="1.43672">
        <ele>394</ele>
        <time>2011-08-28T10:20:38Z</time>
      </trkpt>
      <trkpt lat="45.3522" lon="1.43661">
        <ele>393</ele>
        <time>2011-08-28T10:20:40Z</time>
      </trkpt>
      <trkpt lat="45.35225" lon="1.43653">
        <ele>393</ele>
        <time>2011-08-28T10:20:42Z</time>
      </trkpt>
      <trkpt lat="45.3523" lon="1.43646">
        <ele>393</ele>
        <time>2011-08-28T10:20:44Z</time>
      </trkpt>
      <trkpt lat="45.35234" lon="1.43638">
        <ele>395</ele>
        <time>2011-08-28T10:20:46Z</time>
      </trkpt>
      <trkpt lat="45.35239" lon="1.43631">
        <ele>395</ele>
        <time>2011-08-28T10:20:48Z</time>
      </trkpt>
      <trkpt lat="45.35244" lon="1.43623">
        <ele>396</ele>
        <time>2011-08-28T10:20:50Z</time>
      </trkpt>
      <trkpt lat="45.35248" lon="1.43616">
        <ele>394</ele>
        <time>2011-08-28T10:20:52Z</time>
      </trkpt>
      <trkpt lat="45.35252" lon="1.4361">
        <ele>401</ele>
        <time>2011-08-28T10:20:54Z</time>
      </trkpt>
      <trkpt lat="45.35255" lon="1.43604">
        <ele>402</ele>
        <time>2011-08-28T10:20:56Z</time>
      </trkpt>
      <trkpt lat="45.35259" lon="1.43597">
        <ele>401</ele>
        <time>2011-08-28T10:20:59Z</time>
      </trkpt>
      <trkpt lat="45.35262" lon="1.4359">
        <ele>402</ele>
        <time>2011-08-28T10:21:01Z</time>
      </trkpt>
      <trkpt lat="45.35264" lon="1.4358">
        <ele>401</ele>
        <time>2011-08-28T10:21:03Z</time>
      </trkpt>
      <trkpt lat="45.35268" lon="1.43571">
        <ele>401</ele>
        <time>2011-08-28T10:21:05Z</time>
      </trkpt>
      <trkpt lat="45.35272" lon="1.43562">
        <ele>402</ele>
        <time>2011-08-28T10:21:07Z</time>
      </trkpt>
      <trkpt lat="45.35274" lon="1.43556">
        <ele>402</ele>
        <time>2011-08-28T10:21:08Z</time>
      </trkpt>
      <trkpt lat="45.35276" lon="1.4355">
        <ele>402</ele>
        <time>2011-08-28T10:21:09Z</time>
      </trkpt>
      <trkpt lat="45.35277" lon="1.43543">
        <ele>402</ele>
        <time>2011-08-28T10:21:10Z</time>
      </trkpt>
      <trkpt lat="45.35281" lon="1.43532">
        <ele>400</ele>
        <time>2011-08-28T10:21:12Z</time>
      </trkpt>
      <trkpt lat="45.35284" lon="1.4352">
        <ele>400</ele>
        <time>2011-08-28T10:21:14Z</time>
      </trkpt>
      <trkpt lat="45.35287" lon="1.43515">
        <ele>399</ele>
        <time>2011-08-28T10:21:15Z</time>
      </trkpt>
      <trkpt lat="45.35292" lon="1.43507">
        <ele>398</ele>
        <time>2011-08-28T10:21:17Z</time>
      </trkpt>
      <trkpt lat="45.35298" lon="1.43498">
        <ele>398</ele>
        <time>2011-08-28T10:21:19Z</time>
      </trkpt>
      <trkpt lat="45.35305" lon="1.4349">
        <ele>400</ele>
        <time>2011-08-28T10:21:21Z</time>
      </trkpt>
      <trkpt lat="45.3531" lon="1.43481">
        <ele>402</ele>
        <time>2011-08-28T10:21:23Z</time>
      </trkpt>
      <trkpt lat="45.35315" lon="1.43471">
        <ele>402</ele>
        <time>2011-08-28T10:21:25Z</time>
      </trkpt>
      <trkpt lat="45.3532" lon="1.43462">
        <ele>400</ele>
        <time>2011-08-28T10:21:27Z</time>
      </trkpt>
      <trkpt lat="45.35323" lon="1.43456">
        <ele>399</ele>
        <time>2011-08-28T10:21:28Z</time>
      </trkpt>
      <trkpt lat="45.35326" lon="1.43451">
        <ele>399</ele>
        <time>2011-08-28T10:21:29Z</time>
      </trkpt>
      <trkpt lat="45.3533" lon="1.43441">
        <ele>400</ele>
        <time>2011-08-28T10:21:31Z</time>
      </trkpt>
      <trkpt lat="45.35336" lon="1.43432">
        <ele>395</ele>
        <time>2011-08-28T10:21:33Z</time>
      </trkpt>
      <trkpt lat="45.35339" lon="1.43427">
        <ele>395</ele>
        <time>2011-08-28T10:21:34Z</time>
      </trkpt>
      <trkpt lat="45.35345" lon="1.43417">
        <ele>399</ele>
        <time>2011-08-28T10:21:36Z</time>
      </trkpt>
      <trkpt lat="45.35348" lon="1.43413">
        <ele>399</ele>
        <time>2011-08-28T10:21:37Z</time>
      </trkpt>
      <trkpt lat="45.35353" lon="1.43408">
        <ele>400</ele>
        <time>2011-08-28T10:21:38Z</time>
      </trkpt>
      <trkpt lat="45.35357" lon="1.43402">
        <ele>401</ele>
        <time>2011-08-28T10:21:39Z</time>
      </trkpt>
      <trkpt lat="45.35361" lon="1.43398">
        <ele>399</ele>
        <time>2011-08-28T10:21:40Z</time>
      </trkpt>
      <trkpt lat="45.35365" lon="1.43394">
        <ele>398</ele>
        <time>2011-08-28T10:21:41Z</time>
      </trkpt>
      <trkpt lat="45.35369" lon="1.4339">
        <ele>397</ele>
        <time>2011-08-28T10:21:42Z</time>
      </trkpt>
      <trkpt lat="45.35373" lon="1.43386">
        <ele>399</ele>
        <time>2011-08-28T10:21:43Z</time>
      </trkpt>
      <trkpt lat="45.3538" lon="1.4338">
        <ele>403</ele>
        <time>2011-08-28T10:21:45Z</time>
      </trkpt>
      <trkpt lat="45.35386" lon="1.43374">
        <ele>396</ele>
        <time>2011-08-28T10:21:47Z</time>
      </trkpt>
      <trkpt lat="45.3539" lon="1.4337">
        <ele>392</ele>
        <time>2011-08-28T10:21:49Z</time>
      </trkpt>
      <trkpt lat="45.35394" lon="1.43365">
        <ele>395</ele>
        <time>2011-08-28T10:21:51Z</time>
      </trkpt>
      <trkpt lat="45.35399" lon="1.4336">
        <ele>396</ele>
        <time>2011-08-28T10:21:53Z</time>
      </trkpt>
      <trkpt lat="45.35405" lon="1.43354">
        <ele>401</ele>
        <time>2011-08-28T10:21:55Z</time>
      </trkpt>
      <trkpt lat="45.35412" lon="1.4335">
        <ele>402</ele>
        <time>2011-08-28T10:21:57Z</time>
      </trkpt>
      <trkpt lat="45.35417" lon="1.43347">
        <ele>398</ele>
        <time>2011-08-28T10:21:59Z</time>
      </trkpt>
      <trkpt lat="45.35422" lon="1.43345">
        <ele>399</ele>
        <time>2011-08-28T10:22:01Z</time>
      </trkpt>
      <trkpt lat="45.35428" lon="1.43343">
        <ele>399</ele>
        <time>2011-08-28T10:22:03Z</time>
      </trkpt>
      <trkpt lat="45.35434" lon="1.43342">
        <ele>400</ele>
        <time>2011-08-28T10:22:05Z</time>
      </trkpt>
      <trkpt lat="45.35439" lon="1.43338">
        <ele>406</ele>
        <time>2011-08-28T10:22:08Z</time>
      </trkpt>
      <trkpt lat="45.35444" lon="1.43334">
        <ele>403</ele>
        <time>2011-08-28T10:22:11Z</time>
      </trkpt>
      <trkpt lat="45.35449" lon="1.43328">
        <ele>397</ele>
        <time>2011-08-28T10:23:04Z</time>
      </trkpt>
      <trkpt lat="45.35456" lon="1.43326">
        <ele>397</ele>
        <time>2011-08-28T10:23:06Z</time>
      </trkpt>
      <trkpt lat="45.35464" lon="1.43322">
        <ele>398</ele>
        <time>2011-08-28T10:23:08Z</time>
      </trkpt>
      <trkpt lat="45.35468" lon="1.43319">
        <ele>397</ele>
        <time>2011-08-28T10:23:09Z</time>
      </trkpt>
      <trkpt lat="45.35475" lon="1.43312">
        <ele>398</ele>
        <time>2011-08-28T10:23:11Z</time>
      </trkpt>
      <trkpt lat="45.35482" lon="1.43304">
        <ele>402</ele>
        <time>2011-08-28T10:23:13Z</time>
      </trkpt>
      <trkpt lat="45.35489" lon="1.43296">
        <ele>403</ele>
        <time>2011-08-28T10:23:15Z</time>
      </trkpt>
      <trkpt lat="45.35494" lon="1.43288">
        <ele>404</ele>
        <time>2011-08-28T10:23:17Z</time>
      </trkpt>
      <trkpt lat="45.35501" lon="1.4328">
        <ele>404</ele>
        <time>2011-08-28T10:23:19Z</time>
      </trkpt>
      <trkpt lat="45.35507" lon="1.43272">
        <ele>403</ele>
        <time>2011-08-28T10:23:21Z</time>
      </trkpt>
      <trkpt lat="45.35512" lon="1.43264">
        <ele>404</ele>
        <time>2011-08-28T10:23:23Z</time>
      </trkpt>
      <trkpt lat="45.35517" lon="1.43255">
        <ele>405</ele>
        <time>2011-08-28T10:23:25Z</time>
      </trkpt>
      <trkpt lat="45.35522" lon="1.43244">
        <ele>406</ele>
        <time>2011-08-28T10:23:27Z</time>
      </trkpt>
      <trkpt lat="45.35525" lon="1.43239">
        <ele>407</ele>
        <time>2011-08-28T10:23:28Z</time>
      </trkpt>
      <trkpt lat="45.35528" lon="1.43234">
        <ele>408</ele>
        <time>2011-08-28T10:23:29Z</time>
      </trkpt>
      <trkpt lat="45.35532" lon="1.43224">
        <ele>406</ele>
        <time>2011-08-28T10:23:31Z</time>
      </trkpt>
      <trkpt lat="45.35535" lon="1.43219">
        <ele>405</ele>
        <time>2011-08-28T10:23:35Z</time>
      </trkpt>
      <trkpt lat="45.35537" lon="1.43227">
        <ele>403</ele>
        <time>2011-08-28T10:23:45Z</time>
      </trkpt>
      <trkpt lat="45.35539" lon="1.43234">
        <ele>405</ele>
        <time>2011-08-28T10:23:47Z</time>
      </trkpt>
      <trkpt lat="45.35542" lon="1.4324">
        <ele>409</ele>
        <time>2011-08-28T10:23:49Z</time>
      </trkpt>
      <trkpt lat="45.35544" lon="1.43245">
        <ele>406</ele>
        <time>2011-08-28T10:23:52Z</time>
      </trkpt>
      <trkpt lat="45.35549" lon="1.4325">
        <ele>408</ele>
        <time>2011-08-28T10:23:56Z</time>
      </trkpt>
      <trkpt lat="45.35554" lon="1.43256">
        <ele>410</ele>
        <time>2011-08-28T10:23:59Z</time>
      </trkpt>
      <trkpt lat="45.3556" lon="1.43262">
        <ele>411</ele>
        <time>2011-08-28T10:24:01Z</time>
      </trkpt>
      <trkpt lat="45.35565" lon="1.43267">
        <ele>413</ele>
        <time>2011-08-28T10:24:03Z</time>
      </trkpt>
      <trkpt lat="45.3557" lon="1.43273">
        <ele>413</ele>
        <time>2011-08-28T10:24:05Z</time>
      </trkpt>
      <trkpt lat="45.35575" lon="1.43278">
        <ele>412</ele>
        <time>2011-08-28T10:24:07Z</time>
      </trkpt>
      <trkpt lat="45.3558" lon="1.43282">
        <ele>411</ele>
        <time>2011-08-28T10:24:09Z</time>
      </trkpt>
      <trkpt lat="45.35585" lon="1.43287">
        <ele>408</ele>
        <time>2011-08-28T10:24:11Z</time>
      </trkpt>
      <trkpt lat="45.3559" lon="1.43291">
        <ele>408</ele>
        <time>2011-08-28T10:24:13Z</time>
      </trkpt>
      <trkpt lat="45.35594" lon="1.43296">
        <ele>409</ele>
        <time>2011-08-28T10:24:15Z</time>
      </trkpt>
      <trkpt lat="45.35598" lon="1.433">
        <ele>408</ele>
        <time>2011-08-28T10:24:17Z</time>
      </trkpt>
      <trkpt lat="45.35604" lon="1.43303">
        <ele>407</ele>
        <time>2011-08-28T10:24:20Z</time>
      </trkpt>
      <trkpt lat="45.35609" lon="1.43296">
        <ele>408</ele>
        <time>2011-08-28T10:24:23Z</time>
      </trkpt>
      <trkpt lat="45.35614" lon="1.43289">
        <ele>409</ele>
        <time>2011-08-28T10:24:25Z</time>
      </trkpt>
      <trkpt lat="45.3562" lon="1.43279">
        <ele>406</ele>
        <time>2011-08-28T10:24:27Z</time>
      </trkpt>
      <trkpt lat="45.35624" lon="1.43274">
        <ele>406</ele>
        <time>2011-08-28T10:24:28Z</time>
      </trkpt>
      <trkpt lat="45.35627" lon="1.4327">
        <ele>407</ele>
        <time>2011-08-28T10:24:29Z</time>
      </trkpt>
      <trkpt lat="45.35633" lon="1.43263">
        <ele>408</ele>
        <time>2011-08-28T10:24:31Z</time>
      </trkpt>
      <trkpt lat="45.35638" lon="1.43256">
        <ele>408</ele>
        <time>2011-08-28T10:24:33Z</time>
      </trkpt>
      <trkpt lat="45.35645" lon="1.43248">
        <ele>407</ele>
        <time>2011-08-28T10:24:35Z</time>
      </trkpt>
      <trkpt lat="45.35651" lon="1.43241">
        <ele>409</ele>
        <time>2011-08-28T10:24:37Z</time>
      </trkpt>
      <trkpt lat="45.35658" lon="1.43234">
        <ele>410</ele>
        <time>2011-08-28T10:24:39Z</time>
      </trkpt>
      <trkpt lat="45.35662" lon="1.43229">
        <ele>411</ele>
        <time>2011-08-28T10:24:40Z</time>
      </trkpt>
      <trkpt lat="45.35666" lon="1.43224">
        <ele>412</ele>
        <time>2011-08-28T10:24:41Z</time>
      </trkpt>
      <trkpt lat="45.35669" lon="1.4322">
        <ele>413</ele>
        <time>2011-08-28T10:24:42Z</time>
      </trkpt>
      <trkpt lat="45.35672" lon="1.43215">
        <ele>413</ele>
        <time>2011-08-28T10:24:43Z</time>
      </trkpt>
      <trkpt lat="45.35676" lon="1.4321">
        <ele>409</ele>
        <time>2011-08-28T10:24:44Z</time>
      </trkpt>
      <trkpt lat="45.3568" lon="1.43204">
        <ele>411</ele>
        <time>2011-08-28T10:24:45Z</time>
      </trkpt>
      <trkpt lat="45.35684" lon="1.43199">
        <ele>409</ele>
        <time>2011-08-28T10:24:46Z</time>
      </trkpt>
      <trkpt lat="45.35688" lon="1.43195">
        <ele>407</ele>
        <time>2011-08-28T10:24:47Z</time>
      </trkpt>
      <trkpt lat="45.35692" lon="1.43191">
        <ele>404</ele>
        <time>2011-08-28T10:24:48Z</time>
      </trkpt>
      <trkpt lat="45.35699" lon="1.43182">
        <ele>405</ele>
        <time>2011-08-28T10:24:50Z</time>
      </trkpt>
      <trkpt lat="45.35702" lon="1.43178">
        <ele>404</ele>
        <time>2011-08-28T10:24:51Z</time>
      </trkpt>
      <trkpt lat="45.35705" lon="1.43173">
        <ele>404</ele>
        <time>2011-08-28T10:24:52Z</time>
      </trkpt>
      <trkpt lat="45.35709" lon="1.43168">
        <ele>406</ele>
        <time>2011-08-28T10:24:53Z</time>
      </trkpt>
      <trkpt lat="45.35714" lon="1.43159">
        <ele>406</ele>
        <time>2011-08-28T10:24:55Z</time>
      </trkpt>
      <trkpt lat="45.35719" lon="1.4315">
        <ele>406</ele>
        <time>2011-08-28T10:24:57Z</time>
      </trkpt>
      <trkpt lat="45.35724" lon="1.43142">
        <ele>407</ele>
        <time>2011-08-28T10:24:59Z</time>
      </trkpt>
      <trkpt lat="45.35728" lon="1.43138">
        <ele>410</ele>
        <time>2011-08-28T10:25:01Z</time>
      </trkpt>
      <trkpt lat="45.35732" lon="1.43134">
        <ele>407</ele>
        <time>2011-08-28T10:25:03Z</time>
      </trkpt>
      <trkpt lat="45.35737" lon="1.4313">
        <ele>407</ele>
        <time>2011-08-28T10:25:05Z</time>
      </trkpt>
      <trkpt lat="45.35742" lon="1.43126">
        <ele>406</ele>
        <time>2011-08-28T10:25:07Z</time>
      </trkpt>
      <trkpt lat="45.35746" lon="1.43122">
        <ele>406</ele>
        <time>2011-08-28T10:25:09Z</time>
      </trkpt>
      <trkpt lat="45.3575" lon="1.4312">
        <ele>408</ele>
        <time>2011-08-28T10:25:11Z</time>
      </trkpt>
      <trkpt lat="45.35755" lon="1.43117">
        <ele>407</ele>
        <time>2011-08-28T10:25:13Z</time>
      </trkpt>
      <trkpt lat="45.35759" lon="1.43115">
        <ele>405</ele>
        <time>2011-08-28T10:25:15Z</time>
      </trkpt>
      <trkpt lat="45.35764" lon="1.43112">
        <ele>405</ele>
        <time>2011-08-28T10:25:17Z</time>
      </trkpt>
      <trkpt lat="45.3577" lon="1.43109">
        <ele>404</ele>
        <time>2011-08-28T10:25:19Z</time>
      </trkpt>
      <trkpt lat="45.35778" lon="1.43105">
        <ele>405</ele>
        <time>2011-08-28T10:25:21Z</time>
      </trkpt>
      <trkpt lat="45.35784" lon="1.43103">
        <ele>406</ele>
        <time>2011-08-28T10:25:23Z</time>
      </trkpt>
      <trkpt lat="45.35792" lon="1.43103">
        <ele>408</ele>
        <time>2011-08-28T10:25:25Z</time>
      </trkpt>
      <trkpt lat="45.35798" lon="1.43102">
        <ele>410</ele>
        <time>2011-08-28T10:25:27Z</time>
      </trkpt>
      <trkpt lat="45.35803" lon="1.431">
        <ele>413</ele>
        <time>2011-08-28T10:25:29Z</time>
      </trkpt>
      <trkpt lat="45.35809" lon="1.43096">
        <ele>412</ele>
        <time>2011-08-28T10:25:32Z</time>
      </trkpt>
      <trkpt lat="45.35814" lon="1.43092">
        <ele>411</ele>
        <time>2011-08-28T10:25:35Z</time>
      </trkpt>
      <trkpt lat="45.3582" lon="1.43086">
        <ele>411</ele>
        <time>2011-08-28T10:25:38Z</time>
      </trkpt>
      <trkpt lat="45.35825" lon="1.43082">
        <ele>411</ele>
        <time>2011-08-28T10:25:40Z</time>
      </trkpt>
      <trkpt lat="45.35832" lon="1.43078">
        <ele>411</ele>
        <time>2011-08-28T10:25:42Z</time>
      </trkpt>
      <trkpt lat="45.35841" lon="1.43073">
        <ele>410</ele>
        <time>2011-08-28T10:25:44Z</time>
      </trkpt>
      <trkpt lat="45.35849" lon="1.43067">
        <ele>409</ele>
        <time>2011-08-28T10:25:46Z</time>
      </trkpt>
      <trkpt lat="45.35856" lon="1.43062">
        <ele>409</ele>
        <time>2011-08-28T10:25:48Z</time>
      </trkpt>
      <trkpt lat="45.35863" lon="1.43058">
        <ele>408</ele>
        <time>2011-08-28T10:25:50Z</time>
      </trkpt>
      <trkpt lat="45.3587" lon="1.43054">
        <ele>408</ele>
        <time>2011-08-28T10:25:52Z</time>
      </trkpt>
      <trkpt lat="45.35876" lon="1.43052">
        <ele>408</ele>
        <time>2011-08-28T10:25:54Z</time>
      </trkpt>
      <trkpt lat="45.35882" lon="1.43049">
        <ele>409</ele>
        <time>2011-08-28T10:25:56Z</time>
      </trkpt>
      <trkpt lat="45.35888" lon="1.43046">
        <ele>409</ele>
        <time>2011-08-28T10:25:58Z</time>
      </trkpt>
      <trkpt lat="45.35894" lon="1.43042">
        <ele>411</ele>
        <time>2011-08-28T10:26:00Z</time>
      </trkpt>
      <trkpt lat="45.35901" lon="1.43038">
        <ele>411</ele>
        <time>2011-08-28T10:26:02Z</time>
      </trkpt>
      <trkpt lat="45.35907" lon="1.43034">
        <ele>410</ele>
        <time>2011-08-28T10:26:04Z</time>
      </trkpt>
      <trkpt lat="45.35915" lon="1.43029">
        <ele>412</ele>
        <time>2011-08-28T10:26:06Z</time>
      </trkpt>
      <trkpt lat="45.35922" lon="1.43025">
        <ele>412</ele>
        <time>2011-08-28T10:26:08Z</time>
      </trkpt>
      <trkpt lat="45.35928" lon="1.43021">
        <ele>412</ele>
        <time>2011-08-28T10:26:10Z</time>
      </trkpt>
      <trkpt lat="45.35933" lon="1.43018">
        <ele>413</ele>
        <time>2011-08-28T10:26:13Z</time>
      </trkpt>
      <trkpt lat="45.35935" lon="1.4301">
        <ele>411</ele>
        <time>2011-08-28T10:26:27Z</time>
      </trkpt>
      <trkpt lat="45.35934" lon="1.43">
        <ele>412</ele>
        <time>2011-08-28T10:26:30Z</time>
      </trkpt>
      <trkpt lat="45.35935" lon="1.42994">
        <ele>413</ele>
        <time>2011-08-28T10:26:34Z</time>
      </trkpt>
      <trkpt lat="45.3594" lon="1.42996">
        <ele>412</ele>
        <time>2011-08-28T10:26:39Z</time>
      </trkpt>
      <trkpt lat="45.35944" lon="1.42998">
        <ele>417</ele>
        <time>2011-08-28T10:26:53Z</time>
      </trkpt>
      <trkpt lat="45.35948" lon="1.43001">
        <ele>413</ele>
        <time>2011-08-28T10:26:59Z</time>
      </trkpt>
      <trkpt lat="45.35953" lon="1.43003">
        <ele>413</ele>
        <time>2011-08-28T10:27:02Z</time>
      </trkpt>
      <trkpt lat="45.35959" lon="1.43006">
        <ele>413</ele>
        <time>2011-08-28T10:27:05Z</time>
      </trkpt>
      <trkpt lat="45.35965" lon="1.43009">
        <ele>413</ele>
        <time>2011-08-28T10:27:07Z</time>
      </trkpt>
      <trkpt lat="45.35971" lon="1.43011">
        <ele>414</ele>
        <time>2011-08-28T10:27:09Z</time>
      </trkpt>
      <trkpt lat="45.35977" lon="1.43013">
        <ele>417</ele>
        <time>2011-08-28T10:27:11Z</time>
      </trkpt>
      <trkpt lat="45.35984" lon="1.43014">
        <ele>421</ele>
        <time>2011-08-28T10:27:13Z</time>
      </trkpt>
      <trkpt lat="45.3599" lon="1.43016">
        <ele>419</ele>
        <time>2011-08-28T10:27:15Z</time>
      </trkpt>
      <trkpt lat="45.35996" lon="1.43019">
        <ele>417</ele>
        <time>2011-08-28T10:27:17Z</time>
      </trkpt>
      <trkpt lat="45.36002" lon="1.43022">
        <ele>419</ele>
        <time>2011-08-28T10:27:19Z</time>
      </trkpt>
      <trkpt lat="45.36008" lon="1.43025">
        <ele>421</ele>
        <time>2011-08-28T10:27:21Z</time>
      </trkpt>
      <trkpt lat="45.36014" lon="1.43028">
        <ele>421</ele>
        <time>2011-08-28T10:27:23Z</time>
      </trkpt>
      <trkpt lat="45.36019" lon="1.43031">
        <ele>424</ele>
        <time>2011-08-28T10:27:25Z</time>
      </trkpt>
      <trkpt lat="45.36024" lon="1.43033">
        <ele>424</ele>
        <time>2011-08-28T10:27:27Z</time>
      </trkpt>
      <trkpt lat="45.36029" lon="1.43035">
        <ele>426</ele>
        <time>2011-08-28T10:27:30Z</time>
      </trkpt>
      <trkpt lat="45.36034" lon="1.43037">
        <ele>416</ele>
        <time>2011-08-28T10:27:33Z</time>
      </trkpt>
      <trkpt lat="45.36038" lon="1.4304">
        <ele>420</ele>
        <time>2011-08-28T10:27:39Z</time>
      </trkpt>
      <trkpt lat="45.36033" lon="1.43036">
        <ele>421</ele>
        <time>2011-08-28T10:27:45Z</time>
      </trkpt>
      <trkpt lat="45.36027" lon="1.43033">
        <ele>420</ele>
        <time>2011-08-28T10:27:47Z</time>
      </trkpt>
      <trkpt lat="45.3602" lon="1.43032">
        <ele>421</ele>
        <time>2011-08-28T10:27:49Z</time>
      </trkpt>
      <trkpt lat="45.36012" lon="1.43031">
        <ele>421</ele>
        <time>2011-08-28T10:27:51Z</time>
      </trkpt>
      <trkpt lat="45.36004" lon="1.43028">
        <ele>421</ele>
        <time>2011-08-28T10:27:53Z</time>
      </trkpt>
      <trkpt lat="45.35999" lon="1.43021">
        <ele>419</ele>
        <time>2011-08-28T10:27:55Z</time>
      </trkpt>
      <trkpt lat="45.35998" lon="1.43014">
        <ele>418</ele>
        <time>2011-08-28T10:27:57Z</time>
      </trkpt>
      <trkpt lat="45.35998" lon="1.43006">
        <ele>417</ele>
        <time>2011-08-28T10:27:59Z</time>
      </trkpt>
      <trkpt lat="45.36003" lon="1.43006">
        <ele>417</ele>
        <time>2011-08-28T10:28:01Z</time>
      </trkpt>
      <trkpt lat="45.36011" lon="1.43008">
        <ele>416</ele>
        <time>2011-08-28T10:28:03Z</time>
      </trkpt>
      <trkpt lat="45.36016" lon="1.43009">
        <ele>418</ele>
        <time>2011-08-28T10:28:04Z</time>
      </trkpt>
      <trkpt lat="45.3602" lon="1.4301">
        <ele>418</ele>
        <time>2011-08-28T10:28:05Z</time>
      </trkpt>
      <trkpt lat="45.36025" lon="1.43011">
        <ele>419</ele>
        <time>2011-08-28T10:28:06Z</time>
      </trkpt>
      <trkpt lat="45.36029" lon="1.43012">
        <ele>420</ele>
        <time>2011-08-28T10:28:07Z</time>
      </trkpt>
      <trkpt lat="45.36037" lon="1.43012">
        <ele>418</ele>
        <time>2011-08-28T10:28:09Z</time>
      </trkpt>
      <trkpt lat="45.36044" lon="1.43011">
        <ele>415</ele>
        <time>2011-08-28T10:28:11Z</time>
      </trkpt>
      <trkpt lat="45.3605" lon="1.43009">
        <ele>421</ele>
        <time>2011-08-28T10:28:13Z</time>
      </trkpt>
      <trkpt lat="45.36057" lon="1.43007">
        <ele>423</ele>
        <time>2011-08-28T10:28:15Z</time>
      </trkpt>
      <trkpt lat="45.36063" lon="1.43006">
        <ele>425</ele>
        <time>2011-08-28T10:28:17Z</time>
      </trkpt>
      <trkpt lat="45.36068" lon="1.43006">
        <ele>421</ele>
        <time>2011-08-28T10:28:19Z</time>
      </trkpt>
      <trkpt lat="45.36072" lon="1.43005">
        <ele>420</ele>
        <time>2011-08-28T10:28:22Z</time>
      </trkpt>
      <trkpt lat="45.36077" lon="1.43005">
        <ele>426</ele>
        <time>2011-08-28T10:28:24Z</time>
      </trkpt>
      <trkpt lat="45.36084" lon="1.43003">
        <ele>423</ele>
        <time>2011-08-28T10:28:27Z</time>
      </trkpt>
      <trkpt lat="45.3609" lon="1.43">
        <ele>423</ele>
        <time>2011-08-28T10:28:29Z</time>
      </trkpt>
      <trkpt lat="45.36095" lon="1.42999">
        <ele>423</ele>
        <time>2011-08-28T10:28:31Z</time>
      </trkpt>
      <trkpt lat="45.36101" lon="1.42999">
        <ele>425</ele>
        <time>2011-08-28T10:28:33Z</time>
      </trkpt>
      <trkpt lat="45.36106" lon="1.42998">
        <ele>418</ele>
        <time>2011-08-28T10:28:35Z</time>
      </trkpt>
      <trkpt lat="45.36111" lon="1.42998">
        <ele>421</ele>
        <time>2011-08-28T10:28:37Z</time>
      </trkpt>
      <trkpt lat="45.36116" lon="1.42999">
        <ele>425</ele>
        <time>2011-08-28T10:28:39Z</time>
      </trkpt>
      <trkpt lat="45.3612" lon="1.43002">
        <ele>421</ele>
        <time>2011-08-28T10:28:41Z</time>
      </trkpt>
      <trkpt lat="45.36126" lon="1.43003">
        <ele>425</ele>
        <time>2011-08-28T10:28:44Z</time>
      </trkpt>
      <trkpt lat="45.36132" lon="1.43002">
        <ele>429</ele>
        <time>2011-08-28T10:28:47Z</time>
      </trkpt>
      <trkpt lat="45.36136" lon="1.42999">
        <ele>427</ele>
        <time>2011-08-28T10:28:53Z</time>
      </trkpt>
      <trkpt lat="45.36137" lon="1.42992">
        <ele>435</ele>
        <time>2011-08-28T10:29:03Z</time>
      </trkpt>
      <trkpt lat="45.36138" lon="1.42999">
        <ele>432</ele>
        <time>2011-08-28T10:29:24Z</time>
      </trkpt>
      <trkpt lat="45.36143" lon="1.43001">
        <ele>422</ele>
        <time>2011-08-28T10:29:56Z</time>
      </trkpt>
      <trkpt lat="45.36146" lon="1.42995">
        <ele>423</ele>
        <time>2011-08-28T10:30:00Z</time>
      </trkpt>
      <trkpt lat="45.36149" lon="1.42986">
        <ele>424</ele>
        <time>2011-08-28T10:30:02Z</time>
      </trkpt>
      <trkpt lat="45.36152" lon="1.42977">
        <ele>426</ele>
        <time>2011-08-28T10:30:04Z</time>
      </trkpt>
      <trkpt lat="45.36153" lon="1.42967">
        <ele>430</ele>
        <time>2011-08-28T10:30:06Z</time>
      </trkpt>
      <trkpt lat="45.36155" lon="1.42956">
        <ele>429</ele>
        <time>2011-08-28T10:30:08Z</time>
      </trkpt>
      <trkpt lat="45.36157" lon="1.42944">
        <ele>429</ele>
        <time>2011-08-28T10:30:10Z</time>
      </trkpt>
      <trkpt lat="45.36158" lon="1.42933">
        <ele>430</ele>
        <time>2011-08-28T10:30:12Z</time>
      </trkpt>
      <trkpt lat="45.3616" lon="1.42922">
        <ele>430</ele>
        <time>2011-08-28T10:30:14Z</time>
      </trkpt>
      <trkpt lat="45.36163" lon="1.42912">
        <ele>430</ele>
        <time>2011-08-28T10:30:16Z</time>
      </trkpt>
      <trkpt lat="45.36166" lon="1.42902">
        <ele>432</ele>
        <time>2011-08-28T10:30:18Z</time>
      </trkpt>
      <trkpt lat="45.36169" lon="1.4289">
        <ele>429</ele>
        <time>2011-08-28T10:30:20Z</time>
      </trkpt>
      <trkpt lat="45.36172" lon="1.4288">
        <ele>428</ele>
        <time>2011-08-28T10:30:22Z</time>
      </trkpt>
      <trkpt lat="45.36176" lon="1.42869">
        <ele>424</ele>
        <time>2011-08-28T10:30:24Z</time>
      </trkpt>
      <trkpt lat="45.36181" lon="1.4286">
        <ele>424</ele>
        <time>2011-08-28T10:30:26Z</time>
      </trkpt>
      <trkpt lat="45.3618" lon="1.42866">
        <ele>421</ele>
        <time>2011-08-28T10:30:46Z</time>
      </trkpt>
      <trkpt lat="45.36184" lon="1.42868">
        <ele>424</ele>
        <time>2011-08-28T10:30:53Z</time>
      </trkpt>
      <trkpt lat="45.36189" lon="1.42868">
        <ele>428</ele>
        <time>2011-08-28T10:30:56Z</time>
      </trkpt>
      <trkpt lat="45.36194" lon="1.42871">
        <ele>428</ele>
        <time>2011-08-28T10:30:59Z</time>
      </trkpt>
      <trkpt lat="45.362" lon="1.42874">
        <ele>427</ele>
        <time>2011-08-28T10:31:02Z</time>
      </trkpt>
      <trkpt lat="45.36204" lon="1.42876">
        <ele>426</ele>
        <time>2011-08-28T10:31:04Z</time>
      </trkpt>
      <trkpt lat="45.36208" lon="1.42878">
        <ele>429</ele>
        <time>2011-08-28T10:31:06Z</time>
      </trkpt>
      <trkpt lat="45.36212" lon="1.4288">
        <ele>430</ele>
        <time>2011-08-28T10:31:08Z</time>
      </trkpt>
      <trkpt lat="45.36219" lon="1.42883">
        <ele>429</ele>
        <time>2011-08-28T10:31:11Z</time>
      </trkpt>
      <trkpt lat="45.36224" lon="1.42886">
        <ele>432</ele>
        <time>2011-08-28T10:31:14Z</time>
      </trkpt>
      <trkpt lat="45.3623" lon="1.42887">
        <ele>431</ele>
        <time>2011-08-28T10:31:17Z</time>
      </trkpt>
      <trkpt lat="45.36236" lon="1.42888">
        <ele>432</ele>
        <time>2011-08-28T10:31:20Z</time>
      </trkpt>
      <trkpt lat="45.36242" lon="1.42886">
        <ele>433</ele>
        <time>2011-08-28T10:31:23Z</time>
      </trkpt>
      <trkpt lat="45.36247" lon="1.42882">
        <ele>432</ele>
        <time>2011-08-28T10:31:26Z</time>
      </trkpt>
      <trkpt lat="45.36252" lon="1.42877">
        <ele>434</ele>
        <time>2011-08-28T10:31:29Z</time>
      </trkpt>
      <trkpt lat="45.36257" lon="1.42872">
        <ele>434</ele>
        <time>2011-08-28T10:31:32Z</time>
      </trkpt>
      <trkpt lat="45.36264" lon="1.42869">
        <ele>436</ele>
        <time>2011-08-28T10:31:35Z</time>
      </trkpt>
      <trkpt lat="45.36271" lon="1.42867">
        <ele>435</ele>
        <time>2011-08-28T10:31:39Z</time>
      </trkpt>
      <trkpt lat="45.36277" lon="1.42866">
        <ele>439</ele>
        <time>2011-08-28T10:31:42Z</time>
      </trkpt>
      <trkpt lat="45.36282" lon="1.42865">
        <ele>438</ele>
        <time>2011-08-28T10:31:44Z</time>
      </trkpt>
      <trkpt lat="45.36288" lon="1.42863">
        <ele>435</ele>
        <time>2011-08-28T10:31:46Z</time>
      </trkpt>
      <trkpt lat="45.36292" lon="1.42862">
        <ele>434</ele>
        <time>2011-08-28T10:31:47Z</time>
      </trkpt>
      <trkpt lat="45.36297" lon="1.4286">
        <ele>433</ele>
        <time>2011-08-28T10:31:48Z</time>
      </trkpt>
      <trkpt lat="45.36301" lon="1.42858">
        <ele>432</ele>
        <time>2011-08-28T10:31:49Z</time>
      </trkpt>
      <trkpt lat="45.36306" lon="1.42854">
        <ele>431</ele>
        <time>2011-08-28T10:31:50Z</time>
      </trkpt>
      <trkpt lat="45.3631" lon="1.4285">
        <ele>431</ele>
        <time>2011-08-28T10:31:51Z</time>
      </trkpt>
      <trkpt lat="45.36314" lon="1.42846">
        <ele>429</ele>
        <time>2011-08-28T10:31:52Z</time>
      </trkpt>
      <trkpt lat="45.36321" lon="1.42838">
        <ele>428</ele>
        <time>2011-08-28T10:31:54Z</time>
      </trkpt>
      <trkpt lat="45.36325" lon="1.42833">
        <ele>425</ele>
        <time>2011-08-28T10:31:55Z</time>
      </trkpt>
      <trkpt lat="45.36328" lon="1.42828">
        <ele>424</ele>
        <time>2011-08-28T10:31:56Z</time>
      </trkpt>
      <trkpt lat="45.36332" lon="1.42823">
        <ele>424</ele>
        <time>2011-08-28T10:31:57Z</time>
      </trkpt>
      <trkpt lat="45.36336" lon="1.42819">
        <ele>421</ele>
        <time>2011-08-28T10:31:58Z</time>
      </trkpt>
      <trkpt lat="45.3634" lon="1.42815">
        <ele>426</ele>
        <time>2011-08-28T10:31:59Z</time>
      </trkpt>
      <trkpt lat="45.36347" lon="1.42807">
        <ele>429</ele>
        <time>2011-08-28T10:32:01Z</time>
      </trkpt>
      <trkpt lat="45.36353" lon="1.42801">
        <ele>426</ele>
        <time>2011-08-28T10:32:03Z</time>
      </trkpt>
      <trkpt lat="45.3636" lon="1.42794">
        <ele>424</ele>
        <time>2011-08-28T10:32:05Z</time>
      </trkpt>
      <trkpt lat="45.36364" lon="1.4279">
        <ele>432</ele>
        <time>2011-08-28T10:32:07Z</time>
      </trkpt>
      <trkpt lat="45.36368" lon="1.42783">
        <ele>431</ele>
        <time>2011-08-28T10:32:10Z</time>
      </trkpt>
      <trkpt lat="45.36372" lon="1.42776">
        <ele>432</ele>
        <time>2011-08-28T10:32:12Z</time>
      </trkpt>
      <trkpt lat="45.36375" lon="1.4277">
        <ele>432</ele>
        <time>2011-08-28T10:32:14Z</time>
      </trkpt>
      <trkpt lat="45.36378" lon="1.42764">
        <ele>430</ele>
        <time>2011-08-28T10:32:16Z</time>
      </trkpt>
      <trkpt lat="45.36382" lon="1.42757">
        <ele>433</ele>
        <time>2011-08-28T10:32:18Z</time>
      </trkpt>
      <trkpt lat="45.36386" lon="1.42749">
        <ele>431</ele>
        <time>2011-08-28T10:32:20Z</time>
      </trkpt>
      <trkpt lat="45.36392" lon="1.42739">
        <ele>431</ele>
        <time>2011-08-28T10:32:22Z</time>
      </trkpt>
      <trkpt lat="45.36396" lon="1.42733">
        <ele>431</ele>
        <time>2011-08-28T10:32:23Z</time>
      </trkpt>
      <trkpt lat="45.364" lon="1.42726">
        <ele>431</ele>
        <time>2011-08-28T10:32:24Z</time>
      </trkpt>
      <trkpt lat="45.36404" lon="1.42719">
        <ele>430</ele>
        <time>2011-08-28T10:32:25Z</time>
      </trkpt>
      <trkpt lat="45.36408" lon="1.42712">
        <ele>431</ele>
        <time>2011-08-28T10:32:26Z</time>
      </trkpt>
      <trkpt lat="45.36411" lon="1.42704">
        <ele>432</ele>
        <time>2011-08-28T10:32:27Z</time>
      </trkpt>
      <trkpt lat="45.36413" lon="1.42697">
        <ele>432</ele>
        <time>2011-08-28T10:32:28Z</time>
      </trkpt>
      <trkpt lat="45.36415" lon="1.4269">
        <ele>431</ele>
        <time>2011-08-28T10:32:29Z</time>
      </trkpt>
      <trkpt lat="45.36418" lon="1.42679">
        <ele>431</ele>
        <time>2011-08-28T10:32:31Z</time>
      </trkpt>
      <trkpt lat="45.3642" lon="1.4267">
        <ele>431</ele>
        <time>2011-08-28T10:32:33Z</time>
      </trkpt>
      <trkpt lat="45.36422" lon="1.42662">
        <ele>432</ele>
        <time>2011-08-28T10:32:36Z</time>
      </trkpt>
      <trkpt lat="45.36425" lon="1.42656">
        <ele>433</ele>
        <time>2011-08-28T10:32:40Z</time>
      </trkpt>
      <trkpt lat="45.3643" lon="1.42654">
        <ele>438</ele>
        <time>2011-08-28T10:32:57Z</time>
      </trkpt>
      <trkpt lat="45.36435" lon="1.42653">
        <ele>439</ele>
        <time>2011-08-28T10:33:47Z</time>
      </trkpt>
      <trkpt lat="45.36441" lon="1.42652">
        <ele>438</ele>
        <time>2011-08-28T10:33:50Z</time>
      </trkpt>
      <trkpt lat="45.36448" lon="1.42648">
        <ele>444</ele>
        <time>2011-08-28T10:33:53Z</time>
      </trkpt>
      <trkpt lat="45.36453" lon="1.42646">
        <ele>444</ele>
        <time>2011-08-28T10:33:55Z</time>
      </trkpt>
      <trkpt lat="45.36458" lon="1.42642">
        <ele>438</ele>
        <time>2011-08-28T10:33:57Z</time>
      </trkpt>
      <trkpt lat="45.36464" lon="1.42639">
        <ele>443</ele>
        <time>2011-08-28T10:33:59Z</time>
      </trkpt>
      <trkpt lat="45.36469" lon="1.42636">
        <ele>441</ele>
        <time>2011-08-28T10:34:01Z</time>
      </trkpt>
      <trkpt lat="45.36474" lon="1.42633">
        <ele>445</ele>
        <time>2011-08-28T10:34:03Z</time>
      </trkpt>
      <trkpt lat="45.36478" lon="1.42628">
        <ele>447</ele>
        <time>2011-08-28T10:34:05Z</time>
      </trkpt>
      <trkpt lat="45.36484" lon="1.42625">
        <ele>447</ele>
        <time>2011-08-28T10:34:07Z</time>
      </trkpt>
      <trkpt lat="45.3649" lon="1.42622">
        <ele>447</ele>
        <time>2011-08-28T10:34:09Z</time>
      </trkpt>
      <trkpt lat="45.36496" lon="1.42617">
        <ele>447</ele>
        <time>2011-08-28T10:34:11Z</time>
      </trkpt>
      <trkpt lat="45.36502" lon="1.42614">
        <ele>447</ele>
        <time>2011-08-28T10:34:13Z</time>
      </trkpt>
      <trkpt lat="45.36509" lon="1.4261">
        <ele>446</ele>
        <time>2011-08-28T10:34:15Z</time>
      </trkpt>
      <trkpt lat="45.36515" lon="1.42606">
        <ele>447</ele>
        <time>2011-08-28T10:34:17Z</time>
      </trkpt>
      <trkpt lat="45.36521" lon="1.42602">
        <ele>447</ele>
        <time>2011-08-28T10:34:19Z</time>
      </trkpt>
      <trkpt lat="45.36528" lon="1.42597">
        <ele>446</ele>
        <time>2011-08-28T10:34:21Z</time>
      </trkpt>
      <trkpt lat="45.36534" lon="1.42592">
        <ele>445</ele>
        <time>2011-08-28T10:34:23Z</time>
      </trkpt>
      <trkpt lat="45.36538" lon="1.42585">
        <ele>444</ele>
        <time>2011-08-28T10:34:25Z</time>
      </trkpt>
      <trkpt lat="45.36543" lon="1.42578">
        <ele>443</ele>
        <time>2011-08-28T10:34:27Z</time>
      </trkpt>
      <trkpt lat="45.36546" lon="1.42569">
        <ele>444</ele>
        <time>2011-08-28T10:34:29Z</time>
      </trkpt>
      <trkpt lat="45.36549" lon="1.42561">
        <ele>444</ele>
        <time>2011-08-28T10:34:31Z</time>
      </trkpt>
      <trkpt lat="45.36553" lon="1.4255">
        <ele>442</ele>
        <time>2011-08-28T10:34:33Z</time>
      </trkpt>
      <trkpt lat="45.36557" lon="1.4254">
        <ele>441</ele>
        <time>2011-08-28T10:34:35Z</time>
      </trkpt>
      <trkpt lat="45.36561" lon="1.4253">
        <ele>442</ele>
        <time>2011-08-28T10:34:37Z</time>
      </trkpt>
      <trkpt lat="45.36567" lon="1.42522">
        <ele>444</ele>
        <time>2011-08-28T10:34:39Z</time>
      </trkpt>
      <trkpt lat="45.36573" lon="1.42514">
        <ele>444</ele>
        <time>2011-08-28T10:34:41Z</time>
      </trkpt>
      <trkpt lat="45.3658" lon="1.42508">
        <ele>444</ele>
        <time>2011-08-28T10:34:43Z</time>
      </trkpt>
      <trkpt lat="45.36585" lon="1.42501">
        <ele>445</ele>
        <time>2011-08-28T10:34:45Z</time>
      </trkpt>
      <trkpt lat="45.36592" lon="1.42495">
        <ele>445</ele>
        <time>2011-08-28T10:34:47Z</time>
      </trkpt>
      <trkpt lat="45.36598" lon="1.42487">
        <ele>445</ele>
        <time>2011-08-28T10:34:49Z</time>
      </trkpt>
      <trkpt lat="45.36604" lon="1.42479">
        <ele>446</ele>
        <time>2011-08-28T10:34:51Z</time>
      </trkpt>
      <trkpt lat="45.3661" lon="1.42472">
        <ele>446</ele>
        <time>2011-08-28T10:34:53Z</time>
      </trkpt>
      <trkpt lat="45.36615" lon="1.42466">
        <ele>447</ele>
        <time>2011-08-28T10:34:55Z</time>
      </trkpt>
      <trkpt lat="45.3662" lon="1.42462">
        <ele>448</ele>
        <time>2011-08-28T10:34:57Z</time>
      </trkpt>
      <trkpt lat="45.36626" lon="1.42456">
        <ele>448</ele>
        <time>2011-08-28T10:34:59Z</time>
      </trkpt>
      <trkpt lat="45.36632" lon="1.4245">
        <ele>449</ele>
        <time>2011-08-28T10:35:01Z</time>
      </trkpt>
      <trkpt lat="45.36636" lon="1.42445">
        <ele>449</ele>
        <time>2011-08-28T10:35:03Z</time>
      </trkpt>
      <trkpt lat="45.36639" lon="1.4244">
        <ele>449</ele>
        <time>2011-08-28T10:35:05Z</time>
      </trkpt>
      <trkpt lat="45.36644" lon="1.42434">
        <ele>451</ele>
        <time>2011-08-28T10:35:08Z</time>
      </trkpt>
      <trkpt lat="45.36648" lon="1.42432">
        <ele>452</ele>
        <time>2011-08-28T10:35:10Z</time>
      </trkpt>
      <trkpt lat="45.36653" lon="1.42434">
        <ele>453</ele>
        <time>2011-08-28T10:35:12Z</time>
      </trkpt>
      <trkpt lat="45.36658" lon="1.42436">
        <ele>455</ele>
        <time>2011-08-28T10:35:14Z</time>
      </trkpt>
      <trkpt lat="45.36662" lon="1.42439">
        <ele>455</ele>
        <time>2011-08-28T10:35:17Z</time>
      </trkpt>
      <trkpt lat="45.36664" lon="1.42446">
        <ele>465</ele>
        <time>2011-08-28T10:35:26Z</time>
      </trkpt>
      <trkpt lat="45.36665" lon="1.42453">
        <ele>456</ele>
        <time>2011-08-28T10:35:59Z</time>
      </trkpt>
      <trkpt lat="45.3667" lon="1.42452">
        <ele>455</ele>
        <time>2011-08-28T10:36:07Z</time>
      </trkpt>
      <trkpt lat="45.36674" lon="1.42455">
        <ele>458</ele>
        <time>2011-08-28T10:36:12Z</time>
      </trkpt>
      <trkpt lat="45.36678" lon="1.4246">
        <ele>459</ele>
        <time>2011-08-28T10:36:14Z</time>
      </trkpt>
      <trkpt lat="45.36683" lon="1.42467">
        <ele>462</ele>
        <time>2011-08-28T10:36:16Z</time>
      </trkpt>
      <trkpt lat="45.36689" lon="1.42474">
        <ele>464</ele>
        <time>2011-08-28T10:36:18Z</time>
      </trkpt>
      <trkpt lat="45.36695" lon="1.42481">
        <ele>465</ele>
        <time>2011-08-28T10:36:20Z</time>
      </trkpt>
      <trkpt lat="45.367" lon="1.42487">
        <ele>466</ele>
        <time>2011-08-28T10:36:22Z</time>
      </trkpt>
      <trkpt lat="45.36706" lon="1.42495">
        <ele>465</ele>
        <time>2011-08-28T10:36:24Z</time>
      </trkpt>
      <trkpt lat="45.36712" lon="1.42503">
        <ele>465</ele>
        <time>2011-08-28T10:36:26Z</time>
      </trkpt>
      <trkpt lat="45.36718" lon="1.4251">
        <ele>468</ele>
        <time>2011-08-28T10:36:28Z</time>
      </trkpt>
      <trkpt lat="45.36723" lon="1.42515">
        <ele>469</ele>
        <time>2011-08-28T10:36:30Z</time>
      </trkpt>
      <trkpt lat="45.36727" lon="1.42522">
        <ele>470</ele>
        <time>2011-08-28T10:36:32Z</time>
      </trkpt>
      <trkpt lat="45.36732" lon="1.42529">
        <ele>469</ele>
        <time>2011-08-28T10:36:34Z</time>
      </trkpt>
      <trkpt lat="45.36738" lon="1.42535">
        <ele>471</ele>
        <time>2011-08-28T10:36:36Z</time>
      </trkpt>
      <trkpt lat="45.36744" lon="1.42542">
        <ele>468</ele>
        <time>2011-08-28T10:36:38Z</time>
      </trkpt>
      <trkpt lat="45.3675" lon="1.42548">
        <ele>463</ele>
        <time>2011-08-28T10:36:40Z</time>
      </trkpt>
      <trkpt lat="45.36757" lon="1.42553">
        <ele>464</ele>
        <time>2011-08-28T10:36:42Z</time>
      </trkpt>
      <trkpt lat="45.36763" lon="1.42557">
        <ele>464</ele>
        <time>2011-08-28T10:36:44Z</time>
      </trkpt>
      <trkpt lat="45.36768" lon="1.42561">
        <ele>465</ele>
        <time>2011-08-28T10:36:46Z</time>
      </trkpt>
      <trkpt lat="45.36774" lon="1.42565">
        <ele>464</ele>
        <time>2011-08-28T10:36:48Z</time>
      </trkpt>
      <trkpt lat="45.36781" lon="1.42568">
        <ele>468</ele>
        <time>2011-08-28T10:36:50Z</time>
      </trkpt>
      <trkpt lat="45.36788" lon="1.42572">
        <ele>470</ele>
        <time>2011-08-28T10:36:52Z</time>
      </trkpt>
      <trkpt lat="45.36794" lon="1.42576">
        <ele>474</ele>
        <time>2011-08-28T10:36:54Z</time>
      </trkpt>
      <trkpt lat="45.36801" lon="1.4258">
        <ele>477</ele>
        <time>2011-08-28T10:36:56Z</time>
      </trkpt>
      <trkpt lat="45.36807" lon="1.42584">
        <ele>480</ele>
        <time>2011-08-28T10:36:58Z</time>
      </trkpt>
      <trkpt lat="45.36812" lon="1.42587">
        <ele>482</ele>
        <time>2011-08-28T10:37:00Z</time>
      </trkpt>
      <trkpt lat="45.36818" lon="1.4259">
        <ele>483</ele>
        <time>2011-08-28T10:37:02Z</time>
      </trkpt>
      <trkpt lat="45.36823" lon="1.42592">
        <ele>486</ele>
        <time>2011-08-28T10:37:04Z</time>
      </trkpt>
      <trkpt lat="45.36828" lon="1.42596">
        <ele>482</ele>
        <time>2011-08-28T10:37:06Z</time>
      </trkpt>
      <trkpt lat="45.36834" lon="1.426">
        <ele>480</ele>
        <time>2011-08-28T10:37:08Z</time>
      </trkpt>
      <trkpt lat="45.3684" lon="1.42603">
        <ele>482</ele>
        <time>2011-08-28T10:37:10Z</time>
      </trkpt>
      <trkpt lat="45.36845" lon="1.42607">
        <ele>485</ele>
        <time>2011-08-28T10:37:12Z</time>
      </trkpt>
      <trkpt lat="45.36851" lon="1.42611">
        <ele>477</ele>
        <time>2011-08-28T10:37:14Z</time>
      </trkpt>
      <trkpt lat="45.36857" lon="1.42616">
        <ele>473</ele>
        <time>2011-08-28T10:37:16Z</time>
      </trkpt>
      <trkpt lat="45.36864" lon="1.42621">
        <ele>474</ele>
        <time>2011-08-28T10:37:18Z</time>
      </trkpt>
      <trkpt lat="45.36872" lon="1.42625">
        <ele>476</ele>
        <time>2011-08-28T10:37:20Z</time>
      </trkpt>
      <trkpt lat="45.36879" lon="1.42632">
        <ele>475</ele>
        <time>2011-08-28T10:37:22Z</time>
      </trkpt>
      <trkpt lat="45.36886" lon="1.42636">
        <ele>475</ele>
        <time>2011-08-28T10:37:24Z</time>
      </trkpt>
      <trkpt lat="45.3689" lon="1.4264">
        <ele>473</ele>
        <time>2011-08-28T10:37:25Z</time>
      </trkpt>
      <trkpt lat="45.36894" lon="1.42642">
        <ele>473</ele>
        <time>2011-08-28T10:37:26Z</time>
      </trkpt>
      <trkpt lat="45.36902" lon="1.42649">
        <ele>472</ele>
        <time>2011-08-28T10:37:28Z</time>
      </trkpt>
      <trkpt lat="45.36909" lon="1.42653">
        <ele>469</ele>
        <time>2011-08-28T10:37:30Z</time>
      </trkpt>
      <trkpt lat="45.36913" lon="1.42655">
        <ele>467</ele>
        <time>2011-08-28T10:37:32Z</time>
      </trkpt>
      <trkpt lat="45.36918" lon="1.42661">
        <ele>470</ele>
        <time>2011-08-28T10:37:35Z</time>
      </trkpt>
      <trkpt lat="45.36924" lon="1.42667">
        <ele>467</ele>
        <time>2011-08-28T10:37:37Z</time>
      </trkpt>
      <trkpt lat="45.36933" lon="1.42675">
        <ele>465</ele>
        <time>2011-08-28T10:37:39Z</time>
      </trkpt>
      <trkpt lat="45.36938" lon="1.42679">
        <ele>463</ele>
        <time>2011-08-28T10:37:40Z</time>
      </trkpt>
      <trkpt lat="45.36942" lon="1.42682">
        <ele>465</ele>
        <time>2011-08-28T10:37:41Z</time>
      </trkpt>
      <trkpt lat="45.3695" lon="1.42686">
        <ele>462</ele>
        <time>2011-08-28T10:37:43Z</time>
      </trkpt>
      <trkpt lat="45.36957" lon="1.42691">
        <ele>460</ele>
        <time>2011-08-28T10:37:45Z</time>
      </trkpt>
      <trkpt lat="45.36964" lon="1.42698">
        <ele>464</ele>
        <time>2011-08-28T10:37:47Z</time>
      </trkpt>
      <trkpt lat="45.36971" lon="1.42704">
        <ele>463</ele>
        <time>2011-08-28T10:37:49Z</time>
      </trkpt>
      <trkpt lat="45.36978" lon="1.42711">
        <ele>467</ele>
        <time>2011-08-28T10:37:51Z</time>
      </trkpt>
      <trkpt lat="45.36984" lon="1.42716">
        <ele>464</ele>
        <time>2011-08-28T10:37:53Z</time>
      </trkpt>
      <trkpt lat="45.3699" lon="1.42721">
        <ele>459</ele>
        <time>2011-08-28T10:37:55Z</time>
      </trkpt>
      <trkpt lat="45.36997" lon="1.42727">
        <ele>460</ele>
        <time>2011-08-28T10:37:57Z</time>
      </trkpt>
      <trkpt lat="45.37004" lon="1.42732">
        <ele>461</ele>
        <time>2011-08-28T10:37:59Z</time>
      </trkpt>
      <trkpt lat="45.3701" lon="1.42736">
        <ele>459</ele>
        <time>2011-08-28T10:38:01Z</time>
      </trkpt>
      <trkpt lat="45.37016" lon="1.4274">
        <ele>458</ele>
        <time>2011-08-28T10:38:03Z</time>
      </trkpt>
      <trkpt lat="45.37021" lon="1.42742">
        <ele>459</ele>
        <time>2011-08-28T10:38:05Z</time>
      </trkpt>
      <trkpt lat="45.37027" lon="1.42744">
        <ele>460</ele>
        <time>2011-08-28T10:38:08Z</time>
      </trkpt>
      <trkpt lat="45.37033" lon="1.42746">
        <ele>461</ele>
        <time>2011-08-28T10:38:11Z</time>
      </trkpt>
      <trkpt lat="45.37039" lon="1.42742">
        <ele>442</ele>
        <time>2011-08-28T10:39:11Z</time>
      </trkpt>
      <trkpt lat="45.37043" lon="1.42745">
        <ele>454</ele>
        <time>2011-08-28T10:39:47Z</time>
      </trkpt>
      <trkpt lat="45.37044" lon="1.42752">
        <ele>455</ele>
        <time>2011-08-28T10:39:51Z</time>
      </trkpt>
      <trkpt lat="45.37048" lon="1.42757">
        <ele>451</ele>
        <time>2011-08-28T10:39:54Z</time>
      </trkpt>
      <trkpt lat="45.37052" lon="1.42763">
        <ele>451</ele>
        <time>2011-08-28T10:39:56Z</time>
      </trkpt>
      <trkpt lat="45.37057" lon="1.42768">
        <ele>453</ele>
        <time>2011-08-28T10:39:58Z</time>
      </trkpt>
      <trkpt lat="45.37064" lon="1.42774">
        <ele>458</ele>
        <time>2011-08-28T10:40:00Z</time>
      </trkpt>
      <trkpt lat="45.37068" lon="1.42777">
        <ele>458</ele>
        <time>2011-08-28T10:40:01Z</time>
      </trkpt>
      <trkpt lat="45.37073" lon="1.4278">
        <ele>459</ele>
        <time>2011-08-28T10:40:02Z</time>
      </trkpt>
      <trkpt lat="45.3708" lon="1.42786">
        <ele>461</ele>
        <time>2011-08-28T10:40:04Z</time>
      </trkpt>
      <trkpt lat="45.37087" lon="1.42791">
        <ele>462</ele>
        <time>2011-08-28T10:40:06Z</time>
      </trkpt>
      <trkpt lat="45.37094" lon="1.42795">
        <ele>461</ele>
        <time>2011-08-28T10:40:08Z</time>
      </trkpt>
      <trkpt lat="45.371" lon="1.42801">
        <ele>463</ele>
        <time>2011-08-28T10:40:10Z</time>
      </trkpt>
      <trkpt lat="45.37107" lon="1.42805">
        <ele>463</ele>
        <time>2011-08-28T10:40:12Z</time>
      </trkpt>
      <trkpt lat="45.37113" lon="1.4281">
        <ele>463</ele>
        <time>2011-08-28T10:40:14Z</time>
      </trkpt>
      <trkpt lat="45.37119" lon="1.42817">
        <ele>466</ele>
        <time>2011-08-28T10:40:16Z</time>
      </trkpt>
      <trkpt lat="45.37124" lon="1.42824">
        <ele>464</ele>
        <time>2011-08-28T10:40:18Z</time>
      </trkpt>
      <trkpt lat="45.37128" lon="1.42829">
        <ele>469</ele>
        <time>2011-08-28T10:40:21Z</time>
      </trkpt>
      <trkpt lat="45.37133" lon="1.42833">
        <ele>466</ele>
        <time>2011-08-28T10:40:25Z</time>
      </trkpt>
      <trkpt lat="45.37137" lon="1.42836">
        <ele>456</ele>
        <time>2011-08-28T10:40:43Z</time>
      </trkpt>
      <trkpt lat="45.37143" lon="1.42838">
        <ele>461</ele>
        <time>2011-08-28T10:40:48Z</time>
      </trkpt>
      <trkpt lat="45.37148" lon="1.42839">
        <ele>460</ele>
        <time>2011-08-28T10:40:50Z</time>
      </trkpt>
      <trkpt lat="45.37153" lon="1.42839">
        <ele>460</ele>
        <time>2011-08-28T10:40:52Z</time>
      </trkpt>
      <trkpt lat="45.37158" lon="1.42842">
        <ele>460</ele>
        <time>2011-08-28T10:40:54Z</time>
      </trkpt>
      <trkpt lat="45.37163" lon="1.42844">
        <ele>462</ele>
        <time>2011-08-28T10:40:56Z</time>
      </trkpt>
      <trkpt lat="45.3717" lon="1.42846">
        <ele>466</ele>
        <time>2011-08-28T10:40:58Z</time>
      </trkpt>
      <trkpt lat="45.37176" lon="1.42848">
        <ele>469</ele>
        <time>2011-08-28T10:41:00Z</time>
      </trkpt>
      <trkpt lat="45.37182" lon="1.42849">
        <ele>469</ele>
        <time>2011-08-28T10:41:02Z</time>
      </trkpt>
      <trkpt lat="45.37188" lon="1.4285">
        <ele>469</ele>
        <time>2011-08-28T10:41:04Z</time>
      </trkpt>
      <trkpt lat="45.37195" lon="1.42852">
        <ele>470</ele>
        <time>2011-08-28T10:41:06Z</time>
      </trkpt>
      <trkpt lat="45.37201" lon="1.42853">
        <ele>472</ele>
        <time>2011-08-28T10:41:08Z</time>
      </trkpt>
      <trkpt lat="45.37208" lon="1.42854">
        <ele>471</ele>
        <time>2011-08-28T10:41:10Z</time>
      </trkpt>
      <trkpt lat="45.37214" lon="1.42855">
        <ele>473</ele>
        <time>2011-08-28T10:41:12Z</time>
      </trkpt>
      <trkpt lat="45.37221" lon="1.42857">
        <ele>471</ele>
        <time>2011-08-28T10:41:14Z</time>
      </trkpt>
      <trkpt lat="45.37229" lon="1.42859">
        <ele>472</ele>
        <time>2011-08-28T10:41:16Z</time>
      </trkpt>
      <trkpt lat="45.37236" lon="1.42861">
        <ele>473</ele>
        <time>2011-08-28T10:41:18Z</time>
      </trkpt>
      <trkpt lat="45.37242" lon="1.42863">
        <ele>472</ele>
        <time>2011-08-28T10:41:20Z</time>
      </trkpt>
      <trkpt lat="45.37248" lon="1.42864">
        <ele>477</ele>
        <time>2011-08-28T10:41:22Z</time>
      </trkpt>
      <trkpt lat="45.37253" lon="1.42865">
        <ele>477</ele>
        <time>2011-08-28T10:41:24Z</time>
      </trkpt>
      <trkpt lat="45.37258" lon="1.42866">
        <ele>477</ele>
        <time>2011-08-28T10:41:26Z</time>
      </trkpt>
      <trkpt lat="45.37262" lon="1.42867">
        <ele>478</ele>
        <time>2011-08-28T10:41:28Z</time>
      </trkpt>
      <trkpt lat="45.37269" lon="1.42867">
        <ele>473</ele>
        <time>2011-08-28T10:41:30Z</time>
      </trkpt>
      <trkpt lat="45.37274" lon="1.42868">
        <ele>473</ele>
        <time>2011-08-28T10:41:33Z</time>
      </trkpt>
      <trkpt lat="45.3728" lon="1.42869">
        <ele>472</ele>
        <time>2011-08-28T10:41:36Z</time>
      </trkpt>
      <trkpt lat="45.37285" lon="1.4287">
        <ele>474</ele>
        <time>2011-08-28T10:41:39Z</time>
      </trkpt>
      <trkpt lat="45.37292" lon="1.42872">
        <ele>473</ele>
        <time>2011-08-28T10:41:42Z</time>
      </trkpt>
      <trkpt lat="45.37297" lon="1.42873">
        <ele>472</ele>
        <time>2011-08-28T10:41:44Z</time>
      </trkpt>
      <trkpt lat="45.37303" lon="1.42872">
        <ele>467</ele>
        <time>2011-08-28T10:41:46Z</time>
      </trkpt>
      <trkpt lat="45.37308" lon="1.42868">
        <ele>467</ele>
        <time>2011-08-28T10:41:49Z</time>
      </trkpt>
      <trkpt lat="45.37312" lon="1.42863">
        <ele>466</ele>
        <time>2011-08-28T10:41:55Z</time>
      </trkpt>
      <trkpt lat="45.37314" lon="1.42856">
        <ele>471</ele>
        <time>2011-08-28T10:42:01Z</time>
      </trkpt>
      <trkpt lat="45.37316" lon="1.4285">
        <ele>474</ele>
        <time>2011-08-28T10:42:08Z</time>
      </trkpt>
      <trkpt lat="45.37319" lon="1.42843">
        <ele>473</ele>
        <time>2011-08-28T10:42:12Z</time>
      </trkpt>
      <trkpt lat="45.37324" lon="1.42835">
        <ele>480</ele>
        <time>2011-08-28T10:42:15Z</time>
      </trkpt>
      <trkpt lat="45.37327" lon="1.42829">
        <ele>478</ele>
        <time>2011-08-28T10:42:17Z</time>
      </trkpt>
      <trkpt lat="45.3733" lon="1.42823">
        <ele>477</ele>
        <time>2011-08-28T10:42:19Z</time>
      </trkpt>
      <trkpt lat="45.37335" lon="1.42816">
        <ele>478</ele>
        <time>2011-08-28T10:42:22Z</time>
      </trkpt>
      <trkpt lat="45.3734" lon="1.42809">
        <ele>479</ele>
        <time>2011-08-28T10:42:24Z</time>
      </trkpt>
      <trkpt lat="45.37344" lon="1.42803">
        <ele>478</ele>
        <time>2011-08-28T10:42:26Z</time>
      </trkpt>
      <trkpt lat="45.37349" lon="1.42796">
        <ele>481</ele>
        <time>2011-08-28T10:42:28Z</time>
      </trkpt>
      <trkpt lat="45.37354" lon="1.42788">
        <ele>477</ele>
        <time>2011-08-28T10:42:30Z</time>
      </trkpt>
      <trkpt lat="45.37361" lon="1.4278">
        <ele>480</ele>
        <time>2011-08-28T10:42:32Z</time>
      </trkpt>
      <trkpt lat="45.37368" lon="1.42774">
        <ele>486</ele>
        <time>2011-08-28T10:42:34Z</time>
      </trkpt>
      <trkpt lat="45.37372" lon="1.4277">
        <ele>488</ele>
        <time>2011-08-28T10:42:35Z</time>
      </trkpt>
      <trkpt lat="45.37377" lon="1.42765">
        <ele>490</ele>
        <time>2011-08-28T10:42:36Z</time>
      </trkpt>
      <trkpt lat="45.3738" lon="1.42761">
        <ele>485</ele>
        <time>2011-08-28T10:42:37Z</time>
      </trkpt>
      <trkpt lat="45.37384" lon="1.42755">
        <ele>479</ele>
        <time>2011-08-28T10:42:38Z</time>
      </trkpt>
      <trkpt lat="45.37388" lon="1.42751">
        <ele>480</ele>
        <time>2011-08-28T10:42:39Z</time>
      </trkpt>
      <trkpt lat="45.37392" lon="1.42748">
        <ele>477</ele>
        <time>2011-08-28T10:42:40Z</time>
      </trkpt>
      <trkpt lat="45.37397" lon="1.42744">
        <ele>473</ele>
        <time>2011-08-28T10:42:41Z</time>
      </trkpt>
      <trkpt lat="45.37401" lon="1.42739">
        <ele>474</ele>
        <time>2011-08-28T10:42:42Z</time>
      </trkpt>
      <trkpt lat="45.37404" lon="1.42734">
        <ele>474</ele>
        <time>2011-08-28T10:42:43Z</time>
      </trkpt>
      <trkpt lat="45.37407" lon="1.42729">
        <ele>475</ele>
        <time>2011-08-28T10:42:44Z</time>
      </trkpt>
      <trkpt lat="45.3741" lon="1.42723">
        <ele>475</ele>
        <time>2011-08-28T10:42:45Z</time>
      </trkpt>
      <trkpt lat="45.37415" lon="1.42713">
        <ele>472</ele>
        <time>2011-08-28T10:42:47Z</time>
      </trkpt>
      <trkpt lat="45.37418" lon="1.42707">
        <ele>473</ele>
        <time>2011-08-28T10:42:48Z</time>
      </trkpt>
      <trkpt lat="45.37421" lon="1.42702">
        <ele>474</ele>
        <time>2011-08-28T10:42:49Z</time>
      </trkpt>
      <trkpt lat="45.37425" lon="1.42697">
        <ele>477</ele>
        <time>2011-08-28T10:42:50Z</time>
      </trkpt>
      <trkpt lat="45.37428" lon="1.42692">
        <ele>473</ele>
        <time>2011-08-28T10:42:51Z</time>
      </trkpt>
      <trkpt lat="45.37433" lon="1.42682">
        <ele>478</ele>
        <time>2011-08-28T10:42:53Z</time>
      </trkpt>
      <trkpt lat="45.37435" lon="1.42675">
        <ele>478</ele>
        <time>2011-08-28T10:42:54Z</time>
      </trkpt>
      <trkpt lat="45.3744" lon="1.42663">
        <ele>481</ele>
        <time>2011-08-28T10:42:56Z</time>
      </trkpt>
      <trkpt lat="45.37442" lon="1.42656">
        <ele>481</ele>
        <time>2011-08-28T10:42:57Z</time>
      </trkpt>
      <trkpt lat="45.37445" lon="1.42647">
        <ele>482</ele>
        <time>2011-08-28T10:42:58Z</time>
      </trkpt>
      <trkpt lat="45.37449" lon="1.42638">
        <ele>480</ele>
        <time>2011-08-28T10:42:59Z</time>
      </trkpt>
      <trkpt lat="45.37453" lon="1.4263">
        <ele>480</ele>
        <time>2011-08-28T10:43:00Z</time>
      </trkpt>
      <trkpt lat="45.37456" lon="1.42622">
        <ele>477</ele>
        <time>2011-08-28T10:43:01Z</time>
      </trkpt>
      <trkpt lat="45.3746" lon="1.42616">
        <ele>478</ele>
        <time>2011-08-28T10:43:02Z</time>
      </trkpt>
      <trkpt lat="45.37464" lon="1.42609">
        <ele>478</ele>
        <time>2011-08-28T10:43:03Z</time>
      </trkpt>
      <trkpt lat="45.37468" lon="1.42602">
        <ele>476</ele>
        <time>2011-08-28T10:43:04Z</time>
      </trkpt>
      <trkpt lat="45.37472" lon="1.42595">
        <ele>478</ele>
        <time>2011-08-28T10:43:05Z</time>
      </trkpt>
      <trkpt lat="45.37476" lon="1.42586">
        <ele>479</ele>
        <time>2011-08-28T10:43:06Z</time>
      </trkpt>
      <trkpt lat="45.3748" lon="1.42577">
        <ele>479</ele>
        <time>2011-08-28T10:43:07Z</time>
      </trkpt>
      <trkpt lat="45.37483" lon="1.42568">
        <ele>481</ele>
        <time>2011-08-28T10:43:08Z</time>
      </trkpt>
      <trkpt lat="45.37487" lon="1.4256">
        <ele>483</ele>
        <time>2011-08-28T10:43:09Z</time>
      </trkpt>
      <trkpt lat="45.3749" lon="1.42553">
        <ele>482</ele>
        <time>2011-08-28T10:43:10Z</time>
      </trkpt>
      <trkpt lat="45.37494" lon="1.42545">
        <ele>484</ele>
        <time>2011-08-28T10:43:11Z</time>
      </trkpt>
      <trkpt lat="45.37497" lon="1.42537">
        <ele>483</ele>
        <time>2011-08-28T10:43:12Z</time>
      </trkpt>
      <trkpt lat="45.375" lon="1.42529">
        <ele>485</ele>
        <time>2011-08-28T10:43:13Z</time>
      </trkpt>
      <trkpt lat="45.37504" lon="1.42522">
        <ele>486</ele>
        <time>2011-08-28T10:43:14Z</time>
      </trkpt>
      <trkpt lat="45.37507" lon="1.42514">
        <ele>489</ele>
        <time>2011-08-28T10:43:15Z</time>
      </trkpt>
      <trkpt lat="45.3751" lon="1.42506">
        <ele>487</ele>
        <time>2011-08-28T10:43:16Z</time>
      </trkpt>
      <trkpt lat="45.37514" lon="1.42498">
        <ele>491</ele>
        <time>2011-08-28T10:43:17Z</time>
      </trkpt>
      <trkpt lat="45.37517" lon="1.42493">
        <ele>491</ele>
        <time>2011-08-28T10:43:18Z</time>
      </trkpt>
      <trkpt lat="45.37522" lon="1.42485">
        <ele>488</ele>
        <time>2011-08-28T10:43:20Z</time>
      </trkpt>
      <trkpt lat="45.3753" lon="1.42479">
        <ele>472</ele>
        <time>2011-08-28T10:43:22Z</time>
      </trkpt>
      <trkpt lat="45.37534" lon="1.42476">
        <ele>465</ele>
        <time>2011-08-28T10:43:23Z</time>
      </trkpt>
      <trkpt lat="45.37539" lon="1.42473">
        <ele>462</ele>
        <time>2011-08-28T10:43:24Z</time>
      </trkpt>
      <trkpt lat="45.37543" lon="1.42471">
        <ele>461</ele>
        <time>2011-08-28T10:43:25Z</time>
      </trkpt>
      <trkpt lat="45.37548" lon="1.42467">
        <ele>462</ele>
        <time>2011-08-28T10:43:26Z</time>
      </trkpt>
      <trkpt lat="45.37553" lon="1.42463">
        <ele>461</ele>
        <time>2011-08-28T10:43:27Z</time>
      </trkpt>
      <trkpt lat="45.37557" lon="1.42459">
        <ele>461</ele>
        <time>2011-08-28T10:43:28Z</time>
      </trkpt>
      <trkpt lat="45.37561" lon="1.42456">
        <ele>460</ele>
        <time>2011-08-28T10:43:29Z</time>
      </trkpt>
      <trkpt lat="45.37567" lon="1.4245">
        <ele>457</ele>
        <time>2011-08-28T10:43:31Z</time>
      </trkpt>
      <trkpt lat="45.37572" lon="1.42445">
        <ele>455</ele>
        <time>2011-08-28T10:43:33Z</time>
      </trkpt>
      <trkpt lat="45.37577" lon="1.4244">
        <ele>454</ele>
        <time>2011-08-28T10:43:35Z</time>
      </trkpt>
      <trkpt lat="45.37582" lon="1.42434">
        <ele>454</ele>
        <time>2011-08-28T10:43:37Z</time>
      </trkpt>
      <trkpt lat="45.37588" lon="1.42426">
        <ele>454</ele>
        <time>2011-08-28T10:43:39Z</time>
      </trkpt>
      <trkpt lat="45.37592" lon="1.42422">
        <ele>454</ele>
        <time>2011-08-28T10:43:40Z</time>
      </trkpt>
      <trkpt lat="45.37596" lon="1.42417">
        <ele>452</ele>
        <time>2011-08-28T10:43:41Z</time>
      </trkpt>
      <trkpt lat="45.376" lon="1.42413">
        <ele>451</ele>
        <time>2011-08-28T10:43:42Z</time>
      </trkpt>
      <trkpt lat="45.37604" lon="1.42409">
        <ele>450</ele>
        <time>2011-08-28T10:43:43Z</time>
      </trkpt>
      <trkpt lat="45.37607" lon="1.42405">
        <ele>450</ele>
        <time>2011-08-28T10:43:44Z</time>
      </trkpt>
      <trkpt lat="45.37612" lon="1.42401">
        <ele>451</ele>
        <time>2011-08-28T10:43:45Z</time>
      </trkpt>
      <trkpt lat="45.37615" lon="1.42395">
        <ele>451</ele>
        <time>2011-08-28T10:43:46Z</time>
      </trkpt>
      <trkpt lat="45.37618" lon="1.42389">
        <ele>450</ele>
        <time>2011-08-28T10:43:47Z</time>
      </trkpt>
      <trkpt lat="45.37622" lon="1.42384">
        <ele>451</ele>
        <time>2011-08-28T10:43:48Z</time>
      </trkpt>
      <trkpt lat="45.37625" lon="1.42378">
        <ele>452</ele>
        <time>2011-08-28T10:43:49Z</time>
      </trkpt>
      <trkpt lat="45.3763" lon="1.42372">
        <ele>453</ele>
        <time>2011-08-28T10:43:50Z</time>
      </trkpt>
      <trkpt lat="45.37634" lon="1.42367">
        <ele>451</ele>
        <time>2011-08-28T10:43:51Z</time>
      </trkpt>
      <trkpt lat="45.37639" lon="1.42361">
        <ele>455</ele>
        <time>2011-08-28T10:43:52Z</time>
      </trkpt>
      <trkpt lat="45.37644" lon="1.42356">
        <ele>456</ele>
        <time>2011-08-28T10:43:53Z</time>
      </trkpt>
      <trkpt lat="45.37649" lon="1.42351">
        <ele>455</ele>
        <time>2011-08-28T10:43:54Z</time>
      </trkpt>
      <trkpt lat="45.37654" lon="1.42345">
        <ele>454</ele>
        <time>2011-08-28T10:43:55Z</time>
      </trkpt>
      <trkpt lat="45.37659" lon="1.4234">
        <ele>456</ele>
        <time>2011-08-28T10:43:56Z</time>
      </trkpt>
      <trkpt lat="45.37664" lon="1.42337">
        <ele>456</ele>
        <time>2011-08-28T10:43:57Z</time>
      </trkpt>
      <trkpt lat="45.3767" lon="1.42332">
        <ele>452</ele>
        <time>2011-08-28T10:43:59Z</time>
      </trkpt>
      <trkpt lat="45.37672" lon="1.42326">
        <ele>457</ele>
        <time>2011-08-28T10:44:56Z</time>
      </trkpt>
      <trkpt lat="45.37667" lon="1.42328">
        <ele>456</ele>
        <time>2011-08-28T10:44:58Z</time>
      </trkpt>
      <trkpt lat="45.37664" lon="1.42334">
        <ele>451</ele>
        <time>2011-08-28T10:45:00Z</time>
      </trkpt>
      <trkpt lat="45.3766" lon="1.42339">
        <ele>452</ele>
        <time>2011-08-28T10:45:03Z</time>
      </trkpt>
      <trkpt lat="45.37655" lon="1.42344">
        <ele>452</ele>
        <time>2011-08-28T10:45:05Z</time>
      </trkpt>
      <trkpt lat="45.37649" lon="1.4235">
        <ele>452</ele>
        <time>2011-08-28T10:45:07Z</time>
      </trkpt>
      <trkpt lat="45.37643" lon="1.42358">
        <ele>450</ele>
        <time>2011-08-28T10:45:09Z</time>
      </trkpt>
      <trkpt lat="45.37638" lon="1.42367">
        <ele>450</ele>
        <time>2011-08-28T10:45:11Z</time>
      </trkpt>
      <trkpt lat="45.37632" lon="1.42371">
        <ele>450</ele>
        <time>2011-08-28T10:45:13Z</time>
      </trkpt>
      <trkpt lat="45.37626" lon="1.42376">
        <ele>448</ele>
        <time>2011-08-28T10:45:15Z</time>
      </trkpt>
      <trkpt lat="45.37621" lon="1.42384">
        <ele>445</ele>
        <time>2011-08-28T10:45:17Z</time>
      </trkpt>
      <trkpt lat="45.37616" lon="1.42392">
        <ele>447</ele>
        <time>2011-08-28T10:45:56Z</time>
      </trkpt>
      <trkpt lat="45.37609" lon="1.42395">
        <ele>444</ele>
        <time>2011-08-28T10:45:58Z</time>
      </trkpt>
      <trkpt lat="45.376" lon="1.424">
        <ele>445</ele>
        <time>2011-08-28T10:46:00Z</time>
      </trkpt>
      <trkpt lat="45.37596" lon="1.42404">
        <ele>446</ele>
        <time>2011-08-28T10:46:01Z</time>
      </trkpt>
      <trkpt lat="45.37592" lon="1.42408">
        <ele>446</ele>
        <time>2011-08-28T10:46:02Z</time>
      </trkpt>
      <trkpt lat="45.37588" lon="1.42412">
        <ele>448</ele>
        <time>2011-08-28T10:46:03Z</time>
      </trkpt>
      <trkpt lat="45.37584" lon="1.42416">
        <ele>449</ele>
        <time>2011-08-28T10:46:04Z</time>
      </trkpt>
      <trkpt lat="45.3758" lon="1.42425">
        <ele>449</ele>
        <time>2011-08-28T10:46:06Z</time>
      </trkpt>
      <trkpt lat="45.37574" lon="1.42432">
        <ele>448</ele>
        <time>2011-08-28T10:46:08Z</time>
      </trkpt>
      <trkpt lat="45.3757" lon="1.42438">
        <ele>448</ele>
        <time>2011-08-28T10:46:10Z</time>
      </trkpt>
      <trkpt lat="45.37566" lon="1.42444">
        <ele>448</ele>
        <time>2011-08-28T10:46:12Z</time>
      </trkpt>
      <trkpt lat="45.37561" lon="1.4245">
        <ele>450</ele>
        <time>2011-08-28T10:46:14Z</time>
      </trkpt>
      <trkpt lat="45.37557" lon="1.42456">
        <ele>451</ele>
        <time>2011-08-28T10:46:16Z</time>
      </trkpt>
      <trkpt lat="45.37554" lon="1.42461">
        <ele>451</ele>
        <time>2011-08-28T10:46:18Z</time>
      </trkpt>
      <trkpt lat="45.3755" lon="1.42466">
        <ele>449</ele>
        <time>2011-08-28T10:46:20Z</time>
      </trkpt>
      <trkpt lat="45.37547" lon="1.42471">
        <ele>450</ele>
        <time>2011-08-28T10:46:22Z</time>
      </trkpt>
      <trkpt lat="45.37543" lon="1.42476">
        <ele>450</ele>
        <time>2011-08-28T10:46:24Z</time>
      </trkpt>
      <trkpt lat="45.37539" lon="1.42482">
        <ele>450</ele>
        <time>2011-08-28T10:46:26Z</time>
      </trkpt>
      <trkpt lat="45.37534" lon="1.42487">
        <ele>451</ele>
        <time>2011-08-28T10:46:28Z</time>
      </trkpt>
      <trkpt lat="45.3753" lon="1.42493">
        <ele>451</ele>
        <time>2011-08-28T10:46:30Z</time>
      </trkpt>
      <trkpt lat="45.37527" lon="1.42501">
        <ele>452</ele>
        <time>2011-08-28T10:46:32Z</time>
      </trkpt>
      <trkpt lat="45.37522" lon="1.4251">
        <ele>450</ele>
        <time>2011-08-28T10:46:34Z</time>
      </trkpt>
      <trkpt lat="45.37517" lon="1.4252">
        <ele>453</ele>
        <time>2011-08-28T10:46:36Z</time>
      </trkpt>
      <trkpt lat="45.37494" lon="1.4257">
        <ele>452</ele>
        <time>2011-08-28T10:46:48Z</time>
      </trkpt>
      <trkpt lat="45.3749" lon="1.42575">
        <ele>450</ele>
        <time>2011-08-28T10:46:50Z</time>
      </trkpt>
      <trkpt lat="45.37487" lon="1.4258">
        <ele>449</ele>
        <time>2011-08-28T10:46:52Z</time>
      </trkpt>
      <trkpt lat="45.37482" lon="1.42588">
        <ele>450</ele>
        <time>2011-08-28T10:46:56Z</time>
      </trkpt>
      <trkpt lat="45.37479" lon="1.42594">
        <ele>452</ele>
        <time>2011-08-28T10:46:59Z</time>
      </trkpt>
      <trkpt lat="45.37474" lon="1.42601">
        <ele>455</ele>
        <time>2011-08-28T10:47:02Z</time>
      </trkpt>
      <trkpt lat="45.37472" lon="1.42607">
        <ele>457</ele>
        <time>2011-08-28T10:47:05Z</time>
      </trkpt>
      <trkpt lat="45.37469" lon="1.42614">
        <ele>455</ele>
        <time>2011-08-28T10:47:08Z</time>
      </trkpt>
      <trkpt lat="45.37467" lon="1.4262">
        <ele>454</ele>
        <time>2011-08-28T10:47:11Z</time>
      </trkpt>
      <trkpt lat="45.37463" lon="1.42626">
        <ele>455</ele>
        <time>2011-08-28T10:47:14Z</time>
      </trkpt>
      <trkpt lat="45.3746" lon="1.42634">
        <ele>454</ele>
        <time>2011-08-28T10:47:17Z</time>
      </trkpt>
      <trkpt lat="45.37457" lon="1.42641">
        <ele>455</ele>
        <time>2011-08-28T10:47:20Z</time>
      </trkpt>
      <trkpt lat="45.37457" lon="1.42641">
        <ele>455</ele>
        <time>2011-08-28T10:47:20Z</time>
      </trkpt>
      <trkpt lat="45.37457" lon="1.42641">
        <ele>455</ele>
        <time>2011-08-28T10:47:21Z</time>
      </trkpt>
      <trkpt lat="45.3745" lon="1.42653">
        <ele>458</ele>
        <time>2011-08-28T10:47:25Z</time>
      </trkpt>
      <trkpt lat="45.37447" lon="1.42663">
        <ele>457</ele>
        <time>2011-08-28T10:47:28Z</time>
      </trkpt>
      <trkpt lat="45.37447" lon="1.42663">
        <ele>457</ele>
        <time>2011-08-28T10:47:28Z</time>
      </trkpt>
      <trkpt lat="45.37447" lon="1.42663">
        <ele>457</ele>
        <time>2011-08-28T10:47:29Z</time>
      </trkpt>
      <trkpt lat="45.37445" lon="1.42669">
        <ele>457</ele>
        <time>2011-08-28T10:47:30Z</time>
      </trkpt>
      <trkpt lat="45.37442" lon="1.42679">
        <ele>458</ele>
        <time>2011-08-28T10:47:33Z</time>
      </trkpt>
      <trkpt lat="45.37439" lon="1.42687">
        <ele>458</ele>
        <time>2011-08-28T10:47:36Z</time>
      </trkpt>
      <trkpt lat="45.37436" lon="1.42695">
        <ele>463</ele>
        <time>2011-08-28T10:47:40Z</time>
      </trkpt>
      <trkpt lat="45.37432" lon="1.42701">
        <ele>461</ele>
        <time>2011-08-28T10:47:43Z</time>
      </trkpt>
      <trkpt lat="45.37429" lon="1.42707">
        <ele>459</ele>
        <time>2011-08-28T10:47:45Z</time>
      </trkpt>
      <trkpt lat="45.37426" lon="1.42713">
        <ele>458</ele>
        <time>2011-08-28T10:47:47Z</time>
      </trkpt>
      <trkpt lat="45.37421" lon="1.4272">
        <ele>460</ele>
        <time>2011-08-28T10:47:50Z</time>
      </trkpt>
      <trkpt lat="45.37416" lon="1.42728">
        <ele>466</ele>
        <time>2011-08-28T10:47:52Z</time>
      </trkpt>
      <trkpt lat="45.37411" lon="1.42733">
        <ele>467</ele>
        <time>2011-08-28T10:47:54Z</time>
      </trkpt>
      <trkpt lat="45.37406" lon="1.42737">
        <ele>467</ele>
        <time>2011-08-28T10:47:56Z</time>
      </trkpt>
      <trkpt lat="45.37402" lon="1.4274">
        <ele>468</ele>
        <time>2011-08-28T10:47:58Z</time>
      </trkpt>
      <trkpt lat="45.37398" lon="1.42743">
        <ele>469</ele>
        <time>2011-08-28T10:48:00Z</time>
      </trkpt>
      <trkpt lat="45.37392" lon="1.42745">
        <ele>470</ele>
        <time>2011-08-28T10:48:02Z</time>
      </trkpt>
      <trkpt lat="45.37379" lon="1.42757">
        <ele>471</ele>
        <time>2011-08-28T10:48:09Z</time>
      </trkpt>
      <trkpt lat="45.37379" lon="1.42757">
        <ele>471</ele>
        <time>2011-08-28T10:48:09Z</time>
      </trkpt>
      <trkpt lat="45.37379" lon="1.42757">
        <ele>471</ele>
        <time>2011-08-28T10:48:12Z</time>
      </trkpt>
      <trkpt lat="45.37375" lon="1.42762">
        <ele>475</ele>
        <time>2011-08-28T10:48:13Z</time>
      </trkpt>
      <trkpt lat="45.37371" lon="1.42767">
        <ele>475</ele>
        <time>2011-08-28T10:48:15Z</time>
      </trkpt>
      <trkpt lat="45.37367" lon="1.42771">
        <ele>472</ele>
        <time>2011-08-28T10:48:17Z</time>
      </trkpt>
      <trkpt lat="45.37362" lon="1.42775">
        <ele>473</ele>
        <time>2011-08-28T10:48:20Z</time>
      </trkpt>
      <trkpt lat="45.37358" lon="1.42778">
        <ele>459</ele>
        <time>2011-08-28T10:48:25Z</time>
      </trkpt>
      <trkpt lat="45.37362" lon="1.42776">
        <ele>452</ele>
        <time>2011-08-28T10:48:46Z</time>
      </trkpt>
      <trkpt lat="45.37364" lon="1.42784">
        <ele>452</ele>
        <time>2011-08-28T10:49:24Z</time>
      </trkpt>
      <trkpt lat="45.37365" lon="1.42792">
        <ele>455</ele>
        <time>2011-08-28T10:49:28Z</time>
      </trkpt>
      <trkpt lat="45.37362" lon="1.42796">
        <ele>457</ele>
        <time>2011-08-28T10:49:31Z</time>
      </trkpt>
      <trkpt lat="45.37358" lon="1.42798">
        <ele>460</ele>
        <time>2011-08-28T10:49:33Z</time>
      </trkpt>
      <trkpt lat="45.37354" lon="1.42802">
        <ele>460</ele>
        <time>2011-08-28T10:49:36Z</time>
      </trkpt>
      <trkpt lat="45.3735" lon="1.42797">
        <ele>462</ele>
        <time>2011-08-28T10:49:39Z</time>
      </trkpt>
      <trkpt lat="45.37347" lon="1.4279">
        <ele>468</ele>
        <time>2011-08-28T10:49:42Z</time>
      </trkpt>
      <trkpt lat="45.37344" lon="1.42784">
        <ele>469</ele>
        <time>2011-08-28T10:49:44Z</time>
      </trkpt>
      <trkpt lat="45.37339" lon="1.42777">
        <ele>468</ele>
        <time>2011-08-28T10:49:46Z</time>
      </trkpt>
      <trkpt lat="45.37334" lon="1.42775">
        <ele>469</ele>
        <time>2011-08-28T10:50:44Z</time>
      </trkpt>
      <trkpt lat="45.3734" lon="1.42778">
        <ele>466</ele>
        <time>2011-08-28T10:51:20Z</time>
      </trkpt>
      <trkpt lat="45.37342" lon="1.42786">
        <ele>470</ele>
        <time>2011-08-28T10:51:23Z</time>
      </trkpt>
      <trkpt lat="45.37341" lon="1.42796">
        <ele>472</ele>
        <time>2011-08-28T10:51:25Z</time>
      </trkpt>
      <trkpt lat="45.37345" lon="1.42801">
        <ele>473</ele>
        <time>2011-08-28T10:51:28Z</time>
      </trkpt>
      <trkpt lat="45.3735" lon="1.428">
        <ele>474</ele>
        <time>2011-08-28T10:51:30Z</time>
      </trkpt>
      <trkpt lat="45.37355" lon="1.42795">
        <ele>474</ele>
        <time>2011-08-28T10:51:32Z</time>
      </trkpt>
      <trkpt lat="45.3736" lon="1.4279">
        <ele>472</ele>
        <time>2011-08-28T10:51:34Z</time>
      </trkpt>
      <trkpt lat="45.37364" lon="1.42784">
        <ele>478</ele>
        <time>2011-08-28T10:51:36Z</time>
      </trkpt>
      <trkpt lat="45.37368" lon="1.42773">
        <ele>482</ele>
        <time>2011-08-28T10:51:39Z</time>
      </trkpt>
      <trkpt lat="45.37371" lon="1.42765">
        <ele>482</ele>
        <time>2011-08-28T10:51:41Z</time>
      </trkpt>
      <trkpt lat="45.37373" lon="1.42758">
        <ele>486</ele>
        <time>2011-08-28T10:51:43Z</time>
      </trkpt>
      <trkpt lat="45.37374" lon="1.42751">
        <ele>490</ele>
        <time>2011-08-28T10:51:45Z</time>
      </trkpt>
      <trkpt lat="45.37374" lon="1.42743">
        <ele>488</ele>
        <time>2011-08-28T10:51:47Z</time>
      </trkpt>
      <trkpt lat="45.37375" lon="1.42735">
        <ele>494</ele>
        <time>2011-08-28T10:51:49Z</time>
      </trkpt>
      <trkpt lat="45.37376" lon="1.42726">
        <ele>494</ele>
        <time>2011-08-28T10:51:52Z</time>
      </trkpt>
      <trkpt lat="45.37376" lon="1.42718">
        <ele>486</ele>
        <time>2011-08-28T10:51:54Z</time>
      </trkpt>
      <trkpt lat="45.37374" lon="1.42706">
        <ele>476</ele>
        <time>2011-08-28T10:51:56Z</time>
      </trkpt>
      <trkpt lat="45.37369" lon="1.42697">
        <ele>473</ele>
        <time>2011-08-28T10:51:58Z</time>
      </trkpt>
      <trkpt lat="45.37366" lon="1.42692">
        <ele>472</ele>
        <time>2011-08-28T10:51:59Z</time>
      </trkpt>
      <trkpt lat="45.37364" lon="1.42686">
        <ele>472</ele>
        <time>2011-08-28T10:52:00Z</time>
      </trkpt>
      <trkpt lat="45.37362" lon="1.42678">
        <ele>471</ele>
        <time>2011-08-28T10:52:01Z</time>
      </trkpt>
      <trkpt lat="45.37359" lon="1.42666">
        <ele>471</ele>
        <time>2011-08-28T10:52:03Z</time>
      </trkpt>
      <trkpt lat="45.37358" lon="1.4266">
        <ele>470</ele>
        <time>2011-08-28T10:52:04Z</time>
      </trkpt>
      <trkpt lat="45.37355" lon="1.42654">
        <ele>470</ele>
        <time>2011-08-28T10:52:05Z</time>
      </trkpt>
      <trkpt lat="45.37353" lon="1.42648">
        <ele>468</ele>
        <time>2011-08-28T10:52:06Z</time>
      </trkpt>
      <trkpt lat="45.37351" lon="1.42642">
        <ele>467</ele>
        <time>2011-08-28T10:52:07Z</time>
      </trkpt>
      <trkpt lat="45.37348" lon="1.42636">
        <ele>466</ele>
        <time>2011-08-28T10:52:08Z</time>
      </trkpt>
      <trkpt lat="45.37344" lon="1.42625">
        <ele>464</ele>
        <time>2011-08-28T10:52:10Z</time>
      </trkpt>
      <trkpt lat="45.3734" lon="1.42615">
        <ele>463</ele>
        <time>2011-08-28T10:52:12Z</time>
      </trkpt>
      <trkpt lat="45.37338" lon="1.42609">
        <ele>463</ele>
        <time>2011-08-28T10:52:13Z</time>
      </trkpt>
      <trkpt lat="45.37336" lon="1.42602">
        <ele>463</ele>
        <time>2011-08-28T10:52:14Z</time>
      </trkpt>
      <trkpt lat="45.37334" lon="1.42595">
        <ele>463</ele>
        <time>2011-08-28T10:52:15Z</time>
      </trkpt>
      <trkpt lat="45.37331" lon="1.42587">
        <ele>462</ele>
        <time>2011-08-28T10:52:16Z</time>
      </trkpt>
      <trkpt lat="45.37328" lon="1.42579">
        <ele>462</ele>
        <time>2011-08-28T10:52:17Z</time>
      </trkpt>
      <trkpt lat="45.37324" lon="1.4257">
        <ele>461</ele>
        <time>2011-08-28T10:52:18Z</time>
      </trkpt>
      <trkpt lat="45.3732" lon="1.42561">
        <ele>460</ele>
        <time>2011-08-28T10:52:19Z</time>
      </trkpt>
      <trkpt lat="45.37316" lon="1.4255">
        <ele>459</ele>
        <time>2011-08-28T10:52:20Z</time>
      </trkpt>
      <trkpt lat="45.37312" lon="1.42539">
        <ele>455</ele>
        <time>2011-08-28T10:52:21Z</time>
      </trkpt>
      <trkpt lat="45.37307" lon="1.42528">
        <ele>453</ele>
        <time>2011-08-28T10:52:22Z</time>
      </trkpt>
      <trkpt lat="45.37303" lon="1.42517">
        <ele>451</ele>
        <time>2011-08-28T10:52:23Z</time>
      </trkpt>
      <trkpt lat="45.37299" lon="1.42506">
        <ele>449</ele>
        <time>2011-08-28T10:52:24Z</time>
      </trkpt>
      <trkpt lat="45.37295" lon="1.42495">
        <ele>449</ele>
        <time>2011-08-28T10:52:25Z</time>
      </trkpt>
      <trkpt lat="45.37291" lon="1.42485">
        <ele>449</ele>
        <time>2011-08-28T10:52:26Z</time>
      </trkpt>
      <trkpt lat="45.37287" lon="1.42476">
        <ele>449</ele>
        <time>2011-08-28T10:52:27Z</time>
      </trkpt>
      <trkpt lat="45.37284" lon="1.42469">
        <ele>448</ele>
        <time>2011-08-28T10:52:28Z</time>
      </trkpt>
      <trkpt lat="45.37282" lon="1.42463">
        <ele>449</ele>
        <time>2011-08-28T10:52:29Z</time>
      </trkpt>
      <trkpt lat="45.37283" lon="1.4245">
        <ele>448</ele>
        <time>2011-08-28T10:52:31Z</time>
      </trkpt>
      <trkpt lat="45.37285" lon="1.42443">
        <ele>447</ele>
        <time>2011-08-28T10:52:32Z</time>
      </trkpt>
      <trkpt lat="45.37288" lon="1.42437">
        <ele>447</ele>
        <time>2011-08-28T10:52:33Z</time>
      </trkpt>
      <trkpt lat="45.37291" lon="1.4243">
        <ele>446</ele>
        <time>2011-08-28T10:52:34Z</time>
      </trkpt>
      <trkpt lat="45.37294" lon="1.42423">
        <ele>447</ele>
        <time>2011-08-28T10:52:35Z</time>
      </trkpt>
      <trkpt lat="45.37298" lon="1.42419">
        <ele>447</ele>
        <time>2011-08-28T10:52:36Z</time>
      </trkpt>
      <trkpt lat="45.37305" lon="1.42411">
        <ele>446</ele>
        <time>2011-08-28T10:52:38Z</time>
      </trkpt>
      <trkpt lat="45.37311" lon="1.42406">
        <ele>448</ele>
        <time>2011-08-28T10:52:40Z</time>
      </trkpt>
      <trkpt lat="45.37317" lon="1.42401">
        <ele>448</ele>
        <time>2011-08-28T10:52:42Z</time>
      </trkpt>
      <trkpt lat="45.37323" lon="1.42394">
        <ele>447</ele>
        <time>2011-08-28T10:52:44Z</time>
      </trkpt>
      <trkpt lat="45.37327" lon="1.42384">
        <ele>445</ele>
        <time>2011-08-28T10:52:46Z</time>
      </trkpt>
      <trkpt lat="45.37333" lon="1.42375">
        <ele>444</ele>
        <time>2011-08-28T10:52:48Z</time>
      </trkpt>
      <trkpt lat="45.37339" lon="1.42366">
        <ele>445</ele>
        <time>2011-08-28T10:52:50Z</time>
      </trkpt>
      <trkpt lat="45.37345" lon="1.42358">
        <ele>444</ele>
        <time>2011-08-28T10:52:52Z</time>
      </trkpt>
      <trkpt lat="45.3735" lon="1.4235">
        <ele>444</ele>
        <time>2011-08-28T10:52:54Z</time>
      </trkpt>
      <trkpt lat="45.37354" lon="1.42344">
        <ele>444</ele>
        <time>2011-08-28T10:52:56Z</time>
      </trkpt>
      <trkpt lat="45.37356" lon="1.42338">
        <ele>445</ele>
        <time>2011-08-28T10:52:58Z</time>
      </trkpt>
      <trkpt lat="45.37356" lon="1.42338">
        <ele>445</ele>
        <time>2011-08-28T10:52:58Z</time>
      </trkpt>
      <trkpt lat="45.37356" lon="1.42338">
        <ele>445</ele>
        <time>2011-08-28T10:53:58Z</time>
      </trkpt>
      <trkpt lat="45.37356" lon="1.4233">
        <ele>443</ele>
        <time>2011-08-28T10:54:00Z</time>
      </trkpt>
      <trkpt lat="45.37356" lon="1.4233">
        <ele>443</ele>
        <time>2011-08-28T10:54:00Z</time>
      </trkpt>
      <trkpt lat="45.37356" lon="1.4233">
        <ele>443</ele>
        <time>2011-08-28T10:54:01Z</time>
      </trkpt>
      <trkpt lat="45.37355" lon="1.42321">
        <ele>440</ele>
        <time>2011-08-28T10:54:02Z</time>
      </trkpt>
      <trkpt lat="45.37354" lon="1.42309">
        <ele>441</ele>
        <time>2011-08-28T10:54:04Z</time>
      </trkpt>
      <trkpt lat="45.37353" lon="1.42301">
        <ele>442</ele>
        <time>2011-08-28T10:54:05Z</time>
      </trkpt>
      <trkpt lat="45.37352" lon="1.42291">
        <ele>439</ele>
        <time>2011-08-28T10:54:06Z</time>
      </trkpt>
      <trkpt lat="45.37351" lon="1.42281">
        <ele>439</ele>
        <time>2011-08-28T10:54:07Z</time>
      </trkpt>
      <trkpt lat="45.3735" lon="1.42271">
        <ele>438</ele>
        <time>2011-08-28T10:54:08Z</time>
      </trkpt>
      <trkpt lat="45.37349" lon="1.42261">
        <ele>439</ele>
        <time>2011-08-28T10:54:09Z</time>
      </trkpt>
      <trkpt lat="45.37348" lon="1.4225">
        <ele>438</ele>
        <time>2011-08-28T10:54:10Z</time>
      </trkpt>
      <trkpt lat="45.37348" lon="1.42239">
        <ele>437</ele>
        <time>2011-08-28T10:54:11Z</time>
      </trkpt>
      <trkpt lat="45.37348" lon="1.42228">
        <ele>435</ele>
        <time>2011-08-28T10:54:12Z</time>
      </trkpt>
      <trkpt lat="45.37347" lon="1.42216">
        <ele>436</ele>
        <time>2011-08-28T10:54:13Z</time>
      </trkpt>
      <trkpt lat="45.37347" lon="1.42205">
        <ele>435</ele>
        <time>2011-08-28T10:54:14Z</time>
      </trkpt>
      <trkpt lat="45.37346" lon="1.42194">
        <ele>434</ele>
        <time>2011-08-28T10:54:15Z</time>
      </trkpt>
      <trkpt lat="45.37346" lon="1.42182">
        <ele>434</ele>
        <time>2011-08-28T10:54:16Z</time>
      </trkpt>
      <trkpt lat="45.37345" lon="1.42171">
        <ele>434</ele>
        <time>2011-08-28T10:54:17Z</time>
      </trkpt>
      <trkpt lat="45.37344" lon="1.42161">
        <ele>433</ele>
        <time>2011-08-28T10:54:18Z</time>
      </trkpt>
      <trkpt lat="45.37343" lon="1.4215">
        <ele>432</ele>
        <time>2011-08-28T10:54:19Z</time>
      </trkpt>
      <trkpt lat="45.37343" lon="1.42138">
        <ele>431</ele>
        <time>2011-08-28T10:54:20Z</time>
      </trkpt>
      <trkpt lat="45.37342" lon="1.42126">
        <ele>430</ele>
        <time>2011-08-28T10:54:21Z</time>
      </trkpt>
      <trkpt lat="45.37341" lon="1.42114">
        <ele>429</ele>
        <time>2011-08-28T10:54:22Z</time>
      </trkpt>
      <trkpt lat="45.3734" lon="1.42103">
        <ele>428</ele>
        <time>2011-08-28T10:54:23Z</time>
      </trkpt>
      <trkpt lat="45.37339" lon="1.42092">
        <ele>428</ele>
        <time>2011-08-28T10:54:24Z</time>
      </trkpt>
      <trkpt lat="45.37338" lon="1.42081">
        <ele>428</ele>
        <time>2011-08-28T10:54:25Z</time>
      </trkpt>
      <trkpt lat="45.37337" lon="1.42072">
        <ele>427</ele>
        <time>2011-08-28T10:54:26Z</time>
      </trkpt>
      <trkpt lat="45.37335" lon="1.42064">
        <ele>426</ele>
        <time>2011-08-28T10:54:27Z</time>
      </trkpt>
      <trkpt lat="45.37332" lon="1.42056">
        <ele>426</ele>
        <time>2011-08-28T10:54:28Z</time>
      </trkpt>
      <trkpt lat="45.37329" lon="1.42049">
        <ele>425</ele>
        <time>2011-08-28T10:54:29Z</time>
      </trkpt>
      <trkpt lat="45.37327" lon="1.42042">
        <ele>425</ele>
        <time>2011-08-28T10:54:30Z</time>
      </trkpt>
      <trkpt lat="45.37324" lon="1.42035">
        <ele>425</ele>
        <time>2011-08-28T10:54:31Z</time>
      </trkpt>
      <trkpt lat="45.37321" lon="1.42028">
        <ele>427</ele>
        <time>2011-08-28T10:54:32Z</time>
      </trkpt>
      <trkpt lat="45.37318" lon="1.42022">
        <ele>427</ele>
        <time>2011-08-28T10:54:33Z</time>
      </trkpt>
      <trkpt lat="45.37314" lon="1.42015">
        <ele>425</ele>
        <time>2011-08-28T10:54:34Z</time>
      </trkpt>
      <trkpt lat="45.3731" lon="1.42007">
        <ele>424</ele>
        <time>2011-08-28T10:54:35Z</time>
      </trkpt>
      <trkpt lat="45.37307" lon="1.41999">
        <ele>422</ele>
        <time>2011-08-28T10:54:36Z</time>
      </trkpt>
      <trkpt lat="45.37305" lon="1.4199">
        <ele>423</ele>
        <time>2011-08-28T10:54:37Z</time>
      </trkpt>
      <trkpt lat="45.37302" lon="1.4198">
        <ele>423</ele>
        <time>2011-08-28T10:54:38Z</time>
      </trkpt>
      <trkpt lat="45.37301" lon="1.41971">
        <ele>424</ele>
        <time>2011-08-28T10:54:39Z</time>
      </trkpt>
      <trkpt lat="45.373" lon="1.41962">
        <ele>423</ele>
        <time>2011-08-28T10:54:40Z</time>
      </trkpt>
      <trkpt lat="45.37299" lon="1.41952">
        <ele>423</ele>
        <time>2011-08-28T10:54:41Z</time>
      </trkpt>
      <trkpt lat="45.37298" lon="1.41944">
        <ele>420</ele>
        <time>2011-08-28T10:54:42Z</time>
      </trkpt>
      <trkpt lat="45.37297" lon="1.41936">
        <ele>420</ele>
        <time>2011-08-28T10:54:43Z</time>
      </trkpt>
      <trkpt lat="45.37296" lon="1.41929">
        <ele>422</ele>
        <time>2011-08-28T10:54:44Z</time>
      </trkpt>
      <trkpt lat="45.37296" lon="1.41922">
        <ele>421</ele>
        <time>2011-08-28T10:54:45Z</time>
      </trkpt>
      <trkpt lat="45.37295" lon="1.41914">
        <ele>420</ele>
        <time>2011-08-28T10:54:46Z</time>
      </trkpt>
      <trkpt lat="45.37295" lon="1.41906">
        <ele>418</ele>
        <time>2011-08-28T10:54:47Z</time>
      </trkpt>
      <trkpt lat="45.37295" lon="1.41897">
        <ele>417</ele>
        <time>2011-08-28T10:54:48Z</time>
      </trkpt>
      <trkpt lat="45.37295" lon="1.41887">
        <ele>416</ele>
        <time>2011-08-28T10:54:49Z</time>
      </trkpt>
      <trkpt lat="45.37295" lon="1.41876">
        <ele>415</ele>
        <time>2011-08-28T10:54:50Z</time>
      </trkpt>
      <trkpt lat="45.37295" lon="1.41866">
        <ele>414</ele>
        <time>2011-08-28T10:54:51Z</time>
      </trkpt>
      <trkpt lat="45.37295" lon="1.41856">
        <ele>413</ele>
        <time>2011-08-28T10:54:52Z</time>
      </trkpt>
      <trkpt lat="45.37295" lon="1.41845">
        <ele>413</ele>
        <time>2011-08-28T10:54:53Z</time>
      </trkpt>
      <trkpt lat="45.37296" lon="1.41835">
        <ele>412</ele>
        <time>2011-08-28T10:54:54Z</time>
      </trkpt>
      <trkpt lat="45.37297" lon="1.41824">
        <ele>412</ele>
        <time>2011-08-28T10:54:55Z</time>
      </trkpt>
      <trkpt lat="45.37298" lon="1.41812">
        <ele>410</ele>
        <time>2011-08-28T10:54:56Z</time>
      </trkpt>
      <trkpt lat="45.37302" lon="1.41799">
        <ele>408</ele>
        <time>2011-08-28T10:54:57Z</time>
      </trkpt>
      <trkpt lat="45.37307" lon="1.41786">
        <ele>407</ele>
        <time>2011-08-28T10:54:58Z</time>
      </trkpt>
      <trkpt lat="45.37312" lon="1.41774">
        <ele>405</ele>
        <time>2011-08-28T10:54:59Z</time>
      </trkpt>
      <trkpt lat="45.37318" lon="1.41763">
        <ele>404</ele>
        <time>2011-08-28T10:55:00Z</time>
      </trkpt>
      <trkpt lat="45.37325" lon="1.41755">
        <ele>403</ele>
        <time>2011-08-28T10:55:01Z</time>
      </trkpt>
      <trkpt lat="45.37332" lon="1.41748">
        <ele>403</ele>
        <time>2011-08-28T10:55:02Z</time>
      </trkpt>
      <trkpt lat="45.37338" lon="1.41742">
        <ele>403</ele>
        <time>2011-08-28T10:55:03Z</time>
      </trkpt>
      <trkpt lat="45.37344" lon="1.41736">
        <ele>404</ele>
        <time>2011-08-28T10:55:04Z</time>
      </trkpt>
      <trkpt lat="45.3735" lon="1.41731">
        <ele>404</ele>
        <time>2011-08-28T10:55:05Z</time>
      </trkpt>
      <trkpt lat="45.37356" lon="1.41726">
        <ele>405</ele>
        <time>2011-08-28T10:55:06Z</time>
      </trkpt>
      <trkpt lat="45.37361" lon="1.41721">
        <ele>404</ele>
        <time>2011-08-28T10:55:07Z</time>
      </trkpt>
      <trkpt lat="45.37365" lon="1.41716">
        <ele>405</ele>
        <time>2011-08-28T10:55:08Z</time>
      </trkpt>
      <trkpt lat="45.37368" lon="1.41709">
        <ele>405</ele>
        <time>2011-08-28T10:55:09Z</time>
      </trkpt>
      <trkpt lat="45.37371" lon="1.41703">
        <ele>405</ele>
        <time>2011-08-28T10:55:10Z</time>
      </trkpt>
      <trkpt lat="45.37374" lon="1.41697">
        <ele>405</ele>
        <time>2011-08-28T10:55:11Z</time>
      </trkpt>
      <trkpt lat="45.37374" lon="1.41686">
        <ele>406</ele>
        <time>2011-08-28T10:55:13Z</time>
      </trkpt>
      <trkpt lat="45.37374" lon="1.41677">
        <ele>407</ele>
        <time>2011-08-28T10:55:15Z</time>
      </trkpt>
      <trkpt lat="45.37375" lon="1.41666">
        <ele>406</ele>
        <time>2011-08-28T10:55:17Z</time>
      </trkpt>
      <trkpt lat="45.37376" lon="1.41657">
        <ele>407</ele>
        <time>2011-08-28T10:55:19Z</time>
      </trkpt>
      <trkpt lat="45.37376" lon="1.41657">
        <ele>407</ele>
        <time>2011-08-28T10:55:19Z</time>
      </trkpt>
      <trkpt lat="45.37376" lon="1.41657">
        <ele>407</ele>
        <time>2011-08-28T10:55:20Z</time>
      </trkpt>
      <trkpt lat="45.37375" lon="1.4165">
        <ele>412</ele>
        <time>2011-08-28T10:55:21Z</time>
      </trkpt>
      <trkpt lat="45.37375" lon="1.4165">
        <ele>412</ele>
        <time>2011-08-28T10:55:21Z</time>
      </trkpt>
      <trkpt lat="45.37375" lon="1.4165">
        <ele>412</ele>
        <time>2011-08-28T10:55:23Z</time>
      </trkpt>
      <trkpt lat="45.37372" lon="1.41642">
        <ele>414</ele>
        <time>2011-08-28T10:55:24Z</time>
      </trkpt>
      <trkpt lat="45.37372" lon="1.41642">
        <ele>414</ele>
        <time>2011-08-28T10:55:24Z</time>
      </trkpt>
      <trkpt lat="45.37372" lon="1.41642">
        <ele>414</ele>
        <time>2011-08-28T10:56:30Z</time>
      </trkpt>
      <trkpt lat="45.37366" lon="1.41641">
        <ele>405</ele>
        <time>2011-08-28T10:56:32Z</time>
      </trkpt>
      <trkpt lat="45.37366" lon="1.41641">
        <ele>405</ele>
        <time>2011-08-28T10:56:32Z</time>
      </trkpt>
      <trkpt lat="45.37366" lon="1.41641">
        <ele>405</ele>
        <time>2011-08-28T10:56:33Z</time>
      </trkpt>
      <trkpt lat="45.37361" lon="1.41644">
        <ele>403</ele>
        <time>2011-08-28T10:56:34Z</time>
      </trkpt>
      <trkpt lat="45.37356" lon="1.41647">
        <ele>404</ele>
        <time>2011-08-28T10:56:36Z</time>
      </trkpt>
      <trkpt lat="45.3735" lon="1.41651">
        <ele>404</ele>
        <time>2011-08-28T10:56:38Z</time>
      </trkpt>
      <trkpt lat="45.37328" lon="1.41644">
        <ele>408</ele>
        <time>2011-08-28T10:59:05Z</time>
      </trkpt>
      <trkpt lat="45.37322" lon="1.41643">
        <ele>407</ele>
        <time>2011-08-28T10:59:06Z</time>
      </trkpt>
      <trkpt lat="45.37314" lon="1.41642">
        <ele>410</ele>
        <time>2011-08-28T10:59:08Z</time>
      </trkpt>
      <trkpt lat="45.37308" lon="1.41642">
        <ele>411</ele>
        <time>2011-08-28T10:59:10Z</time>
      </trkpt>
      <trkpt lat="45.37302" lon="1.41641">
        <ele>410</ele>
        <time>2011-08-28T10:59:12Z</time>
      </trkpt>
      <trkpt lat="45.37297" lon="1.4164">
        <ele>408</ele>
        <time>2011-08-28T10:59:15Z</time>
      </trkpt>
      <trkpt lat="45.37288" lon="1.4164">
        <ele>405</ele>
        <time>2011-08-28T10:59:21Z</time>
      </trkpt>
      <trkpt lat="45.37282" lon="1.41639">
        <ele>408</ele>
        <time>2011-08-28T10:59:24Z</time>
      </trkpt>
      <trkpt lat="45.37277" lon="1.41639">
        <ele>408</ele>
        <time>2011-08-28T10:59:26Z</time>
      </trkpt>
      <trkpt lat="45.37277" lon="1.41639">
        <ele>408</ele>
        <time>2011-08-28T10:59:26Z</time>
      </trkpt>
      <trkpt lat="45.37277" lon="1.41639">
        <ele>408</ele>
        <time>2011-08-28T10:59:27Z</time>
      </trkpt>
      <trkpt lat="45.3727" lon="1.41638">
        <ele>404</ele>
        <time>2011-08-28T10:59:28Z</time>
      </trkpt>
      <trkpt lat="45.37264" lon="1.41638">
        <ele>401</ele>
        <time>2011-08-28T10:59:30Z</time>
      </trkpt>
      <trkpt lat="45.37258" lon="1.41637">
        <ele>396</ele>
        <time>2011-08-28T10:59:32Z</time>
      </trkpt>
      <trkpt lat="45.37251" lon="1.41636">
        <ele>398</ele>
        <time>2011-08-28T10:59:34Z</time>
      </trkpt>
      <trkpt lat="45.37246" lon="1.41636">
        <ele>398</ele>
        <time>2011-08-28T10:59:36Z</time>
      </trkpt>
      <trkpt lat="45.37246" lon="1.41636">
        <ele>398</ele>
        <time>2011-08-28T10:59:36Z</time>
      </trkpt>
      <trkpt lat="45.37246" lon="1.41636">
        <ele>398</ele>
        <time>2011-08-28T10:59:37Z</time>
      </trkpt>
      <trkpt lat="45.37236" lon="1.41632">
        <ele>400</ele>
        <time>2011-08-28T10:59:40Z</time>
      </trkpt>
      <trkpt lat="45.37236" lon="1.41632">
        <ele>400</ele>
        <time>2011-08-28T10:59:40Z</time>
      </trkpt>
      <trkpt lat="45.37236" lon="1.41632">
        <ele>400</ele>
        <time>2011-08-28T10:59:43Z</time>
      </trkpt>
      <trkpt lat="45.37232" lon="1.41625">
        <ele>400</ele>
        <time>2011-08-28T10:59:44Z</time>
      </trkpt>
      <trkpt lat="45.37229" lon="1.41614">
        <ele>398</ele>
        <time>2011-08-28T10:59:46Z</time>
      </trkpt>
      <trkpt lat="45.3723" lon="1.41604">
        <ele>399</ele>
        <time>2011-08-28T10:59:48Z</time>
      </trkpt>
      <trkpt lat="45.37232" lon="1.41595">
        <ele>395</ele>
        <time>2011-08-28T10:59:50Z</time>
      </trkpt>
      <trkpt lat="45.37233" lon="1.41586">
        <ele>391</ele>
        <time>2011-08-28T10:59:52Z</time>
      </trkpt>
      <trkpt lat="45.37234" lon="1.41577">
        <ele>395</ele>
        <time>2011-08-28T10:59:54Z</time>
      </trkpt>
      <trkpt lat="45.37235" lon="1.41569">
        <ele>396</ele>
        <time>2011-08-28T10:59:56Z</time>
      </trkpt>
      <trkpt lat="45.37236" lon="1.4156">
        <ele>395</ele>
        <time>2011-08-28T10:59:58Z</time>
      </trkpt>
      <trkpt lat="45.37239" lon="1.41548">
        <ele>397</ele>
        <time>2011-08-28T11:00:00Z</time>
      </trkpt>
      <trkpt lat="45.37239" lon="1.41536">
        <ele>394</ele>
        <time>2011-08-28T11:00:02Z</time>
      </trkpt>
      <trkpt lat="45.37237" lon="1.41525">
        <ele>395</ele>
        <time>2011-08-28T11:00:04Z</time>
      </trkpt>
      <trkpt lat="45.37233" lon="1.41516">
        <ele>394</ele>
        <time>2011-08-28T11:00:06Z</time>
      </trkpt>
      <trkpt lat="45.3723" lon="1.41509">
        <ele>392</ele>
        <time>2011-08-28T11:00:08Z</time>
      </trkpt>
      <trkpt lat="45.37225" lon="1.41503">
        <ele>394</ele>
        <time>2011-08-28T11:00:10Z</time>
      </trkpt>
      <trkpt lat="45.37219" lon="1.41494">
        <ele>392</ele>
        <time>2011-08-28T11:00:12Z</time>
      </trkpt>
      <trkpt lat="45.37215" lon="1.41489">
        <ele>393</ele>
        <time>2011-08-28T11:00:13Z</time>
      </trkpt>
      <trkpt lat="45.37211" lon="1.41484">
        <ele>392</ele>
        <time>2011-08-28T11:00:14Z</time>
      </trkpt>
      <trkpt lat="45.37207" lon="1.4148">
        <ele>392</ele>
        <time>2011-08-28T11:00:15Z</time>
      </trkpt>
      <trkpt lat="45.37203" lon="1.41475">
        <ele>394</ele>
        <time>2011-08-28T11:00:16Z</time>
      </trkpt>
      <trkpt lat="45.37198" lon="1.41469">
        <ele>389</ele>
        <time>2011-08-28T11:00:18Z</time>
      </trkpt>
      <trkpt lat="45.37192" lon="1.41462">
        <ele>390</ele>
        <time>2011-08-28T11:00:20Z</time>
      </trkpt>
      <trkpt lat="45.37187" lon="1.41455">
        <ele>394</ele>
        <time>2011-08-28T11:00:22Z</time>
      </trkpt>
      <trkpt lat="45.37183" lon="1.41451">
        <ele>393</ele>
        <time>2011-08-28T11:00:25Z</time>
      </trkpt>
      <trkpt lat="45.37178" lon="1.41445">
        <ele>396</ele>
        <time>2011-08-28T11:00:28Z</time>
      </trkpt>
      <trkpt lat="45.37173" lon="1.4144">
        <ele>404</ele>
        <time>2011-08-28T11:00:30Z</time>
      </trkpt>
      <trkpt lat="45.37168" lon="1.41435">
        <ele>403</ele>
        <time>2011-08-28T11:00:32Z</time>
      </trkpt>
      <trkpt lat="45.37164" lon="1.41429">
        <ele>402</ele>
        <time>2011-08-28T11:00:34Z</time>
      </trkpt>
      <trkpt lat="45.37161" lon="1.41424">
        <ele>399</ele>
        <time>2011-08-28T11:00:36Z</time>
      </trkpt>
      <trkpt lat="45.37157" lon="1.41412">
        <ele>396</ele>
        <time>2011-08-28T11:00:39Z</time>
      </trkpt>
      <trkpt lat="45.37153" lon="1.41403">
        <ele>394</ele>
        <time>2011-08-28T11:00:41Z</time>
      </trkpt>
      <trkpt lat="45.37151" lon="1.41394">
        <ele>393</ele>
        <time>2011-08-28T11:00:43Z</time>
      </trkpt>
      <trkpt lat="45.3715" lon="1.41384">
        <ele>395</ele>
        <time>2011-08-28T11:00:45Z</time>
      </trkpt>
      <trkpt lat="45.37151" lon="1.41374">
        <ele>396</ele>
        <time>2011-08-28T11:00:47Z</time>
      </trkpt>
      <trkpt lat="45.37154" lon="1.41366">
        <ele>396</ele>
        <time>2011-08-28T11:00:49Z</time>
      </trkpt>
      <trkpt lat="45.37156" lon="1.41359">
        <ele>395</ele>
        <time>2011-08-28T11:00:51Z</time>
      </trkpt>
      <trkpt lat="45.37158" lon="1.41351">
        <ele>398</ele>
        <time>2011-08-28T11:00:53Z</time>
      </trkpt>
      <trkpt lat="45.37163" lon="1.41345">
        <ele>397</ele>
        <time>2011-08-28T11:00:55Z</time>
      </trkpt>
      <trkpt lat="45.37167" lon="1.41338">
        <ele>398</ele>
        <time>2011-08-28T11:00:57Z</time>
      </trkpt>
      <trkpt lat="45.37171" lon="1.41331">
        <ele>398</ele>
        <time>2011-08-28T11:00:59Z</time>
      </trkpt>
      <trkpt lat="45.37174" lon="1.41322">
        <ele>396</ele>
        <time>2011-08-28T11:01:01Z</time>
      </trkpt>
      <trkpt lat="45.37175" lon="1.41311">
        <ele>398</ele>
        <time>2011-08-28T11:01:03Z</time>
      </trkpt>
      <trkpt lat="45.37173" lon="1.41299">
        <ele>396</ele>
        <time>2011-08-28T11:01:05Z</time>
      </trkpt>
      <trkpt lat="45.37168" lon="1.41293">
        <ele>396</ele>
        <time>2011-08-28T11:01:07Z</time>
      </trkpt>
      <trkpt lat="45.37162" lon="1.4129">
        <ele>397</ele>
        <time>2011-08-28T11:01:09Z</time>
      </trkpt>
      <trkpt lat="45.37157" lon="1.41291">
        <ele>395</ele>
        <time>2011-08-28T11:01:11Z</time>
      </trkpt>
      <trkpt lat="45.37151" lon="1.41292">
        <ele>397</ele>
        <time>2011-08-28T11:01:13Z</time>
      </trkpt>
      <trkpt lat="45.37145" lon="1.4129">
        <ele>397</ele>
        <time>2011-08-28T11:01:15Z</time>
      </trkpt>
      <trkpt lat="45.3714" lon="1.41286">
        <ele>400</ele>
        <time>2011-08-28T11:01:17Z</time>
      </trkpt>
      <trkpt lat="45.37135" lon="1.41282">
        <ele>398</ele>
        <time>2011-08-28T11:01:19Z</time>
      </trkpt>
      <trkpt lat="45.37131" lon="1.41275">
        <ele>395</ele>
        <time>2011-08-28T11:01:21Z</time>
      </trkpt>
      <trkpt lat="45.37126" lon="1.41271">
        <ele>397</ele>
        <time>2011-08-28T11:01:23Z</time>
      </trkpt>
      <trkpt lat="45.37122" lon="1.41265">
        <ele>398</ele>
        <time>2011-08-28T11:01:25Z</time>
      </trkpt>
      <trkpt lat="45.37116" lon="1.41259">
        <ele>400</ele>
        <time>2011-08-28T11:01:27Z</time>
      </trkpt>
      <trkpt lat="45.37109" lon="1.41253">
        <ele>398</ele>
        <time>2011-08-28T11:01:29Z</time>
      </trkpt>
      <trkpt lat="45.37105" lon="1.4125">
        <ele>397</ele>
        <time>2011-08-28T11:01:30Z</time>
      </trkpt>
      <trkpt lat="45.37101" lon="1.41245">
        <ele>394</ele>
        <time>2011-08-28T11:01:31Z</time>
      </trkpt>
      <trkpt lat="45.37093" lon="1.41237">
        <ele>394</ele>
        <time>2011-08-28T11:01:33Z</time>
      </trkpt>
      <trkpt lat="45.37087" lon="1.41228">
        <ele>395</ele>
        <time>2011-08-28T11:01:35Z</time>
      </trkpt>
      <trkpt lat="45.37083" lon="1.41217">
        <ele>393</ele>
        <time>2011-08-28T11:01:37Z</time>
      </trkpt>
      <trkpt lat="45.37078" lon="1.41203">
        <ele>394</ele>
        <time>2011-08-28T11:01:39Z</time>
      </trkpt>
      <trkpt lat="45.37076" lon="1.41196">
        <ele>393</ele>
        <time>2011-08-28T11:01:40Z</time>
      </trkpt>
      <trkpt lat="45.37077" lon="1.41188">
        <ele>390</ele>
        <time>2011-08-28T11:01:41Z</time>
      </trkpt>
      <trkpt lat="45.37077" lon="1.41181">
        <ele>389</ele>
        <time>2011-08-28T11:01:42Z</time>
      </trkpt>
      <trkpt lat="45.3708" lon="1.41172">
        <ele>391</ele>
        <time>2011-08-28T11:01:44Z</time>
      </trkpt>
      <trkpt lat="45.37084" lon="1.41163">
        <ele>392</ele>
        <time>2011-08-28T11:01:46Z</time>
      </trkpt>
      <trkpt lat="45.37088" lon="1.41157">
        <ele>394</ele>
        <time>2011-08-28T11:01:48Z</time>
      </trkpt>
      <trkpt lat="45.37094" lon="1.4115">
        <ele>395</ele>
        <time>2011-08-28T11:01:50Z</time>
      </trkpt>
      <trkpt lat="45.37099" lon="1.41142">
        <ele>399</ele>
        <time>2011-08-28T11:01:52Z</time>
      </trkpt>
      <trkpt lat="45.37105" lon="1.41137">
        <ele>397</ele>
        <time>2011-08-28T11:01:54Z</time>
      </trkpt>
      <trkpt lat="45.37112" lon="1.41133">
        <ele>398</ele>
        <time>2011-08-28T11:01:56Z</time>
      </trkpt>
      <trkpt lat="45.37118" lon="1.41129">
        <ele>400</ele>
        <time>2011-08-28T11:01:58Z</time>
      </trkpt>
      <trkpt lat="45.37125" lon="1.41123">
        <ele>399</ele>
        <time>2011-08-28T11:02:00Z</time>
      </trkpt>
      <trkpt lat="45.37128" lon="1.41119">
        <ele>404</ele>
        <time>2011-08-28T11:02:01Z</time>
      </trkpt>
      <trkpt lat="45.37132" lon="1.41114">
        <ele>404</ele>
        <time>2011-08-28T11:02:02Z</time>
      </trkpt>
      <trkpt lat="45.37135" lon="1.4111">
        <ele>404</ele>
        <time>2011-08-28T11:02:03Z</time>
      </trkpt>
      <trkpt lat="45.37139" lon="1.41105">
        <ele>404</ele>
        <time>2011-08-28T11:02:04Z</time>
      </trkpt>
      <trkpt lat="45.37144" lon="1.41096">
        <ele>401</ele>
        <time>2011-08-28T11:02:06Z</time>
      </trkpt>
      <trkpt lat="45.37149" lon="1.41088">
        <ele>401</ele>
        <time>2011-08-28T11:02:08Z</time>
      </trkpt>
      <trkpt lat="45.37154" lon="1.41078">
        <ele>402</ele>
        <time>2011-08-28T11:02:10Z</time>
      </trkpt>
      <trkpt lat="45.37159" lon="1.41067">
        <ele>402</ele>
        <time>2011-08-28T11:02:12Z</time>
      </trkpt>
      <trkpt lat="45.37161" lon="1.41062">
        <ele>402</ele>
        <time>2011-08-28T11:02:13Z</time>
      </trkpt>
      <trkpt lat="45.37164" lon="1.41056">
        <ele>403</ele>
        <time>2011-08-28T11:02:14Z</time>
      </trkpt>
      <trkpt lat="45.37169" lon="1.41045">
        <ele>400</ele>
        <time>2011-08-28T11:02:16Z</time>
      </trkpt>
      <trkpt lat="45.37172" lon="1.41039">
        <ele>394</ele>
        <time>2011-08-28T11:02:17Z</time>
      </trkpt>
      <trkpt lat="45.37175" lon="1.41033">
        <ele>394</ele>
        <time>2011-08-28T11:02:18Z</time>
      </trkpt>
      <trkpt lat="45.37178" lon="1.41028">
        <ele>395</ele>
        <time>2011-08-28T11:02:19Z</time>
      </trkpt>
      <trkpt lat="45.3718" lon="1.41022">
        <ele>395</ele>
        <time>2011-08-28T11:02:20Z</time>
      </trkpt>
      <trkpt lat="45.37185" lon="1.41012">
        <ele>395</ele>
        <time>2011-08-28T11:02:22Z</time>
      </trkpt>
      <trkpt lat="45.3719" lon="1.41002">
        <ele>396</ele>
        <time>2011-08-28T11:02:24Z</time>
      </trkpt>
      <trkpt lat="45.37193" lon="1.40997">
        <ele>396</ele>
        <time>2011-08-28T11:02:25Z</time>
      </trkpt>
      <trkpt lat="45.37198" lon="1.40989">
        <ele>397</ele>
        <time>2011-08-28T11:02:27Z</time>
      </trkpt>
      <trkpt lat="45.37202" lon="1.40982">
        <ele>397</ele>
        <time>2011-08-28T11:02:29Z</time>
      </trkpt>
      <trkpt lat="45.37206" lon="1.40973">
        <ele>396</ele>
        <time>2011-08-28T11:02:31Z</time>
      </trkpt>
      <trkpt lat="45.37206" lon="1.40962">
        <ele>394</ele>
        <time>2011-08-28T11:02:33Z</time>
      </trkpt>
      <trkpt lat="45.37204" lon="1.4095">
        <ele>394</ele>
        <time>2011-08-28T11:02:35Z</time>
      </trkpt>
      <trkpt lat="45.372" lon="1.40942">
        <ele>397</ele>
        <time>2011-08-28T11:02:37Z</time>
      </trkpt>
      <trkpt lat="45.37192" lon="1.40939">
        <ele>399</ele>
        <time>2011-08-28T11:02:39Z</time>
      </trkpt>
      <trkpt lat="45.37185" lon="1.40939">
        <ele>396</ele>
        <time>2011-08-28T11:02:41Z</time>
      </trkpt>
      <trkpt lat="45.3718" lon="1.40944">
        <ele>396</ele>
        <time>2011-08-28T11:02:43Z</time>
      </trkpt>
      <trkpt lat="45.37174" lon="1.40949">
        <ele>399</ele>
        <time>2011-08-28T11:02:45Z</time>
      </trkpt>
      <trkpt lat="45.37167" lon="1.40952">
        <ele>397</ele>
        <time>2011-08-28T11:02:47Z</time>
      </trkpt>
      <trkpt lat="45.37159" lon="1.40956">
        <ele>396</ele>
        <time>2011-08-28T11:02:49Z</time>
      </trkpt>
      <trkpt lat="45.3715" lon="1.40958">
        <ele>397</ele>
        <time>2011-08-28T11:02:51Z</time>
      </trkpt>
      <trkpt lat="45.37146" lon="1.40958">
        <ele>394</ele>
        <time>2011-08-28T11:02:52Z</time>
      </trkpt>
      <trkpt lat="45.3714" lon="1.4096">
        <ele>389</ele>
        <time>2011-08-28T11:02:54Z</time>
      </trkpt>
      <trkpt lat="45.37134" lon="1.40962">
        <ele>390</ele>
        <time>2011-08-28T11:02:56Z</time>
      </trkpt>
      <trkpt lat="45.37128" lon="1.40965">
        <ele>392</ele>
        <time>2011-08-28T11:02:58Z</time>
      </trkpt>
      <trkpt lat="45.37121" lon="1.40971">
        <ele>387</ele>
        <time>2011-08-28T11:03:00Z</time>
      </trkpt>
      <trkpt lat="45.37116" lon="1.4098">
        <ele>388</ele>
        <time>2011-08-28T11:03:02Z</time>
      </trkpt>
      <trkpt lat="45.37112" lon="1.4099">
        <ele>385</ele>
        <time>2011-08-28T11:03:04Z</time>
      </trkpt>
      <trkpt lat="45.3711" lon="1.40996">
        <ele>386</ele>
        <time>2011-08-28T11:03:05Z</time>
      </trkpt>
      <trkpt lat="45.37105" lon="1.41004">
        <ele>384</ele>
        <time>2011-08-28T11:03:07Z</time>
      </trkpt>
      <trkpt lat="45.37098" lon="1.41004">
        <ele>388</ele>
        <time>2011-08-28T11:03:09Z</time>
      </trkpt>
      <trkpt lat="45.3709" lon="1.41001">
        <ele>385</ele>
        <time>2011-08-28T11:03:11Z</time>
      </trkpt>
      <trkpt lat="45.37084" lon="1.41">
        <ele>383</ele>
        <time>2011-08-28T11:03:13Z</time>
      </trkpt>
      <trkpt lat="45.37079" lon="1.41">
        <ele>386</ele>
        <time>2011-08-28T11:03:15Z</time>
      </trkpt>
      <trkpt lat="45.37071" lon="1.41005">
        <ele>387</ele>
        <time>2011-08-28T11:03:17Z</time>
      </trkpt>
      <trkpt lat="45.37065" lon="1.41012">
        <ele>384</ele>
        <time>2011-08-28T11:03:19Z</time>
      </trkpt>
      <trkpt lat="45.37058" lon="1.41019">
        <ele>382</ele>
        <time>2011-08-28T11:03:21Z</time>
      </trkpt>
      <trkpt lat="45.37054" lon="1.41023">
        <ele>385</ele>
        <time>2011-08-28T11:03:22Z</time>
      </trkpt>
      <trkpt lat="45.37047" lon="1.4103">
        <ele>382</ele>
        <time>2011-08-28T11:03:24Z</time>
      </trkpt>
      <trkpt lat="45.37043" lon="1.41033">
        <ele>385</ele>
        <time>2011-08-28T11:03:25Z</time>
      </trkpt>
      <trkpt lat="45.37039" lon="1.41037">
        <ele>386</ele>
        <time>2011-08-28T11:03:26Z</time>
      </trkpt>
      <trkpt lat="45.37035" lon="1.41041">
        <ele>386</ele>
        <time>2011-08-28T11:03:27Z</time>
      </trkpt>
      <trkpt lat="45.37029" lon="1.41048">
        <ele>388</ele>
        <time>2011-08-28T11:03:29Z</time>
      </trkpt>
      <trkpt lat="45.37023" lon="1.41056">
        <ele>388</ele>
        <time>2011-08-28T11:03:31Z</time>
      </trkpt>
      <trkpt lat="45.37018" lon="1.4106">
        <ele>392</ele>
        <time>2011-08-28T11:03:32Z</time>
      </trkpt>
      <trkpt lat="45.37014" lon="1.41064">
        <ele>391</ele>
        <time>2011-08-28T11:03:33Z</time>
      </trkpt>
      <trkpt lat="45.37006" lon="1.41068">
        <ele>392</ele>
        <time>2011-08-28T11:03:35Z</time>
      </trkpt>
      <trkpt lat="45.36998" lon="1.41071">
        <ele>386</ele>
        <time>2011-08-28T11:03:37Z</time>
      </trkpt>
      <trkpt lat="45.36989" lon="1.41069">
        <ele>392</ele>
        <time>2011-08-28T11:03:39Z</time>
      </trkpt>
      <trkpt lat="45.3698" lon="1.41066">
        <ele>391</ele>
        <time>2011-08-28T11:03:41Z</time>
      </trkpt>
      <trkpt lat="45.36972" lon="1.41066">
        <ele>393</ele>
        <time>2011-08-28T11:03:43Z</time>
      </trkpt>
      <trkpt lat="45.36964" lon="1.41071">
        <ele>394</ele>
        <time>2011-08-28T11:03:45Z</time>
      </trkpt>
      <trkpt lat="45.36958" lon="1.41078">
        <ele>394</ele>
        <time>2011-08-28T11:03:47Z</time>
      </trkpt>
      <trkpt lat="45.36951" lon="1.41085">
        <ele>394</ele>
        <time>2011-08-28T11:03:49Z</time>
      </trkpt>
      <trkpt lat="45.36947" lon="1.41089">
        <ele>394</ele>
        <time>2011-08-28T11:03:51Z</time>
      </trkpt>
      <trkpt lat="45.36942" lon="1.41092">
        <ele>392</ele>
        <time>2011-08-28T11:03:53Z</time>
      </trkpt>
      <trkpt lat="45.36933" lon="1.41095">
        <ele>393</ele>
        <time>2011-08-28T11:03:55Z</time>
      </trkpt>
      <trkpt lat="45.36925" lon="1.41097">
        <ele>394</ele>
        <time>2011-08-28T11:03:57Z</time>
      </trkpt>
      <trkpt lat="45.3692" lon="1.411">
        <ele>394</ele>
        <time>2011-08-28T11:03:59Z</time>
      </trkpt>
      <trkpt lat="45.36913" lon="1.41108">
        <ele>400</ele>
        <time>2011-08-28T11:04:01Z</time>
      </trkpt>
      <trkpt lat="45.36909" lon="1.41111">
        <ele>399</ele>
        <time>2011-08-28T11:04:02Z</time>
      </trkpt>
      <trkpt lat="45.36905" lon="1.41115">
        <ele>395</ele>
        <time>2011-08-28T11:04:03Z</time>
      </trkpt>
      <trkpt lat="45.36902" lon="1.4112">
        <ele>394</ele>
        <time>2011-08-28T11:04:04Z</time>
      </trkpt>
      <trkpt lat="45.36899" lon="1.41125">
        <ele>396</ele>
        <time>2011-08-28T11:04:05Z</time>
      </trkpt>
      <trkpt lat="45.36895" lon="1.4113">
        <ele>395</ele>
        <time>2011-08-28T11:04:06Z</time>
      </trkpt>
      <trkpt lat="45.36889" lon="1.41137">
        <ele>400</ele>
        <time>2011-08-28T11:04:08Z</time>
      </trkpt>
      <trkpt lat="45.36886" lon="1.41142">
        <ele>400</ele>
        <time>2011-08-28T11:04:09Z</time>
      </trkpt>
      <trkpt lat="45.36883" lon="1.41147">
        <ele>398</ele>
        <time>2011-08-28T11:04:10Z</time>
      </trkpt>
      <trkpt lat="45.36879" lon="1.41152">
        <ele>398</ele>
        <time>2011-08-28T11:04:11Z</time>
      </trkpt>
      <trkpt lat="45.36876" lon="1.41162">
        <ele>396</ele>
        <time>2011-08-28T11:04:13Z</time>
      </trkpt>
      <trkpt lat="45.36875" lon="1.41171">
        <ele>394</ele>
        <time>2011-08-28T11:04:15Z</time>
      </trkpt>
      <trkpt lat="45.36876" lon="1.4118">
        <ele>390</ele>
        <time>2011-08-28T11:04:17Z</time>
      </trkpt>
      <trkpt lat="45.36876" lon="1.41188">
        <ele>390</ele>
        <time>2011-08-28T11:04:19Z</time>
      </trkpt>
      <trkpt lat="45.36875" lon="1.41195">
        <ele>389</ele>
        <time>2011-08-28T11:04:21Z</time>
      </trkpt>
      <trkpt lat="45.36872" lon="1.41203">
        <ele>393</ele>
        <time>2011-08-28T11:04:23Z</time>
      </trkpt>
      <trkpt lat="45.36865" lon="1.41208">
        <ele>395</ele>
        <time>2011-08-28T11:04:25Z</time>
      </trkpt>
      <trkpt lat="45.3686" lon="1.41211">
        <ele>394</ele>
        <time>2011-08-28T11:04:26Z</time>
      </trkpt>
      <trkpt lat="45.36852" lon="1.41213">
        <ele>393</ele>
        <time>2011-08-28T11:04:28Z</time>
      </trkpt>
      <trkpt lat="45.36845" lon="1.41213">
        <ele>395</ele>
        <time>2011-08-28T11:04:30Z</time>
      </trkpt>
      <trkpt lat="45.36839" lon="1.4121">
        <ele>397</ele>
        <time>2011-08-28T11:04:32Z</time>
      </trkpt>
      <trkpt lat="45.36832" lon="1.41206">
        <ele>396</ele>
        <time>2011-08-28T11:04:34Z</time>
      </trkpt>
      <trkpt lat="45.36825" lon="1.41202">
        <ele>395</ele>
        <time>2011-08-28T11:04:36Z</time>
      </trkpt>
      <trkpt lat="45.36817" lon="1.412">
        <ele>397</ele>
        <time>2011-08-28T11:04:39Z</time>
      </trkpt>
      <trkpt lat="45.36811" lon="1.41201">
        <ele>389</ele>
        <time>2011-08-28T11:05:04Z</time>
      </trkpt>
      <trkpt lat="45.36807" lon="1.41204">
        <ele>401</ele>
        <time>2011-08-28T11:05:42Z</time>
      </trkpt>
      <trkpt lat="45.36803" lon="1.41206">
        <ele>403</ele>
        <time>2011-08-28T11:05:46Z</time>
      </trkpt>
      <trkpt lat="45.36808" lon="1.41206">
        <ele>399</ele>
        <time>2011-08-28T11:06:22Z</time>
      </trkpt>
      <trkpt lat="45.36814" lon="1.41204">
        <ele>397</ele>
        <time>2011-08-28T11:06:26Z</time>
      </trkpt>
      <trkpt lat="45.36807" lon="1.41203">
        <ele>393</ele>
        <time>2011-08-28T11:06:47Z</time>
      </trkpt>
      <trkpt lat="45.36802" lon="1.41203">
        <ele>394</ele>
        <time>2011-08-28T11:06:50Z</time>
      </trkpt>
      <trkpt lat="45.36796" lon="1.41203">
        <ele>395</ele>
        <time>2011-08-28T11:06:53Z</time>
      </trkpt>
      <trkpt lat="45.3679" lon="1.41202">
        <ele>395</ele>
        <time>2011-08-28T11:06:55Z</time>
      </trkpt>
      <trkpt lat="45.36782" lon="1.412">
        <ele>395</ele>
        <time>2011-08-28T11:06:57Z</time>
      </trkpt>
      <trkpt lat="45.36775" lon="1.41198">
        <ele>397</ele>
        <time>2011-08-28T11:06:59Z</time>
      </trkpt>
      <trkpt lat="45.36769" lon="1.41196">
        <ele>396</ele>
        <time>2011-08-28T11:07:01Z</time>
      </trkpt>
      <trkpt lat="45.36765" lon="1.41192">
        <ele>393</ele>
        <time>2011-08-28T11:07:03Z</time>
      </trkpt>
      <trkpt lat="45.36761" lon="1.41187">
        <ele>391</ele>
        <time>2011-08-28T11:07:05Z</time>
      </trkpt>
      <trkpt lat="45.36757" lon="1.41178">
        <ele>388</ele>
        <time>2011-08-28T11:07:07Z</time>
      </trkpt>
      <trkpt lat="45.36756" lon="1.41169">
        <ele>390</ele>
        <time>2011-08-28T11:07:09Z</time>
      </trkpt>
      <trkpt lat="45.36755" lon="1.41163">
        <ele>392</ele>
        <time>2011-08-28T11:07:11Z</time>
      </trkpt>
      <trkpt lat="45.36754" lon="1.41156">
        <ele>389</ele>
        <time>2011-08-28T11:07:13Z</time>
      </trkpt>
      <trkpt lat="45.36752" lon="1.4115">
        <ele>389</ele>
        <time>2011-08-28T11:07:15Z</time>
      </trkpt>
      <trkpt lat="45.3675" lon="1.41143">
        <ele>388</ele>
        <time>2011-08-28T11:07:17Z</time>
      </trkpt>
      <trkpt lat="45.36747" lon="1.41137">
        <ele>387</ele>
        <time>2011-08-28T11:07:19Z</time>
      </trkpt>
      <trkpt lat="45.36743" lon="1.41132">
        <ele>386</ele>
        <time>2011-08-28T11:07:21Z</time>
      </trkpt>
      <trkpt lat="45.36737" lon="1.41129">
        <ele>387</ele>
        <time>2011-08-28T11:07:24Z</time>
      </trkpt>
      <trkpt lat="45.36732" lon="1.4113">
        <ele>387</ele>
        <time>2011-08-28T11:07:26Z</time>
      </trkpt>
      <trkpt lat="45.36727" lon="1.41131">
        <ele>388</ele>
        <time>2011-08-28T11:07:28Z</time>
      </trkpt>
      <trkpt lat="45.36722" lon="1.41133">
        <ele>388</ele>
        <time>2011-08-28T11:07:30Z</time>
      </trkpt>
      <trkpt lat="45.36718" lon="1.41136">
        <ele>388</ele>
        <time>2011-08-28T11:07:32Z</time>
      </trkpt>
      <trkpt lat="45.36714" lon="1.41142">
        <ele>387</ele>
        <time>2011-08-28T11:07:34Z</time>
      </trkpt>
      <trkpt lat="45.3671" lon="1.41148">
        <ele>386</ele>
        <time>2011-08-28T11:07:36Z</time>
      </trkpt>
      <trkpt lat="45.36707" lon="1.41158">
        <ele>390</ele>
        <time>2011-08-28T11:07:39Z</time>
      </trkpt>
      <trkpt lat="45.36703" lon="1.41165">
        <ele>387</ele>
        <time>2011-08-28T11:07:41Z</time>
      </trkpt>
      <trkpt lat="45.36698" lon="1.41173">
        <ele>389</ele>
        <time>2011-08-28T11:07:43Z</time>
      </trkpt>
      <trkpt lat="45.36694" lon="1.4118">
        <ele>388</ele>
        <time>2011-08-28T11:07:45Z</time>
      </trkpt>
      <trkpt lat="45.36689" lon="1.4119">
        <ele>389</ele>
        <time>2011-08-28T11:07:47Z</time>
      </trkpt>
      <trkpt lat="45.36683" lon="1.41198">
        <ele>389</ele>
        <time>2011-08-28T11:07:49Z</time>
      </trkpt>
      <trkpt lat="45.36677" lon="1.41204">
        <ele>387</ele>
        <time>2011-08-28T11:07:51Z</time>
      </trkpt>
      <trkpt lat="45.3667" lon="1.4121">
        <ele>387</ele>
        <time>2011-08-28T11:07:53Z</time>
      </trkpt>
      <trkpt lat="45.36663" lon="1.41213">
        <ele>386</ele>
        <time>2011-08-28T11:07:55Z</time>
      </trkpt>
      <trkpt lat="45.36657" lon="1.41216">
        <ele>388</ele>
        <time>2011-08-28T11:07:57Z</time>
      </trkpt>
      <trkpt lat="45.36653" lon="1.4122">
        <ele>390</ele>
        <time>2011-08-28T11:07:59Z</time>
      </trkpt>
      <trkpt lat="45.36649" lon="1.41224">
        <ele>391</ele>
        <time>2011-08-28T11:08:01Z</time>
      </trkpt>
      <trkpt lat="45.36643" lon="1.41229">
        <ele>393</ele>
        <time>2011-08-28T11:08:03Z</time>
      </trkpt>
      <trkpt lat="45.36638" lon="1.41232">
        <ele>396</ele>
        <time>2011-08-28T11:08:05Z</time>
      </trkpt>
      <trkpt lat="45.36632" lon="1.41236">
        <ele>396</ele>
        <time>2011-08-28T11:08:07Z</time>
      </trkpt>
      <trkpt lat="45.36625" lon="1.41238">
        <ele>394</ele>
        <time>2011-08-28T11:08:09Z</time>
      </trkpt>
      <trkpt lat="45.36619" lon="1.41239">
        <ele>391</ele>
        <time>2011-08-28T11:08:11Z</time>
      </trkpt>
      <trkpt lat="45.36613" lon="1.41237">
        <ele>392</ele>
        <time>2011-08-28T11:08:13Z</time>
      </trkpt>
      <trkpt lat="45.36606" lon="1.41231">
        <ele>393</ele>
        <time>2011-08-28T11:08:15Z</time>
      </trkpt>
      <trkpt lat="45.36601" lon="1.41224">
        <ele>396</ele>
        <time>2011-08-28T11:08:17Z</time>
      </trkpt>
      <trkpt lat="45.36596" lon="1.41217">
        <ele>394</ele>
        <time>2011-08-28T11:08:19Z</time>
      </trkpt>
      <trkpt lat="45.36592" lon="1.41208">
        <ele>392</ele>
        <time>2011-08-28T11:08:21Z</time>
      </trkpt>
      <trkpt lat="45.3659" lon="1.41199">
        <ele>396</ele>
        <time>2011-08-28T11:08:23Z</time>
      </trkpt>
      <trkpt lat="45.36589" lon="1.4119">
        <ele>396</ele>
        <time>2011-08-28T11:08:25Z</time>
      </trkpt>
      <trkpt lat="45.36586" lon="1.41181">
        <ele>397</ele>
        <time>2011-08-28T11:08:27Z</time>
      </trkpt>
      <trkpt lat="45.36584" lon="1.41171">
        <ele>396</ele>
        <time>2011-08-28T11:08:29Z</time>
      </trkpt>
      <trkpt lat="45.36581" lon="1.41162">
        <ele>392</ele>
        <time>2011-08-28T11:08:31Z</time>
      </trkpt>
      <trkpt lat="45.36576" lon="1.41155">
        <ele>390</ele>
        <time>2011-08-28T11:08:33Z</time>
      </trkpt>
      <trkpt lat="45.36571" lon="1.41152">
        <ele>389</ele>
        <time>2011-08-28T11:08:35Z</time>
      </trkpt>
      <trkpt lat="45.36565" lon="1.41151">
        <ele>389</ele>
        <time>2011-08-28T11:08:37Z</time>
      </trkpt>
      <trkpt lat="45.36559" lon="1.4115">
        <ele>392</ele>
        <time>2011-08-28T11:08:39Z</time>
      </trkpt>
      <trkpt lat="45.3655" lon="1.41151">
        <ele>390</ele>
        <time>2011-08-28T11:08:41Z</time>
      </trkpt>
      <trkpt lat="45.36545" lon="1.41151">
        <ele>390</ele>
        <time>2011-08-28T11:08:42Z</time>
      </trkpt>
      <trkpt lat="45.36538" lon="1.41152">
        <ele>385</ele>
        <time>2011-08-28T11:08:44Z</time>
      </trkpt>
      <trkpt lat="45.3653" lon="1.41153">
        <ele>387</ele>
        <time>2011-08-28T11:08:46Z</time>
      </trkpt>
      <trkpt lat="45.36523" lon="1.41154">
        <ele>382</ele>
        <time>2011-08-28T11:08:48Z</time>
      </trkpt>
      <trkpt lat="45.36514" lon="1.41154">
        <ele>386</ele>
        <time>2011-08-28T11:08:50Z</time>
      </trkpt>
      <trkpt lat="45.36507" lon="1.41156">
        <ele>386</ele>
        <time>2011-08-28T11:08:52Z</time>
      </trkpt>
      <trkpt lat="45.365" lon="1.41154">
        <ele>385</ele>
        <time>2011-08-28T11:08:54Z</time>
      </trkpt>
      <trkpt lat="45.36498" lon="1.41148">
        <ele>387</ele>
        <time>2011-08-28T11:08:56Z</time>
      </trkpt>
      <trkpt lat="45.36499" lon="1.41139">
        <ele>395</ele>
        <time>2011-08-28T11:09:32Z</time>
      </trkpt>
      <trkpt lat="45.36504" lon="1.41132">
        <ele>397</ele>
        <time>2011-08-28T11:09:35Z</time>
      </trkpt>
      <trkpt lat="45.36507" lon="1.41126">
        <ele>398</ele>
        <time>2011-08-28T11:09:37Z</time>
      </trkpt>
      <trkpt lat="45.3651" lon="1.4112">
        <ele>398</ele>
        <time>2011-08-28T11:09:39Z</time>
      </trkpt>
      <trkpt lat="45.36513" lon="1.41115">
        <ele>397</ele>
        <time>2011-08-28T11:09:41Z</time>
      </trkpt>
      <trkpt lat="45.36516" lon="1.41109">
        <ele>397</ele>
        <time>2011-08-28T11:09:43Z</time>
      </trkpt>
      <trkpt lat="45.36519" lon="1.41103">
        <ele>401</ele>
        <time>2011-08-28T11:09:46Z</time>
      </trkpt>
      <trkpt lat="45.36524" lon="1.41098">
        <ele>401</ele>
        <time>2011-08-28T11:09:50Z</time>
      </trkpt>
      <trkpt lat="45.36529" lon="1.41095">
        <ele>403</ele>
        <time>2011-08-28T11:09:53Z</time>
      </trkpt>
      <trkpt lat="45.36534" lon="1.41091">
        <ele>403</ele>
        <time>2011-08-28T11:09:56Z</time>
      </trkpt>
      <trkpt lat="45.36538" lon="1.41088">
        <ele>401</ele>
        <time>2011-08-28T11:09:58Z</time>
      </trkpt>
      <trkpt lat="45.36542" lon="1.41085">
        <ele>401</ele>
        <time>2011-08-28T11:10:00Z</time>
      </trkpt>
      <trkpt lat="45.36548" lon="1.4108">
        <ele>397</ele>
        <time>2011-08-28T11:10:03Z</time>
      </trkpt>
      <trkpt lat="45.36552" lon="1.41076">
        <ele>397</ele>
        <time>2011-08-28T11:10:06Z</time>
      </trkpt>
      <trkpt lat="45.36556" lon="1.41072">
        <ele>397</ele>
        <time>2011-08-28T11:10:09Z</time>
      </trkpt>
      <trkpt lat="45.3656" lon="1.41066">
        <ele>399</ele>
        <time>2011-08-28T11:10:12Z</time>
      </trkpt>
      <trkpt lat="45.36565" lon="1.41063">
        <ele>398</ele>
        <time>2011-08-28T11:10:15Z</time>
      </trkpt>
      <trkpt lat="45.3657" lon="1.41059">
        <ele>399</ele>
        <time>2011-08-28T11:10:18Z</time>
      </trkpt>
      <trkpt lat="45.36575" lon="1.41055">
        <ele>400</ele>
        <time>2011-08-28T11:10:21Z</time>
      </trkpt>
      <trkpt lat="45.3658" lon="1.41051">
        <ele>401</ele>
        <time>2011-08-28T11:10:24Z</time>
      </trkpt>
      <trkpt lat="45.36585" lon="1.41047">
        <ele>402</ele>
        <time>2011-08-28T11:10:27Z</time>
      </trkpt>
      <trkpt lat="45.3659" lon="1.41044">
        <ele>403</ele>
        <time>2011-08-28T11:10:30Z</time>
      </trkpt>
      <trkpt lat="45.36594" lon="1.41042">
        <ele>406</ele>
        <time>2011-08-28T11:10:34Z</time>
      </trkpt>
      <trkpt lat="45.36598" lon="1.41038">
        <ele>406</ele>
        <time>2011-08-28T11:10:37Z</time>
      </trkpt>
      <trkpt lat="45.36603" lon="1.41036">
        <ele>406</ele>
        <time>2011-08-28T11:10:40Z</time>
      </trkpt>
      <trkpt lat="45.36607" lon="1.41033">
        <ele>406</ele>
        <time>2011-08-28T11:10:43Z</time>
      </trkpt>
      <trkpt lat="45.36612" lon="1.41029">
        <ele>405</ele>
        <time>2011-08-28T11:10:46Z</time>
      </trkpt>
      <trkpt lat="45.36617" lon="1.41025">
        <ele>407</ele>
        <time>2011-08-28T11:10:49Z</time>
      </trkpt>
      <trkpt lat="45.36622" lon="1.41022">
        <ele>410</ele>
        <time>2011-08-28T11:10:52Z</time>
      </trkpt>
      <trkpt lat="45.36628" lon="1.41017">
        <ele>409</ele>
        <time>2011-08-28T11:10:55Z</time>
      </trkpt>
      <trkpt lat="45.36633" lon="1.41013">
        <ele>409</ele>
        <time>2011-08-28T11:10:58Z</time>
      </trkpt>
      <trkpt lat="45.36638" lon="1.41009">
        <ele>409</ele>
        <time>2011-08-28T11:11:01Z</time>
      </trkpt>
      <trkpt lat="45.36644" lon="1.41004">
        <ele>408</ele>
        <time>2011-08-28T11:11:04Z</time>
      </trkpt>
      <trkpt lat="45.36649" lon="1.41">
        <ele>407</ele>
        <time>2011-08-28T11:11:07Z</time>
      </trkpt>
      <trkpt lat="45.36654" lon="1.40995">
        <ele>408</ele>
        <time>2011-08-28T11:11:10Z</time>
      </trkpt>
      <trkpt lat="45.36659" lon="1.4099">
        <ele>407</ele>
        <time>2011-08-28T11:11:13Z</time>
      </trkpt>
      <trkpt lat="45.36664" lon="1.40986">
        <ele>409</ele>
        <time>2011-08-28T11:11:16Z</time>
      </trkpt>
      <trkpt lat="45.36669" lon="1.40982">
        <ele>410</ele>
        <time>2011-08-28T11:11:19Z</time>
      </trkpt>
      <trkpt lat="45.36675" lon="1.40979">
        <ele>411</ele>
        <time>2011-08-28T11:11:22Z</time>
      </trkpt>
      <trkpt lat="45.3668" lon="1.40975">
        <ele>412</ele>
        <time>2011-08-28T11:11:25Z</time>
      </trkpt>
      <trkpt lat="45.36685" lon="1.40971">
        <ele>412</ele>
        <time>2011-08-28T11:11:28Z</time>
      </trkpt>
      <trkpt lat="45.36689" lon="1.40967">
        <ele>412</ele>
        <time>2011-08-28T11:11:31Z</time>
      </trkpt>
      <trkpt lat="45.36695" lon="1.40963">
        <ele>412</ele>
        <time>2011-08-28T11:11:34Z</time>
      </trkpt>
      <trkpt lat="45.367" lon="1.40959">
        <ele>413</ele>
        <time>2011-08-28T11:11:37Z</time>
      </trkpt>
      <trkpt lat="45.36704" lon="1.40955">
        <ele>414</ele>
        <time>2011-08-28T11:11:39Z</time>
      </trkpt>
      <trkpt lat="45.36708" lon="1.40951">
        <ele>414</ele>
        <time>2011-08-28T11:11:42Z</time>
      </trkpt>
      <trkpt lat="45.36714" lon="1.40947">
        <ele>413</ele>
        <time>2011-08-28T11:11:45Z</time>
      </trkpt>
      <trkpt lat="45.36719" lon="1.40943">
        <ele>415</ele>
        <time>2011-08-28T11:11:48Z</time>
      </trkpt>
      <trkpt lat="45.36723" lon="1.40939">
        <ele>415</ele>
        <time>2011-08-28T11:11:51Z</time>
      </trkpt>
      <trkpt lat="45.36729" lon="1.40936">
        <ele>420</ele>
        <time>2011-08-28T11:11:54Z</time>
      </trkpt>
      <trkpt lat="45.36734" lon="1.40938">
        <ele>420</ele>
        <time>2011-08-28T11:11:57Z</time>
      </trkpt>
      <trkpt lat="45.36738" lon="1.40941">
        <ele>419</ele>
        <time>2011-08-28T11:12:01Z</time>
      </trkpt>
      <trkpt lat="45.3674" lon="1.40947">
        <ele>416</ele>
        <time>2011-08-28T11:12:05Z</time>
      </trkpt>
      <trkpt lat="45.36736" lon="1.4094">
        <ele>416</ele>
        <time>2011-08-28T11:12:14Z</time>
      </trkpt>
      <trkpt lat="45.3673" lon="1.40931">
        <ele>419</ele>
        <time>2011-08-28T11:13:21Z</time>
      </trkpt>
      <trkpt lat="45.36726" lon="1.40926">
        <ele>418</ele>
        <time>2011-08-28T11:13:23Z</time>
      </trkpt>
      <trkpt lat="45.36723" lon="1.40921">
        <ele>417</ele>
        <time>2011-08-28T11:13:25Z</time>
      </trkpt>
      <trkpt lat="45.36719" lon="1.40914">
        <ele>418</ele>
        <time>2011-08-28T11:13:27Z</time>
      </trkpt>
      <trkpt lat="45.36715" lon="1.40907">
        <ele>417</ele>
        <time>2011-08-28T11:13:29Z</time>
      </trkpt>
      <trkpt lat="45.36711" lon="1.40899">
        <ele>415</ele>
        <time>2011-08-28T11:13:31Z</time>
      </trkpt>
      <trkpt lat="45.36705" lon="1.40889">
        <ele>414</ele>
        <time>2011-08-28T11:13:33Z</time>
      </trkpt>
      <trkpt lat="45.367" lon="1.40878">
        <ele>413</ele>
        <time>2011-08-28T11:13:35Z</time>
      </trkpt>
      <trkpt lat="45.36697" lon="1.40873">
        <ele>412</ele>
        <time>2011-08-28T11:13:36Z</time>
      </trkpt>
      <trkpt lat="45.36691" lon="1.40864">
        <ele>412</ele>
        <time>2011-08-28T11:13:38Z</time>
      </trkpt>
      <trkpt lat="45.36687" lon="1.40854">
        <ele>411</ele>
        <time>2011-08-28T11:13:40Z</time>
      </trkpt>
      <trkpt lat="45.36681" lon="1.40844">
        <ele>410</ele>
        <time>2011-08-28T11:13:42Z</time>
      </trkpt>
      <trkpt lat="45.36678" lon="1.40837">
        <ele>410</ele>
        <time>2011-08-28T11:13:43Z</time>
      </trkpt>
      <trkpt lat="45.36674" lon="1.40831">
        <ele>409</ele>
        <time>2011-08-28T11:13:44Z</time>
      </trkpt>
      <trkpt lat="45.36672" lon="1.40826">
        <ele>409</ele>
        <time>2011-08-28T11:13:45Z</time>
      </trkpt>
      <trkpt lat="45.36669" lon="1.4082">
        <ele>409</ele>
        <time>2011-08-28T11:13:46Z</time>
      </trkpt>
      <trkpt lat="45.36666" lon="1.40814">
        <ele>408</ele>
        <time>2011-08-28T11:13:47Z</time>
      </trkpt>
      <trkpt lat="45.36663" lon="1.40809">
        <ele>408</ele>
        <time>2011-08-28T11:13:48Z</time>
      </trkpt>
      <trkpt lat="45.3666" lon="1.40804">
        <ele>408</ele>
        <time>2011-08-28T11:13:49Z</time>
      </trkpt>
      <trkpt lat="45.36657" lon="1.40798">
        <ele>407</ele>
        <time>2011-08-28T11:13:50Z</time>
      </trkpt>
      <trkpt lat="45.36654" lon="1.40793">
        <ele>407</ele>
        <time>2011-08-28T11:13:51Z</time>
      </trkpt>
      <trkpt lat="45.36651" lon="1.40783">
        <ele>406</ele>
        <time>2011-08-28T11:13:53Z</time>
      </trkpt>
      <trkpt lat="45.36652" lon="1.40774">
        <ele>406</ele>
        <time>2011-08-28T11:13:55Z</time>
      </trkpt>
      <trkpt lat="45.36656" lon="1.40768">
        <ele>406</ele>
        <time>2011-08-28T11:13:57Z</time>
      </trkpt>
      <trkpt lat="45.36659" lon="1.40761">
        <ele>407</ele>
        <time>2011-08-28T11:13:59Z</time>
      </trkpt>
      <trkpt lat="45.36663" lon="1.40754">
        <ele>407</ele>
        <time>2011-08-28T11:14:01Z</time>
      </trkpt>
      <trkpt lat="45.36666" lon="1.40748">
        <ele>407</ele>
        <time>2011-08-28T11:14:03Z</time>
      </trkpt>
      <trkpt lat="45.36669" lon="1.40743">
        <ele>407</ele>
        <time>2011-08-28T11:14:05Z</time>
      </trkpt>
      <trkpt lat="45.36674" lon="1.40737">
        <ele>408</ele>
        <time>2011-08-28T11:14:08Z</time>
      </trkpt>
      <trkpt lat="45.36678" lon="1.40729">
        <ele>408</ele>
        <time>2011-08-28T11:14:11Z</time>
      </trkpt>
      <trkpt lat="45.36681" lon="1.40722">
        <ele>408</ele>
        <time>2011-08-28T11:14:13Z</time>
      </trkpt>
      <trkpt lat="45.36684" lon="1.40716">
        <ele>408</ele>
        <time>2011-08-28T11:14:15Z</time>
      </trkpt>
      <trkpt lat="45.36687" lon="1.40709">
        <ele>408</ele>
        <time>2011-08-28T11:14:17Z</time>
      </trkpt>
      <trkpt lat="45.3669" lon="1.40702">
        <ele>408</ele>
        <time>2011-08-28T11:14:19Z</time>
      </trkpt>
      <trkpt lat="45.36693" lon="1.40696">
        <ele>408</ele>
        <time>2011-08-28T11:14:21Z</time>
      </trkpt>
      <trkpt lat="45.36696" lon="1.4069">
        <ele>409</ele>
        <time>2011-08-28T11:14:23Z</time>
      </trkpt>
      <trkpt lat="45.36699" lon="1.40683">
        <ele>409</ele>
        <time>2011-08-28T11:14:25Z</time>
      </trkpt>
      <trkpt lat="45.36702" lon="1.40677">
        <ele>409</ele>
        <time>2011-08-28T11:14:27Z</time>
      </trkpt>
      <trkpt lat="45.36704" lon="1.4067">
        <ele>409</ele>
        <time>2011-08-28T11:14:29Z</time>
      </trkpt>
      <trkpt lat="45.36707" lon="1.40664">
        <ele>410</ele>
        <time>2011-08-28T11:14:31Z</time>
      </trkpt>
      <trkpt lat="45.3671" lon="1.40658">
        <ele>410</ele>
        <time>2011-08-28T11:14:33Z</time>
      </trkpt>
      <trkpt lat="45.36714" lon="1.40653">
        <ele>411</ele>
        <time>2011-08-28T11:14:35Z</time>
      </trkpt>
      <trkpt lat="45.36717" lon="1.40647">
        <ele>411</ele>
        <time>2011-08-28T11:14:37Z</time>
      </trkpt>
      <trkpt lat="45.36721" lon="1.40642">
        <ele>411</ele>
        <time>2011-08-28T11:14:39Z</time>
      </trkpt>
      <trkpt lat="45.36725" lon="1.40636">
        <ele>412</ele>
        <time>2011-08-28T11:14:41Z</time>
      </trkpt>
      <trkpt lat="45.3673" lon="1.40632">
        <ele>411</ele>
        <time>2011-08-28T11:14:43Z</time>
      </trkpt>
      <trkpt lat="45.36734" lon="1.40627">
        <ele>411</ele>
        <time>2011-08-28T11:14:45Z</time>
      </trkpt>
      <trkpt lat="45.36738" lon="1.40622">
        <ele>412</ele>
        <time>2011-08-28T11:14:47Z</time>
      </trkpt>
      <trkpt lat="45.36742" lon="1.40618">
        <ele>412</ele>
        <time>2011-08-28T11:14:49Z</time>
      </trkpt>
      <trkpt lat="45.36746" lon="1.40615">
        <ele>412</ele>
        <time>2011-08-28T11:14:51Z</time>
      </trkpt>
      <trkpt lat="45.36751" lon="1.40609">
        <ele>412</ele>
        <time>2011-08-28T11:14:54Z</time>
      </trkpt>
      <trkpt lat="45.36756" lon="1.40604">
        <ele>412</ele>
        <time>2011-08-28T11:14:57Z</time>
      </trkpt>
      <trkpt lat="45.36761" lon="1.40598">
        <ele>413</ele>
        <time>2011-08-28T11:15:00Z</time>
      </trkpt>
      <trkpt lat="45.36767" lon="1.40593">
        <ele>414</ele>
        <time>2011-08-28T11:15:03Z</time>
      </trkpt>
      <trkpt lat="45.36771" lon="1.40589">
        <ele>414</ele>
        <time>2011-08-28T11:15:05Z</time>
      </trkpt>
      <trkpt lat="45.36775" lon="1.40584">
        <ele>414</ele>
        <time>2011-08-28T11:15:07Z</time>
      </trkpt>
      <trkpt lat="45.36779" lon="1.4058">
        <ele>414</ele>
        <time>2011-08-28T11:15:09Z</time>
      </trkpt>
      <trkpt lat="45.36783" lon="1.40576">
        <ele>415</ele>
        <time>2011-08-28T11:15:11Z</time>
      </trkpt>
      <trkpt lat="45.36787" lon="1.40572">
        <ele>415</ele>
        <time>2011-08-28T11:15:13Z</time>
      </trkpt>
      <trkpt lat="45.36791" lon="1.40569">
        <ele>414</ele>
        <time>2011-08-28T11:15:15Z</time>
      </trkpt>
      <trkpt lat="45.36796" lon="1.40564">
        <ele>414</ele>
        <time>2011-08-28T11:15:18Z</time>
      </trkpt>
      <trkpt lat="45.368" lon="1.4056">
        <ele>414</ele>
        <time>2011-08-28T11:15:20Z</time>
      </trkpt>
      <trkpt lat="45.36805" lon="1.40552">
        <ele>413</ele>
        <time>2011-08-28T11:15:22Z</time>
      </trkpt>
      <trkpt lat="45.36812" lon="1.40545">
        <ele>409</ele>
        <time>2011-08-28T11:15:24Z</time>
      </trkpt>
      <trkpt lat="45.36816" lon="1.40542">
        <ele>409</ele>
        <time>2011-08-28T11:15:25Z</time>
      </trkpt>
      <trkpt lat="45.36821" lon="1.40539">
        <ele>410</ele>
        <time>2011-08-28T11:15:26Z</time>
      </trkpt>
      <trkpt lat="45.36825" lon="1.40536">
        <ele>411</ele>
        <time>2011-08-28T11:15:27Z</time>
      </trkpt>
      <trkpt lat="45.3683" lon="1.40532">
        <ele>413</ele>
        <time>2011-08-28T11:15:29Z</time>
      </trkpt>
      <trkpt lat="45.36835" lon="1.40529">
        <ele>414</ele>
        <time>2011-08-28T11:15:31Z</time>
      </trkpt>
      <trkpt lat="45.3684" lon="1.40526">
        <ele>413</ele>
        <time>2011-08-28T11:15:33Z</time>
      </trkpt>
      <trkpt lat="45.36846" lon="1.40522">
        <ele>414</ele>
        <time>2011-08-28T11:15:35Z</time>
      </trkpt>
      <trkpt lat="45.36852" lon="1.40519">
        <ele>414</ele>
        <time>2011-08-28T11:15:37Z</time>
      </trkpt>
      <trkpt lat="45.36857" lon="1.40515">
        <ele>415</ele>
        <time>2011-08-28T11:15:39Z</time>
      </trkpt>
      <trkpt lat="45.36863" lon="1.40511">
        <ele>415</ele>
        <time>2011-08-28T11:15:41Z</time>
      </trkpt>
      <trkpt lat="45.3687" lon="1.40506">
        <ele>415</ele>
        <time>2011-08-28T11:15:43Z</time>
      </trkpt>
      <trkpt lat="45.36876" lon="1.40503">
        <ele>415</ele>
        <time>2011-08-28T11:15:45Z</time>
      </trkpt>
      <trkpt lat="45.36881" lon="1.40498">
        <ele>415</ele>
        <time>2011-08-28T11:15:47Z</time>
      </trkpt>
      <trkpt lat="45.36886" lon="1.40495">
        <ele>416</ele>
        <time>2011-08-28T11:15:49Z</time>
      </trkpt>
      <trkpt lat="45.36891" lon="1.4049">
        <ele>416</ele>
        <time>2011-08-28T11:15:51Z</time>
      </trkpt>
      <trkpt lat="45.36897" lon="1.40486">
        <ele>416</ele>
        <time>2011-08-28T11:15:53Z</time>
      </trkpt>
      <trkpt lat="45.36902" lon="1.40482">
        <ele>417</ele>
        <time>2011-08-28T11:15:55Z</time>
      </trkpt>
      <trkpt lat="45.36908" lon="1.4048">
        <ele>417</ele>
        <time>2011-08-28T11:15:57Z</time>
      </trkpt>
      <trkpt lat="45.36914" lon="1.40476">
        <ele>417</ele>
        <time>2011-08-28T11:15:59Z</time>
      </trkpt>
      <trkpt lat="45.36919" lon="1.40473">
        <ele>417</ele>
        <time>2011-08-28T11:16:01Z</time>
      </trkpt>
      <trkpt lat="45.36925" lon="1.4047">
        <ele>417</ele>
        <time>2011-08-28T11:16:03Z</time>
      </trkpt>
      <trkpt lat="45.36931" lon="1.40467">
        <ele>418</ele>
        <time>2011-08-28T11:16:05Z</time>
      </trkpt>
      <trkpt lat="45.36938" lon="1.40464">
        <ele>418</ele>
        <time>2011-08-28T11:16:07Z</time>
      </trkpt>
      <trkpt lat="45.36944" lon="1.40462">
        <ele>419</ele>
        <time>2011-08-28T11:16:09Z</time>
      </trkpt>
      <trkpt lat="45.3695" lon="1.40459">
        <ele>419</ele>
        <time>2011-08-28T11:16:11Z</time>
      </trkpt>
      <trkpt lat="45.36956" lon="1.40456">
        <ele>419</ele>
        <time>2011-08-28T11:16:13Z</time>
      </trkpt>
      <trkpt lat="45.36962" lon="1.40452">
        <ele>419</ele>
        <time>2011-08-28T11:16:15Z</time>
      </trkpt>
      <trkpt lat="45.36968" lon="1.40449">
        <ele>420</ele>
        <time>2011-08-28T11:16:17Z</time>
      </trkpt>
      <trkpt lat="45.36974" lon="1.40445">
        <ele>420</ele>
        <time>2011-08-28T11:16:19Z</time>
      </trkpt>
      <trkpt lat="45.3698" lon="1.40442">
        <ele>420</ele>
        <time>2011-08-28T11:16:21Z</time>
      </trkpt>
      <trkpt lat="45.36986" lon="1.40438">
        <ele>420</ele>
        <time>2011-08-28T11:16:23Z</time>
      </trkpt>
      <trkpt lat="45.36992" lon="1.40433">
        <ele>421</ele>
        <time>2011-08-28T11:16:25Z</time>
      </trkpt>
      <trkpt lat="45.36997" lon="1.40429">
        <ele>421</ele>
        <time>2011-08-28T11:16:27Z</time>
      </trkpt>
      <trkpt lat="45.37002" lon="1.40423">
        <ele>421</ele>
        <time>2011-08-28T11:16:29Z</time>
      </trkpt>
      <trkpt lat="45.37006" lon="1.40418">
        <ele>422</ele>
        <time>2011-08-28T11:16:31Z</time>
      </trkpt>
      <trkpt lat="45.3701" lon="1.40412">
        <ele>423</ele>
        <time>2011-08-28T11:16:33Z</time>
      </trkpt>
      <trkpt lat="45.37014" lon="1.40407">
        <ele>423</ele>
        <time>2011-08-28T11:16:35Z</time>
      </trkpt>
      <trkpt lat="45.37018" lon="1.40401">
        <ele>422</ele>
        <time>2011-08-28T11:16:37Z</time>
      </trkpt>
      <trkpt lat="45.37022" lon="1.40396">
        <ele>422</ele>
        <time>2011-08-28T11:16:39Z</time>
      </trkpt>
      <trkpt lat="45.37026" lon="1.40392">
        <ele>423</ele>
        <time>2011-08-28T11:16:41Z</time>
      </trkpt>
      <trkpt lat="45.37032" lon="1.40387">
        <ele>423</ele>
        <time>2011-08-28T11:16:44Z</time>
      </trkpt>
      <trkpt lat="45.37036" lon="1.40382">
        <ele>424</ele>
        <time>2011-08-28T11:16:47Z</time>
      </trkpt>
      <trkpt lat="45.3704" lon="1.40377">
        <ele>424</ele>
        <time>2011-08-28T11:16:50Z</time>
      </trkpt>
      <trkpt lat="45.37044" lon="1.40378">
        <ele>422</ele>
        <time>2011-08-28T11:17:57Z</time>
      </trkpt>
      <trkpt lat="45.3705" lon="1.40375">
        <ele>423</ele>
        <time>2011-08-28T11:18:01Z</time>
      </trkpt>
      <trkpt lat="45.37055" lon="1.40374">
        <ele>424</ele>
        <time>2011-08-28T11:18:03Z</time>
      </trkpt>
      <trkpt lat="45.3706" lon="1.40372">
        <ele>426</ele>
        <time>2011-08-28T11:18:05Z</time>
      </trkpt>
      <trkpt lat="45.37065" lon="1.4037">
        <ele>427</ele>
        <time>2011-08-28T11:18:07Z</time>
      </trkpt>
      <trkpt lat="45.3707" lon="1.40368">
        <ele>427</ele>
        <time>2011-08-28T11:18:09Z</time>
      </trkpt>
      <trkpt lat="45.37076" lon="1.40365">
        <ele>425</ele>
        <time>2011-08-28T11:18:11Z</time>
      </trkpt>
      <trkpt lat="45.37082" lon="1.40362">
        <ele>425</ele>
        <time>2011-08-28T11:18:13Z</time>
      </trkpt>
      <trkpt lat="45.37087" lon="1.4036">
        <ele>425</ele>
        <time>2011-08-28T11:18:15Z</time>
      </trkpt>
      <trkpt lat="45.37093" lon="1.40357">
        <ele>425</ele>
        <time>2011-08-28T11:18:17Z</time>
      </trkpt>
      <trkpt lat="45.37098" lon="1.40354">
        <ele>425</ele>
        <time>2011-08-28T11:18:19Z</time>
      </trkpt>
      <trkpt lat="45.37103" lon="1.40353">
        <ele>426</ele>
        <time>2011-08-28T11:18:21Z</time>
      </trkpt>
      <trkpt lat="45.37107" lon="1.4035">
        <ele>425</ele>
        <time>2011-08-28T11:18:23Z</time>
      </trkpt>
      <trkpt lat="45.37114" lon="1.40348">
        <ele>427</ele>
        <time>2011-08-28T11:18:26Z</time>
      </trkpt>
      <trkpt lat="45.37119" lon="1.40345">
        <ele>428</ele>
        <time>2011-08-28T11:18:28Z</time>
      </trkpt>
      <trkpt lat="45.37124" lon="1.40342">
        <ele>429</ele>
        <time>2011-08-28T11:18:30Z</time>
      </trkpt>
      <trkpt lat="45.3713" lon="1.40337">
        <ele>430</ele>
        <time>2011-08-28T11:18:33Z</time>
      </trkpt>
      <trkpt lat="45.37134" lon="1.40332">
        <ele>432</ele>
        <time>2011-08-28T11:18:36Z</time>
      </trkpt>
      <trkpt lat="45.37138" lon="1.40328">
        <ele>434</ele>
        <time>2011-08-28T11:18:38Z</time>
      </trkpt>
      <trkpt lat="45.37142" lon="1.40322">
        <ele>434</ele>
        <time>2011-08-28T11:18:41Z</time>
      </trkpt>
      <trkpt lat="45.37144" lon="1.40317">
        <ele>434</ele>
        <time>2011-08-28T11:18:44Z</time>
      </trkpt>
      <trkpt lat="45.37149" lon="1.40312">
        <ele>434</ele>
        <time>2011-08-28T11:18:47Z</time>
      </trkpt>
      <trkpt lat="45.3715" lon="1.40304">
        <ele>433</ele>
        <time>2011-08-28T11:18:53Z</time>
      </trkpt>
      <trkpt lat="45.37148" lon="1.40295">
        <ele>432</ele>
        <time>2011-08-28T11:18:56Z</time>
      </trkpt>
      <trkpt lat="45.37148" lon="1.40286">
        <ele>432</ele>
        <time>2011-08-28T11:18:58Z</time>
      </trkpt>
      <trkpt lat="45.37148" lon="1.40278">
        <ele>432</ele>
        <time>2011-08-28T11:19:00Z</time>
      </trkpt>
      <trkpt lat="45.37147" lon="1.40269">
        <ele>432</ele>
        <time>2011-08-28T11:19:02Z</time>
      </trkpt>
      <trkpt lat="45.37146" lon="1.40261">
        <ele>433</ele>
        <time>2011-08-28T11:19:04Z</time>
      </trkpt>
      <trkpt lat="45.37146" lon="1.40252">
        <ele>433</ele>
        <time>2011-08-28T11:19:06Z</time>
      </trkpt>
      <trkpt lat="45.37145" lon="1.40243">
        <ele>434</ele>
        <time>2011-08-28T11:19:08Z</time>
      </trkpt>
      <trkpt lat="45.37144" lon="1.40234">
        <ele>434</ele>
        <time>2011-08-28T11:19:10Z</time>
      </trkpt>
      <trkpt lat="45.37143" lon="1.40225">
        <ele>436</ele>
        <time>2011-08-28T11:19:12Z</time>
      </trkpt>
      <trkpt lat="45.37142" lon="1.40216">
        <ele>437</ele>
        <time>2011-08-28T11:19:14Z</time>
      </trkpt>
      <trkpt lat="45.3714" lon="1.40209">
        <ele>437</ele>
        <time>2011-08-28T11:19:16Z</time>
      </trkpt>
      <trkpt lat="45.37139" lon="1.40202">
        <ele>436</ele>
        <time>2011-08-28T11:19:18Z</time>
      </trkpt>
      <trkpt lat="45.3714" lon="1.40194">
        <ele>438</ele>
        <time>2011-08-28T11:19:21Z</time>
      </trkpt>
      <trkpt lat="45.37144" lon="1.4019">
        <ele>439</ele>
        <time>2011-08-28T11:19:25Z</time>
      </trkpt>
      <trkpt lat="45.37146" lon="1.40196">
        <ele>440</ele>
        <time>2011-08-28T11:19:28Z</time>
      </trkpt>
      <trkpt lat="45.37147" lon="1.40204">
        <ele>442</ele>
        <time>2011-08-28T11:19:30Z</time>
      </trkpt>
      <trkpt lat="45.3715" lon="1.402">
        <ele>444</ele>
        <time>2011-08-28T11:19:37Z</time>
      </trkpt>
      <trkpt lat="45.37151" lon="1.40194">
        <ele>442</ele>
        <time>2011-08-28T11:19:39Z</time>
      </trkpt>
      <trkpt lat="45.37151" lon="1.40184">
        <ele>441</ele>
        <time>2011-08-28T11:19:41Z</time>
      </trkpt>
      <trkpt lat="45.37151" lon="1.40175">
        <ele>445</ele>
        <time>2011-08-28T11:19:43Z</time>
      </trkpt>
      <trkpt lat="45.37153" lon="1.40167">
        <ele>442</ele>
        <time>2011-08-28T11:19:45Z</time>
      </trkpt>
      <trkpt lat="45.37158" lon="1.40168">
        <ele>440</ele>
        <time>2011-08-28T11:19:48Z</time>
      </trkpt>
      <trkpt lat="45.37161" lon="1.40173">
        <ele>438</ele>
        <time>2011-08-28T11:19:53Z</time>
      </trkpt>
      <trkpt lat="45.37163" lon="1.4018">
        <ele>440</ele>
        <time>2011-08-28T11:19:57Z</time>
      </trkpt>
      <trkpt lat="45.37165" lon="1.40187">
        <ele>440</ele>
        <time>2011-08-28T11:20:01Z</time>
      </trkpt>
      <trkpt lat="45.37166" lon="1.40193">
        <ele>441</ele>
        <time>2011-08-28T11:20:04Z</time>
      </trkpt>
      <trkpt lat="45.37167" lon="1.402">
        <ele>441</ele>
        <time>2011-08-28T11:20:07Z</time>
      </trkpt>
      <trkpt lat="45.37168" lon="1.40207">
        <ele>440</ele>
        <time>2011-08-28T11:20:10Z</time>
      </trkpt>
      <trkpt lat="45.37167" lon="1.40215">
        <ele>440</ele>
        <time>2011-08-28T11:20:13Z</time>
      </trkpt>
      <trkpt lat="45.37166" lon="1.40221">
        <ele>440</ele>
        <time>2011-08-28T11:20:15Z</time>
      </trkpt>
      <trkpt lat="45.37162" lon="1.40226">
        <ele>441</ele>
        <time>2011-08-28T11:20:17Z</time>
      </trkpt>
      <trkpt lat="45.37161" lon="1.40218">
        <ele>442</ele>
        <time>2011-08-28T11:20:37Z</time>
      </trkpt>
      <trkpt lat="45.37163" lon="1.40211">
        <ele>441</ele>
        <time>2011-08-28T11:20:40Z</time>
      </trkpt>
      <trkpt lat="45.37164" lon="1.40204">
        <ele>442</ele>
        <time>2011-08-28T11:20:43Z</time>
      </trkpt>
      <trkpt lat="45.37165" lon="1.40198">
        <ele>443</ele>
        <time>2011-08-28T11:20:47Z</time>
      </trkpt>
      <trkpt lat="45.37166" lon="1.40191">
        <ele>443</ele>
        <time>2011-08-28T11:20:53Z</time>
      </trkpt>
      <trkpt lat="45.37168" lon="1.40197">
        <ele>442</ele>
        <time>2011-08-28T11:21:04Z</time>
      </trkpt>
      <trkpt lat="45.37167" lon="1.40205">
        <ele>441</ele>
        <time>2011-08-28T11:21:06Z</time>
      </trkpt>
      <trkpt lat="45.37172" lon="1.40211">
        <ele>440</ele>
        <time>2011-08-28T11:21:08Z</time>
      </trkpt>
      <trkpt lat="45.37178" lon="1.4021">
        <ele>441</ele>
        <time>2011-08-28T11:21:11Z</time>
      </trkpt>
      <trkpt lat="45.37182" lon="1.40209">
        <ele>441</ele>
        <time>2011-08-28T11:21:13Z</time>
      </trkpt>
      <trkpt lat="45.37188" lon="1.4021">
        <ele>441</ele>
        <time>2011-08-28T11:21:16Z</time>
      </trkpt>
      <trkpt lat="45.37192" lon="1.40214">
        <ele>443</ele>
        <time>2011-08-28T11:21:20Z</time>
      </trkpt>
      <trkpt lat="45.37196" lon="1.40219">
        <ele>441</ele>
        <time>2011-08-28T11:21:23Z</time>
      </trkpt>
      <trkpt lat="45.37199" lon="1.40213">
        <ele>440</ele>
        <time>2011-08-28T11:21:31Z</time>
      </trkpt>
      <trkpt lat="45.37204" lon="1.40211">
        <ele>442</ele>
        <time>2011-08-28T11:21:40Z</time>
      </trkpt>
      <trkpt lat="45.3721" lon="1.40213">
        <ele>445</ele>
        <time>2011-08-28T11:21:44Z</time>
      </trkpt>
      <trkpt lat="45.37215" lon="1.40213">
        <ele>447</ele>
        <time>2011-08-28T11:21:46Z</time>
      </trkpt>
      <trkpt lat="45.3722" lon="1.40209">
        <ele>447</ele>
        <time>2011-08-28T11:21:48Z</time>
      </trkpt>
      <trkpt lat="45.37225" lon="1.40205">
        <ele>444</ele>
        <time>2011-08-28T11:21:50Z</time>
      </trkpt>
      <trkpt lat="45.3723" lon="1.40202">
        <ele>444</ele>
        <time>2011-08-28T11:21:52Z</time>
      </trkpt>
      <trkpt lat="45.37234" lon="1.40199">
        <ele>444</ele>
        <time>2011-08-28T11:21:54Z</time>
      </trkpt>
      <trkpt lat="45.37238" lon="1.40194">
        <ele>445</ele>
        <time>2011-08-28T11:21:56Z</time>
      </trkpt>
      <trkpt lat="45.37242" lon="1.40191">
        <ele>444</ele>
        <time>2011-08-28T11:21:58Z</time>
      </trkpt>
      <trkpt lat="45.37247" lon="1.40193">
        <ele>443</ele>
        <time>2011-08-28T11:22:01Z</time>
      </trkpt>
      <trkpt lat="45.3725" lon="1.402">
        <ele>442</ele>
        <time>2011-08-28T11:22:03Z</time>
      </trkpt>
      <trkpt lat="45.37252" lon="1.40208">
        <ele>444</ele>
        <time>2011-08-28T11:22:05Z</time>
      </trkpt>
      <trkpt lat="45.37255" lon="1.40214">
        <ele>445</ele>
        <time>2011-08-28T11:22:07Z</time>
      </trkpt>
      <trkpt lat="45.37255" lon="1.40221">
        <ele>441</ele>
        <time>2011-08-28T11:22:20Z</time>
      </trkpt>
    </trkseg>
  </trk>
</gpx>